<<back to data home page
Are we done with the rain this season? Stay in touch!! - DONATE ANY AMOUNT BY CLICKING THIS LINK!!!


    Month/Day/Year       Maximum   Minimum    Rel    Dew       Rainfall  Seasonal  Soil     Soil      Baro       Wind    Wind        Peak    Peak Gust  Evap     Leaf     Net
    and                  Air Temp  Air Temp   Hum    Point     Inches    Rainfall  Temp     Moisture  Pressure   Speed   Direction   Gust    Direction  Pan      Wetness  Radiation
    Local Time           Deg F     Deg F      %      Deg F               Inches    Deg F    dS/m      mbar       knots   comp deg    knots   comp deg   Inches   mV       W_m2
----------------------------------------------------------------------------------------------------------------------------------------------------------------------------------
   05/26/2017 15:40      69.0      68.5       46     47.0      0.00     18.28      72.9     0.36      1014.0     5       224         6       242        8.97     265      367.0
   05/26/2017 15:30      69.2      68.3       46     47.2      0.00     18.28      72.9     0.36      1015.0     4       178         6       235        8.97     265      465.2
   05/26/2017 15:20      68.5      67.7       47     47.2      0.00     18.28      73.1     0.36      1015.0     4       173         8       148        8.97     265      398.4
   05/26/2017 15:10      67.8      66.9       48     47.3      0.00     18.28      72.9     0.36      1015.0     5       166         8       142        8.97     265      454.1
   05/26/2017 15:00      68.1      67.4       48     47.6      0.00     18.28      72.9     0.36      1015.0     6       149         8       203        8.98     265      366.4
   05/26/2017 14:50      67.8      67.2       48     47.0      0.00     18.28      73.0     0.36      1015.0     5       176         7       212        8.98     265      341.1
   05/26/2017 14:40      67.2      66.3       48     46.4      0.00     18.28      72.7     0.36      1015.0     5       162        10       153        8.98     266      292.6
   05/26/2017 14:30      67.1      66.6       48     46.3      0.00     18.28      72.9     0.36      1015.0     6       161        11       153        8.98     265      265.8
   05/26/2017 14:20      67.4      66.7       47     46.4      0.00     18.28      72.9     0.36      1015.0     3       146         5       155        8.98     265      239.2
   05/26/2017 14:10      67.1      66.6       48     46.4      0.00     18.28      72.8     0.36      1015.0     5       138         6       132        8.98     266      224.7
   05/26/2017 14:00      67.6      67.1       47     46.4      0.00     18.28      72.9     0.36      1015.0     5       140         8       146        8.98     265      235.5
   05/26/2017 13:50      67.8      66.5       47     46.5      0.00     18.28      72.6     0.36      1015.0     4       199         7       223        8.98     266      257.7
   05/26/2017 13:40      67.0      66.5       48     46.4      0.00     18.28      72.8     0.36      1015.0     4       185         7       162        8.99     266      274.3
   05/26/2017 13:30      66.9      66.2       48     46.4      0.00     18.28      72.9     0.36      1015.0     4       166         7       165        8.99     266      264.9
   05/26/2017 13:20      67.7      66.9       47     46.6      0.00     18.28      72.9     0.36      1015.0     4       174         7       165        8.99     266      228.2
   05/26/2017 13:10      68.0      66.8       47     46.5      0.00     18.28      72.7     0.36      1015.0     3       123         5       178        8.99     266      266.1
   05/26/2017 13:00      67.4      66.4       48     46.4      0.00     18.28      72.5     0.36      1015.0     3       142         5       166        9.00     266      327.7
   05/26/2017 12:50      66.4      65.4       49     46.4      0.00     18.28      72.7     0.36      1015.0     4       183         6       211        9.00     266      338.0
   05/26/2017 12:40      65.5      64.8       51     46.3      0.00     18.28      73.0     0.36      1015.0     4       177         8       169        9.00     267      244.2
   05/26/2017 12:30      65.1      64.6       52     46.6      0.00     18.28      72.4     0.36      1015.0     5       180         6       142        9.00     267      204.3
   05/26/2017 12:20      64.8      64.3       53     47.3      0.00     18.28      73.0     0.36      1015.0     4       264         7       291        9.00     267      189.3
   05/26/2017 12:10      64.5      64.3       54     47.6      0.00     18.28      72.8     0.36      1015.0     4       251         6       262        9.00     267      189.0
   05/26/2017 12:00      64.5      63.7       55     47.6      0.00     18.28      72.9     0.36      1015.0     3       236         5       245        9.00     267      190.8
   05/26/2017 11:50      64.6      63.7       53     46.9      0.00     18.28      72.8     0.36      1015.0     4       212         6       178        9.01     267      159.8
   05/26/2017 11:40      64.7      64.0       52     46.0      0.00     18.28      72.7     0.36      1015.0     4       222         7       213        9.01     267      171.4
   05/26/2017 11:30      64.4      63.4       54     46.9      0.00     18.28      72.9     0.36      1015.0     4       194         7       170        9.01     267      184.4
   05/26/2017 11:20      63.6      63.1       55     47.0      0.00     18.28      72.7     0.36      1015.0     4       197         6       210        9.01     267      164.6
   05/26/2017 11:10      63.3      63.0       56     47.0      0.00     18.28      72.7     0.36      1015.0     4       223         6       201        9.01     267      146.7
   05/26/2017 11:00      63.4      62.4       56     47.3      0.00     18.28      72.8     0.36      1015.0     4       224         7       239        9.01     267      199.3
   05/26/2017 10:50      62.8      62.5       57     47.1      0.00     18.28      72.6     0.36      1015.0     3       192         5       196        9.01     267      228.1
   05/26/2017 10:40      63.4      62.6       57     47.3      0.00     18.28      72.8     0.36      1015.0     4       224         7       271        9.01     267      205.4
   05/26/2017 10:30      63.5      62.2       57     47.2      0.00     18.28      73.1     0.36      1015.0     4       238         6       208        9.01     267      253.2
   05/26/2017 10:20      62.8      62.3       57     47.1      0.00     18.28      73.1     0.36      1015.0     3       225         7       249        9.01     267      234.5
   05/26/2017 10:10      62.9      62.5       57     47.1      0.00     18.28      73.2     0.36      1015.0     3       130         5       147        9.01     267      213.4
   05/26/2017 10:00      62.5      61.5       58     47.0      0.00     18.28      72.8     0.36      1015.0     3       174         5       195        9.02     267      204.2
   05/26/2017 09:50      61.6      61.1       58     46.6      0.00     18.28      73.0     0.36      1015.0     3       170         5       186        9.02     267      179.6
   05/26/2017 09:40      61.8      61.2       59     47.0      0.00     18.28      73.0     0.36      1015.0     4       179         7       158        9.02     267      166.2
   05/26/2017 09:30      61.8      61.0       59     47.1      0.00     18.28      73.1     0.36      1015.0     3       142         5       177        9.02     267      170.7
   05/26/2017 09:20      60.9      60.7       60     47.1      0.00     18.28      72.8     0.36      1015.0     3       143         5       168        9.02     268      160.0
   05/26/2017 09:10      60.9      60.3       61     47.3      0.00     18.28      73.2     0.36      1015.0     3       156         5       195        9.02     267      157.1
   05/26/2017 09:00      60.5      60.0       62     47.2      0.00     18.28      72.9     0.36      1015.0     4       136         6       163        9.02     268      147.9
   05/26/2017 08:50      60.4      59.4       64     47.7      0.00     18.28      73.1     0.36      1015.0     3       174         6       158        9.02     268      125.2
   05/26/2017 08:40      59.6      59.3       65     47.9      0.00     18.28      73.1     0.36      1015.0     4       173         5       135        9.02     268      110.8
   05/26/2017 08:30      59.5      59.2       66     48.0      0.00     18.28      73.1     0.36      1015.0     4       141         5       139        9.02     268       99.7
   05/26/2017 08:20      59.2      58.7       67     48.1      0.00     18.28      73.0     0.36      1015.0     4       171         5       122        9.02     268       86.0
   05/26/2017 08:10      59.0      58.7       68     48.4      0.00     18.28      73.2     0.36      1014.0     3       188         5       197        9.02     268       75.2
   05/26/2017 08:00      58.9      58.5       70     48.8      0.00     18.28      73.4     0.36      1014.0     2       154         2       155        9.03     268       66.9
   05/26/2017 07:50      58.6      58.0       70     48.7      0.00     18.28      73.1     0.36      1014.0     2       246         2       240        9.03     268       60.5
   05/26/2017 07:40      58.2      58.0       71     48.6      0.00     18.28      73.3     0.36      1014.0     2       229         2       201        9.03     268       55.8
   05/26/2017 07:30      58.3      57.8       71     48.9      0.00     18.28      73.1     0.36      1014.0     1       272         3       254        9.03     268       49.5
   05/26/2017 07:20      58.1      57.7       72     49.0      0.00     18.28      73.2     0.36      1014.0     2       324         3       327        9.03     268       39.7
   05/26/2017 07:10      57.7      57.5       73     49.1      0.00     18.28      73.5     0.36      1014.0     1       267         3       290        9.03     268       30.8
   05/26/2017 07:00      57.5      57.2       74     49.2      0.00     18.28      73.3     0.37      1014.0     2       253         2       282        9.03     268       17.9
   05/26/2017 06:50      57.2      57.0       75     49.1      0.00     18.28      73.0     0.37      1014.0     2       234         3       218        9.03     268        8.5
   05/26/2017 06:40      57.2      56.9       75     49.2      0.00     18.28      73.3     0.37      1014.0     1       237         2       264        9.03     268        0.6
   05/26/2017 06:30      56.9      56.7       76     49.2      0.00     18.28      73.2     0.37      1014.0     2       241         3       249        9.03     268       -5.4
   05/26/2017 06:20      56.8      56.7       76     49.3      0.00     18.28      73.4     0.37      1014.0     2       271         3       251        9.03     268      -10.8
   05/26/2017 06:10      56.9      56.4       77     49.4      0.00     18.28      73.7     0.37      1014.0     3       241         3       228        9.03     268      -14.7
   05/26/2017 06:00      57.0      56.6       77     49.6      0.00     18.28      73.6     0.37      1014.0     2       234         3       216        9.03     268      -17.4
   05/26/2017 05:50      56.9      56.6       77     49.5      0.00     18.28      73.3     0.37      1014.0     2       255         3       232        9.03     268      -19.1
   05/26/2017 05:40      56.8      56.6       77     49.6      0.00     18.28      73.1     0.37      1013.0     2       234         3       254        9.04     268      -20.0
   05/26/2017 05:30      57.0      56.8       77     49.8      0.00     18.28      73.3     0.37      1013.0     2       254         2       232        9.04     268      -20.6
   05/26/2017 05:20      57.0      56.7       77     49.8      0.00     18.28      73.4     0.37      1013.0     2       275         3       266        9.04     268      -20.7
   05/26/2017 05:10      56.9      56.6       77     49.7      0.00     18.28      73.5     0.37      1013.0     2       281         3       259        9.04     268      -20.7
   05/26/2017 05:00      56.8      56.6       77     49.7      0.00     18.28      73.6     0.37      1013.0     2       299         3       297        9.04     268      -20.5
   05/26/2017 04:50      56.9      56.6       77     49.6      0.00     18.28      73.8     0.37      1013.0     2       303         3       290        9.04     268      -20.6
   05/26/2017 04:40      56.8      56.5       77     49.5      0.00     18.28      73.9     0.37      1013.0     2       250         3       297        9.04     268      -21.6
   05/26/2017 04:30      56.8      56.4       77     49.6      0.00     18.28      73.6     0.37      1013.0     2       252         4       262        9.04     268      -22.6
   05/26/2017 04:20      56.8      56.6       77     49.7      0.00     18.28      73.7     0.37      1013.0     3       240         4       248        9.04     268      -21.7
   05/26/2017 04:10      56.6      56.4       78     49.7      0.00     18.28      74.0     0.37      1013.0     2       262         3       254        9.04     268      -21.1
   05/26/2017 04:00      56.8      56.4       78     49.8      0.00     18.28      74.0     0.37      1013.0     2       267         3       248        9.04     268      -20.8
   05/26/2017 03:50      56.6      56.3       79     49.9      0.00     18.28      74.3     0.37      1013.0     2       304         4       309        9.04     268      -20.1
   05/26/2017 03:40      56.6      56.4       78     49.8      0.00     18.28      74.0     0.37      1013.0     2       288         3       276        9.05     268      -19.4
   05/26/2017 03:30      56.7      56.6       78     49.7      0.00     18.28      74.0     0.37      1013.0     1       177         2       267        9.05     268      -19.2
   05/26/2017 03:20      56.8      56.6       78     49.9      0.00     18.28      73.7     0.37      1013.0     1        79         1        67        9.05     268      -19.3
   05/26/2017 03:10      56.8      56.4       77     49.5      0.00     18.28      74.0     0.37      1013.0     1       239         3       207        9.05     268      -19.5
   05/26/2017 03:00      57.0      56.5       75     48.8      0.00     18.28      74.0     0.37      1013.0     2       174         3       161        9.05     268      -19.3
   05/26/2017 02:50      57.0      56.9       74     48.6      0.00     18.28      74.1     0.37      1013.0     1       118         2       183        9.05     268      -18.7
   05/26/2017 02:40      56.9      56.5       74     48.4      0.00     18.28      74.1     0.37      1013.0     1       112         3       111        9.05     268      -18.8
   05/26/2017 02:30      56.6      56.4       75     48.7      0.00     18.28      74.0     0.37      1013.0     3       196         4       207        9.06     267      -19.2
   05/26/2017 02:20      57.0      56.7       75     49.0      0.00     18.28      74.1     0.37      1013.0     3       167         6       143        9.06     267      -19.2
   05/26/2017 02:10      57.0      56.6       76     49.2      0.00     18.28      73.9     0.37      1013.0     2       190         5       174        9.06     267      -19.7
   05/26/2017 02:00      57.0      56.6       76     49.5      0.00     18.28      74.2     0.37      1013.0     4       180         5       176        9.06     267      -19.9
   05/26/2017 01:50      57.4      57.1       74     49.2      0.00     18.28      74.3     0.37      1013.0     4       186         6       180        9.06     267      -19.8
   05/26/2017 01:40      57.7      57.4       73     48.9      0.00     18.28      74.2     0.37      1013.0     2       192         4       205        9.07     267      -19.5
   05/26/2017 01:30      57.6      57.4       72     48.6      0.00     18.28      74.3     0.37      1013.0     3       176         4       197        9.07     267      -19.7
   05/26/2017 01:20      57.6      57.5       71     48.1      0.00     18.28      74.3     0.37      1013.0     3       188         5       194        9.07     267      -19.8
   05/26/2017 01:10      58.0      57.7       68     47.4      0.00     18.28      74.1     0.37      1013.0     3       183         5       195        9.07     267      -20.0
   05/26/2017 01:00      58.1      57.8       65     46.3      0.00     18.28      74.3     0.37      1013.0     4       182         6       189        9.07     267      -20.0
   05/26/2017 00:50      58.0      57.7       65     46.3      0.00     18.28      74.4     0.37      1013.0     3       174         5       177        9.07     267      -20.7
   05/26/2017 00:40      58.0      57.8       65     46.4      0.00     18.28      74.3     0.37      1013.0     3       186         5       167        9.07     267      -21.5
   05/26/2017 00:30      58.1      58.0       64     46.0      0.00     18.28      74.0     0.37      1013.0     2       172         4       151        9.07     267      -21.7
   05/26/2017 00:20      58.1      57.9       66     46.7      0.00     18.28      74.2     0.37      1013.0     3       144         4       108        9.07     267      -22.2
   05/26/2017 00:10      58.0      57.7       67     47.1      0.00     18.28      74.1     0.37      1013.0     3       151         5       141        9.07     267      -21.7
   05/26/2017 00:00      58.0      57.5       70     48.0      0.00     18.28      74.6     0.37      1013.0     2       139         3       184        9.07     267      -21.5
   05/25/2017 23:50      57.7      57.4       72     48.5      0.00     18.28      74.5     0.37      1013.0     3       150         4       136        9.07     267      -22.4
   05/25/2017 23:40      57.6      57.4       72     48.7      0.00     18.28      74.3     0.37      1013.0     3       155         4       147        9.08     267      -22.6
   05/25/2017 23:30      57.6      57.4       73     48.8      0.00     18.28      74.7     0.37      1013.0     3       156         4       153        9.08     267      -21.9
   05/25/2017 23:20      57.6      57.4       73     48.8      0.00     18.28      74.9     0.37      1013.0     2       185         5       199        9.08     267      -21.9
   05/25/2017 23:10      57.5      57.3       72     48.5      0.00     18.28      74.5     0.37      1013.0     2       192         4       190        9.08     267      -21.6
   05/25/2017 23:00      57.6      57.4       71     48.3      0.00     18.28      74.8     0.37      1013.0     2       173         4       185        9.08     267      -21.6
   05/25/2017 22:50      57.6      57.4       71     48.1      0.00     18.28      74.4     0.37      1013.0     2       107         2        97        9.08     267      -21.7
   05/25/2017 22:40      57.6      57.2       71     48.0      0.00     18.28      74.5     0.37      1013.0     1       143         2       102        9.08     267      -21.6
   05/25/2017 22:30      57.2      56.9       72     48.1      0.00     18.28      74.6     0.37      1013.0     2       210         4       210        9.08     267      -21.8
   05/25/2017 22:20      57.0      56.8       72     48.2      0.00     18.28      75.1     0.37      1012.0     3       170         5       168        9.08     267      -22.4
   05/25/2017 22:10      57.2      56.9       71     47.9      0.00     18.28      74.8     0.37      1012.0     3       170         6       178        9.08     267      -23.4
   05/25/2017 22:00      57.4      57.1       71     48.0      0.00     18.28      74.9     0.37      1012.0     3       182         4       158        9.08     267      -22.9
   05/25/2017 21:50      57.5      57.4       71     48.3      0.00     18.28      74.8     0.37      1012.0     3       186         4       173        9.08     267      -23.8
   05/25/2017 21:40      57.7      57.3       72     48.3      0.00     18.28      74.8     0.37      1012.0     3       183         5       187        9.08     267      -26.6
   05/25/2017 21:30      57.5      57.3       72     48.4      0.00     18.28      75.2     0.37      1012.0     4       176         5       173        9.08     267      -27.0
   05/25/2017 21:20      57.6      57.4       72     48.5      0.00     18.28      74.7     0.37      1012.0     3       178         4       137        9.08     267      -28.1
   05/25/2017 21:10      57.7      57.5       71     48.4      0.00     18.28      74.9     0.37      1012.0     2       196         3       196        9.08     267      -31.4
   05/25/2017 21:00      57.7      57.5       71     48.4      0.00     18.28      75.0     0.37      1011.0     3       172         5       198        9.08     267      -30.7
   05/25/2017 20:50      57.8      57.5       71     48.4      0.00     18.28      74.7     0.37      1011.0     2       158         4       143        9.08     267      -26.6
   05/25/2017 20:40      57.6      57.4       72     48.4      0.00     18.28      75.3     0.37      1011.0     4       154         7       157        9.08     267      -27.6
   05/25/2017 20:30      57.6      57.4       72     48.4      0.00     18.28      75.0     0.37      1011.0     3       176         5       172        9.08     266      -31.7
   05/25/2017 20:20      57.6      57.4       71     48.3      0.00     18.28      74.8     0.37      1011.0     4       165         6       166        9.08     266      -45.3
   05/25/2017 20:10      57.9      57.6       70     48.1      0.00     18.28      74.4     0.37      1011.0     4       158         5       144        9.08     266      -42.6
   05/25/2017 20:00      58.0      57.7       69     47.9      0.00     18.28      74.9     0.37      1011.0     4       177         6       160        9.08     266      -38.0
   05/25/2017 19:50      58.5      58.0       68     47.6      0.00     18.28      75.2     0.37      1011.0     4       188         7       171        9.08     266      -47.0
   05/25/2017 19:40      58.7      58.4       67     47.7      0.00     18.28      75.0     0.37      1011.0     4       163         8       153        9.08     266      -53.2
   05/25/2017 19:30      59.5      58.8       66     47.6      0.00     18.28      75.0     0.37      1011.0     5       179        11       184        9.08     266      -61.4
   05/25/2017 19:20      60.3      59.4       64     47.5      0.00     18.28      75.1     0.37      1010.0     4       175         7       176        9.08     265      -65.9
   05/25/2017 19:10      61.4      60.6       61     47.5      0.00     18.28      75.2     0.37      1010.0     4       184         7       217        9.08     265      -29.8
   05/25/2017 19:00      62.4      61.5       59     47.4      0.00     18.28      75.2     0.37      1010.0     5       176         8       163        9.08     265        4.6
   05/25/2017 18:50      63.0      62.3       56     47.0      0.00     18.28      75.1     0.37      1010.0     5       146         9       149        9.08     265       29.8
   05/25/2017 18:40      63.8      62.7       55     46.5      0.00     18.28      75.0     0.37      1010.0     6       146         8       127        9.08     265       22.9
   05/25/2017 18:30      64.2      63.5       53     46.4      0.00     18.28      75.0     0.37      1010.0     6       147         9       152        9.08     265       55.3
   05/25/2017 18:20      65.3      64.4       51     46.5      0.00     18.28      75.1     0.37      1010.0     4       183         6       181        9.08     264       86.5
   05/25/2017 18:10      65.7      64.9       51     46.5      0.00     18.28      75.3     0.37      1010.0     5       165         8       160        9.08     265      128.4
   05/25/2017 18:00      65.3      64.6       51     46.4      0.00     18.28      75.2     0.37      1010.0     5       166         8       190        9.08     265      151.4
   05/25/2017 17:50      65.4      64.9       50     46.1      0.00     18.28      74.9     0.37      1010.0     5       149         8       131        9.08     265      178.2
   05/25/2017 17:40      66.1      65.5       49     46.1      0.00     18.28      75.2     0.37      1010.0     6       152         8       160        9.08     265      202.4
   05/25/2017 17:30      66.8      65.8       48     46.1      0.00     18.28      75.1     0.37      1010.0     6       155         8       179        9.08     265      226.0
   05/25/2017 17:20      66.6      65.7       49     46.1      0.00     18.28      75.0     0.37      1010.0     5       165         8       147        9.08     265      248.6
   05/25/2017 17:10      66.3      65.5       48     45.9      0.00     18.28      75.1     0.37      1010.0     5       168         9       217        9.08     266      273.4
   05/25/2017 17:00      66.3      65.3       48     45.9      0.00     18.28      75.3     0.37      1010.0     5       145         7       135        9.08     266      297.9
   05/25/2017 16:50      67.3      65.7       48     45.8      0.00     18.28      75.1     0.37      1010.0     5       137         9       147        9.08     265      321.7
   05/25/2017 16:40      67.4      66.9       46     46.0      0.00     18.28      75.2     0.37      1010.0     5       141        10       164        9.08     266      350.2
   05/25/2017 16:30      67.4      65.7       47     45.9      0.00     18.28      75.3     0.37      1010.0     5       138         8       121        9.08     266      372.8
   05/25/2017 16:20      67.1      66.2       47     46.0      0.00     18.28      75.0     0.37      1010.0     6       113         9       124        9.08     267      404.3
   05/25/2017 16:10      67.2      66.0       47     46.1      0.00     18.28      74.8     0.37      1010.0     6       172         9       147        9.08     267      529.4
   05/25/2017 16:00      66.5      65.4       48     46.0      0.00     18.28      75.0     0.37      1010.0     6       173         9       181        9.08     269      437.6
   05/25/2017 15:50      66.6      65.3       49     46.3      0.00     18.28      74.9     0.37      1011.0     4       163         6       212        9.08     278      270.6
   05/25/2017 15:40      66.4      65.3       49     46.0      0.00     18.28      74.9     0.37      1011.0     4       139         8       141        9.08     299      296.8
   05/25/2017 15:30      66.5      65.9       48     46.2      0.00     18.28      75.1     0.37      1011.0     4        87         6        97        9.08     321      282.8
   05/25/2017 15:20      65.7      64.9       50     46.2      0.00     18.28      75.4     0.37      1011.0     4       143         8       134        9.08     361      315.3
   05/25/2017 15:10      65.6      64.3       51     46.5      0.00     18.28      75.2     0.37      1011.0     3       113         7       156        9.08     400      337.1
   05/25/2017 15:00      65.8      64.5       51     46.4      0.00     18.28      75.1     0.37      1011.0     5       153         8       145        9.08     431      199.3
   05/25/2017 14:50      66.3      64.9       50     46.6      0.00     18.28      75.3     0.37      1011.0     5       154         8       130        9.08     492      615.1
   05/25/2017 14:40      66.3      64.3       52     47.0      0.00     18.28      75.1     0.37      1011.0     3       133         6       130        9.08     502      417.3
   05/25/2017 14:30      65.0      64.3       53     47.0      0.00     18.28      75.2     0.36      1011.0     4       143         8       186        9.08     538      310.1
   05/25/2017 14:20      64.8      63.7       53     46.9      0.00     18.28      75.1     0.36      1011.0     4       100         5       131        8.07     266      254.5
   05/25/2017 14:10      63.9      63.3       53     46.4      0.00     18.28      75.0     0.37      1011.0     3       168         6       118        8.07     266      237.1
   05/25/2017 14:00      63.3      62.8       54     46.4      0.00     18.28      75.2     0.37      1011.0     3       139         5       128        8.07     266      215.5
   05/25/2017 13:50      63.6      63.3       54     46.6      0.00     18.28      75.2     0.37      1011.0     3       101         6       143        8.07     266      170.3
   05/25/2017 13:40      63.6      62.3       56     46.8      0.00     18.28      75.1     0.37      1012.0     4        81         6        70        8.07     266      162.3
   05/25/2017 13:30      63.3      62.7       56     46.9      0.00     18.28      75.1     0.37      1012.0     4       108         5        59        8.07     266      153.3
   05/25/2017 13:20      63.7      62.6       54     46.6      0.00     18.28      75.3     0.37      1012.0     3       193         7       199        8.07     266      172.6
   05/25/2017 13:10      63.6      63.1       54     46.5      0.00     18.28      75.2     0.37      1012.0     3       175         8       160        8.07     266      232.6
   05/25/2017 13:00      63.2      61.8       56     46.3      0.00     18.28      75.1     0.37      1012.0     4       161         7       163        8.07     266      231.1
   05/25/2017 12:50      63.2      62.3       55     46.4      0.00     18.28      75.0     0.37      1012.0     4       162         6       177        8.07     265      226.6
   05/25/2017 12:40      63.2      62.5       55     46.6      0.00     18.28      75.3     0.37      1012.0     5       141         9       167        8.07     266      290.3
   05/25/2017 12:30      62.4      61.4       57     46.4      0.00     18.28      75.3     0.37      1012.0     4       138         7       147        8.07     266      263.1
   05/25/2017 12:20      62.2      61.5       57     46.6      0.00     18.28      75.3     0.37      1012.0     4       129         6       134        8.08     266      209.1
   05/25/2017 12:10      61.9      61.3       57     46.2      0.00     18.28      75.3     0.37      1012.0     5       162         6       107        8.08     265      209.6
   05/25/2017 12:00      62.8      61.9       55     46.0      0.00     18.28      75.0     0.37      1012.0     4       126         7       146        8.08     266      208.0
   05/25/2017 11:50      62.6      61.8       55     45.6      0.00     18.28      75.3     0.37      1012.0     5       156        10       157        8.08     266      254.0
   05/25/2017 11:40      62.4      61.2       56     46.0      0.00     18.28      75.4     0.37      1012.0     3       117         8       166        8.08     266      223.5
   05/25/2017 11:30      61.6      61.3       56     45.7      0.00     18.28      75.2     0.37      1012.0     5       141         8       136        8.08     266      192.9
   05/25/2017 11:20      61.9      61.1       56     45.7      0.00     18.28      75.4     0.37      1012.0     6       124         7       131        8.08     266      218.5
   05/25/2017 11:10      61.7      60.8       56     45.5      0.00     18.28      75.3     0.37      1012.0     5       133         9       130        8.08     266      328.0
   05/25/2017 11:00      61.1      60.7       58     45.8      0.00     18.28      75.4     0.37      1012.0     5       122         7       136        8.08     266      249.2
   05/25/2017 10:50      61.1      60.2       59     45.9      0.00     18.28      75.5     0.37      1012.0     3       103         6       119        8.08     266      184.0
   05/25/2017 10:40      60.6      59.9       60     46.4      0.00     18.28      75.6     0.37      1012.0     4        96         6       115        8.08     266      137.3
   05/25/2017 10:30      60.3      59.9       61     46.5      0.00     18.28      75.9     0.37      1012.0     3       210         5       216        8.08     266      147.1
   05/25/2017 10:20      60.3      59.8       60     46.4      0.00     18.28      75.6     0.37      1012.0     2       135         4       158        8.08     266      179.0
   05/25/2017 10:10      60.0      59.4       61     46.3      0.00     18.28      75.5     0.37      1012.0     3       105         6       111        8.08     266      154.1
   05/25/2017 10:00      59.6      59.1       62     46.5      0.00     18.28      75.3     0.37      1012.0     4       135         6       143        8.08     266      147.0
   05/25/2017 09:50      59.3      58.7       63     46.6      0.00     18.28      75.6     0.37      1012.0     4       135         6       130        8.09     266       93.8
   05/25/2017 09:40      59.2      58.6       63     46.6      0.00     18.28      75.5     0.37      1012.0     3       119         5       142        8.09     266       67.4
   05/25/2017 09:30      58.7      58.4       64     46.4      0.00     18.28      75.5     0.37      1012.0     2       161         4       188        8.09     266       72.3
   05/25/2017 09:20      59.2      58.7       64     46.6      0.00     18.28      75.6     0.37      1012.0     3       138         4       135        8.09     266       76.0
   05/25/2017 09:10      58.8      58.1       65     46.5      0.00     18.28      75.8     0.37      1011.0     3        78         6       140        8.09     267       75.6
   05/25/2017 09:00      58.5      58.0       65     46.7      0.00     18.28      75.7     0.37      1011.0     3       114         5       173        8.09     266       64.0
   05/25/2017 08:50      58.6      57.8       66     46.7      0.00     18.28      75.9     0.37      1011.0     2        76         4        74        8.10     266       55.4
   05/25/2017 08:40      58.0      57.5       66     46.5      0.00     18.28      75.6     0.37      1011.0     3       136         6       157        8.11     266       58.8
   05/25/2017 08:30      57.7      57.4       66     46.4      0.00     18.28      76.1     0.37      1011.0     3       123         6       154        8.11     267       53.6
   05/25/2017 08:20      57.5      57.2       67     46.4      0.00     18.28      75.7     0.37      1011.0     2       121         4       134        8.11     267       39.6
   05/25/2017 08:10      57.4      56.9       67     46.3      0.00     18.28      75.5     0.37      1011.0     3       106         5       124        8.11     267       37.6
   05/25/2017 08:00      57.0      56.6       69     46.7      0.00     18.28      75.9     0.37      1011.0     3       102         5        92        8.11     267       30.3
   05/25/2017 07:50      57.0      56.8       69     46.8      0.00     18.28      76.1     0.37      1011.0     4       122         6       131        8.11     267       12.0
   05/25/2017 07:40      57.1      56.7       69     46.8      0.00     18.28      75.9     0.37      1011.0     3       114         6       144        8.11     266        6.7
   05/25/2017 07:30      56.9      56.6       69     46.8      0.00     18.28      76.0     0.37      1011.0     4       127         6        80        8.11     267        4.3
   05/25/2017 07:20      56.8      56.7       69     46.8      0.00     18.28      76.1     0.37      1011.0     5       128         7       146        8.11     267        1.6
   05/25/2017 07:10      56.9      56.6       70     47.0      0.00     18.28      76.1     0.37      1011.0     5       141         6       134        8.11     266       -0.1
   05/25/2017 07:00      56.9      56.6       69     46.9      0.00     18.28      76.3     0.37      1011.0     4       143         6       125        8.11     266       -2.9
   05/25/2017 06:50      56.8      56.5       70     46.8      0.00     18.28      76.3     0.37      1011.0     3       142         4       168        8.11     266       -6.5
   05/25/2017 06:40      56.6      56.4       69     46.7      0.00     18.28      76.2     0.37      1011.0     4       143         6       130        8.11     266       -9.5
   05/25/2017 06:30      56.6      56.3       70     46.6      0.00     18.28      76.2     0.37      1011.0     2       165         4       153        8.11     266      -11.8
   05/25/2017 06:20      56.6      56.3       69     46.4      0.00     18.28      76.4     0.37      1011.0     4       158         5       157        8.11     266      -13.5
   05/25/2017 06:10      56.6      56.3       69     46.4      0.00     18.28      76.4     0.37      1011.0     3       142         5       166        8.11     266      -15.3
   05/25/2017 06:00      56.4      56.1       70     46.5      0.00     18.28      76.4     0.37      1011.0     4       130         6       126        8.11     266      -16.8
   05/25/2017 05:50      56.5      56.3       70     46.7      0.00     18.28      76.6     0.37      1011.0     4       143         7       131        8.11     266      -18.1
   05/25/2017 05:40      56.6      56.3       70     46.9      0.00     18.28      76.6     0.37      1011.0     3       112         4       129        8.12     266      -18.1
   05/25/2017 05:30      56.6      56.3       71     47.1      0.00     18.28      76.3     0.37      1011.0     4       110         6       127        8.12     266      -18.5
   05/25/2017 05:20      56.7      56.5       71     47.1      0.00     18.28      76.5     0.37      1011.0     3       138         5       156        8.12     266      -18.9
   05/25/2017 05:10      56.6      56.4       71     47.3      0.00     18.28      76.3     0.37      1011.0     3       136         4       137        8.12     266      -19.0
   05/25/2017 05:00      56.6      56.3       71     47.3      0.00     18.28      76.7     0.37      1011.0     4       144         4       134        8.12     266      -18.8
   05/25/2017 04:50      56.8      56.5       71     47.4      0.00     18.28      76.7     0.37      1010.0     2       122         4       145        8.12     266      -18.6
   05/25/2017 04:40      56.6      56.3       72     47.4      0.00     18.28      76.7     0.37      1011.0     3       119         4       149        8.13     266      -18.4
   05/25/2017 04:30      56.6      56.4       72     47.5      0.00     18.28      76.5     0.37      1010.0     4       134         6       126        8.13     266      -18.5
   05/25/2017 04:20      56.6      56.4       72     47.5      0.00     18.28      76.8     0.37      1010.0     4       156         6       135        8.13     266      -18.4
   05/25/2017 04:10      56.7      56.5       71     47.4      0.00     18.28      77.0     0.37      1010.0     3       137         5       154        8.13     266      -18.8
   05/25/2017 04:00      56.6      56.5       71     47.4      0.00     18.28      76.8     0.37      1010.0     2       129         4       131        8.13     266      -18.8
   05/25/2017 03:50      56.8      56.5       71     47.3      0.00     18.28      76.7     0.37      1010.0     3       140         6       149        8.13     266      -18.9
   05/25/2017 03:40      56.8      56.4       70     47.1      0.00     18.28      77.0     0.37      1010.0     2       101         3       129        8.13     266      -18.9
   05/25/2017 03:30      56.5      56.3       70     46.9      0.00     18.28      76.7     0.37      1010.0     2       143         3       143        8.13     266      -18.9
   05/25/2017 03:20      56.4      56.1       70     46.7      0.00     18.28      76.9     0.37      1010.0     3       165         4       189        8.13     266      -18.8
   05/25/2017 03:10      56.4      56.0       71     46.8      0.00     18.28      76.8     0.37      1010.0     3       148         4       140        8.13     266      -18.9
   05/25/2017 03:00      56.2      56.0       71     46.8      0.00     18.28      76.8     0.37      1011.0     3       146         6       179        8.13     266      -18.9
   05/25/2017 02:50      56.4      56.0       71     47.0      0.00     18.28      77.1     0.37      1011.0     4       137         7       140        8.14     266      -18.9
   05/25/2017 02:40      56.5      56.1       72     47.4      0.00     18.28      77.2     0.37      1011.0     4       129         6       140        8.14     266      -19.3
   05/25/2017 02:30      56.3      56.0       73     47.5      0.00     18.28      77.0     0.37      1010.0     4       132         5       131        8.14     266      -19.1
   05/25/2017 02:20      56.3      56.0       73     47.7      0.00     18.28      77.2     0.37      1011.0     3       134         6       148        8.17     266      -19.3
   05/25/2017 02:10      56.1      55.8       74     47.9      0.00     18.28      77.1     0.37      1011.0     3       137         5       138        8.18     266      -18.8
   05/25/2017 02:00      56.0      55.7       75     48.2      0.00     18.28      77.3     0.37      1011.0     2       123         6       147        8.18     266      -18.4
   05/25/2017 01:50      56.0      55.7       75     48.2      0.00     18.28      77.0     0.37      1011.0     5       104         7       125        8.18     266      -18.1
   05/25/2017 01:40      56.2      55.6       76     48.3      0.00     18.28      77.0     0.37      1011.0     3       124         6       132        8.18     266      -18.1
   05/25/2017 01:30      55.7      55.5       77     48.6      0.00     18.28      77.5     0.37      1011.0     4       128         6       137        8.19     265      -18.0
   05/25/2017 01:20      55.8      55.4       79     49.2      0.00     18.28      77.7     0.37      1011.0     4       105         5       114        8.19     265      -17.8
   05/25/2017 01:10      55.8      55.5       80     49.5      0.00     18.28      77.3     0.37      1011.0     3        83         5        81        8.19     265      -17.7
   05/25/2017 01:00      55.8      55.6       81     49.8      0.00     18.28      77.3     0.37      1011.0     3       115         7       100        8.19     266      -17.4
   05/25/2017 00:50      55.8      55.5       81     49.9      0.00     18.28      77.3     0.37      1011.0     3        78         6        87        8.19     266      -17.1
   05/25/2017 00:40      55.8      55.5       82     50.2      0.00     18.28      77.5     0.37      1011.0     4       111         7        96        8.19     265      -17.0
   05/25/2017 00:30      56.0      55.5       82     50.4      0.00     18.28      77.4     0.37      1011.0     4       104         6       123        8.19     265      -16.8
   05/25/2017 00:20      55.9      55.5       82     50.4      0.00     18.28      77.3     0.37      1011.0     3       119         5       143        8.19     265      -16.4
   05/25/2017 00:10      56.1      55.9       82     50.5      0.00     18.28      77.5     0.37      1011.0     4       132         9        98        8.20     265      -16.4
   05/25/2017 00:00      56.1      55.9       82     50.4      0.00     18.28      77.7     0.37      1011.0     4        91         7        93        8.20     265      -16.0
   05/24/2017 23:50      56.1      55.9       81     50.3      0.00     18.28      77.5     0.37      1011.0     4        90         6        63        8.20     265      -15.6
   05/24/2017 23:40      56.1      55.7       81     50.1      0.00     18.28      77.6     0.37      1011.0     4       107         5       102        8.20     265      -18.8
   05/24/2017 23:30      56.1      55.9       80     49.8      0.00     18.28      77.6     0.37      1011.0     4        84         5        74        8.20     265      -60.5
   05/24/2017 23:20      56.5      56.0       78     49.6      0.00     18.28      77.8     0.37      1011.0     3        78         4        71        8.20     265      -47.5
   05/24/2017 23:10      56.5      56.5       79     50.0      0.00     18.28      77.4     0.37      1011.0     2        69         4        74        8.20     265      -41.3
   05/24/2017 23:00      56.6      56.3       80     50.4      0.00     18.28      77.7     0.37      1010.0     3        25         3        20        8.20     265      -74.1
   05/24/2017 22:50      56.5      55.9       79     49.9      0.00     18.28      78.0     0.37      1010.0     2        34         3        31        8.20     265      -74.9
   05/24/2017 22:40      56.0      55.9       78     49.2      0.00     18.28      77.6     0.37      1010.0     1       212         1       213        8.20     265      -74.5
   05/24/2017 22:30      56.5      55.9       77     49.1      0.00     18.28      77.7     0.37      1010.0     1       170         1       233        8.20     265      -75.9
   05/24/2017 22:20      56.6      56.5       77     49.4      0.00     18.28      77.7     0.37      1010.0     1       212         1       236        8.20     265      -76.7
   05/24/2017 22:10      57.1      56.8       76     49.4      0.00     18.28      77.9     0.37      1010.0     2       174         2       156        8.21     265      -78.4
   05/24/2017 22:00      57.1      56.9       75     49.4      0.00     18.28      77.7     0.37      1010.0     1       156         2       141        8.21     265      -79.3
   05/24/2017 21:50      57.4      57.0       75     49.4      0.00     18.28      77.6     0.37      1010.0     2       156         3       162        8.21     265      -80.7
   05/24/2017 21:40      57.6      57.5       75     49.6      0.00     18.28      77.6     0.37      1010.0     2       146         3       153        8.21     265      -81.8
   05/24/2017 21:30      57.9      57.6       75     49.9      0.00     18.28      77.8     0.37      1010.0     3       154         3       159        8.21     264      -82.2
   05/24/2017 21:20      58.3      58.1       76     50.5      0.00     18.28      77.8     0.37      1009.0     2       154         3       115        8.22     265      -82.9
   05/24/2017 21:10      58.8      58.4       76     50.8      0.00     18.28      77.7     0.37      1009.0     3       179         5       171        8.22     264      -82.6
   05/24/2017 21:00      59.5      58.9       75     51.1      0.00     18.28      77.7     0.37      1009.0     3       166         4       168        8.22     264      -83.2
   05/24/2017 20:50      60.4      59.4       73     51.2      0.00     18.28      77.7     0.37      1009.0     3       158         4       136        8.22     264      -83.6
   05/24/2017 20:40      61.3      60.7       70     51.3      0.00     18.28      77.7     0.37      1009.0     2       106         5       130        8.22     264      -84.8
   05/24/2017 20:30      62.3      61.3       69     51.3      0.00     18.28      77.6     0.37      1009.0     4       122         6       129        8.22     264      -84.7
   05/24/2017 20:20      63.3      62.3       66     51.4      0.00     18.28      77.5     0.37      1008.0     4       144         7       149        8.23     264      -86.0
   05/24/2017 20:10      64.7      63.6       64     51.8      0.00     18.28      77.7     0.37      1008.0     5       164         8       155        8.23     264      -85.9
   05/24/2017 20:00      66.3      64.9       62     52.1      0.00     18.28      77.6     0.37      1008.0     4       153         6       162        8.24     264      -85.2
   05/24/2017 19:50      68.0      66.6       58     52.3      0.00     18.28      77.5     0.37      1008.0     3       145         4       132        8.26     264      -83.4
   05/24/2017 19:40      69.3      68.1       56     52.3      0.00     18.28      77.5     0.37      1008.0     3        76         5        19        8.26     264      -78.8
   05/24/2017 19:30      70.7      69.5       53     52.0      0.00     18.28      77.7     0.37      1008.0     3        20         4       358        8.26     263      -66.7
   05/24/2017 19:20      72.3      71.2       50     52.2      0.00     18.28      77.5     0.37      1008.0     3        28         5        28        8.26     263      -51.2
   05/24/2017 19:10      72.5      72.2       49     52.1      0.00     18.28      77.5     0.37      1008.0     4         9         6       351        8.27     263      -32.2
   05/24/2017 19:00      73.8      72.6       48     52.4      0.00     18.28      77.5     0.37      1008.0     4       360         8         8        8.27     263      -12.1
   05/24/2017 18:50      74.4      74.1       47     52.6      0.00     18.28      77.5     0.37      1008.0     3       199         5        21        8.27     263       12.1
   05/24/2017 18:40      74.5      74.0       45     51.5      0.00     18.28      77.3     0.37      1008.0     4       190         6       179        8.28     263       36.7
   05/24/2017 18:30      74.9      74.5       44     51.1      0.00     18.28      77.3     0.37      1008.0     5       158         8       148        8.28     263       62.3
   05/24/2017 18:20      76.0      75.3       37     47.8      0.00     18.28      77.3     0.37      1008.0     7       159        11       158        8.29     263       86.7
   05/24/2017 18:10      76.6      76.2       33     45.2      0.00     18.28      77.2     0.37      1008.0     6       169         8       153        8.30     263      109.8
   05/24/2017 18:00      77.7      77.1       36     48.0      0.00     18.28      77.3     0.37      1008.0     5       187         7       187        8.30     263      131.8
   05/24/2017 17:50      78.5      77.5       38     50.4      0.00     18.28      77.1     0.37      1008.0     6       169         8       158        8.31     263      155.2
   05/24/2017 17:40      80.2      78.7       36     50.0      0.00     18.28      77.1     0.37      1008.0     5       178         6       172        8.31     263      179.5
   05/24/2017 17:30      81.3      80.4       34     49.5      0.00     18.28      77.1     0.37      1008.0     4       142         5       132        8.32     264      203.0
   05/24/2017 17:20      81.5      80.8       33     49.5      0.00     18.28      77.0     0.37      1008.0     4       184         6       212        8.32     264      224.1
   05/24/2017 17:10      81.4      80.7       33     48.9      0.00     18.28      77.0     0.37      1008.0     4       175         6       191        8.33     264      246.4
   05/24/2017 17:00      81.2      80.5       32     48.2      0.00     18.28      76.9     0.37      1008.0     5       183         7       208        8.33     264      269.2
   05/24/2017 16:50      80.9      80.2       32     47.6      0.00     18.28      76.7     0.37      1008.0     6       152         8       136        8.34     263      294.3
   05/24/2017 16:40      81.5      80.0       32     47.9      0.00     18.28      76.7     0.37      1008.0     6       168         8       172        8.34     264      316.1
   05/24/2017 16:30      81.9      80.9       29     46.5      0.00     18.28      76.7     0.37      1008.0     6       154         8       132        8.35     263      337.0
   05/24/2017 16:20      82.5      81.9       27     45.2      0.00     18.28      76.5     0.37      1008.0     5       202         8       151        8.36     264      354.6
   05/24/2017 16:10      81.4      80.7       28     45.4      0.00     18.28      76.5     0.37      1008.0     4       212         7       195        8.37     264      377.0
   05/24/2017 16:00      82.1      81.4       27     44.8      0.00     18.28      76.4     0.37      1008.0     4       217         7       224        8.37     264      395.7
   05/24/2017 15:50      81.3      80.1       29     45.5      0.00     18.28      76.4     0.37      1008.0     2       260         6       219        8.38     264      417.0
   05/24/2017 15:40      80.2      78.6       31     46.4      0.00     18.28      76.3     0.37      1008.0     4       172         6       168        8.39     264      439.3
   05/24/2017 15:30      78.8      76.6       36     48.5      0.00     18.28      76.2     0.37      1009.0     7       163        10       142        8.39     264      463.6
   05/24/2017 15:20      77.6      76.4       39     49.9      0.00     18.28      76.2     0.37      1009.0    10       163        15       143        8.39     264      490.5
   05/24/2017 15:10      83.5      78.4       31     48.2      0.00     18.28      76.1     0.36      1009.0     9       165        13       180        8.41     264      458.7
   05/24/2017 15:00      85.8      83.8       25     45.3      0.00     18.28      76.1     0.36      1008.0     5        80         7        21        8.41     264      506.4
   05/24/2017 14:50      86.1      85.5       24     44.3      0.00     18.28      75.9     0.36      1009.0     5        41         6        70        8.41     264      517.6
   05/24/2017 14:40      86.2      85.7       24     44.9      0.00     18.28      75.9     0.36      1009.0     4        50         6        84        8.41     264      515.2
   05/24/2017 14:30      85.7      85.0       25     45.3      0.00     18.28      75.9     0.36      1009.0     5        43         7        40        8.43     264      570.9
   05/24/2017 14:20      85.8      85.0       26     46.7      0.00     18.28      75.9     0.36      1009.0     5        61         6        84        8.43     264      488.0
   05/24/2017 14:10      85.0      84.3       25     45.4      0.00     18.28      75.7     0.36      1009.0     4        47         7        75        8.44     264      539.0
   05/24/2017 14:00      84.6      83.4       26     45.1      0.00     18.28      75.8     0.36      1009.0     4        48         7        62        8.45     264      541.7
   05/24/2017 13:50      84.0      82.8       27     45.4      0.00     18.28      75.6     0.36      1010.0     4        55         6        68        8.46     264      503.1
   05/24/2017 13:40      83.0      82.4       29     47.3      0.00     18.28      75.5     0.36      1010.0     5        52         8        54        8.46     264      606.8
   05/24/2017 13:30      82.7      81.7       32     49.3      0.00     18.28      75.6     0.36      1010.0     4        44         7        74        8.47     264      530.6
   05/24/2017 13:20      82.4      81.7       33     50.5      0.00     18.28      75.5     0.36      1010.0     4        51         7        79        8.48     264      532.4
   05/24/2017 13:10      81.9      81.3       32     49.0      0.00     18.28      75.6     0.36      1010.0     4        54         7        67        8.48     264      603.0
   05/24/2017 13:00      81.9      80.4       35     50.7      0.00     18.28      75.5     0.36      1010.0     5        75         7        77        8.49     264      565.2
   05/24/2017 12:50      81.4      79.7       34     49.4      0.00     18.28      75.4     0.36      1010.0     4        71         9        78        8.49     265      598.6
   05/24/2017 12:40      80.9      79.8       36     50.6      0.00     18.28      75.4     0.36      1010.0     6        81         9        74        8.50     265      541.2
   05/24/2017 12:30      80.7      79.6       40     53.6      0.00     18.28      75.4     0.36      1010.0     3        38         5        25        8.50     265      534.4
   05/24/2017 12:20      79.9      78.2       42     53.8      0.00     18.28      75.5     0.36      1010.0     3        43         5        78        8.50     265      525.8
   05/24/2017 12:10      78.7      77.6       41     52.8      0.00     18.28      75.3     0.36      1011.0     4        63         8        89        8.51     265      621.0
   05/24/2017 12:00      77.9      77.0       42     52.9      0.00     18.28      75.2     0.36      1011.0     3        49         6        80        8.51     265      617.1
   05/24/2017 11:50      78.4      77.1       44     54.3      0.00     18.28      75.3     0.36      1011.0     4        17         7       358        8.51     266      607.2
   05/24/2017 11:40      77.5      76.3       45     54.3      0.00     18.28      75.3     0.36      1011.0     3        26         5        15        8.51     266      552.5
   05/24/2017 11:30      76.0      75.3       47     54.3      0.00     18.28      75.3     0.36      1011.0     3        51         6        77        8.51     266      612.1
   05/24/2017 11:20      76.3      75.4       49     55.3      0.00     18.28      75.6     0.36      1011.0     4        38         6        66        8.52     266      587.2
   05/24/2017 11:10      75.9      75.1       50     55.2      0.00     18.28      75.3     0.36      1011.0     3        31         5       355        8.52     266      557.8
   05/24/2017 11:00      75.3      74.4       49     54.6      0.00     18.28      75.3     0.36      1011.0     3        42         6        71        8.52     266      446.4
   05/24/2017 10:50      75.4      73.8       49     54.1      0.00     18.28      75.3     0.36      1011.0     3        38         4        36        8.52     266      561.9
   05/24/2017 10:40      74.3      72.1       51     54.2      0.00     18.28      75.6     0.36      1011.0     3        34         4        28        8.53     267      539.4
   05/24/2017 10:30      72.2      71.7       52     53.2      0.00     18.28      75.7     0.36      1011.0     3        13         4        63        8.53     267      502.3
   05/24/2017 10:20      72.2      70.3       53     53.2      0.00     18.28      75.9     0.36      1011.0     2        34         3       139        8.53     267      382.1
   05/24/2017 10:10      70.4      69.6       56     53.7      0.00     18.28      75.7     0.36      1011.0     3        52         4        23        8.53     267      456.3
   05/24/2017 10:00      70.0      69.2       57     53.9      0.00     18.28      75.7     0.37      1011.0     2        41         4        47        8.54     267      461.8
   05/24/2017 09:50      69.1      67.9       59     53.6      0.00     18.28      75.4     0.37      1012.0     2       109         4       102        8.54     267      440.1
   05/24/2017 09:40      68.2      66.8       62     54.0      0.00     18.28      75.6     0.37      1012.0     4        13         5       332        8.54     267      419.1
   05/24/2017 09:30      67.4      66.6       63     54.0      0.00     18.28      75.6     0.37      1012.0     2         6         4        10        8.54     267      399.1
   05/24/2017 09:20      66.7      65.5       65     53.8      0.00     18.28      76.1     0.37      1012.0     3        38         5        91        8.54     267      379.0
   05/24/2017 09:10      65.5      64.4       68     54.1      0.00     18.28      75.7     0.37      1012.0     3        23         5         8        8.54     267      362.3
   05/24/2017 09:00      64.6      64.3       68     53.8      0.00     18.28      75.8     0.37      1012.0     3        27         5        24        8.54     267      349.0
   05/24/2017 08:50      64.4      62.2       71     53.9      0.00     18.28      75.7     0.37      1012.0     2        45         3       105        8.55     267      351.3
   05/24/2017 08:40      62.0      61.6       74     53.6      0.00     18.28      75.8     0.37      1012.0     2        54         4        98        8.55     267      224.1
   05/24/2017 08:30      61.7      61.0       75     53.4      0.00     18.28      75.8     0.37      1012.0     3        71         4        72        8.55     267      -18.9
   05/24/2017 08:20      61.0      60.8       77     53.5      0.00     18.28      76.0     0.37      1012.0     3        14         4         7        8.55     267      -17.8
   05/24/2017 08:10      60.8      60.4       77     53.4      0.00     18.28      76.0     0.37      1012.0     3        34         4        37        8.55     267      -15.8
   05/24/2017 08:00      60.7      60.4       77     53.2      0.00     18.28      76.1     0.37      1012.0     3        45         5        91        8.55     267        6.1
   05/24/2017 07:50      60.7      59.8       77     52.8      0.00     18.28      76.0     0.37      1012.0     3        51         6        93        8.56     267       59.5
   05/24/2017 07:40      59.9      59.4       77     52.3      0.00     18.28      76.1     0.37      1012.0     3        41         5        74        8.56     267       12.1
   05/24/2017 07:30      59.6      59.3       77     52.1      0.00     18.28      76.2     0.37      1012.0     3        21         4        23        8.56     267        9.8
   05/24/2017 07:20      59.5      58.8       77     51.9      0.00     18.28      76.0     0.37      1012.0     2        21         2        32        8.56     267       16.8
   05/24/2017 07:10      58.9      57.8       78     51.7      0.00     18.28      76.2     0.37      1012.0     1        72         3        71        8.56     267       20.3
   05/24/2017 07:00      57.9      57.0       81     51.3      0.00     18.28      76.0     0.37      1012.0     1       100         1       121        8.57     267       26.6
   05/24/2017 06:50      57.3      56.0       83     51.4      0.00     18.28      76.1     0.37      1012.0     1       222         1       216        8.57     266       14.8
   05/24/2017 06:40      56.0      55.7       83     50.9      0.00     18.28      76.1     0.37      1011.0     1       106         1       104        8.57     266       -3.0
   05/24/2017 06:30      56.0      55.3       84     50.9      0.00     18.28      76.2     0.37      1011.0     1       150         1       182        8.57     266      -11.5
   05/24/2017 06:20      55.6      55.2       85     51.0      0.00     18.28      76.5     0.37      1011.0     1       303         2        10        8.57     266      -12.4
   05/24/2017 06:10      55.2      54.5       87     51.1      0.00     18.28      76.5     0.37      1011.0     1       193         1       165        8.58     266      -13.3
   05/24/2017 06:00      54.6      54.5       87     50.7      0.00     18.28      76.8     0.37      1011.0     0         5         1        98        8.58     266      -19.4
   05/24/2017 05:50      54.8      54.3       87     50.9      0.00     18.28      76.2     0.37      1011.0     1       149         2       173        8.58     266      -22.7
   05/24/2017 05:40      55.1      54.6       87     51.1      0.00     18.28      76.4     0.37      1011.0     1       126         2       153        8.58     266      -26.8
   05/24/2017 05:30      55.0      54.7       87     51.0      0.00     18.28      76.5     0.37      1011.0     1       152         2       152        8.58     266      -28.9
   05/24/2017 05:20      55.9      54.9       85     50.8      0.00     18.28      76.6     0.37      1011.0     2       163         3       162        8.58     266      -30.4
   05/24/2017 05:10      56.6      56.0       84     51.5      0.00     18.28      76.7     0.37      1011.0     1       148         2       163        8.59     266      -30.4
   05/24/2017 05:00      56.5      55.8       85     51.6      0.00     18.28      76.7     0.37      1011.0     1       122         2       118        8.59     266      -31.7
   05/24/2017 04:50      56.3      56.0       85     51.7      0.00     18.28      76.8     0.37      1011.0     1       150         2       145        8.59     266      -33.1
   05/24/2017 04:40      56.2      55.6       86     51.5      0.00     18.28      76.6     0.37      1011.0     1       133         3       122        8.60     266      -34.9
   05/24/2017 04:30      56.2      55.8       85     51.6      0.00     18.28      76.8     0.37      1011.0     1       136         1       133        8.60     266      -37.0
   05/24/2017 04:20      56.1      56.0       85     51.7      0.00     18.28      77.0     0.37      1011.0     1       151         1       146        8.60     266      -40.4
   05/24/2017 04:10      56.1      55.5       85     51.6      0.00     18.28      77.0     0.37      1011.0     1       165         1       122        8.61     266      -42.7
   05/24/2017 04:00      56.6      55.7       83     51.1      0.00     18.28      77.0     0.37      1011.0     1       115         2       131        8.61     265      -45.6
   05/24/2017 03:50      56.9      56.5       84     52.0      0.00     18.28      77.0     0.37      1011.0     1       141         2       131        8.61     265      -44.3
   05/24/2017 03:40      56.9      56.5       84     51.9      0.00     18.28      77.0     0.37      1011.0     1        88         1       142        8.61     265      -47.6
   05/24/2017 03:30      56.5      56.0       85     51.9      0.00     18.28      77.3     0.37      1011.0     1       235         2       186        8.61     265      -49.9
   05/24/2017 03:20      57.1      56.3       84     51.9      0.00     18.28      77.2     0.38      1011.0     2       156         2       153        8.61     265      -51.7
   05/24/2017 03:10      57.4      57.0       83     52.3      0.00     18.28      77.5     0.37      1011.0     1       143         2       145        8.61     265      -52.4
   05/24/2017 03:00      57.5      57.3       84     52.5      0.00     18.28      77.3     0.38      1011.0     1       145         2       145        8.62     265      -55.5
   05/24/2017 02:50      57.5      57.3       83     52.4      0.00     18.28      77.3     0.38      1011.0     1       146         2       142        8.62     265      -58.7
   05/24/2017 02:40      58.0      57.5       82     52.2      0.00     18.28      77.4     0.38      1011.0     2       138         2       146        8.62     265      -60.2
   05/24/2017 02:30      58.1      57.8       81     52.2      0.00     18.28      77.4     0.38      1012.0     1       182         2       196        8.62     265      -59.4
   05/24/2017 02:20      58.0      57.7       82     52.3      0.00     18.28      77.6     0.38      1012.0     1       104         1       110        8.62     265      -60.3
   05/24/2017 02:10      58.6      58.1       81     52.4      0.00     18.28      77.2     0.38      1012.0     1        98         1       130        8.62     265      -62.1
   05/24/2017 02:00      58.7      58.5       81     52.6      0.00     18.28      77.6     0.38      1012.0     1       167         1       148        8.62     265      -62.6
   05/24/2017 01:50      58.9      58.6       81     52.8      0.00     18.28      77.7     0.38      1012.0     1       180         1       192        8.62     265      -64.0
   05/24/2017 01:40      58.8      58.4       80     52.4      0.00     18.28      77.7     0.38      1012.0     1       141         2       131        8.74     265      -66.4
   05/24/2017 01:30      59.8      59.1       78     52.8      0.00     18.28      77.9     0.38      1012.0     2       164         3       135        8.76     265      -67.2
   05/24/2017 01:20      59.8      59.6       79     53.3      0.00     18.28      77.8     0.38      1012.0     1       148         1       153        8.76     265      -66.3
   05/24/2017 01:10      59.8      59.4       79     53.0      0.00     18.28      77.6     0.38      1012.0     1       135         1       142        8.77     265      -67.7
   05/24/2017 01:00      60.0      59.7       78     53.0      0.00     18.28      77.8     0.38      1012.0     1       161         2       180        8.77     265      -67.7
   05/24/2017 00:50      60.1      59.7       77     53.0      0.00     18.28      77.8     0.38      1013.0     1       142         2       155        8.77     265      -69.0
   05/24/2017 00:40      61.0      60.2       76     53.0      0.00     18.28      77.7     0.38      1013.0     2       168         2       190        8.78     265      -68.8
   05/24/2017 00:30      61.5      60.9       75     53.4      0.00     18.28      77.9     0.38      1013.0     1       143         2       173        8.78     265      -69.0
   05/24/2017 00:20      61.7      61.4       74     53.3      0.00     18.28      77.8     0.38      1013.0     1       123         1       111        8.78     265      -69.8
   05/24/2017 00:10      62.0      61.7       74     53.4      0.00     18.28      78.0     0.38      1013.0     1       133         1       133        8.78     265      -70.5
   05/24/2017 00:00      61.9      61.6       74     53.3      0.00     18.28      77.9     0.38      1013.0     1       111         2       100        8.79     265      -71.2
   05/23/2017 23:50      62.0      61.7       73     53.3      0.00     18.28      77.9     0.38      1013.0     1       121         2       128        8.79     265      -72.3
   05/23/2017 23:40      62.0      61.9       73     53.3      0.00     18.28      78.0     0.38      1013.0     1       126         2       125        8.79     264      -73.4
   05/23/2017 23:30      62.6      62.1       72     53.3      0.00     18.28      77.7     0.38      1013.0     1       116         1       124        8.80     264      -75.0
   05/23/2017 23:20      62.9      62.3       71     53.1      0.00     18.28      78.0     0.38      1013.0     2       110         2       104        8.80     264      -78.0
   05/23/2017 23:10      63.8      63.3       69     53.3      0.00     18.28      78.1     0.38      1013.0     2       115         2       123        8.80     264      -80.9
   05/23/2017 23:00      64.3      64.0       68     53.4      0.00     18.28      77.8     0.38      1013.0     2        66         3        99        8.80     264      -82.7
   05/23/2017 22:50      64.3      64.0       68     53.5      0.00     18.28      77.9     0.38      1013.0     2        50         2        68        8.80     264      -83.4
   05/23/2017 22:40      64.7      64.3       67     53.4      0.00     18.28      77.9     0.38      1013.0     2        72         3        58        8.80     264      -83.9
   05/23/2017 22:30      65.3      64.9       66     53.3      0.00     18.28      78.1     0.38      1013.0     2        48         2        36        8.80     264      -84.7
   05/23/2017 22:20      66.3      65.5       64     53.5      0.00     18.28      78.0     0.38      1013.0     2        60         2        26        8.80     264      -86.7
   05/23/2017 22:10      66.7      66.2       63     53.6      0.00     18.28      78.1     0.37      1013.0     2        55         3        75        8.80     264      -88.9
   05/23/2017 22:00      67.3      66.7       63     53.8      0.00     18.28      78.0     0.38      1013.0     2        64         3       105        8.80     264      -91.1
   05/23/2017 21:50      68.3      67.4       61     53.7      0.00     18.28      78.0     0.38      1012.0     2        58         4        80        8.80     263      -92.1
   05/23/2017 21:40      69.5      68.4       59     53.9      0.00     18.28      78.0     0.38      1012.0     2        68         3        53        8.81     263      -93.8
   05/23/2017 21:30      71.0      69.8       56     54.1      0.00     18.28      77.9     0.38      1012.0     3        67         4        70        8.81     263      -93.6
   05/23/2017 21:20      72.9      71.3       53     53.9      0.00     18.28      78.0     0.38      1012.0     2        57         5        79        8.81     262      -93.1
   05/23/2017 21:10      74.1      73.0       36     44.2      0.00     18.28      78.0     0.37      1012.0     2        70         3        87        8.81     262      -89.2
   05/23/2017 21:00      75.0      74.5       20     31.1      0.00     18.28      78.0     0.38      1012.0     1       140         3        71        8.81     261      -85.8
   05/23/2017 20:50      76.8      75.4       19     30.9      0.00     18.28      78.0     0.37      1011.0     1        51         1        36        8.81     261      -89.3
   05/23/2017 20:40      78.4      77.1       17     30.1      0.00     18.28      78.0     0.37      1011.0     1        97         2        73        8.81     261      -93.0
   05/23/2017 20:30      79.1      78.5       16     29.0      0.00     18.28      78.1     0.37      1011.0     1       206         2       238        8.81     261      -95.4
   05/23/2017 20:20      80.2      79.1       16     28.9      0.00     18.28      78.0     0.37      1011.0     2       230         4       242        8.82     261      -98.6
   05/23/2017 20:10      80.7      80.2       16     30.0      0.00     18.28      77.9     0.37      1011.0     4       241         6       243        8.82     261      -99.4
   05/23/2017 20:00      81.9      80.9       18     33.3      0.00     18.28      77.9     0.37      1011.0     3       206         5       211        8.82     261     -100.6
   05/23/2017 19:50      83.8      82.1       18     35.7      0.00     18.28      77.8     0.37      1011.0     3       225         4       234        8.82     261     -100.7
   05/23/2017 19:40      85.8      84.1       16     33.7      0.00     18.28      77.9     0.37      1011.0     3       257         5       250        8.82     261      -98.6
   05/23/2017 19:30      87.0      85.9       15     33.1      0.00     18.28      77.8     0.37      1011.0     3       271         4       263        8.82     261      -89.1
   05/23/2017 19:20      87.7      86.8       15     33.2      0.00     18.28      77.8     0.37      1011.0     4       291         6       277        8.82     261      -65.1
   05/23/2017 19:10      88.0      87.7       15     34.0      0.00     18.28      77.6     0.37      1011.0     4       291         5       245        8.82     261      -49.2
   05/23/2017 19:00      88.4      88.0       14     33.8      0.00     18.28      77.7     0.37      1011.0     4       300         7       307        8.83     261      -24.3
   05/23/2017 18:50      88.7      88.4       14     34.0      0.00     18.28      77.7     0.37      1011.0     4       303         7       314        8.83     261       -1.0
   05/23/2017 18:40      89.4      88.7       14     33.8      0.00     18.28      77.6     0.37      1011.0     6       302         8       324        8.83     261       23.8
   05/23/2017 18:30      90.0      89.6       14     34.2      0.00     18.28      77.6     0.37      1011.0     5       301        10       307        8.84     261       50.0
   05/23/2017 18:20      90.2      89.9       14     34.4      0.00     18.28      77.4     0.37      1011.0     5       316         8       267        8.84     261       74.9
   05/23/2017 18:10      90.6      90.1       14     34.8      0.00     18.28      77.5     0.37      1011.0     7       311         8       304        8.84     261       99.9
   05/23/2017 18:00      91.3      90.4       14     35.0      0.00     18.28      77.4     0.37      1011.0     6       310         9       319        8.84     261      123.4
   05/23/2017 17:50      91.6      91.1       13     34.0      0.00     18.28      77.2     0.37      1011.0     5       302        10       311        8.84     261      148.7
   05/23/2017 17:40      91.9      91.3       13     33.1      0.00     18.28      77.1     0.37      1011.0     6       305         9       300        8.84     261      172.8
   05/23/2017 17:30      91.9      91.2       13     33.8      0.00     18.28      77.2     0.37      1011.0     7       315        11       315        8.85     262      195.8
   05/23/2017 17:20      92.3      91.3       13     34.7      0.00     18.28      77.3     0.37      1011.0     7       311        10       323        8.85     262      218.1
   05/23/2017 17:10      92.9      91.7       14     35.7      0.00     18.28      77.0     0.37      1011.0     4       290         6       312        8.85     262      240.8
   05/23/2017 17:00      92.4      91.8       14     36.6      0.00     18.28      77.0     0.37      1011.0     6       276         9       289        8.85     262      263.8
   05/23/2017 16:50      92.6      91.8       15     37.1      0.00     18.28      77.0     0.37      1011.0     5       302         8       327        8.85     262      285.5
   05/23/2017 16:40      92.3      91.6       16     38.5      0.00     18.28      76.7     0.37      1011.0     5       285         9       342        8.85     262      307.4
   05/23/2017 16:30      92.9      91.7       17     40.6      0.00     18.28      76.7     0.37      1012.0     6       292         7       307        8.85     262      328.1
   05/23/2017 16:20      91.8      91.3       17     41.0      0.00     18.28      76.7     0.37      1012.0     5       295         8       274        8.86     263      351.5
   05/23/2017 16:10      92.8      91.3       19     43.8      0.00     18.28      76.6     0.37      1012.0     6       290         9       310        8.86     262      371.3
   05/23/2017 16:00      93.4      92.3       13     35.4      0.00     18.28      76.5     0.37      1012.0     7       251        10       237        8.86     262      390.2
   05/23/2017 15:50      92.2      91.7       14     36.2      0.00     18.28      76.4     0.37      1012.0     6       237         7       268        8.86     262      410.0
   05/23/2017 15:40      92.2      91.6       15     37.6      0.00     18.28      76.3     0.37      1012.0     7       236        10       245        8.86     263      428.1
   05/23/2017 15:30      91.9      90.8       16     38.8      0.00     18.28      76.1     0.37      1012.0     6       236         9       230        8.87     262      446.0
   05/23/2017 15:20      91.1      89.7       16     38.9      0.00     18.28      76.2     0.37      1012.0     6       215         9       204        8.87     263      462.9
   05/23/2017 15:10      90.8      90.2       19     43.2      0.00     18.28      76.0     0.36      1012.0     7       210         9       217        8.87     263      477.3
   05/23/2017 15:00      90.5      89.5       21     44.5      0.00     18.28      76.0     0.36      1013.0     7       240        14       180        8.87     263      491.0
   05/23/2017 14:50      90.3      89.4       25     49.5      0.00     18.28      75.9     0.36      1013.0     6       216         9       196        8.88     263      505.8
   05/23/2017 14:40      90.5      89.3       24     48.1      0.00     18.28      75.8     0.36      1013.0     8       208        11       215        8.88     263      518.4
   05/23/2017 14:30      90.6      89.5       23     47.6      0.00     18.28      75.8     0.36      1013.0     7       206         9       206        8.89     263      529.7
   05/23/2017 14:20      91.1      89.5       23     47.7      0.00     18.28      75.7     0.36      1013.0     5       228        11       255        8.89     263      539.1
   05/23/2017 14:10      89.7      89.0       25     49.0      0.00     18.28      75.7     0.36      1013.0     5       241         7       239        8.90     264      547.5
   05/23/2017 14:00      89.5      87.9       28     51.8      0.00     18.28      75.5     0.36      1013.0     5       252         9       242        8.90     264      552.6
   05/23/2017 13:50      87.9      87.0       30     52.1      0.00     18.28      75.3     0.36      1013.0     7       228        10       250        8.90     264      566.1
   05/23/2017 13:40      88.0      87.2       31     52.8      0.00     18.28      75.5     0.36      1013.0     8       225        10       215        8.91     264      575.0
   05/23/2017 13:30      90.0      87.9       30     53.7      0.00     18.28      75.4     0.36      1013.0     8       226        12       250        8.91     264      575.8
   05/23/2017 13:20      89.0      88.0       31     54.1      0.00     18.28      75.2     0.36      1013.0     5       305         7       320        8.91     264      576.7
   05/23/2017 13:10      90.2      88.6       30     54.1      0.00     18.28      75.3     0.36      1013.0     6       326         9       341        8.91     264      578.5
   05/23/2017 13:00      91.6      90.9       29     54.5      0.00     18.28      75.2     0.36      1013.0     4       308         6       336        8.92     264      584.7
   05/23/2017 12:50      91.9      91.0       28     53.5      0.00     18.28      75.2     0.36      1013.0     5       286        11       287        8.92     264      592.1
   05/23/2017 12:40      92.9      91.8       27     53.6      0.00     18.28      75.1     0.36      1013.0     4       238         8       261        8.91     264      599.1
   05/23/2017 12:30      91.4      90.2       28     53.0      0.00     18.28      75.0     0.36      1013.0     5       228         8       193        8.91     264      610.8
   05/23/2017 12:20      90.2      89.5       29     53.3      0.00     18.28      74.9     0.36      1013.0     5       197         9       169        8.92     264      601.4
   05/23/2017 12:10      90.3      89.4       29     53.9      0.00     18.28      75.1     0.36      1013.0     6       175         9       151        8.92     265      593.1
   05/23/2017 12:00      92.9      89.7       29     54.3      0.00     18.28      75.0     0.36      1013.0     6       178         8       185        8.92     265      550.5
   05/23/2017 11:50      92.8      90.8       26     51.8      0.00     18.28      74.9     0.36      1013.0     3         8         5       359        8.92     265      533.0
   05/23/2017 11:40      91.1      90.0       27     51.8      0.00     18.28      75.3     0.36      1013.0     3         6         5       350        8.92     265      539.9
   05/23/2017 11:30      89.8      88.2       28     51.5      0.00     18.28      74.9     0.36      1013.0     3       335         5         6        8.92     266      573.5
   05/23/2017 11:20      88.5      87.7       29     51.8      0.00     18.28      75.0     0.36      1013.0     3       345         4         2        8.80     266      563.6
   05/23/2017 11:10      87.8      86.3       30     51.9      0.00     18.28      74.8     0.36      1013.0     2        22         3         5        8.80     266      544.6
   05/23/2017 11:00      86.5      85.8       31     51.9      0.00     18.28      75.3     0.36      1013.0     2        90         4        78        8.80     266      534.1
   05/23/2017 10:50      86.2      85.1       31     51.9      0.00     18.28      75.1     0.36      1013.0     2         7         3         4        8.80     266      524.1
   05/23/2017 10:40      84.8      83.9       33     52.0      0.00     18.28      75.2     0.36      1013.0     2        32         4        34        8.80     266      510.8
   05/23/2017 10:30      83.6      83.0       34     52.2      0.00     18.28      75.0     0.36      1013.0     3        37         3        72        8.80     267      496.6
   05/23/2017 10:20      83.2      81.5       35     52.4      0.00     18.28      75.1     0.36      1013.0     2        96         4       127        8.80     267      483.4
   05/23/2017 10:10      81.4      80.4       38     53.1      0.00     18.28      75.2     0.36      1013.0     2         9         5       353        8.80     267      468.3
   05/23/2017 10:00      80.5      79.5       40     53.5      0.00     18.28      75.5     0.37      1014.0     2        20         4       356        8.80     267      453.7
   05/23/2017 09:50      79.9      79.5       40     53.5      0.00     18.28      75.1     0.37      1014.0     2        42         4       352        8.80     267      437.4
   05/23/2017 09:40      79.5      78.1       41     53.4      0.00     18.28      74.9     0.37      1014.0     2        20         3        63        8.80     267      421.4
   05/23/2017 09:30      78.1      76.8       43     53.0      0.00     18.28      75.1     0.37      1014.0     1        40         3        13        8.79     268      394.9
   05/23/2017 09:20      76.6      75.8       45     53.3      0.00     18.28      75.3     0.37      1014.0     2       328         3       348        8.34     268      376.5
   05/23/2017 09:10      75.9      74.2       47     53.3      0.00     18.28      75.2     0.37      1014.0     2        22         4       354        8.34     268      376.4
   05/23/2017 09:00      74.2      72.7       50     53.5      0.00     18.28      75.5     0.37      1014.0     2       360         4       351        8.34     268      363.2
   05/23/2017 08:50      72.5      71.3       52     53.4      0.00     18.28      75.6     0.37      1014.0     2       351         3       359        8.34     268      362.5
   05/23/2017 08:40      71.2      70.1       56     53.9      0.00     18.28      75.3     0.37      1014.0     2        26         3        22        8.34     268      246.5
   05/23/2017 08:30      70.0      68.9       57     53.6      0.00     18.28      75.6     0.37      1014.0     2       347         3       349        8.36     268      -22.4
   05/23/2017 08:20      69.0      68.2       59     53.4      0.00     18.28      75.6     0.37      1014.0     1       313         2        20        8.36     268      -20.8
   05/23/2017 08:10      68.2      67.3       60     53.2      0.00     18.28      75.9     0.37      1014.0     1       260         3       257        8.36     268      -21.6
   05/23/2017 08:00      67.3      66.5       62     53.4      0.00     18.28      75.6     0.37      1014.0     2       278         3       242        8.37     268      -18.5
   05/23/2017 07:50      66.5      65.5       64     53.5      0.00     18.28      75.7     0.37      1014.0     1       266         2       231        8.37     268       13.1
   05/23/2017 07:40      65.5      64.8       66     53.6      0.00     18.28      75.8     0.37      1014.0     1       258         2       239        8.37     268      -19.3
   05/23/2017 07:30      65.0      64.0       68     53.6      0.00     18.28      75.9     0.37      1014.0     1       249         3       237        8.37     268      -25.7
   05/23/2017 07:20      63.8      63.1       70     53.4      0.00     18.28      75.9     0.37      1014.0     1       291         2       242        8.38     268      -26.4
   05/23/2017 07:10      63.1      61.9       71     53.1      0.00     18.28      75.8     0.37      1014.0     1       144         2       132        8.38     268      -24.4
   05/23/2017 07:00      62.0      61.0       74     52.9      0.00     18.28      75.8     0.37      1014.0     0       152         1        90        8.39     268      -26.6
   05/23/2017 06:50      61.1      59.9       76     52.7      0.00     18.28      75.9     0.37      1014.0     1       106         1       138        8.39     268      -29.6
   05/23/2017 06:40      60.0      59.4       77     52.3      0.00     18.28      76.0     0.37      1014.0     0        83         1        95        8.39     268      -32.4
   05/23/2017 06:30      59.6      58.8       79     52.5      0.00     18.28      75.8     0.37      1014.0     0       355         1       293        8.39     268      -36.4
   05/23/2017 06:20      58.8      58.2       81     52.6      0.00     18.28      76.4     0.37      1014.0     1        13         1       317        8.39     267      -37.4
   05/23/2017 06:10      58.2      57.4       83     52.5      0.00     18.28      76.3     0.37      1014.0     1       249         1       182        8.39     267      -36.6
   05/23/2017 06:00      57.6      57.4       83     52.3      0.00     18.28      76.2     0.37      1014.0     1       170         2       154        8.39     267      -41.3
   05/23/2017 05:50      57.6      56.9       84     52.3      0.00     18.28      76.1     0.37      1014.0     1       170         1       135        8.40     267      -43.8
   05/23/2017 05:40      57.4      57.0       83     52.0      0.00     18.28      76.1     0.37      1014.0     1       158         2       153        8.40     267      -48.0
   05/23/2017 05:30      57.5      57.4       82     52.0      0.00     18.28      76.5     0.37      1014.0     1       136         2       154        8.40     267      -51.8
   05/23/2017 05:20      57.7      57.4       82     52.1      0.00     18.28      76.7     0.37      1014.0     1       167         1       171        8.40     267      -52.8
   05/23/2017 05:10      57.7      57.4       82     52.2      0.00     18.28      76.2     0.37      1014.0     1       174         2       161        8.40     267      -54.2
   05/23/2017 05:00      57.9      57.6       82     52.2      0.00     18.28      76.6     0.38      1014.0     1       154         2       136        8.40     267      -55.1
   05/23/2017 04:50      58.1      57.9       82     52.4      0.00     18.28      76.2     0.38      1013.0     1       162         1       141        8.41     267      -55.2
   05/23/2017 04:40      58.0      57.6       81     52.1      0.00     18.28      76.3     0.37      1014.0     1       145         2       131        8.41     267      -56.8
   05/23/2017 04:30      58.0      57.7       81     52.2      0.00     18.28      76.7     0.37      1014.0     1       165         2       193        8.41     267      -56.8
   05/23/2017 04:20      58.0      57.7       81     52.0      0.00     18.28      76.6     0.38      1014.0     1       141         2       139        8.41     267      -57.8
   05/23/2017 04:10      58.5      57.9       79     51.8      0.00     18.28      76.5     0.38      1014.0     1       149         1       144        8.41     267      -58.4
   05/23/2017 04:00      58.8      58.4       79     52.0      0.00     18.28      76.9     0.38      1014.0     1       144         1       184        8.41     267      -58.5
   05/23/2017 03:50      59.0      58.5       80     52.3      0.00     18.28      76.5     0.38      1014.0     0       196         1       163        8.41     267      -58.5
   05/23/2017 03:40      58.3      58.0       80     52.0      0.00     18.28      76.5     0.38      1014.0     2       145         2       145        8.42     267      -59.5
   05/23/2017 03:30      58.5      58.2       79     52.0      0.00     18.28      76.8     0.38      1014.0     2       155         3       137        8.44     267      -60.1
   05/23/2017 03:20      58.9      58.3       78     51.8      0.00     18.28      76.5     0.38      1014.0     2       140         3       137        8.45     267      -60.1
   05/23/2017 03:10      59.5      59.1       77     52.1      0.00     18.28      76.9     0.38      1014.0     2       164         2       170        8.45     267      -60.4
   05/23/2017 03:00      59.7      59.4       77     52.2      0.00     18.28      77.0     0.38      1014.0     2       163         2       142        8.45     267      -61.3
   05/23/2017 02:50      59.8      59.4       76     52.1      0.00     18.28      76.9     0.38      1014.0     2       155         2       168        8.46     267      -61.1
   05/23/2017 02:40      60.3      59.9       75     52.2      0.00     18.28      76.8     0.38      1014.0     1       128         2       116        8.46     267      -62.7
   05/23/2017 02:30      60.4      60.2       74     52.1      0.00     18.28      76.8     0.38      1014.0     1       137         2       140        8.46     267      -63.9
   05/23/2017 02:20      61.0      60.5       73     52.0      0.00     18.28      76.8     0.38      1014.0     2       120         2       117        8.47     267      -64.8
   05/23/2017 02:10      61.4      61.0       71     51.9      0.00     18.28      77.0     0.38      1014.0     1       105         3       105        8.47     267      -66.2
   05/23/2017 02:00      61.3      61.0       71     51.8      0.00     18.28      77.1     0.38      1014.0     2        83         3        61        8.47     267      -66.9
   05/23/2017 01:50      61.7      61.4       70     51.7      0.00     18.28      77.2     0.38      1014.0     1        79         2        67        8.47     267      -67.8
   05/23/2017 01:40      62.2      61.7       70     52.0      0.00     18.28      76.9     0.38      1014.0     1        64         3        65        8.47     267      -68.7
   05/23/2017 01:30      62.5      62.2       70     52.4      0.00     18.28      77.1     0.38      1014.0     2        67         2        25        8.48     267      -69.4
   05/23/2017 01:20      62.6      62.4       71     53.0      0.00     18.28      77.1     0.38      1014.0     2        63         3        75        8.48     267      -68.8
   05/23/2017 01:10      63.0      62.6       72     53.5      0.00     18.28      77.1     0.38      1014.0     1        59         2        71        8.48     267      -68.8
   05/23/2017 01:00      63.3      62.9       71     53.6      0.00     18.28      77.2     0.38      1014.0     1        70         3        72        8.48     267      -68.4
   05/23/2017 00:50      63.5      63.3       70     53.5      0.00     18.28      76.9     0.38      1014.0     2        71         3        74        8.48     267      -68.5
   05/23/2017 00:40      63.9      63.5       69     53.4      0.00     18.28      77.0     0.38      1014.0     2        71         3        67        8.49     267      -67.9
   05/23/2017 00:30      64.3      63.8       69     53.5      0.00     18.28      77.0     0.38      1014.0     2        83         3        68        8.49     266      -66.4
   05/23/2017 00:20      64.8      64.1       68     53.6      0.00     18.28      77.4     0.38      1014.0     1       100         2        95        8.49     266      -67.2
   05/23/2017 00:10      65.3      64.8       67     53.6      0.00     18.28      77.3     0.38      1014.0     1        93         1        83        8.50     266      -68.1
   05/23/2017 00:00      65.6      65.2       66     53.9      0.00     18.28      77.2     0.38      1014.0     1        45         2        69        8.50     266      -69.5
   05/22/2017 23:50      66.1      65.7       66     54.2      0.00     18.28      77.3     0.38      1014.0     1        72         2        59        8.50     266      -70.9
   05/22/2017 23:40      66.4      66.1       65     54.1      0.00     18.28      77.2     0.38      1014.0     2        67         3        69        8.50     266      -71.9
   05/22/2017 23:30      67.0      66.5       63     53.9      0.00     18.28      77.4     0.38      1014.0     2        58         2        54        8.51     266      -72.2
   05/22/2017 23:20      67.4      67.2       62     54.1      0.00     18.28      77.2     0.38      1014.0     2        91         4        74        8.51     266      -72.9
   05/22/2017 23:10      67.9      67.5       62     54.1      0.00     18.28      77.3     0.38      1014.0     2        88         4        80        8.51     266      -74.0
   05/22/2017 23:00      68.3      68.1       61     54.2      0.00     18.28      77.4     0.38      1014.0     2        74         2       120        8.51     266      -74.8
   05/22/2017 22:50      68.6      68.3       61     54.3      0.00     18.28      77.5     0.38      1014.0     2        70         3        75        8.51     266      -74.4
   05/22/2017 22:40      69.2      68.6       60     54.3      0.00     18.28      77.4     0.38      1014.0     2        64         3        65        8.52     265      -72.5
   05/22/2017 22:30      70.1      69.3       59     54.6      0.00     18.28      77.4     0.38      1014.0     1        48         2        46        8.52     265      -72.0
   05/22/2017 22:20      70.3      70.1       58     54.9      0.00     18.28      77.4     0.38      1014.0     1        61         2        96        8.52     265      -72.6
   05/22/2017 22:10      70.9      70.4       57     54.9      0.00     18.28      77.3     0.38      1014.0     2        73         3        68        8.52     265      -73.0
   05/22/2017 22:00      71.5      70.9       56     55.0      0.00     18.28      77.5     0.38      1013.0     1        77         2        75        8.52     265      -74.2
   05/22/2017 21:50      72.4      71.7       53     54.1      0.00     18.28      77.5     0.38      1013.0     1        80         3        81        8.52     265      -74.7
   05/22/2017 21:40      73.5      72.6       49     52.9      0.00     18.28      77.5     0.38      1013.0     2        64         4        70        8.52     264      -73.9
   05/22/2017 21:30      73.9      73.4       43     49.6      0.00     18.28      77.5     0.38      1013.0     1        17         1       355        8.52     264      -74.3
   05/22/2017 21:20      74.4      73.5       40     48.1      0.00     18.28      77.3     0.38      1013.0     1       115         2       194        8.53     264      -75.8
   05/22/2017 21:10      75.9      74.9       38     47.8      0.00     18.28      77.3     0.38      1013.0     1       227         2        69        8.53     264      -76.1
   05/22/2017 21:00      77.0      75.9       32     44.7      0.00     18.28      77.4     0.38      1013.0     1        47         1        59        8.53     263      -80.2
   05/22/2017 20:50      78.1      77.4       30     44.3      0.00     18.28      77.3     0.38      1013.0     1        93         3        62        8.53     263      -84.8
   05/22/2017 20:40      78.3      78.0       30     44.5      0.00     18.28      77.3     0.38      1013.0     2       226         4       208        8.53     263      -85.5
   05/22/2017 20:30      78.6      78.4       30     44.6      0.00     18.28      77.2     0.37      1013.0     2       219         4       253        8.53     263      -87.5
   05/22/2017 20:20      79.2      78.8       30     44.9      0.00     18.28      77.3     0.37      1012.0     3       212         4       205        8.54     263      -89.7
   05/22/2017 20:10      80.0      79.2       30     45.3      0.00     18.28      77.3     0.37      1012.0     3       204         5       226        8.54     263      -89.9
   05/22/2017 20:00      80.9      79.9       29     45.0      0.00     18.28      77.2     0.38      1012.0     3       208         5       208        8.54     263      -90.4
   05/22/2017 19:50      81.9      81.1       27     44.5      0.00     18.28      77.2     0.37      1012.0     3       227         5       245        8.54     263      -88.8
   05/22/2017 19:40      83.5      82.1       26     44.2      0.00     18.28      77.2     0.37      1012.0     4       223         8       234        8.54     263      -86.6
   05/22/2017 19:30      85.3      83.6       25     44.7      0.00     18.28      77.2     0.37      1012.0     4       228         6       223        8.55     262      -74.0
   05/22/2017 19:20      86.7      85.7       24     45.7      0.00     18.28      77.0     0.37      1012.0     3       233         6       242        8.55     262      -57.5
   05/22/2017 19:10      87.6      86.8       23     45.3      0.00     18.28      77.0     0.37      1012.0     3       262         7       263        8.55     262      -39.5
   05/22/2017 19:00      87.3      87.0       23     44.7      0.00     18.28      77.1     0.37      1012.0     4       270         6       262        8.55     263      -18.5
   05/22/2017 18:50      87.5      87.1       23     44.5      0.00     18.28      76.9     0.37      1012.0     5       278         7       286        8.56     263        4.1
   05/22/2017 18:40      87.9      87.4       23     45.4      0.00     18.28      76.9     0.37      1012.0     5       290        10       257        8.57     263       27.9
   05/22/2017 18:30      88.7      88.0       23     46.2      0.00     18.28      76.9     0.37      1012.0     4       298         9       301        8.57     263       52.0
   05/22/2017 18:20      89.1      88.6       23     46.1      0.00     18.28      76.8     0.37      1012.0     5       283         7       258        8.57     263       77.3
   05/22/2017 18:10      89.6      89.2       22     45.8      0.00     18.28      76.8     0.37      1012.0     5       299         8       309        8.58     263      100.9
   05/22/2017 18:00      90.0      89.4       23     46.9      0.00     18.28      76.6     0.37      1012.0     5       272         7       259        8.58     263      125.8
   05/22/2017 17:50      90.9      89.9       23     47.6      0.00     18.28      76.6     0.37      1011.0     7       263        10       253        8.58     263      148.7
   05/22/2017 17:40      91.5      90.9       22     47.0      0.00     18.28      76.7     0.37      1011.0     5       284         8       314        8.58     263      172.8
   05/22/2017 17:30      91.7      90.8       23     47.8      0.00     18.28      76.4     0.37      1012.0     4       292         7       309        8.58     263      196.5
   05/22/2017 17:20      91.4      90.9       23     47.9      0.00     18.28      76.4     0.37      1012.0     5       290         7       258        8.59     263      221.0
   05/22/2017 17:10      91.2      90.6       23     48.4      0.00     18.28      76.5     0.37      1012.0     6       301         9       326        8.60     263      244.3
   05/22/2017 17:00      92.7      91.3       23     48.7      0.00     18.28      76.4     0.37      1012.0     5       298        10       291        8.61     263      266.1
   05/22/2017 16:50      92.9      92.3       23     49.0      0.00     18.28      76.4     0.37      1012.0     5       290         7       303        8.61     263      289.2
   05/22/2017 16:40      93.2      92.7       22     48.3      0.00     18.28      76.2     0.37      1012.0     5       305         7       304        8.61     263      307.8
   05/22/2017 16:30      94.0      93.0       21     47.3      0.00     18.28      76.2     0.37      1012.0     7       307        10       320        8.61     263      326.5
   05/22/2017 16:20      95.5      93.6       22     49.6      0.00     18.28      76.0     0.37      1012.0     6       319         8       326        8.61     263      348.2
   05/22/2017 16:10      95.9      94.8       23     52.2      0.00     18.28      76.0     0.37      1012.0     2        31         4       332        8.61     264      357.9
   05/22/2017 16:00      94.8      94.3       24     52.0      0.00     18.28      76.0     0.37      1012.0     4        21         6        84        8.61     265      378.2
   05/22/2017 15:50      94.7      93.9       24     51.9      0.00     18.28      75.9     0.37      1012.0     3        34         4        25        8.61     265      399.9
   05/22/2017 15:40      94.4      94.0       24     52.1      0.00     18.28      75.7     0.37      1012.0     4        53         7        98        8.61     264      419.1
   05/22/2017 15:30      94.5      93.6       25     52.9      0.00     18.28      75.7     0.37      1012.0     5        26         6        10        8.61     264      433.1
   05/22/2017 15:20      93.8      93.0       26     53.3      0.00     18.28      75.7     0.37      1012.0     4        18         7       357        8.62     265      449.1
   05/22/2017 15:10      94.1      93.2       26     53.5      0.00     18.28      75.6     0.37      1012.0     4        39         5        32        8.62     265      464.7
   05/22/2017 15:00      94.1      93.0       26     53.6      0.00     18.28      75.5     0.37      1012.0     4        39         5        34        8.62     265      479.7
   05/22/2017 14:50      93.5      92.4       27     53.7      0.00     18.28      75.3     0.36      1012.0     4        34         8        10        8.62     265      494.1
   05/22/2017 14:40      93.6      92.7       27     54.0      0.00     18.28      75.2     0.36      1012.0     3        19         5       357        8.62     265      506.5
   05/22/2017 14:30      93.6      91.9       28     54.6      0.00     18.28      75.2     0.36      1012.0     4        36         5        21        8.62     265      517.8
   05/22/2017 14:20      92.5      91.9       28     54.0      0.00     18.28      75.1     0.36      1013.0     4        75         8        82        8.63     265      531.3
   05/22/2017 14:10      92.9      91.7       26     52.4      0.00     18.28      75.1     0.36      1013.0     3        86         6        88        8.63     266      539.9
   05/22/2017 14:00      93.0      92.4       25     51.7      0.00     18.28      75.1     0.36      1013.0     4        66         7        77        8.64     266      550.8
   05/22/2017 13:50      93.2      92.3       25     51.5      0.00     18.28      75.0     0.36      1013.0     3        56         7        79        8.64     266      557.2
   05/22/2017 13:40      92.3      91.0       26     51.6      0.00     18.28      75.0     0.36      1013.0     4        50         7        64        8.64     267      565.1
   05/22/2017 13:30      91.9      91.3       26     51.6      0.00     18.28      74.9     0.36      1013.0     4        74         7        78        8.64     269      571.5
   05/22/2017 13:20      92.2      91.3       26     51.9      0.00     18.28      74.8     0.36      1013.0     3        75         8        65        8.65     275      576.1
   05/22/2017 13:10      91.9      90.2       27     52.3      0.00     18.28      74.8     0.36      1013.0     3        57         5        65        8.65     284      580.5
   05/22/2017 13:00      90.8      89.7       27     52.1      0.00     18.28      74.8     0.36      1013.0     3        64         6       117        8.65     304      586.9
   05/22/2017 12:50      91.3      89.9       27     52.3      0.00     18.28      74.8     0.36      1013.0     3        90         6       123        8.65     328      586.9
   05/22/2017 12:40      90.4      89.1       28     51.8      0.00     18.28      74.5     0.36      1013.0     3        61         5        66        8.65     352      588.3
   05/22/2017 12:30      89.5      88.4       28     51.4      0.00     18.28      74.6     0.36      1014.0     4        36         5        72        8.66     378      586.9
   05/22/2017 12:20      89.8      88.7       27     51.0      0.00     18.28      74.6     0.36      1014.0     3         7         5       357        8.66     402      583.5
   05/22/2017 12:10      89.4      88.7       27     50.7      0.00     18.28      74.7     0.36      1014.0     2        49         5        54        8.66     419      583.2
   05/22/2017 12:00      88.8      87.6       27     50.3      0.00     18.28      74.6     0.36      1014.0     3        79         4        99        8.66     436      580.3
   05/22/2017 11:50      87.7      86.6       28     50.0      0.00     18.28      74.4     0.36      1014.0     2        57         4        85        8.66     457      575.9
   05/22/2017 11:40      87.1      85.6       29     49.9      0.00     18.28      74.5     0.36      1014.0     3        34         4         7        8.66     472      571.0
   05/22/2017 11:30      85.9      85.4       29     50.0      0.00     18.28      74.6     0.36      1014.0     3        28         5        12        8.66     486      564.2
   05/22/2017 11:20      85.6      83.9       29     49.2      0.00     18.28      74.4     0.36      1014.0     2        63         3        97        8.66     501      557.9
   05/22/2017 11:10      84.3      83.8       30     49.0      0.00     18.28      74.5     0.36      1014.0     3       349         5       337        8.66     515      549.7
   05/22/2017 11:00      83.8      83.4       30     48.5      0.00     18.28      74.6     0.36      1014.0     3        30         4        37        8.66     527      541.9
   05/22/2017 10:50      83.7      83.2       29     47.8      0.00     18.28      74.7     0.36      1014.0     3        38         4        87        8.66     541      532.1
   05/22/2017 10:40      83.5      82.4       30     47.9      0.00     18.28      74.9     0.36      1014.0     3        29         4        77        8.66     552      521.3
   05/22/2017 10:30      82.7      81.6       30     48.3      0.00     18.28      74.4     0.36      1014.0     3        50         4        75        8.66     558      510.8
   05/22/2017 10:20      82.0      80.7       31     48.2      0.00     18.28      74.8     0.36      1014.0     3        28         4        47        8.67     573      500.2
   05/22/2017 10:10      81.3      80.2       33     48.9      0.00     18.28      74.5     0.37      1015.0     3        72         4        78        8.67     579      489.4
   05/22/2017 10:00      80.5      79.0       33     48.0      0.00     18.28      75.2     0.37      1015.0     3        72         6        70        8.66     585      480.2
   05/22/2017 09:50      79.4      78.2       37     50.6      0.00     18.28      75.0     0.36      1015.0     3        49         4         1        8.56     585      461.6
   05/22/2017 09:40      78.0      77.3       38     50.4      0.00     18.28      74.6     0.36      1015.0     3        60         5        27        8.56     579      443.3
   05/22/2017 09:30      77.5      76.1       40     50.5      0.00     18.28      74.7     0.36      1015.0     2        46         4        29        8.56     590      426.6
   05/22/2017 09:20      76.3      74.9       41     50.1      0.00     18.28      74.8     0.35      1015.0     2        28         3        19        8.55     632      386.1
   05/22/2017 09:10      75.0      73.9       44     51.2      0.00     18.28      74.9     0.36      1014.0     2        30         3         0        7.58     266      365.0
   05/22/2017 09:00      73.9      72.9       48     52.4      0.00     18.28      75.0     0.36      1014.0     2        23         4        24        7.59     267      353.6
   05/22/2017 08:50      72.9      71.6       50     52.4      0.00     18.28      75.0     0.36      1014.0     3       355         4         5        7.59     267      358.2
   05/22/2017 08:40      71.6      70.7       51     52.2      0.00     18.28      75.2     0.36      1014.0     2        25         3        26        7.59     267      219.7
   05/22/2017 08:30      70.7      70.1       53     52.3      0.00     18.28      74.9     0.36      1014.0     2        18         3        38        7.59     266      -27.9
   05/22/2017 08:20      70.1      69.3       52     51.5      0.00     18.28      74.9     0.36      1014.0     1       338         2        38        7.59     266      -27.1
   05/22/2017 08:10      69.2      67.8       56     52.0      0.00     18.28      74.9     0.36      1014.0     2       164         2       125        7.60     266      -25.4
   05/22/2017 08:00      68.0      67.4       60     53.1      0.00     18.28      75.1     0.36      1014.0     1       355         3       350        7.60     266      -23.9
   05/22/2017 07:50      67.3      66.2       61     52.7      0.00     18.28      75.1     0.36      1014.0     1       115         2        57        7.60     266       10.4
   05/22/2017 07:40      66.3      65.2       63     52.7      0.00     18.28      75.2     0.36      1014.0     1       140         2       132        7.60     266      -25.6
   05/22/2017 07:30      65.2      64.5       64     52.5      0.00     18.28      75.3     0.36      1014.0     1       337         1       343        7.60     266      -28.4
   05/22/2017 07:20      64.5      63.6       65     52.1      0.00     18.28      75.2     0.36      1014.0     1         8         1        15        7.60     266      -28.9
   05/22/2017 07:10      63.8      62.1       67     52.0      0.00     18.28      75.2     0.36      1014.0     1         3         2        16        7.60     265      -27.0
   05/22/2017 07:00      62.1      61.2       72     52.5      0.00     18.28      75.2     0.36      1014.0     0        30         1        14        7.60     266      -32.9
   05/22/2017 06:50      61.1      60.0       75     52.6      0.00     18.28      75.6     0.36      1013.0     0        21         1        29        7.60     265      -36.5
   05/22/2017 06:40      59.9      59.1       78     52.6      0.00     18.28      75.5     0.36      1013.0     0        87         1        25        7.60     265      -37.1
   05/22/2017 06:30      59.1      58.5       80     52.5      0.00     18.28      75.3     0.36      1013.0     0        44         0         9        7.60     265      -38.2
   05/22/2017 06:20      58.6      58.3       80     52.4      0.00     18.28      75.3     0.36      1013.0     1       106         1       124        7.60     265      -39.7
   05/22/2017 06:10      58.5      58.1       81     52.7      0.00     18.28      75.4     0.36      1013.0     1       127         1       119        7.61     265      -35.5
   05/22/2017 06:00      58.1      57.7       83     52.7      0.00     18.28      75.3     0.36      1013.0     1       183         1       192        7.61     265      -41.5
   05/22/2017 05:50      58.1      57.6       83     52.5      0.00     18.28      75.6     0.36      1013.0     1       160         1       144        7.61     265      -45.9
   05/22/2017 05:40      58.2      58.0       82     52.6      0.00     18.28      75.7     0.36      1013.0     1       146         1       146        7.61     265      -49.1
   05/22/2017 05:30      58.1      57.9       82     52.6      0.00     18.28      75.9     0.36      1013.0     0       166         1       167        7.61     265      -51.6
   05/22/2017 05:20      58.4      58.0       81     52.4      0.00     18.28      75.4     0.36      1013.0     1       168         1       171        7.61     265      -54.8
   05/22/2017 05:10      58.5      58.0       81     52.5      0.00     18.28      75.7     0.36      1013.0     1       151         1       151        7.61     265      -55.7
   05/22/2017 05:00      58.5      57.9       80     52.1      0.00     18.28      75.4     0.36      1013.0     1       184         1       150        7.61     265      -57.6
   05/22/2017 04:50      58.9      58.5       79     52.2      0.00     18.28      75.8     0.36      1013.0     1       148         2       142        7.61     265      -57.6
   05/22/2017 04:40      59.3      59.0       78     52.3      0.00     18.28      75.8     0.36      1013.0     1       134         2       132        7.61     265      -57.7
   05/22/2017 04:30      59.4      58.9       78     52.3      0.00     18.28      75.6     0.36      1013.0     1       163         1       153        7.62     265      -58.0
   05/22/2017 04:20      58.8      58.1       79     52.2      0.00     18.28      75.9     0.36      1013.0     1       154         2       140        7.62     265      -59.1
   05/22/2017 04:10      58.0      57.5       79     51.5      0.00     18.28      76.0     0.36      1013.0     2       159         3       158        7.62     265      -59.4
   05/22/2017 04:00      58.6      58.0       78     51.5      0.00     18.28      75.9     0.36      1013.0     2       141         3       151        7.62     265      -59.8
   05/22/2017 03:50      59.2      58.6       77     51.8      0.00     18.28      76.0     0.36      1013.0     2       140         3       143        7.62     265      -60.1
   05/22/2017 03:40      59.5      59.1       77     52.0      0.00     18.28      76.1     0.36      1013.0     1       155         2       142        7.62     265      -59.9
   05/22/2017 03:30      59.4      59.1       77     52.2      0.00     18.28      76.0     0.36      1013.0     1       166         2       159        7.62     265      -60.0
   05/22/2017 03:20      59.9      59.1       76     51.7      0.00     18.28      76.0     0.36      1013.0     1       154         2       156        7.62     265      -60.5
   05/22/2017 03:10      60.5      59.9       74     52.0      0.00     18.28      76.2     0.36      1014.0     2       158         2       152        7.62     264      -60.9
   05/22/2017 03:00      61.2      60.1       73     51.8      0.00     18.28      76.1     0.36      1014.0     1       185         1       185        7.62     264      -61.3
   05/22/2017 02:50      62.0      61.4       70     52.0      0.00     18.28      76.3     0.36      1014.0     1       155         1       158        7.62     264      -60.6
   05/22/2017 02:40      62.1      61.9       70     52.1      0.00     18.28      76.2     0.36      1014.0     1       146         1       134        7.62     264      -60.4
   05/22/2017 02:30      62.6      62.1       69     52.0      0.00     18.28      76.5     0.36      1014.0     1       132         1       136        7.63     264      -61.5
   05/22/2017 02:20      63.3      63.0       68     52.4      0.00     18.28      76.2     0.36      1014.0     1       127         1       136        7.63     264      -62.2
   05/22/2017 02:10      63.3      62.8       68     52.1      0.00     18.28      76.2     0.36      1014.0     1       110         2        79        7.63     264      -63.7
   05/22/2017 02:00      63.7      63.3       68     52.6      0.00     18.28      76.3     0.36      1014.0     1        43         3       334        7.63     264      -64.2
   05/22/2017 01:50      64.0      63.6       68     53.0      0.00     18.28      76.2     0.36      1014.0     1        86         2         6        7.63     264      -64.3
   05/22/2017 01:40      64.3      64.0       67     53.2      0.00     18.28      76.4     0.36      1014.0     2         9         3       345        7.63     264      -64.6
   05/22/2017 01:30      64.8      64.2       67     53.1      0.00     18.28      76.3     0.36      1014.0     1        45         2        34        7.63     264      -65.3
   05/22/2017 01:20      65.3      64.8       66     53.2      0.00     18.28      76.3     0.36      1014.0     1        30         1        47        7.63     264      -65.7
   05/22/2017 01:10      66.0      65.4       64     53.0      0.00     18.28      76.4     0.36      1014.0     2        50         3        64        7.63     264      -66.4
   05/22/2017 01:00      66.4      66.0       63     53.0      0.00     18.28      76.4     0.36      1014.0     1        65         2        56        7.63     264      -67.6
   05/22/2017 00:50      66.4      66.2       61     52.2      0.00     18.28      76.5     0.36      1014.0     3        88         5        77        7.63     264      -66.5
   05/22/2017 00:40      66.5      66.3       57     50.8      0.00     18.28      76.5     0.36      1014.0     2        75         2        69        7.64     263      -64.8
   05/22/2017 00:30      66.6      66.1       49     46.7      0.00     18.28      76.4     0.36      1014.0     1       104         4        95        7.64     263      -62.8
   05/22/2017 00:20      66.3      66.1       46     45.0      0.00     18.28      76.6     0.36      1014.0     1        69         1       110        7.64     263      -62.4
   05/22/2017 00:10      66.3      66.0       46     44.6      0.00     18.28      76.7     0.36      1014.0     1       151         2       142        7.64     263      -61.8
   05/22/2017 00:00      66.9      66.1       45     44.5      0.00     18.28      76.5     0.36      1013.0     2       132         3       126        7.64     263      -62.4
   05/21/2017 23:50      68.3      67.0       42     43.6      0.00     18.28      76.7     0.36      1014.0     1       174         2       182        7.64     263      -61.2
   05/21/2017 23:40      69.1      68.4       40     43.6      0.00     18.28      76.5     0.36      1014.0     1       163         1       144        7.64     263      -61.6
   05/21/2017 23:30      69.4      69.0       39     43.4      0.00     18.28      76.5     0.36      1014.0     0       270         1       188        7.64     263      -60.7
   05/21/2017 23:20      70.0      69.1       40     43.8      0.00     18.28      76.5     0.36      1014.0     1        35         2        10        7.64     263      -63.6
   05/21/2017 23:10      70.7      70.0       37     43.1      0.00     18.28      76.6     0.36      1014.0     1       155         1       155        7.64     262      -63.6
   05/21/2017 23:00      70.6      70.1       38     43.5      0.00     18.28      76.6     0.36      1014.0     2       137         2       126        7.64     263      -65.2
   05/21/2017 22:50      70.5      70.1       38     43.5      0.00     18.28      76.7     0.36      1014.0     1       117         1       189        7.65     262      -66.2
   05/21/2017 22:40      71.8      70.5       37     43.7      0.00     18.28      76.6     0.36      1014.0     1        40         2        25        7.65     262      -68.5
   05/21/2017 22:30      73.1      72.0       35     43.3      0.00     18.28      76.5     0.36      1014.0     1       149         2       194        7.65     262      -68.4
   05/21/2017 22:20      73.5      72.8       34     42.9      0.00     18.28      76.6     0.36      1014.0     1       216         2       215        7.65     262      -67.8
   05/21/2017 22:10      73.5      72.5       34     42.8      0.00     18.28      76.6     0.36      1013.0     2       229         3       203        7.65     262      -68.4
   05/21/2017 22:00      73.1      72.3       36     43.9      0.00     18.28      76.6     0.36      1013.0     2       178         2       211        7.65     262      -69.4
   05/21/2017 21:50      73.0      71.5       33     42.0      0.00     18.28      76.5     0.36      1013.0     2       202         2       215        7.65     262      -70.0
   05/21/2017 21:40      74.2      73.2       31     41.4      0.00     18.28      76.4     0.36      1013.0     2       193         2       199        7.65     262      -69.5
   05/21/2017 21:30      73.9      73.2       32     42.0      0.00     18.28      76.5     0.36      1013.0     1       100         2       173        7.66     261      -72.9
   05/21/2017 21:20      75.5      74.2       30     41.3      0.00     18.28      76.5     0.36      1013.0     1        61         1        70        7.66     261      -74.9
   05/21/2017 21:10      76.7      75.9       28     40.6      0.00     18.28      76.5     0.36      1013.0     2       213         3       211        7.66     261      -73.6
   05/21/2017 21:00      76.2      75.5       27     39.4      0.00     18.28      76.4     0.36      1013.0     2       190         2       211        7.66     261      -74.2
   05/21/2017 20:50      76.4      75.8       26     39.1      0.00     18.28      76.4     0.36      1013.0     1       105         1       165        7.66     261      -78.6
   05/21/2017 20:40      78.9      76.9       24     38.2      0.00     18.28      76.4     0.36      1013.0     2       156         2       155        7.66     261      -80.2
   05/21/2017 20:30      80.5      79.3       21     36.9      0.00     18.28      76.4     0.36      1013.0     2       191         3       175        7.66     261      -84.4
   05/21/2017 20:20      81.2      80.5       21     37.1      0.00     18.28      76.4     0.36      1012.0     3       231         4       229        7.66     261      -89.2
   05/21/2017 20:10      82.5      81.4       19     35.9      0.00     18.28      76.4     0.36      1012.0     2       221         3       234        7.66     260      -91.4
   05/21/2017 20:00      83.5      82.6       18     35.5      0.00     18.28      76.3     0.36      1012.0     3       251         5       281        7.66     261      -93.6
   05/21/2017 19:50      84.6      83.6       18     35.5      0.00     18.28      76.2     0.36      1012.0     4       257         6       243        7.66     261      -91.7
   05/21/2017 19:40      85.4      84.6       18     37.3      0.00     18.28      76.1     0.36      1012.0     4       277         6       268        7.67     261      -85.2
   05/21/2017 19:30      86.2      85.6       19     38.3      0.00     18.28      76.2     0.36      1012.0     3       291         5       318        7.67     261      -62.9
   05/21/2017 19:20      86.3      86.1       19     39.0      0.00     18.28      76.2     0.36      1012.0     4       290         6       277        7.67     261      -33.8
   05/21/2017 19:10      87.0      86.1       19     39.7      0.00     18.28      76.0     0.36      1012.0     3       306         4       330        7.67     261      -40.0
   05/21/2017 19:00      88.1      87.3       15     34.7      0.00     18.28      75.9     0.36      1012.0     4       280         6       274        7.67     260      -52.5
   05/21/2017 18:50      89.0      88.3       16     35.9      0.00     18.28      76.0     0.36      1011.0     4       287         6       262        7.67     260      -14.2
   05/21/2017 18:40      89.1      88.5       16     37.0      0.00     18.28      76.0     0.36      1011.0     6       262        10       279        7.68     261       26.3
   05/21/2017 18:30      89.4      89.1       18     40.2      0.00     18.28      75.8     0.36      1011.0     5       271         9       257        7.68     261       47.1
   05/21/2017 18:20      90.2      89.5       19     41.6      0.00     18.28      75.6     0.36      1011.0     5       258        10       262        7.68     261       71.0
   05/21/2017 18:10      90.6      89.9       18     41.5      0.00     18.28      75.9     0.36      1011.0     5       250         8       296        7.69     261       94.5
   05/21/2017 18:00      91.0      90.1       18     41.0      0.00     18.28      75.8     0.36      1011.0     7       243        11       254        7.69     261      118.3
   05/21/2017 17:50      91.1      90.8       18     41.6      0.00     18.28      75.5     0.36      1011.0     7       251        11       240        7.70     261      143.0
   05/21/2017 17:40      91.7      91.1       17     40.4      0.00     18.28      75.5     0.36      1011.0     7       254        10       248        7.70     261      167.5
   05/21/2017 17:30      91.8      91.3       17     40.5      0.00     18.28      75.6     0.36      1011.0     7       265        11       228        7.71     261      191.3
   05/21/2017 17:20      91.9      91.1       17     40.4      0.00     18.28      75.3     0.36      1011.0     7       250        10       249        7.71     261      214.6
   05/21/2017 17:10      92.0      91.4       19     43.0      0.00     18.28      75.2     0.36      1011.0     5       233         7       219        7.71     261      237.6
   05/21/2017 17:00      92.3      91.3       19     43.3      0.00     18.28      75.2     0.35      1011.0     7       217        10       197        7.72     261      261.0
   05/21/2017 16:50      92.0      91.6       19     43.8      0.00     18.28      75.1     0.35      1011.0     6       228         8       247        7.72     261      285.3
   05/21/2017 16:40      93.2      91.8       18     43.1      0.00     18.28      75.0     0.35      1011.0     7       215        11       189        7.72     261      307.2
   05/21/2017 16:30      92.6      92.3       17     41.6      0.00     18.28      75.1     0.35      1011.0     6       213        10       247        7.72     261      328.1
   05/21/2017 16:20      93.3      92.9       15     38.7      0.00     18.28      75.0     0.35      1011.0     7       209        10       185        7.72     261      346.5
   05/21/2017 16:10      93.6      93.0       15     38.4      0.00     18.28      74.8     0.35      1011.0     8       222        12       208        7.75     261      365.1
   05/21/2017 16:00      93.9      93.2       15     38.2      0.00     18.28      74.8     0.35      1011.0     7       220        11       237        7.76     261      385.2
   05/21/2017 15:50      93.9      93.5       14     37.9      0.00     18.28      74.5     0.35      1011.0     8       239        12       258        7.77     261      404.8
   05/21/2017 15:40      94.0      93.2       15     39.1      0.00     18.28      74.4     0.35      1011.0     7       210        12       207        7.78     261      423.4
   05/21/2017 15:30      93.6      92.9       16     40.3      0.00     18.28      74.4     0.35      1011.0     7       214        10       221        7.78     261      439.6
   05/21/2017 15:20      93.7      93.0       16     41.1      0.00     18.28      74.3     0.35      1011.0     7       210        10       219        7.79     261      454.1
   05/21/2017 15:10      94.0      93.6       16     40.7      0.00     18.28      74.2     0.35      1011.0     8       211        11       200        7.79     261      467.4
   05/21/2017 15:00      93.8      93.3       16     41.2      0.00     18.28      74.2     0.35      1011.0     6       200         9       199        7.80     261      482.8
   05/21/2017 14:50      94.0      93.5       17     41.6      0.00     18.28      74.2     0.35      1011.0     8       209        12       196        7.80     261      494.6
   05/21/2017 14:40      94.1      93.7       17     41.8      0.00     18.28      74.1     0.35      1012.0     6       187        11       206        7.81     261      506.3
   05/21/2017 14:30      94.3      93.8       17     43.2      0.00     18.28      74.0     0.35      1012.0     7       213        10       199        7.82     262      518.7
   05/21/2017 14:20      94.0      93.2       18     44.0      0.00     18.28      73.8     0.35      1012.0     6       201         9       188        7.82     262      528.9
   05/21/2017 14:10      95.1      93.5       17     42.6      0.00     18.28      73.8     0.35      1012.0     6       205         9       228        7.83     262      536.1
   05/21/2017 14:00      95.2      94.9       17     43.4      0.00     18.28      73.6     0.35      1012.0     7       169         9       154        7.83     262      544.9
   05/21/2017 13:50      95.2      93.9       17     42.8      0.00     18.28      73.5     0.35      1012.0     6       151        13       132        7.84     262      553.4
   05/21/2017 13:40      94.8      94.0       17     42.4      0.00     18.28      73.5     0.35      1012.0     6       172        10       225        7.84     262      558.7
   05/21/2017 13:30      94.2      93.6       17     42.7      0.00     18.28      73.6     0.35      1012.0     6       169         8       199        7.85     262      564.6
   05/21/2017 13:20      94.5      93.4       17     42.8      0.00     18.28      73.4     0.34      1012.0     5       185         8       149        7.85     263      567.9
   05/21/2017 13:10      94.6      93.6       17     42.9      0.00     18.28      73.4     0.35      1012.0     5       191         8       148        7.85     262      569.9
   05/21/2017 13:00      95.1      94.2       18     44.4      0.00     18.28      73.3     0.35      1012.0     4       156         6       135        7.86     263      569.9
   05/21/2017 12:50      94.6      93.7       17     43.5      0.00     18.28      73.3     0.34      1012.0     3       193         6       140        7.86     262      569.9
   05/21/2017 12:40      95.0      93.1       17     43.1      0.00     18.28      73.2     0.34      1012.0     4       131         9        95        7.86     263      569.5
   05/21/2017 12:30      94.7      93.8       17     42.5      0.00     18.28      73.3     0.34      1012.0     3        82         6        73        7.86     262      568.5
   05/21/2017 12:20      94.3      93.7       17     42.9      0.00     18.28      73.2     0.34      1012.0     4        13         6       359        7.86     263      567.9
   05/21/2017 12:10      93.7      92.5       18     42.5      0.00     18.28      73.3     0.34      1012.0     2       118         3       115        7.86     263      565.7
   05/21/2017 12:00      93.1      91.6       18     42.1      0.00     18.28      73.2     0.35      1012.0     3        16         5         3        7.86     263      561.6
   05/21/2017 11:50      92.2      91.2       18     41.9      0.00     18.28      73.1     0.34      1012.0     3        50         4       126        7.87     263      556.0
   05/21/2017 11:40      92.2      90.2       18     41.9      0.00     18.28      73.1     0.34      1013.0     3        11         4        30        7.87     263      551.5
   05/21/2017 11:30      90.9      89.4       19     42.0      0.00     18.28      73.2     0.35      1013.0     2        15         3       352        7.87     263      546.0
   05/21/2017 11:20      90.0      89.5       20     43.4      0.00     18.28      73.0     0.35      1013.0     3       348         4         9        7.87     263      536.9
   05/21/2017 11:10      89.1      87.7       21     43.4      0.00     18.28      73.1     0.35      1013.0     2       294         4       343        7.87     264      529.6
   05/21/2017 11:00      89.0      87.4       21     43.2      0.00     18.28      73.2     0.35      1013.0     2        15         3       332        7.87     264      521.5
   05/21/2017 10:50      87.2      85.9       21     42.1      0.00     18.28      73.2     0.35      1013.0     1         4         3        14        7.87     264      511.5
   05/21/2017 10:40      86.1      84.6       22     42.3      0.00     18.28      73.1     0.35      1013.0     2        13         4       358        7.87     264      501.4
   05/21/2017 10:30      85.2      84.4       23     43.0      0.00     18.28      73.3     0.35      1013.0     3         8         7       349        7.87     264      488.4
   05/21/2017 10:20      84.7      84.1       24     44.1      0.00     18.28      73.3     0.35      1013.0     2        28         3        15        7.87     265      473.6
   05/21/2017 10:10      84.0      82.6       25     44.1      0.00     18.28      73.2     0.35      1013.0     2        28         3        70        7.87     264      459.9
   05/21/2017 10:00      82.7      80.9       27     44.8      0.00     18.28      73.3     0.35      1013.0     2       357         4        40        7.87     264      444.1
   05/21/2017 09:50      81.0      80.4       28     44.3      0.00     18.28      73.2     0.35      1013.0     2       348         3       338        7.87     264      428.2
   05/21/2017 09:40      80.4      79.2       29     44.4      0.00     18.28      73.3     0.35      1013.0     2         5         3       320        7.89     264      411.4
   05/21/2017 09:30      79.4      78.7       30     45.0      0.00     18.28      73.5     0.35      1013.0     2        23         3       102        7.89     264      393.3
   05/21/2017 09:20      78.8      77.8       31     44.9      0.00     18.28      73.2     0.35      1013.0     2         7         4       343        7.89     265      376.1
   05/21/2017 09:10      77.9      76.3       32     44.6      0.00     18.28      73.4     0.35      1013.0     1       358         3       356        7.89     265      181.3
   05/21/2017 09:00      76.2      74.9       33     44.4      0.00     18.28      73.3     0.36      1013.0     2       314         2       308        7.89     265      351.5
   05/21/2017 08:50      75.2      72.4       34     43.7      0.00     18.28      73.4     0.36      1013.0     1        26         3        68        7.89     265      355.5
   05/21/2017 08:40      72.5      71.2       35     42.6      0.00     18.28      73.5     0.36      1013.0     1       347         2       332        7.90     265      199.6
   05/21/2017 08:30      71.3      70.2       37     43.3      0.00     18.28      73.3     0.36      1013.0     1       313         2       316        7.90     265      -28.3
   05/21/2017 08:20      70.3      69.4       39     44.1      0.00     18.28      73.6     0.36      1013.0     1       285         3       318        7.91     265      -28.8
   05/21/2017 08:10      69.4      68.7       41     44.4      0.00     18.28      73.3     0.36      1013.0     2       336         3       349        7.91     265      -25.0
   05/21/2017 08:00      68.7      68.1       41     44.0      0.00     18.28      73.6     0.36      1013.0     1       355         2       335        7.92     265      -25.5
   05/21/2017 07:50      68.1      66.7       43     44.4      0.00     18.28      73.5     0.36      1013.0     1        31         2       351        7.92     265        4.1
   05/21/2017 07:40      66.8      65.6       45     44.5      0.00     18.28      73.7     0.36      1013.0     1       329         2       327        7.92     265      -27.6
   05/21/2017 07:30      65.5      64.7       48     45.0      0.00     18.28      73.8     0.36      1013.0     0        18         1       326        7.92     265      -29.2
   05/21/2017 07:20      64.9      64.2       51     45.7      0.00     18.28      73.8     0.36      1013.0     1       152         1       189        7.92     265      -31.1
   05/21/2017 07:10      64.2      62.5       51     45.0      0.00     18.28      73.7     0.36      1013.0     1         5         2         4        7.93     265      -24.9
   05/21/2017 07:00      62.4      60.4       54     44.6      0.00     18.28      73.7     0.36      1013.0     1       358         2         1        7.93     265      -29.7
   05/21/2017 06:50      60.4      59.6       56     44.4      0.00     18.28      74.0     0.36      1012.0     0       143         1       137        7.93     265      -35.3
   05/21/2017 06:40      59.8      58.8       57     44.2      0.00     18.28      74.0     0.36      1012.0     1       131         2       134        7.93     265      -39.2
   05/21/2017 06:30      58.8      58.4       58     44.0      0.00     18.28      73.8     0.36      1012.0     1       146         2       136        7.93     265      -43.9
   05/21/2017 06:20      58.6      58.0       57     43.2      0.00     18.28      73.9     0.36      1012.0     1       145         1       127        7.93     264      -47.7
   05/21/2017 06:10      58.0      57.6       57     42.9      0.00     18.28      73.9     0.36      1012.0     1       146         2       139        7.93     264      -47.6
   05/21/2017 06:00      58.0      57.7       57     42.8      0.00     18.28      74.1     0.36      1012.0     1       160         2       141        7.93     264      -51.4
   05/21/2017 05:50      58.4      57.7       56     42.4      0.00     18.28      74.1     0.36      1012.0     1       158         2       134        7.94     264      -53.7
   05/21/2017 05:40      59.1      57.6       55     42.5      0.00     18.28      74.1     0.36      1012.0     2       173         3       145        7.94     264      -55.0
   05/21/2017 05:30      59.0      58.8       55     42.6      0.00     18.28      74.1     0.36      1012.0     1       228         1       323        7.94     264      -56.3
   05/21/2017 05:20      59.3      59.0       55     42.8      0.00     18.28      74.2     0.36      1012.0     0         8         1       127        7.94     264      -56.5
   05/21/2017 05:10      59.3      58.5       55     42.9      0.00     18.28      74.2     0.36      1012.0     1       146         2       141        7.94     264      -56.8
   05/21/2017 05:00      59.3      59.0       55     43.0      0.00     18.28      74.4     0.36      1012.0     2       140         4       142        7.94     264      -57.6
   05/21/2017 04:50      59.3      59.0       56     43.3      0.00     18.28      74.2     0.36      1012.0     2       144         3       156        7.94     264      -57.5
   05/21/2017 04:40      59.5      59.1       55     43.2      0.00     18.28      74.3     0.36      1011.0     2       157         3       139        7.94     264      -57.5
   05/21/2017 04:30      60.0      59.3       55     43.3      0.00     18.28      74.3     0.36      1011.0     3       163         4       166        7.95     264      -57.0
   05/21/2017 04:20      60.6      60.3       53     43.0      0.00     18.28      74.4     0.36      1011.0     2       147         3       132        7.95     264      -57.1
   05/21/2017 04:10      61.0      60.3       52     42.8      0.00     18.28      74.3     0.36      1011.0     1       183         2       175        7.95     264      -57.0
   05/21/2017 04:00      61.4      60.7       51     42.8      0.00     18.28      74.4     0.36      1011.0     1       217         2       238        7.95     264      -57.9
   05/21/2017 03:50      61.8      60.9       50     42.6      0.00     18.28      74.4     0.36      1011.0     1       250         2       262        7.95     264      -57.5
   05/21/2017 03:40      61.8      61.0       50     42.5      0.00     18.28      74.3     0.36      1011.0     1       202         3       236        7.95     263      -58.5
   05/21/2017 03:30      61.8      61.0       51     42.9      0.00     18.28      74.3     0.36      1011.0     2       312         4       249        7.95     264      -58.3
   05/21/2017 03:20      61.4      61.1       51     43.1      0.00     18.28      74.6     0.36      1011.0     1        98         3       131        7.95     263      -58.5
   05/21/2017 03:10      61.7      61.4       51     43.2      0.00     18.28      74.6     0.36      1011.0     2       134         3       126        7.95     263      -58.3
   05/21/2017 03:00      62.1      61.6       51     43.4      0.00     18.28      74.6     0.36      1011.0     2       146         2       143        7.95     263      -58.9
   05/21/2017 02:50      62.3      61.7       51     43.7      0.00     18.28      74.6     0.36      1011.0     3       148         4       136        7.95     263      -59.1
   05/21/2017 02:40      62.4      61.9       51     43.6      0.00     18.28      74.7     0.36      1011.0     2       138         3       126        7.96     263      -59.3
   05/21/2017 02:30      62.2      61.9       51     43.5      0.00     18.28      74.6     0.36      1011.0     2       147         3       143        7.96     263      -59.1
   05/21/2017 02:20      62.9      62.0       49     43.2      0.00     18.28      74.7     0.36      1011.0     1       126         2        76        7.96     263      -60.5
   05/21/2017 02:10      63.5      62.8       48     43.1      0.00     18.28      74.7     0.36      1011.0     1        97         1       309        7.96     263      -60.4
   05/21/2017 02:00      64.0      63.5       46     42.8      0.00     18.28      74.6     0.36      1011.0     1       138         2       166        7.96     263      -59.8
   05/21/2017 01:50      64.8      64.3       45     42.5      0.00     18.28      74.6     0.36      1011.0     1       165         2       156        7.96     263      -59.2
   05/21/2017 01:40      64.9      64.5       45     42.9      0.00     18.28      74.7     0.36      1011.0     1       158         2       147        7.96     263      -60.3
   05/21/2017 01:30      65.1      64.8       45     43.0      0.00     18.28      74.7     0.36      1011.0     1       139         1       168        7.96     263      -61.8
   05/21/2017 01:20      65.2      64.9       45     43.0      0.00     18.28      74.8     0.36      1011.0     1       108         2       144        7.96     263      -62.6
   05/21/2017 01:10      66.0      64.9       43     42.1      0.00     18.28      74.9     0.36      1011.0     2       181         3       188        7.97     263      -60.4
   05/21/2017 01:00      66.8      65.6       39     40.9      0.00     18.28      74.9     0.36      1011.0     1       202         2       128        7.97     263      -60.7
   05/21/2017 00:50      66.9      66.2       40     41.6      0.00     18.28      74.8     0.36      1011.0     1       124         1       148        7.97     263      -61.6
   05/21/2017 00:40      67.3      66.8       39     41.1      0.00     18.28      74.8     0.36      1011.0     1       195         1       205        7.97     262      -61.7
   05/21/2017 00:30      67.5      66.8       39     41.3      0.00     18.28      74.8     0.36      1011.0     1        13         1       264        7.98     262      -62.6
   05/21/2017 00:20      69.1      67.9       37     41.0      0.00     18.28      74.8     0.36      1011.0     1        83         1       116        7.98     262      -63.6
   05/21/2017 00:10      69.2      68.5       36     40.7      0.00     18.28      74.7     0.36      1011.0     1       236         1       210        7.98     262      -62.8
   05/21/2017 00:00      69.6      69.0       35     40.5      0.00     18.28      74.9     0.36      1011.0     0       103         1        37        7.98     262      -64.4
   05/20/2017 23:50      70.3      69.8       34     40.2      0.00     18.28      74.9     0.36      1011.0     0        49         1        39        7.99     262      -66.4
   05/20/2017 23:40      71.5      70.3       33     40.1      0.00     18.28      74.8     0.36      1011.0     1        39         2        36        7.99     262      -69.3
   05/20/2017 23:30      73.4      71.9       30     39.9      0.00     18.28      74.8     0.36      1011.0     1       125         2        38        7.99     262      -71.4
   05/20/2017 23:20      74.2      73.5       29     39.4      0.00     18.28      74.9     0.36      1011.0     2       194         4       199        7.99     262      -72.8
   05/20/2017 23:10      74.8      74.5       27     38.8      0.00     18.28      74.9     0.36      1011.0     3       195         4       219        7.99     261      -75.7
   05/20/2017 23:00      74.9      74.6       27     38.2      0.00     18.28      74.7     0.36      1011.0     3       206         4       187        7.99     261      -76.4
   05/20/2017 22:50      75.0      74.8       26     37.4      0.00     18.28      74.9     0.36      1011.0     4       204         6       201        7.99     261      -78.4
   05/20/2017 22:40      75.3      74.8       25     36.9      0.00     18.28      74.8     0.36      1011.0     4       211         7       205        7.99     261      -78.3
   05/20/2017 22:30      75.3      75.2       25     36.5      0.00     18.28      74.8     0.36      1011.0     4       213         5       222        8.00     261      -79.4
   05/20/2017 22:20      75.7      75.3       24     36.1      0.00     18.28      74.8     0.36      1011.0     4       205         6       211        8.00     261      -81.1
   05/20/2017 22:10      76.0      75.8       23     35.6      0.00     18.28      74.8     0.36      1011.0     5       208         7       217        8.00     261      -82.5
   05/20/2017 22:00      76.0      75.7       23     35.3      0.00     18.28      74.8     0.36      1011.0     5       220         7       207        8.00     261      -82.4
   05/20/2017 21:50      76.0      75.4       23     35.2      0.00     18.28      74.8     0.36      1011.0     5       194         7       212        8.01     261      -82.6
   05/20/2017 21:40      75.5      75.3       23     35.1      0.00     18.28      74.8     0.36      1011.0     5       197         6       207        8.01     261      -82.0
   05/20/2017 21:30      75.8      75.6       23     35.0      0.00     18.28      74.9     0.36      1011.0     4       198         5       170        8.01     261      -81.5
   05/20/2017 21:20      76.2      75.9       23     35.1      0.00     18.28      74.8     0.36      1011.0     3       211         4       212        8.01     261      -81.2
   05/20/2017 21:10      76.4      75.9       23     35.2      0.00     18.28      74.9     0.36      1011.0     3       224         4       249        8.01     261      -80.3
   05/20/2017 21:00      77.1      76.2       23     35.6      0.00     18.28      74.7     0.36      1011.0     2       263         3       251        8.02     261      -81.8
   05/20/2017 20:50      77.9      77.3       22     35.4      0.00     18.28      74.7     0.36      1011.0     2       209         3       227        8.02     261      -85.8
   05/20/2017 20:40      78.3      77.9       21     35.1      0.00     18.28      74.7     0.36      1011.0     2       212         3       197        8.02     261      -89.3
   05/20/2017 20:30      78.9      78.4       21     35.2      0.00     18.28      74.7     0.36      1011.0     3       218         5       197        8.02     261      -91.8
   05/20/2017 20:20      79.4      78.8       20     35.0      0.00     18.28      74.6     0.36      1011.0     3       214         5       217        8.02     261      -94.0
   05/20/2017 20:10      79.8      79.2       20     35.1      0.00     18.28      74.6     0.36      1010.0     4       206         7       200        8.02     261      -94.7
   05/20/2017 20:00      80.9      79.7       20     35.0      0.00     18.28      74.5     0.36      1010.0     4       206         5       187        8.02     261      -93.9
   05/20/2017 19:50      81.5      80.8       19     34.6      0.00     18.28      74.4     0.36      1010.0     3       225         6       213        8.03     260      -92.7
   05/20/2017 19:40      82.5      81.6       18     34.3      0.00     18.28      74.4     0.36      1010.0     3       221         5       215        8.04     260      -90.7
   05/20/2017 19:30      84.0      82.7       17     34.0      0.00     18.28      74.5     0.36      1010.0     3       207         5       209        8.04     260      -80.8
   05/20/2017 19:20      85.6      84.3       15     32.1      0.00     18.28      74.3     0.36      1010.0     4       231         8       255        8.04     260      -66.0
   05/20/2017 19:10      86.1      85.8       13     30.2      0.00     18.28      74.5     0.36      1010.0     6       260        10       266        8.05     260      -48.4
   05/20/2017 19:00      86.8      86.3       13     30.1      0.00     18.28      74.3     0.36      1010.0     6       259        10       266        8.05     260      -27.5
   05/20/2017 18:50      87.5      87.0       12     29.4      0.00     18.28      74.2     0.36      1010.0     5       259         8       262        8.06     260       -4.5
   05/20/2017 18:40      87.9      87.5       12     28.8      0.00     18.28      74.2     0.36      1010.0     6       277         8       261        8.06     260       20.0
   05/20/2017 18:30      88.5      87.9       12     28.4      0.00     18.28      74.2     0.36      1010.0     7       274         9       251        8.07     260       45.2
   05/20/2017 18:20      89.1      88.5       12     28.8      0.00     18.28      74.0     0.36      1010.0     6       260        10       247        8.07     261       71.2
   05/20/2017 18:10      89.9      89.2       11     28.8      0.00     18.28      73.8     0.35      1010.0     7       277        14       249        8.08     261       94.3
   05/20/2017 18:00      90.7      89.8       11     27.5      0.00     18.28      73.9     0.35      1010.0     6       273        10       275        8.08     261      118.5
   05/20/2017 17:50      90.2      90.0       10     25.9      0.00     18.28      73.9     0.35      1010.0     8       256        11       252        8.09     260      143.6
   05/20/2017 17:40      90.7      90.2        9     24.9      0.00     18.28      73.8     0.35      1010.0     7       263        12       270        8.09     261      168.6
   05/20/2017 17:30      90.8      90.4        9     25.3      0.00     18.28      73.7     0.35      1010.0     7       245        13       236        8.09     261      192.6
   05/20/2017 17:20      91.3      90.7       10     27.6      0.00     18.28      73.5     0.35      1010.0     7       235        11       228        8.11     261      215.5
   05/20/2017 17:10      91.8      91.1       11     29.6      0.00     18.28      73.7     0.35      1010.0     7       245        10       242        8.12     261      238.2
   05/20/2017 17:00      91.9      91.0       11     30.1      0.00     18.28      73.5     0.35      1010.0     7       232        10       241        8.13     261      261.9
   05/20/2017 16:50      91.9      90.9       12     31.1      0.00     18.28      73.4     0.35      1010.0     8       244        12       230        8.13     261      284.8
   05/20/2017 16:40      91.6      91.2       12     32.0      0.00     18.28      73.4     0.35      1010.0     8       230        10       226        8.14     261      305.6
   05/20/2017 16:30      92.7      91.8       12     32.4      0.00     18.28      73.4     0.35      1010.0     7       252         9       284        8.15     261      324.6
   05/20/2017 16:20      93.0      92.2       11     29.7      0.00     18.28      73.2     0.35      1010.0     6       237         9       258        8.15     261      342.2
   05/20/2017 16:10      92.3      91.9       10     27.4      0.00     18.28      73.1     0.35      1010.0     8       209        11       249        8.16     261      367.7
   05/20/2017 16:00      92.8      92.0       10     28.1      0.00     18.28      73.0     0.35      1010.0     6       209         9       211        8.17     261      385.2
   05/20/2017 15:50      93.9      92.0       10     28.1      0.00     18.28      72.9     0.35      1010.0     7       195        12       190        8.18     261      400.5
   05/20/2017 15:40      94.0      93.1       10     28.1      0.00     18.28      72.8     0.35      1010.0     6       189         7       148        8.19     261      416.6
   05/20/2017 15:30      94.1      92.9       10     28.8      0.00     18.28      72.8     0.35      1010.0     5       201         8       193        8.19     261      431.8
   05/20/2017 15:20      93.4      92.3       10     28.2      0.00     18.28      72.7     0.35      1010.0     6       207        11       185        8.20     261      447.6
   05/20/2017 15:10      93.0      91.9       11     30.1      0.00     18.28      72.4     0.35      1010.0     6       216         8       176        8.21     261      464.7
   05/20/2017 15:00      93.2      92.5       10     28.2      0.00     18.28      72.3     0.35      1010.0     7       186        11       181        8.21     261      481.5
   05/20/2017 14:50      93.4      92.5       10     27.9      0.00     18.28      72.3     0.35      1010.0     7       175        11       172        8.22     261      494.6
   05/20/2017 14:40      94.5      93.1       10     29.0      0.00     18.28      72.2     0.35      1011.0     5       196        12       235        8.23     261      504.9
   05/20/2017 14:30      93.1      92.5       10     28.6      0.00     18.28      72.1     0.35      1011.0     6       173         7       181        8.23     262      519.0
   05/20/2017 14:20      93.7      92.3       10     28.5      0.00     18.28      72.1     0.35      1011.0     7       154        11       123        8.23     261      528.4
   05/20/2017 14:10      94.2      93.0       10     29.1      0.00     18.28      71.9     0.34      1011.0     7       175        12       179        8.25     261      534.1
   05/20/2017 14:00      94.3      93.1       10     29.1      0.00     18.28      72.0     0.34      1011.0     6       173        14       172        8.25     262      542.9
   05/20/2017 13:50      95.6      93.1       10     29.8      0.00     18.28      71.8     0.34      1011.0     5       206         9       214        8.26     262      546.6
   05/20/2017 13:40      95.1      93.4       11     31.3      0.00     18.28      71.8     0.34      1011.0     3       223         5       179        8.26     263      551.3
   05/20/2017 13:30      94.1      92.5       11     30.4      0.00     18.28      71.8     0.34      1011.0     4       162         7       176        8.26     263      559.9
   05/20/2017 13:20      94.0      93.5       11     31.0      0.00     18.28      71.8     0.34      1011.0     5       198         8       161        8.27     263      562.7
   05/20/2017 13:10      94.0      93.1       11     32.2      0.00     18.28      71.7     0.34      1011.0     5       228         6       320        8.27     263      566.8
   05/20/2017 13:00      93.4      92.3       12     32.4      0.00     18.28      71.6     0.34      1011.0     3       285         5       315        8.27     263      568.2
   05/20/2017 12:50      92.5      91.8       12     32.0      0.00     18.28      71.5     0.34      1012.0     4       264         5       246        8.27     263      570.9
   05/20/2017 12:40      93.7      92.5       10     29.5      0.00     18.28      71.6     0.34      1012.0     3        78         6        77        8.27     264      573.3
   05/20/2017 12:30      93.0      92.2       10     28.6      0.00     18.28      71.4     0.34      1012.0     4       103         8       126        8.27     264      573.2
   05/20/2017 12:20      92.9      91.4       12     31.5      0.00     18.28      71.4     0.34      1012.0     3        85         5       142        8.27     264      570.0
   05/20/2017 12:10      91.8      91.3       12     32.7      0.00     18.28      71.3     0.34      1012.0     2       360         3         0        8.27     265      568.5
   05/20/2017 12:00      91.9      90.1       13     32.6      0.00     18.28      71.4     0.34      1012.0     2       338         4       300        8.27     266      565.8
   05/20/2017 11:50      90.2      89.7       13     31.6      0.00     18.28      71.4     0.34      1012.0     3         7         5         9        8.27     268      562.5
   05/20/2017 11:40      89.7      89.1       12     30.1      0.00     18.28      71.4     0.34      1012.0     2        62         5        77        8.27     274      557.8
   05/20/2017 11:30      88.9      87.8       14     32.2      0.00     18.28      71.4     0.34      1012.0     2       296         3       301        8.28     285      552.5
   05/20/2017 11:20      88.5      87.9       14     32.3      0.00     18.28      71.3     0.34      1012.0     2       292         4       309        8.28     298      544.9
   05/20/2017 11:10      88.5      87.1       15     33.7      0.00     18.28      71.4     0.34      1013.0     3       340         4       340        8.28     312      536.4
   05/20/2017 11:00      86.8      86.2       15     32.8      0.00     18.28      71.3     0.34      1013.0     2       342         3       357        8.28     328      528.2
   05/20/2017 10:50      86.3      85.6       16     34.3      0.00     18.28      71.4     0.34      1013.0     2       357         3       329        8.29     349      519.6
   05/20/2017 10:40      85.9      84.7       17     35.3      0.00     18.28      71.5     0.35      1013.0     2         8         3         8        8.29     364      508.9
   05/20/2017 10:30      84.3      83.5       18     36.3      0.00     18.28      71.5     0.35      1013.0     2       331         3         9        8.29     373      498.1
   05/20/2017 10:20      83.4      82.4       19     36.7      0.00     18.28      71.4     0.35      1013.0     2        16         3        23        8.29     391      487.4
   05/20/2017 10:10      82.4      80.8       19     35.8      0.00     18.28      71.6     0.35      1013.0     2       316         3         5        8.29     381      472.8
   05/20/2017 10:00      80.9      80.0       20     36.3      0.00     18.28      71.7     0.35      1013.0     2       332         3       352        8.30     381      458.9
   05/20/2017 09:50      80.3      79.3       22     37.3      0.00     18.28      71.3     0.35      1013.0     2       328         2       352        8.31     384      443.8
   05/20/2017 09:40      79.5      78.4       23     38.2      0.00     18.28      71.7     0.35      1013.0     2        14         3       351        8.31     384      428.8
   05/20/2017 09:30      78.7      77.5       24     38.2      0.00     18.28      71.8     0.35      1013.0     2        85         3        69        8.31     379      413.2
   05/20/2017 09:20      77.6      75.7       25     37.6      0.00     18.28      71.5     0.35      1013.0     1       348         2       357        8.31     381      397.8
   05/20/2017 09:10      76.1      75.3       25     37.4      0.00     18.28      71.6     0.35      1014.0     2       344         3       355        8.32     383      374.8
   05/20/2017 09:00      75.8      73.9       26     37.6      0.00     18.28      71.8     0.35      1014.0     2        64         2        69        8.32     265      357.9
   05/20/2017 08:50      74.0      71.3       27     36.8      0.00     18.28      71.7     0.35      1014.0     1       344         2       337        8.32     265      362.8
   05/20/2017 08:40      71.4      70.2       29     37.1      0.00     18.28      71.7     0.35      1014.0     2       310         3       325        8.32     265      173.6
   05/20/2017 08:30      70.1      68.6       32     38.5      0.00     18.28      71.6     0.36      1014.0     2       303         2       313        8.32     265      -38.0
   05/20/2017 08:20      68.5      67.7       34     38.8      0.00     18.28      71.9     0.36      1014.0     1       337         2       337        8.32     265      -35.5
   05/20/2017 08:10      67.7      66.3       35     38.3      0.00     18.28      71.8     0.36      1014.0     1       344         2         8        8.33     265      -30.6
   05/20/2017 08:00      66.3      64.8       39     40.0      0.00     18.28      71.9     0.36      1014.0     1       338         2       288        8.33     265      -33.4
   05/20/2017 07:50      64.6      62.9       43     40.8      0.00     18.28      71.8     0.35      1014.0     1       295         1       283        8.35     265       -8.0
   05/20/2017 07:40      62.9      61.9       45     40.9      0.00     18.28      72.0     0.36      1014.0     0       317         1       318        8.36     265      -33.1
   05/20/2017 07:30      61.8      60.1       48     41.2      0.00     18.28      72.0     0.36      1014.0     1       352         2       352        8.36     265      -33.5
   05/20/2017 07:20      60.0      58.6       50     40.7      0.00     18.28      72.1     0.36      1014.0     1        29         2         3        8.37     265      -34.1
   05/20/2017 07:10      58.6      57.1       52     40.3      0.00     18.28      71.9     0.36      1014.0     0       347         1         5        8.37     265      -22.4
   05/20/2017 07:00      57.2      56.3       54     40.4      0.00     18.28      72.0     0.36      1014.0     1       324         1       343        8.37     265      -30.0
   05/20/2017 06:50      56.3      55.5       57     40.8      0.00     18.28      72.1     0.36      1014.0     1        57         1       124        8.37     265      -38.5
   05/20/2017 06:40      55.6      54.5       57     40.1      0.00     18.28      72.3     0.36      1013.0     0       172         1       132        8.37     265      -41.5
   05/20/2017 06:30      54.7      54.1       58     39.9      0.00     18.28      72.3     0.36      1013.0     1       176         2       141        8.38     264      -46.2
   05/20/2017 06:20      54.2      53.9       58     39.4      0.00     18.28      72.2     0.36      1013.0     0       151         0       152        8.38     265      -49.3
   05/20/2017 06:10      54.0      53.5       57     38.8      0.00     18.28      72.2     0.36      1013.0     0       265         0       211        8.38     264      -48.1
   05/20/2017 06:00      53.8      53.4       56     38.4      0.00     18.28      72.4     0.36      1013.0     0         0         1       181        8.38     264      -52.1
   05/20/2017 05:50      53.4      53.1       56     38.1      0.00     18.28      72.1     0.36      1013.0     0       303         1       350        8.38     264      -54.5
   05/20/2017 05:40      53.2      52.6       60     39.5      0.00     18.28      72.2     0.36      1013.0     1       165         2       145        8.38     264      -56.7
   05/20/2017 05:30      53.6      53.1       59     39.5      0.00     18.28      72.3     0.36      1013.0     2       141         2       140        8.38     264      -57.5
   05/20/2017 05:20      53.5      51.7       61     39.7      0.00     18.28      72.3     0.36      1013.0     2       149         2       159        8.38     264      -58.3
   05/20/2017 05:10      52.8      51.8       62     39.5      0.00     18.28      72.5     0.36      1012.0     3       150         4       164        8.38     264      -57.6
   05/20/2017 05:00      53.6      53.0       59     39.5      0.00     18.28      72.3     0.36      1012.0     2       141         3       138        8.38     264      -57.6
   05/20/2017 04:50      54.2      53.5       58     39.5      0.00     18.28      72.5     0.36      1013.0     2       152         3       150        8.39     264      -57.4
   05/20/2017 04:40      54.7      54.1       55     38.7      0.00     18.28      72.5     0.36      1013.0     1       183         2       234        8.39     264      -57.6
   05/20/2017 04:30      54.9      54.2       54     38.1      0.00     18.28      72.7     0.36      1012.0     1       309         2       309        8.39     264      -58.7
   05/20/2017 04:20      55.3      55.0       51     37.4      0.00     18.28      72.6     0.36      1012.0     1       274         2       252        8.39     264      -57.9
   05/20/2017 04:10      55.1      54.6       53     37.8      0.00     18.28      72.5     0.36      1012.0     1       186         1       244        8.39     264      -58.5
   05/20/2017 04:00      55.5      55.1       53     38.6      0.00     18.28      72.7     0.36      1012.0     0       235         1       216        8.39     264      -58.7
   05/20/2017 03:50      55.6      54.6       55     39.0      0.00     18.28      72.9     0.36      1012.0     1       190         1       170        8.39     264      -59.4
   05/20/2017 03:40      55.8      54.6       55     39.3      0.00     18.28      72.8     0.36      1012.0     2       136         2       181        8.39     264      -60.0
   05/20/2017 03:30      56.0      55.3       55     39.5      0.00     18.28      73.0     0.36      1012.0     1       282         1       194        8.39     264      -58.4
   05/20/2017 03:20      56.2      55.6       54     39.7      0.00     18.28      72.9     0.36      1012.0     1        74         2        67        8.39     264      -59.5
   05/20/2017 03:10      56.3      56.0       55     40.1      0.00     18.28      72.8     0.36      1012.0     1       161         1       116        8.40     263      -59.3
   05/20/2017 03:00      57.0      56.4       54     40.0      0.00     18.28      72.8     0.36      1012.0     1       152         2       156        8.40     263      -59.5
   05/20/2017 02:50      57.3      56.5       51     39.1      0.00     18.28      72.8     0.36      1012.0     1       179         2       157        8.40     263      -59.3
   05/20/2017 02:40      57.3      56.5       51     39.0      0.00     18.28      72.8     0.36      1012.0     2       155         2       131        8.40     264      -60.2
   05/20/2017 02:30      57.1      55.5       52     39.0      0.00     18.28      72.8     0.36      1013.0     1       186         2       139        8.40     263      -60.8
   05/20/2017 02:20      56.1      55.8       53     38.9      0.00     18.28      73.1     0.36      1013.0     2       156         3       133        8.40     263      -61.7
   05/20/2017 02:10      57.6      56.3       51     39.0      0.00     18.28      73.1     0.36      1013.0     2       153         3       182        8.40     263      -62.7
   05/20/2017 02:00      57.9      57.0       50     38.7      0.00     18.28      72.8     0.36      1013.0     1       175         2       138        8.40     263      -62.4
   05/20/2017 01:50      57.9      56.5       51     39.1      0.00     18.28      73.1     0.36      1013.0     2       146         3       163        8.40     263      -63.8
   05/20/2017 01:40      58.6      57.8       49     38.8      0.00     18.28      73.0     0.36      1013.0     2       145         2       164        8.40     263      -63.6
   05/20/2017 01:30      58.8      58.2       47     38.7      0.00     18.28      73.2     0.36      1013.0     1        49         2       215        8.41     263      -64.0
   05/20/2017 01:20      59.8      59.0       45     38.1      0.00     18.28      72.9     0.36      1013.0     1       101         2       142        8.41     263      -63.9
   05/20/2017 01:10      60.3      59.9       44     38.1      0.00     18.28      73.3     0.36      1013.0     1       105         2       148        8.41     263      -64.2
   05/20/2017 01:00      60.5      60.2       43     38.0      0.00     18.28      73.2     0.36      1013.0     1       343         2       352        8.41     263      -64.4
   05/20/2017 00:50      61.4      60.7       42     37.7      0.00     18.28      73.3     0.36      1013.0     1        66         1        80        8.41     263      -65.7
   05/20/2017 00:40      62.8      61.6       40     37.4      0.00     18.28      73.2     0.36      1013.0     2       188         2       203        8.41     263      -64.3
   05/20/2017 00:30      61.9      61.5       41     37.7      0.00     18.28      73.0     0.36      1013.0     1        93         1        69        8.41     263      -65.5
   05/20/2017 00:20      63.3      61.9       40     37.9      0.00     18.28      73.2     0.36      1013.0     1        60         2        69        8.41     263      -68.0
   05/20/2017 00:10      63.7      63.2       38     37.3      0.00     18.28      73.3     0.36      1013.0     2       197         3       197        8.41     263      -68.8
   05/20/2017 00:00      64.8      63.9       37     37.6      0.00     18.28      73.3     0.36      1013.0     2       191         3       187        8.41     263      -69.5
   05/19/2017 23:50      66.0      65.3       34     36.8      0.00     18.28      73.2     0.36      1013.0     3       200         4       197        8.41     263      -71.2
   05/19/2017 23:40      66.2      65.9       34     36.9      0.00     18.28      73.2     0.36      1013.0     4       207         5       217        8.41     263      -70.5
   05/19/2017 23:30      66.1      65.3       35     37.5      0.00     18.28      73.3     0.36      1013.0     3       210         4       203        8.41     263      -69.3
   05/19/2017 23:20      65.2      64.2       37     38.1      0.00     18.28      73.2     0.36      1013.0     3       201         4       191        8.41     263      -68.9
   05/19/2017 23:10      64.0      62.8       40     38.3      0.00     18.28      73.4     0.36      1013.0     2       190         3       208        8.41     263      -69.0
   05/19/2017 23:00      64.4      63.4       39     38.4      0.00     18.28      73.3     0.36      1014.0     1        62         1        63        8.42     262      -70.2
   05/19/2017 22:50      64.8      64.1       38     38.4      0.00     18.28      73.2     0.36      1013.0     1       188         1       156        8.42     262      -70.3
   05/19/2017 22:40      66.9      65.0       35     37.9      0.00     18.28      73.3     0.36      1013.0     1       131         1       171        8.42     262      -71.3
   05/19/2017 22:30      67.8      67.1       33     37.6      0.00     18.28      73.4     0.36      1013.0     1       218         2       234        8.43     262      -72.9
   05/19/2017 22:20      67.9      67.7       33     37.4      0.00     18.28      73.3     0.36      1014.0     2       209         3       214        8.43     262      -73.8
   05/19/2017 22:10      68.1      67.8       32     37.4      0.00     18.28      73.2     0.36      1013.0     2       204         4       183        8.43     262      -74.5
   05/19/2017 22:00      68.2      67.7       32     37.1      0.00     18.28      73.2     0.36      1013.0     2       190         4       180        8.43     262      -75.7
   05/19/2017 21:50      68.7      68.0       31     36.8      0.00     18.28      73.3     0.36      1013.0     3       197         3       187        8.43     262      -73.8
   05/19/2017 21:40      68.8      68.6       31     36.6      0.00     18.28      73.3     0.36      1013.0     3       209         3       199        8.43     262      -75.3
   05/19/2017 21:30      69.2      68.7       30     36.3      0.00     18.28      73.2     0.36      1013.0     2       220         3       211        8.43     262      -75.2
   05/19/2017 21:20      69.8      69.3       29     35.9      0.00     18.28      73.2     0.36      1013.0     2       203         4       252        8.43     262      -77.4
   05/19/2017 21:10      70.5      69.8       28     35.3      0.00     18.28      73.2     0.36      1013.0     1       222         2       187        8.43     261      -79.5
   05/19/2017 21:00      71.2      70.7       27     35.2      0.00     18.28      73.1     0.36      1013.0     2       227         2       228        8.43     261      -82.7
   05/19/2017 20:50      72.0      71.3       26     35.2      0.00     18.28      73.1     0.36      1013.0     3       236         4       205        8.43     261      -87.0
   05/19/2017 20:40      72.6      72.2       25     35.0      0.00     18.28      73.1     0.36      1013.0     3       229         5       237        8.43     261      -90.2
   05/19/2017 20:30      72.8      72.5       25     34.6      0.00     18.28      73.2     0.36      1013.0     3       230         6       210        8.43     261      -91.6
   05/19/2017 20:20      73.4      72.8       24     33.9      0.00     18.28      73.0     0.36      1013.0     4       212         7       223        8.43     261      -92.7
   05/19/2017 20:10      73.8      73.3       23     33.5      0.00     18.28      73.0     0.36      1012.0     4       218         7       204        8.44     261      -93.3
   05/19/2017 20:00      74.3      73.8       23     33.7      0.00     18.28      72.9     0.36      1012.0     3       200         5       236        8.44     261      -93.3
   05/19/2017 19:50      74.9      74.2       23     34.3      0.00     18.28      73.0     0.36      1012.0     4       214         5       211        8.44     261      -91.7
   05/19/2017 19:40      75.5      74.9       23     34.5      0.00     18.28      73.0     0.36      1012.0     4       211         5       205        8.44     261      -89.3
   05/19/2017 19:30      76.6      75.7       22     34.6      0.00     18.28      72.9     0.35      1012.0     4       215         8       227        8.44     261      -79.0
   05/19/2017 19:20      77.1      76.6       21     34.6      0.00     18.28      72.8     0.36      1012.0     5       242         8       235        8.45     261      -62.3
   05/19/2017 19:10      77.6      77.3       21     34.6      0.00     18.28      72.7     0.35      1012.0     4       221         6       241        8.46     261      -44.3
   05/19/2017 19:00      78.1      77.7       20     34.1      0.00     18.28      72.6     0.35      1012.0     6       240        11       248        8.46     261      -23.2
   05/19/2017 18:50      78.6      78.1       20     33.8      0.00     18.28      72.7     0.35      1012.0     7       236        10       227        8.47     261       -0.5
   05/19/2017 18:40      78.8      78.5       20     33.8      0.00     18.28      72.7     0.35      1012.0     7       226        12       231        8.48     261       24.1
   05/19/2017 18:30      79.3      78.8       20     34.2      0.00     18.28      72.5     0.35      1012.0     6       231         9       240        8.48     261       49.6
   05/19/2017 18:20      80.2      79.6       18     33.2      0.00     18.28      72.5     0.35      1012.0     7       243         8       258        8.48     261       74.2
   05/19/2017 18:10      81.5      80.4       18     32.9      0.00     18.28      72.4     0.35      1012.0     6       248        11       261        8.49     261       98.1
   05/19/2017 18:00      81.8      81.0       17     32.9      0.00     18.28      72.3     0.35      1012.0     6       276         9       255        8.50     261      122.7
   05/19/2017 17:50      81.4      80.8       17     31.6      0.00     18.28      72.3     0.35      1012.0     7       254        12       261        8.50     261      148.9
   05/19/2017 17:40      82.4      81.3       15     30.3      0.00     18.28      72.2     0.35      1012.0     9       275        13       250        8.51     261      173.1
   05/19/2017 17:30      82.9      82.1       16     31.3      0.00     18.28      72.1     0.35      1012.0     9       257        14       238        8.51     261      196.1
   05/19/2017 17:20      83.5      82.7       16     32.1      0.00     18.28      72.2     0.35      1011.0     8       262        12       251        8.52     262      220.6
   05/19/2017 17:10      84.5      83.6       16     33.8      0.00     18.28      72.0     0.35      1011.0     8       252        10       236        8.52     262      241.9
   05/19/2017 17:00      84.7      84.2       16     33.7      0.00     18.28      71.9     0.35      1011.0     7       268        10       256        8.53     262      265.7
   05/19/2017 16:50      85.2      84.5       16     33.7      0.00     18.28      71.6     0.35      1011.0     9       261        13       249        8.53     261      289.0
   05/19/2017 16:40      85.9      84.8       16     33.3      0.00     18.28      71.6     0.35      1011.0     8       271        15       254        8.54     261      310.3
   05/19/2017 16:30      85.6      85.0       16     33.9      0.00     18.28      71.7     0.35      1011.0     8       256        10       297        8.54     261      332.5
   05/19/2017 16:20      86.2      85.4       16     34.2      0.00     18.28      71.7     0.35      1011.0     9       248        13       245        8.55     261      353.2
   05/19/2017 16:10      86.0      85.2       17     35.4      0.00     18.28      71.4     0.35      1011.0     7       231        11       219        8.56     261      371.3
   05/19/2017 16:00      86.7      86.1       15     33.8      0.00     18.28      71.4     0.35      1011.0     6       223         9       226        8.57     261      387.7
   05/19/2017 15:50      86.3      85.7       16     34.0      0.00     18.28      71.3     0.35      1011.0     6       208         9       176        8.57     261      407.7
   05/19/2017 15:40      87.2      86.2       15     34.3      0.00     18.28      71.0     0.35      1011.0     9       217        12       214        8.58     261      425.6
   05/19/2017 15:30      88.0      86.7       15     34.2      0.00     18.28      71.2     0.35      1011.0     6       215        13       235        8.58     261      436.5
   05/19/2017 15:20      89.9      87.9       13     31.5      0.00     18.28      71.0     0.35      1011.0     6       218         8        21        8.58     261      444.3
   05/19/2017 15:10      90.4      89.8       10     26.8      0.00     18.28      70.9     0.35      1011.0     4       309         6       335        8.59     261      461.1
   05/19/2017 15:00      90.0      89.4       10     26.1      0.00     18.28      70.7     0.34      1011.0     4       323         8         3        8.64     261      475.9
   05/19/2017 14:50      90.1      89.4       10     26.9      0.00     18.28      70.8     0.34      1011.0     5       346        10       356        8.65     261      492.4
   05/19/2017 14:40      89.9      88.5       10     26.4      0.00     18.28      70.7     0.34      1011.0     7       322        13       357        8.65     261      505.7
   05/19/2017 14:30      89.6      88.7       10     25.9      0.00     18.28      70.6     0.34      1011.0     4       282         6       255        8.66     261      514.3
   05/19/2017 14:20      89.7      88.9       10     26.2      0.00     18.28      70.6     0.34      1012.0     6        12        11       358        8.66     261      526.2
   05/19/2017 14:10      89.4      88.7       10     26.1      0.00     18.28      70.5     0.34      1012.0     8       325        11       349        8.66     261      537.0
   05/19/2017 14:00      89.4      88.7       10     26.5      0.00     18.28      70.3     0.34      1012.0     4       315         8         2        8.66     262      544.6
   05/19/2017 13:50      89.4      87.6       11     26.4      0.00     18.28      70.4     0.34      1012.0     4       346         8       349        8.67     262      553.1
   05/19/2017 13:40      87.9      87.0       11     25.8      0.00     18.28      70.3     0.34      1012.0     4       352        10        24        8.67     262      562.5
   05/19/2017 13:30      87.7      87.0       11     26.0      0.00     18.28      70.3     0.34      1012.0     6       334         8       306        8.67     262      572.1
   05/19/2017 13:20      87.3      86.8       11     26.0      0.00     18.28      70.2     0.34      1012.0     6       312        10       305        8.67     262      576.5
   05/19/2017 13:10      88.1      87.1       11     26.3      0.00     18.28      70.2     0.34      1012.0     6       333        12       348        8.68     262      577.9
   05/19/2017 13:00      87.2      86.0       11     26.4      0.00     18.28      70.1     0.34      1012.0     6       344        11       345        8.68     262      585.1
   05/19/2017 12:50      86.6      86.1       11     25.9      0.00     18.28      70.2     0.34      1013.0     8       352        11         5        8.68     262      587.6
   05/19/2017 12:40      86.8      86.3       11     26.3      0.00     18.28      70.2     0.34      1013.0     7       323        13       317        8.68     262      585.6
   05/19/2017 12:30      86.5      85.4       12     26.6      0.00     18.28      70.1     0.34      1013.0     9       337        12         6        8.69     262      589.5
   05/19/2017 12:20      86.8      85.3       11     26.3      0.00     18.28      70.1     0.34      1013.0     8       343        13       352        8.69     262      586.8
   05/19/2017 12:10      85.9      84.7       12     26.2      0.00     18.28      69.9     0.34      1013.0     9       353        14       359        8.70     263      586.1
   05/19/2017 12:00      86.1      84.7       12     26.6      0.00     18.28      70.0     0.34      1013.0     8       351        14         1        8.70     263      578.4
   05/19/2017 11:50      85.6      84.4       12     27.1      0.00     18.28      70.0     0.34      1013.0     8       338        15       317        8.71     263      573.1
   05/19/2017 11:40      84.9      84.4       12     26.6      0.00     18.28      70.0     0.34      1013.0     7         5        10        16        8.71     263      566.3
   05/19/2017 11:30      84.4      83.5       13     27.1      0.00     18.28      69.9     0.34      1013.0    10       346        13         9        8.71     263      560.3
   05/19/2017 11:20      84.6      83.5       12     26.8      0.00     18.28      70.0     0.34      1013.0     8       343        13       326        8.72     263      550.9
   05/19/2017 11:10      83.6      83.3       13     26.5      0.00     18.28      70.0     0.34      1013.0     8       334        14       313        8.72     263      541.1
   05/19/2017 11:00      83.1      82.6       13     26.1      0.00     18.28      70.0     0.34      1013.0     8       350        10        18        8.72     263      531.6
   05/19/2017 10:50      82.7      82.4       13     26.1      0.00     18.28      69.8     0.34      1013.0     9         3        13         9        8.72     264      520.0
   05/19/2017 10:40      83.1      82.6       13     26.8      0.00     18.28      70.0     0.34      1013.0     8       354        15         8        8.72     264      508.0
   05/19/2017 10:30      82.6      81.5       13     26.6      0.00     18.28      70.0     0.34      1013.0     7       353        11         4        8.73     264      496.3
   05/19/2017 10:20      81.8      81.1       13     26.0      0.00     18.28      70.0     0.35      1013.0     8       350        11       359        8.73     264      483.8
   05/19/2017 10:10      81.6      81.1       13     26.2      0.00     18.28      70.0     0.35      1013.0    10       350        15         1        8.73     264      468.0
   05/19/2017 10:00      81.1      80.3       14     26.3      0.00     18.28      70.2     0.35      1014.0     7       355         9       357        8.73     264      451.8
   05/19/2017 09:50      80.7      79.5       14     26.6      0.00     18.28      70.2     0.35      1014.0     6        12        13       353        8.73     264      434.7
   05/19/2017 09:40      79.8      78.7       15     26.8      0.00     18.28      70.3     0.35      1014.0     8         1        12         3        8.73     264      417.9
   05/19/2017 09:30      78.6      78.1       15     26.5      0.00     18.28      70.3     0.35      1014.0     7         2        10       343        8.73     264      399.7
   05/19/2017 09:20      77.9      77.4       15     26.2      0.00     18.28      70.4     0.35      1014.0     8         1        12         6        8.74     264      383.0
   05/19/2017 09:10      77.6      76.4       16     26.9      0.00     18.28      70.3     0.35      1014.0     5        11         9        13        8.74     265      366.0
   05/19/2017 09:00      76.4      75.3       16     26.4      0.00     18.28      70.1     0.35      1014.0     6        13        11        33        8.74     264      356.2
   05/19/2017 08:50      75.3      74.4       16     26.3      0.00     18.28      70.4     0.35      1014.0     7       360         9         4        8.74     265      358.7
   05/19/2017 08:40      74.6      73.8       17     27.1      0.00     18.28      70.7     0.35      1014.0     4        29         8        42        8.74     265      158.0
   05/19/2017 08:30      73.9      73.3       18     27.8      0.00     18.28      70.2     0.35      1014.0     3        10         7       354        8.75     265      -48.2
   05/19/2017 08:20      73.3      72.3       20     29.5      0.00     18.28      70.5     0.35      1014.0     3        88         5        83        8.75     265      -42.2
   05/19/2017 08:10      72.3      71.5       20     29.1      0.00     18.28      70.5     0.35      1014.0     2        27         5        86        8.75     265      -38.3
   05/19/2017 08:00      71.5      70.6       22     30.1      0.00     18.28      70.5     0.35      1014.0     2        33         4       357        8.75     265      -39.6
   05/19/2017 07:50      70.8      69.2       25     32.3      0.00     18.28      70.5     0.35      1014.0     2       136         3        97        8.75     266      -28.2
   05/19/2017 07:40      69.3      68.2       26     32.8      0.00     18.28      70.3     0.35      1014.0     2       359         5       349        8.75     266      -36.7
   05/19/2017 07:30      68.3      67.1       29     34.1      0.00     18.28      70.3     0.35      1014.0     1       313         3       319        8.75     266      -32.3
   05/19/2017 07:20      66.9      65.3       31     34.4      0.00     18.28      70.6     0.35      1014.0     2       262         2       258        8.75     266      -36.1
   05/19/2017 07:10      64.9      64.0       39     38.9      0.00     18.28      70.5     0.35      1014.0     2       267         3       190        8.76     266      -26.0
   05/19/2017 07:00      64.0      60.2       41     37.4      0.00     18.28      70.4     0.35      1014.0     2       260         3       245        8.76     266      -30.3
   05/19/2017 06:50      59.8      56.4       57     42.9      0.00     18.28      70.7     0.35      1013.0     2       238         3       228        8.76     266      -39.2
   05/19/2017 06:40      56.4      53.4       67     44.5      0.00     18.28      70.8     0.35      1013.0     1       192         2       156        8.76     266      -42.2
   05/19/2017 06:30      53.3      52.2       75     45.0      0.00     18.28      70.9     0.35      1013.0     1       135         2       143        8.76     266      -49.5
   05/19/2017 06:20      52.7      51.7       78     45.4      0.00     18.28      70.9     0.35      1013.0     2       156         2       141        8.76     266      -51.1
   05/19/2017 06:10      51.7      50.8       82     45.9      0.00     18.28      70.7     0.36      1013.0     1        98         3       161        8.76     266      -44.7
   05/19/2017 06:00      51.8      51.1       82     46.1      0.00     18.28      71.0     0.36      1013.0     1       118         3       172        8.77     266      -46.2
   05/19/2017 05:50      51.7      51.2       82     46.1      0.00     18.28      70.9     0.36      1013.0     1       219         2       218        8.77     266      -49.5
   05/19/2017 05:40      51.8      51.3       81     46.1      0.00     18.28      71.0     0.36      1013.0     1       257         2       187        8.77     266      -53.0
   05/19/2017 05:30      51.3      50.7       82     45.6      0.00     18.28      70.9     0.36      1013.0     1       197         1       169        8.77     266      -56.8
   05/19/2017 05:20      51.3      51.0       80     45.1      0.00     18.28      71.0     0.36      1013.0     1       144         2       133        8.77     266      -59.8
   05/19/2017 05:10      51.4      51.0       78     44.5      0.00     18.28      71.0     0.36      1013.0     1       137         1       148        8.77     266      -60.4
   05/19/2017 05:00      52.2      51.7       77     44.9      0.00     18.28      71.0     0.36      1013.0     1       171         2       192        8.77     266      -59.8
   05/19/2017 04:50      52.2      51.7       80     45.9      0.00     18.28      70.9     0.36      1013.0     1       233         1       300        8.77     265      -56.8
   05/19/2017 04:40      52.4      52.2       79     46.0      0.00     18.28      71.2     0.36      1013.0     1        31         1       359        8.77     265      -57.8
   05/19/2017 04:30      52.5      52.2       78     45.6      0.00     18.28      70.9     0.36      1013.0     0       186         1       181        8.77     265      -58.8
   05/19/2017 04:20      52.8      52.2       76     45.0      0.00     18.28      71.2     0.36      1013.0     2       161         4       146        8.77     265      -59.1
   05/19/2017 04:10      53.0      52.6       73     44.3      0.00     18.28      71.4     0.36      1013.0     0       235         1       138        8.77     265      -59.4
   05/19/2017 04:00      52.8      52.4       71     43.3      0.00     18.28      71.2     0.36      1013.0     1       132         1       127        8.77     265      -60.5
   05/19/2017 03:50      53.6      52.6       69     43.0      0.00     18.28      71.4     0.36      1013.0     2       104         2       109        8.77     265      -61.3
   05/19/2017 03:40      54.0      53.4       68     43.7      0.00     18.28      71.1     0.36      1013.0     2       177         3       181        8.77     265      -60.4
   05/19/2017 03:30      53.2      52.6       72     44.1      0.00     18.28      71.3     0.36      1013.0     2       170         3       173        8.77     265      -60.7
   05/19/2017 03:20      53.5      53.1       71     44.1      0.00     18.28      71.1     0.36      1013.0     1       147         2       126        8.77     265      -60.7
   05/19/2017 03:10      53.1      52.8       75     45.2      0.00     18.28      71.4     0.36      1013.0     1       225         3       249        8.78     265      -60.7
   05/19/2017 03:00      53.4      53.0       74     45.2      0.00     18.28      71.3     0.36      1013.0     1       192         2       246        8.78     265      -60.0
   05/19/2017 02:50      53.6      53.4       71     44.3      0.00     18.28      71.5     0.36      1013.0     1       164         2       160        8.78     265      -60.1
   05/19/2017 02:40      53.6      53.4       70     44.0      0.00     18.28      71.6     0.36      1013.0     1       183         2       143        8.78     265      -60.3
   05/19/2017 02:30      54.0      53.4       69     43.6      0.00     18.28      71.6     0.36      1013.0     2       156         2       156        8.78     265      -60.2
   05/19/2017 02:20      54.7      53.6       65     42.8      0.00     18.28      71.5     0.36      1013.0     2       154         2       124        8.78     265      -59.7
   05/19/2017 02:10      54.8      54.4       63     42.3      0.00     18.28      71.6     0.36      1013.0     1       223         1       254        8.78     265      -60.0
   05/19/2017 02:00      54.7      54.4       64     42.9      0.00     18.28      71.6     0.36      1013.0     1       220         2       231        8.78     265      -59.6
   05/19/2017 01:50      55.3      54.7       63     42.6      0.00     18.28      71.7     0.36      1013.0     1       187         1       138        8.78     265      -59.7
   05/19/2017 01:40      55.4      55.0       61     42.2      0.00     18.28      71.8     0.36      1013.0     1       233         1       188        8.78     264      -59.9
   05/19/2017 01:30      55.5      55.0       61     42.0      0.00     18.28      71.6     0.36      1013.0     1         5         2       349        8.78     265      -60.5
   05/19/2017 01:20      55.6      54.6       62     42.2      0.00     18.28      71.8     0.36      1013.0     0       257         1       166        8.78     264      -61.2
   05/19/2017 01:10      55.1      54.5       61     41.5      0.00     18.28      71.7     0.36      1013.0     2       165         2       146        8.78     264      -61.1
   05/19/2017 01:00      55.9      55.4       56     40.4      0.00     18.28      71.7     0.36      1013.0     2       212         3       139        8.79     264      -61.1
   05/19/2017 00:50      55.3      55.0       59     40.9      0.00     18.28      71.9     0.36      1013.0     1       129         2       148        8.79     264      -62.8
   05/19/2017 00:40      55.2      54.9       59     41.1      0.00     18.28      71.9     0.36      1013.0     1       117         2       124        8.79     264      -64.5
   05/19/2017 00:30      56.5      55.3       57     40.8      0.00     18.28      71.8     0.36      1013.0     2       148         3       138        8.79     264      -64.8
   05/19/2017 00:20      57.0      56.6       55     40.7      0.00     18.28      71.9     0.36      1013.0     1       155         1       127        8.79     264      -64.7
   05/19/2017 00:10      57.6      57.3       53     40.2      0.00     18.28      71.9     0.36      1012.0     1       185         1       125        8.79     264      -64.6
   05/19/2017 00:00      57.8      57.0       53     40.3      0.00     18.28      71.7     0.36      1012.0     1       169         2       139        8.79     264      -64.9
   05/18/2017 23:50      57.9      57.6       51     39.9      0.00     18.28      71.8     0.36      1012.0     1       187         2       162        8.79     264      -65.0
   05/18/2017 23:40      58.0      57.7       52     40.5      0.00     18.28      71.8     0.36      1012.0     2       140         3       138        8.79     264      -66.3
   05/18/2017 23:30      58.5      58.1       51     40.2      0.00     18.28      71.9     0.36      1012.0     2       147         3       131        8.79     264      -66.5
   05/18/2017 23:20      59.4      58.4       48     39.5      0.00     18.28      72.0     0.36      1012.0     2       180         2       233        8.79     264      -66.6
   05/18/2017 23:10      60.0      59.0       47     39.3      0.00     18.28      71.8     0.36      1012.0     1       174         2       233        8.79     263      -66.8
   05/18/2017 23:00      61.0      59.9       46     39.7      0.00     18.28      72.0     0.36      1012.0     1       143         2       141        8.80     264      -68.0
   05/18/2017 22:50      61.1      59.7       45     38.8      0.00     18.28      71.9     0.36      1012.0     1       197         2       198        8.80     263      -66.5
   05/18/2017 22:40      61.5      59.8       45     39.0      0.00     18.28      71.8     0.36      1012.0     2       177         2       154        8.80     263      -66.6
   05/18/2017 22:30      61.5      60.1       44     38.7      0.00     18.28      71.9     0.36      1012.0     1       162         2       129        8.80     263      -68.8
   05/18/2017 22:20      62.0      61.2       42     38.6      0.00     18.28      71.7     0.36      1012.0     1       196         2       192        8.80     263      -69.1
   05/18/2017 22:10      62.1      61.5       43     39.2      0.00     18.28      71.8     0.36      1012.0     1       164         2       165        8.80     263      -70.6
   05/18/2017 22:00      64.0      62.3       41     38.9      0.00     18.28      71.9     0.36      1012.0     1       126         2       153        8.85     263      -72.3
   05/18/2017 21:50      65.0      64.1       38     38.1      0.00     18.28      71.7     0.36      1012.0     1       188         2       193        8.86     263      -73.8
   05/18/2017 21:40      65.4      64.3       37     37.9      0.00     18.28      72.0     0.36      1012.0     2       205         3       193        8.86     263      -75.9
   05/18/2017 21:30      66.7      66.0       35     38.1      0.00     18.28      71.8     0.36      1012.0     2       293         3       303        8.86     263      -80.9
   05/18/2017 21:20      66.6      66.4       35     37.7      0.00     18.28      71.7     0.36      1011.0     2       241         4       231        8.86     263      -82.8
   05/18/2017 21:10      66.9      66.6       34     37.2      0.00     18.28      71.7     0.36      1011.0     3       218         4       219        8.86     263      -83.2
   05/18/2017 21:00      67.0      66.7       32     36.3      0.00     18.28      71.8     0.36      1011.0     2       217         4       230        8.87     263      -82.8
   05/18/2017 20:50      67.3      66.9       31     35.6      0.00     18.28      71.7     0.36      1011.0     2       201         4       242        8.87     263      -84.6
   05/18/2017 20:40      68.1      67.4       30     35.0      0.00     18.28      71.6     0.36      1011.0     3       197         4       239        8.87     263      -86.7
   05/18/2017 20:30      68.7      68.3       29     35.0      0.00     18.28      71.7     0.36      1011.0     4       224         6       232        8.87     263      -87.7
   05/18/2017 20:20      69.6      69.0       28     34.6      0.00     18.28      71.7     0.35      1011.0     3       223         4       218        8.87     262      -89.0
   05/18/2017 20:10      70.3      69.7       27     34.8      0.00     18.28      71.5     0.35      1011.0     2       259         4       251        8.87     262      -92.9
   05/18/2017 20:00      70.6      70.2       26     34.4      0.00     18.28      71.6     0.35      1011.0     3       243         4       242        8.88     262      -93.2
   05/18/2017 19:50      71.3      71.0       27     35.5      0.00     18.28      71.5     0.35      1011.0     5       237         8       277        8.88     262      -91.6
   05/18/2017 19:40      72.9      71.6       27     36.6      0.00     18.28      71.6     0.35      1011.0     4       257         5       275        8.88     262      -89.1
   05/18/2017 19:30      73.4      73.0       26     36.5      0.00     18.28      71.4     0.35      1011.0     4       272         6       281        8.88     262      -80.1
   05/18/2017 19:20      74.1      73.3       25     36.0      0.00     18.28      71.5     0.35      1010.0     4       252         6       266        8.88     262      -63.7
   05/18/2017 19:10      74.8      74.0       24     35.5      0.00     18.28      71.5     0.35      1010.0     5       241         8       230        8.89     262      -46.7
   05/18/2017 19:00      75.4      75.1       24     35.7      0.00     18.28      71.5     0.35      1010.0     4       301         5       311        8.89     262      -26.8
   05/18/2017 18:50      75.6      75.4       24     36.1      0.00     18.28      71.3     0.35      1010.0     5       302         7       317        8.90     262       -4.5
   05/18/2017 18:40      76.3      75.5       24     36.5      0.00     18.28      71.3     0.35      1010.0     7       302        10       303        8.90     262       20.4
   05/18/2017 18:30      76.7      76.3       23     36.3      0.00     18.28      71.3     0.35      1010.0     6       321         8       326        8.91     262       47.7
   05/18/2017 18:20      77.0      76.7       23     36.3      0.00     18.28      71.3     0.35      1010.0     5       309         8       294        8.91     262       72.4
   05/18/2017 18:10      77.1      76.7       23     36.9      0.00     18.28      71.1     0.35      1010.0     7       299        12       309        8.92     262       98.5
   05/18/2017 18:00      78.4      77.3       23     37.4      0.00     18.28      70.9     0.35      1010.0     7       305        11       299        8.92     263      123.2
   05/18/2017 17:50      79.3      78.5       23     37.8      0.00     18.28      71.0     0.35      1010.0     6       295        11       304        8.93     262      147.2
   05/18/2017 17:40      79.7      78.9       22     37.6      0.00     18.28      70.9     0.35      1010.0     5       289         8       270        8.93     263      171.2
   05/18/2017 17:30      79.1      78.6       22     36.4      0.00     18.28      70.8     0.35      1010.0     6       294         9       304        8.94     262      195.9
   05/18/2017 17:20      80.3      79.4       22     37.1      0.00     18.28      70.8     0.35      1010.0     7       285        10       298        8.94     263      218.1
   05/18/2017 17:10      80.4      79.5       22     37.3      0.00     18.28      70.6     0.35      1010.0     6       294         9       311        8.95     263      241.9
   05/18/2017 17:00      80.4      79.8       21     37.0      0.00     18.28      70.6     0.35      1010.0     6       311        10       300        8.95     263      263.5
   05/18/2017 16:50      81.0      79.7       22     37.4      0.00     18.28      70.6     0.35      1010.0     6       272        10       250        8.96     263      287.6
   05/18/2017 16:40      81.0      79.9       21     36.7      0.00     18.28      70.4     0.35      1010.0     7       290        12       300        8.96     263      308.8
   05/18/2017 16:30      80.8      80.2       21     36.8      0.00     18.28      70.4     0.35      1010.0     7       297        12       296        8.96     263      331.9
   05/18/2017 16:20      81.3      79.8       21     37.0      0.00     18.28      70.3     0.35      1010.0     8       309        11       341        8.97     263      352.1
   05/18/2017 16:10      81.4      80.9       22     38.2      0.00     18.28      70.2     0.35      1010.0     5       302         8       253        8.97     264      372.2
   05/18/2017 16:00      81.3      80.0       23     39.5      0.00     18.28      70.1     0.35      1010.0     7       303        12       296        8.97     263      392.4
   05/18/2017 15:50      80.4      79.3       24     39.8      0.00     18.28      70.0     0.35      1010.0     7       321        10       326        8.97     264      411.9
   05/18/2017 15:40      80.2      79.0       24     40.1      0.00     18.28      69.9     0.35      1010.0     8       304        12       300        8.97     264      432.5
   05/18/2017 15:30      80.5      79.9       26     42.2      0.00     18.28      69.9     0.35      1010.0     9       312        14       309        8.97     264      446.6
   05/18/2017 15:20      81.5      80.7       26     42.8      0.00     18.28      69.7     0.35      1010.0     7       295        11       329        8.97     264      459.9
   05/18/2017 15:10      81.5      80.6       26     43.3      0.00     18.28      69.7     0.35      1010.0     6       267         9       303        8.97     264      476.2
   05/18/2017 15:00      81.0      80.4       28     44.8      0.00     18.28      69.7     0.34      1010.0     7       234        11       255        8.98     264      496.2
   05/18/2017 14:50      81.5      80.3       30     46.0      0.00     18.28      69.6     0.34      1010.0     5       208        11       204        8.98     264      505.8
   05/18/2017 14:40      80.8      80.2       30     46.6      0.00     18.28      69.3     0.34      1010.0     7       238        10       201        8.98     264      517.1
   05/18/2017 14:30      82.6      81.1       30     47.9      0.00     18.28      69.3     0.34      1010.0     4       175         6       223        8.98     264      529.7
   05/18/2017 14:20      82.4      80.9       31     48.0      0.00     18.28      69.2     0.34      1010.0     5       182         8       189        8.98     264      542.9
   05/18/2017 14:10      81.0      79.9       33     48.6      0.00     18.28      69.1     0.34      1010.0     4       169         7       191        8.98     264      415.2
   05/18/2017 14:00      82.1      81.0       33     49.4      0.00     18.28      69.1     0.34      1010.0     3       154         6       143        8.98     264      330.2
   05/18/2017 13:50      83.3      81.5       29     46.9      0.00     18.28      69.2     0.34      1010.0     3       129         6       164        8.98     264      515.4
   05/18/2017 13:40      83.6      81.9       25     43.7      0.00     18.28      69.0     0.34      1010.0     3       115         6       108        8.98     264      559.4
   05/18/2017 13:30      84.4      83.3       25     44.4      0.00     18.28      69.0     0.34      1010.0     3        33         5        26        8.98     265      560.7
   05/18/2017 13:20      83.5      81.6       25     43.3      0.00     18.28      68.8     0.34      1010.0     4        98         7        62        8.98     265      571.5
   05/18/2017 13:10      83.5      81.5       22     39.1      0.00     18.28      68.8     0.34      1011.0     3       283         8       142        8.99     265      577.2
   05/18/2017 13:00      82.4      81.5       23     40.7      0.00     18.28      68.8     0.34      1011.0     5        41         9        74        8.99     264      582.2
   05/18/2017 12:50      81.8      80.9       24     40.5      0.00     18.28      68.7     0.34      1011.0     3        72         5       140        8.99     264      586.5
   05/18/2017 12:40      81.8      79.6       25     41.9      0.00     18.28      68.7     0.34      1011.0     4        62         9        73        8.99     264      590.8
   05/18/2017 12:30      80.2      79.5       25     40.9      0.00     18.28      68.9     0.34      1011.0     3        64         4        33        8.99     265      587.2
   05/18/2017 12:20      80.2      79.8       25     41.5      0.00     18.28      68.5     0.34      1011.0     4        41         6        73        8.99     265      585.2
   05/18/2017 12:10      80.4      79.3       26     41.8      0.00     18.28      68.6     0.34      1011.0     4        44         6        71        8.99     265      578.9
   05/18/2017 12:00      79.2      78.2       27     41.6      0.00     18.28      68.3     0.34      1012.0     3       360         6       337        8.99     265      574.2
   05/18/2017 11:50      78.7      78.0       25     40.0      0.00     18.28      68.6     0.34      1012.0     2       346         7         0        8.99     265      571.4
   05/18/2017 11:40      78.3      77.1       27     41.3      0.00     18.28      68.5     0.34      1012.0     3        56         5        71        8.99     266      566.4
   05/18/2017 11:30      77.5      76.5       29     42.6      0.00     18.28      68.4     0.34      1012.0     2        39         3        38        8.99     266      559.8
   05/18/2017 11:20      76.4      75.3       31     42.7      0.00     18.28      68.5     0.34      1012.0     2        39         3        21        8.99     266      550.5
   05/18/2017 11:10      75.2      73.8       33     43.2      0.00     18.28      68.5     0.34      1012.0     2        73         4        78        9.00     266      544.3
   05/18/2017 11:00      74.0      73.3       35     44.1      0.00     18.28      68.6     0.34      1012.0     2        74         4        22        9.00     266      533.0
   05/18/2017 10:50      74.1      73.5       35     44.6      0.00     18.28      68.5     0.34      1012.0     3        10         4        76        9.00     267      520.2
   05/18/2017 10:40      73.7      71.8       37     44.7      0.00     18.28      68.8     0.34      1012.0     3         5         5        71        9.00     267      508.6
   05/18/2017 10:30      72.3      71.5       38     44.7      0.00     18.28      68.5     0.34      1012.0     3        19         6        13        9.00     267      496.2
   05/18/2017 10:20      72.1      71.2       40     45.8      0.00     18.28      68.2     0.34      1012.0     2        58         3        57        9.00     268      484.4
   05/18/2017 10:10      71.3      69.4       43     46.7      0.00     18.28      68.8     0.34      1012.0     2        52         4        93        9.00     268      467.7
   05/18/2017 10:00      69.8      68.3       47     47.9      0.00     18.28      68.9     0.35      1012.0     2       353         4       333        9.00     268      452.2
   05/18/2017 09:50      68.5      67.8       49     48.5      0.00     18.28      68.5     0.35      1012.0     2        35         3       359        9.00     268      434.0
   05/18/2017 09:40      67.8      66.5       51     48.3      0.00     18.28      68.6     0.35      1012.0     1        26         3        36        9.00     269      416.0
   05/18/2017 09:30      66.2      64.8       55     48.7      0.00     18.28      69.0     0.35      1013.0     2        19         3        12        9.00     269      399.5
   05/18/2017 09:20      64.6      63.3       58     49.0      0.00     18.28      69.0     0.35      1013.0     2        47         3        76        9.01     269      381.5
   05/18/2017 09:10      63.4      62.1       62     49.1      0.00     18.28      68.7     0.35      1013.0     2        15         4       344        9.01     269      362.4
   05/18/2017 09:00      62.5      61.3       63     49.3      0.00     18.28      68.8     0.35      1013.0     2        24         3       111        9.01     269      347.8
   05/18/2017 08:50      61.1      59.5       67     49.3      0.00     18.28      69.0     0.35      1013.0     1       115         3       131        9.01     269      370.9
   05/18/2017 08:40      59.4      58.1       72     49.5      0.00     18.28      68.7     0.35      1013.0     2        76         3       127        9.01     269      199.1
   05/18/2017 08:30      58.1      57.1       74     49.4      0.00     18.28      68.5     0.35      1013.0     3       348         4       338        9.01     269       22.0
   05/18/2017 08:20      57.1      56.3       76     49.3      0.00     18.28      68.8     0.35      1013.0     2       331         4       320        9.01     269       28.1
   05/18/2017 08:10      56.4      55.7       78     49.1      0.00     18.28      68.6     0.35      1013.0     2       343         3       329        9.01     269       32.0
   05/18/2017 08:00      55.6      55.0       79     49.0      0.00     18.28      69.3     0.35      1013.0     2        32         2        68        9.01     269       31.1
   05/18/2017 07:50      55.1      54.1       82     49.1      0.00     18.28      69.2     0.35      1013.0     1        41         1        76        9.01     269       36.5
   05/18/2017 07:40      54.1      53.1       84     48.9      0.00     18.28      68.9     0.35      1013.0     1        25         2       359        9.01     268       29.5
   05/18/2017 07:30      53.1      52.3       87     48.9      0.00     18.28      68.9     0.35      1013.0     0       220         1       156        9.01     268       31.8
   05/18/2017 07:20      52.4      51.7       88     48.6      0.00     18.28      69.1     0.35      1013.0     0       192         1       324        9.01     268       24.2
   05/18/2017 07:10      51.8      50.8       90     48.4      0.00     18.28      69.0     0.35      1013.0     1        98         2        75        9.01     268       25.2
   05/18/2017 07:00      51.0      49.9       92     48.0      0.00     18.28      69.0     0.35      1013.0     1        89         2        93        9.01     268       22.8
   05/18/2017 06:50      49.9      49.1       93     47.4      0.00     18.28      68.9     0.35      1013.0     0       350         0       337        9.01     268       15.0
   05/18/2017 06:40      49.0      48.7       93     47.0      0.00     18.28      69.3     0.35      1013.0     1       176         2       234        9.01     268       12.1
   05/18/2017 06:30      48.6      47.8       93     46.1      0.00     18.28      69.6     0.35      1012.0     1       251         1       219        9.01     268        3.9
   05/18/2017 06:20      48.0      47.5       93     45.9      0.00     18.28      69.2     0.35      1012.0     1        72         1       153        9.01     268       -1.1
   05/18/2017 06:10      48.1      47.6       93     45.9      0.00     18.28      68.9     0.35      1012.0     1        41         2       331        9.01     268       -5.5
   05/18/2017 06:00      47.8      47.3       93     45.7      0.00     18.28      69.3     0.35      1012.0     1       178         1       165        9.02     267      -10.0
   05/18/2017 05:50      48.0      47.8       93     46.0      0.00     18.28      69.1     0.35      1012.0     1       144         2       143        9.02     268      -13.4
   05/18/2017 05:40      48.2      47.7       93     45.9      0.00     18.28      69.5     0.35      1012.0     1       130         3       144        9.02     268      -14.8
   05/18/2017 05:30      48.3      47.3       93     45.9      0.00     18.28      69.5     0.35      1012.0     1       125         1       140        9.02     268      -15.9
   05/18/2017 05:20      47.9      47.4       93     45.7      0.00     18.28      69.4     0.35      1012.0     1       156         2       134        9.02     267      -16.3
   05/18/2017 05:10      48.4      47.9       93     46.1      0.00     18.28      69.6     0.35      1012.0     1       152         2       143        9.02     268      -16.7
   05/18/2017 05:00      48.6      48.1       93     46.4      0.00     18.28      69.8     0.35      1012.0     1       182         2       130        9.02     268      -17.1
   05/18/2017 04:50      47.9      47.4       92     45.5      0.00     18.28      69.6     0.35      1012.0     2       174         2       160        9.02     267      -18.1
   05/18/2017 04:40      48.3      48.0       92     46.0      0.00     18.28      69.6     0.35      1012.0     1       123         2       128        9.02     268      -18.9
   05/18/2017 04:30      48.9      48.2       92     46.3      0.00     18.28      69.6     0.35      1012.0     2       172         2       142        9.02     267      -18.7
   05/18/2017 04:20      48.8      48.3       92     46.2      0.00     18.28      69.6     0.35      1012.0     1       144         1       179        9.02     267      -20.7
   05/18/2017 04:10      48.5      48.3       92     46.0      0.00     18.28      69.5     0.35      1012.0     1       155         3       141        9.02     267      -22.1
   05/18/2017 04:00      48.5      48.0       91     45.9      0.00     18.28      69.7     0.35      1012.0     1       181         2       189        9.02     267      -22.7
   05/18/2017 03:50      48.8      47.9       91     45.8      0.00     18.28      69.7     0.35      1012.0     2       154         3       162        9.02     268      -23.5
   05/18/2017 03:40      48.8      48.0       91     45.9      0.00     18.28      69.5     0.35      1012.0     1       174         2       162        9.02     267      -24.7
   05/18/2017 03:30      49.3      48.1       90     45.9      0.00     18.28      69.4     0.35      1012.0     2       138         3       140        9.02     267      -26.1
   05/18/2017 03:20      49.4      49.3       90     46.6      0.00     18.28      69.4     0.35      1012.0     1       167         2       148        9.02     267      -26.8
   05/18/2017 03:10      49.5      48.9       90     46.3      0.00     18.28      69.4     0.35      1012.0     2       147         2       138        9.02     267      -28.1
   05/18/2017 03:00      50.0      49.9       90     47.2      0.00     18.28      69.8     0.35      1012.0     1       213         2       228        9.02     267      -28.5
   05/18/2017 02:50      49.9      49.2       90     46.9      0.00     18.28      69.9     0.35      1012.0     1       215         2       212        9.02     267      -31.8
   05/18/2017 02:40      50.3      49.5       89     46.8      0.00     18.28      69.9     0.35      1013.0     2       190         2       206        9.02     267      -34.2
   05/18/2017 02:30      50.5      49.9       89     47.1      0.00     18.28      70.0     0.35      1012.0     1       151         3       169        9.02     267      -35.6
   05/18/2017 02:20      50.2      50.0       88     46.8      0.00     18.28      70.1     0.35      1012.0     1       137         2       149        9.02     267      -39.5
   05/18/2017 02:10      51.2      50.1       87     46.9      0.00     18.28      69.8     0.35      1012.0     2       156         3       167        9.02     267      -41.0
   05/18/2017 02:00      52.0      51.3       86     47.6      0.00     18.28      70.0     0.35      1012.0     1       172         2       133        9.02     267      -41.8
   05/18/2017 01:50      52.2      51.6       86     47.8      0.00     18.28      70.1     0.35      1012.0     1       171         1       152        9.02     267      -42.3
   05/18/2017 01:40      51.9      51.7       85     47.6      0.00     18.28      70.3     0.35      1012.0     0        32         1        10        9.03     267      -48.3
   05/18/2017 01:30      51.9      51.7       85     47.3      0.00     18.28      70.1     0.35      1012.0     1       130         2       103        9.03     267      -51.5
   05/18/2017 01:20      52.6      52.0       83     47.5      0.00     18.28      70.1     0.35      1012.0     1        65         2        99        9.03     267      -53.5
   05/18/2017 01:10      52.5      51.6       84     47.3      0.00     18.28      70.2     0.35      1012.0     1        76         3        43        9.03     267      -57.1
   05/18/2017 01:00      51.8      51.4       82     46.2      0.00     18.28      70.2     0.35      1012.0     2        74         3        67        9.03     267      -59.3
   05/18/2017 00:50      52.2      51.9       80     46.2      0.00     18.28      70.1     0.35      1012.0     1       336         2        89        9.03     267      -58.5
   05/18/2017 00:40      52.6      52.2       79     46.2      0.00     18.28      70.1     0.35      1012.0     1        43         2       357        9.03     267      -59.6
   05/18/2017 00:30      53.0      52.6       79     46.5      0.00     18.28      70.3     0.35      1012.0     1       167         2       168        9.03     267      -59.6
   05/18/2017 00:20      52.8      51.7       81     46.5      0.00     18.28      70.3     0.35      1012.0     2       120         3       139        9.03     267      -60.6
   05/18/2017 00:10      52.5      51.8       79     46.0      0.00     18.28      70.0     0.35      1012.0     2       131         3       143        9.03     267      -61.2
   05/18/2017 00:00      53.0      52.6       79     46.3      0.00     18.28      70.2     0.35      1012.0     2       130         3       163        9.03     267      -62.0
   05/17/2017 23:50      53.5      53.0       78     46.4      0.00     18.28      70.1     0.35      1012.0     2        83         3       349        9.03     267      -63.0
   05/17/2017 23:40      53.4      52.9       78     46.5      0.00     18.28      70.3     0.35      1012.0     2         1         3       100        9.03     267      -62.9
   05/17/2017 23:30      53.6      53.1       78     46.5      0.00     18.28      70.7     0.35      1012.0     2       166         2       150        9.03     267      -63.4
   05/17/2017 23:20      54.1      53.5       76     46.5      0.00     18.28      70.5     0.35      1011.0     2       139         3       114        9.04     266      -65.6
   05/17/2017 23:10      54.6      54.4       75     46.8      0.00     18.28      70.3     0.35      1011.0     1       241         2        77        9.04     267      -64.9
   05/17/2017 23:00      55.1      54.6       75     46.9      0.00     18.28      70.2     0.35      1011.0     1       116         2       156        9.04     266      -67.5
   05/17/2017 22:50      55.0      54.1       76     47.2      0.00     18.28      70.4     0.35      1011.0     3       182         6       167        9.04     267      -69.4
   05/17/2017 22:40      55.7      54.5       73     46.6      0.00     18.28      70.4     0.35      1011.0     3       178         6       144        9.04     266      -68.1
   05/17/2017 22:30      55.7      54.9       74     47.0      0.00     18.28      70.5     0.35      1011.0     2       256         4       223        9.04     266      -66.8
   05/17/2017 22:20      55.0      54.6       75     47.1      0.00     18.28      70.4     0.35      1011.0     3       185         4       192        9.04     266      -65.9
   05/17/2017 22:10      54.8      54.5       75     46.7      0.00     18.28      70.3     0.35      1011.0     1       115         1       125        9.04     266      -67.5
   05/17/2017 22:00      55.8      54.6       71     46.2      0.00     18.28      70.2     0.35      1011.0     2       197         3       141        9.04     266      -67.4
   05/17/2017 21:50      56.0      55.4       70     46.2      0.00     18.28      70.3     0.35      1011.0     2       231         3       241        9.04     266      -67.3
   05/17/2017 21:40      56.8      56.3       69     46.5      0.00     18.28      70.4     0.35      1011.0     1       211         1       219        9.04     266      -68.0
   05/17/2017 21:30      57.2      56.6       68     46.6      0.00     18.28      70.6     0.35      1011.0     1       292         1       258        9.04     265      -69.7
   05/17/2017 21:20      58.2      57.2       67     46.7      0.00     18.28      70.3     0.35      1011.0     1       121         1       113        9.05     265      -70.6
   05/17/2017 21:10      58.4      58.1       66     46.9      0.00     18.28      70.5     0.35      1011.0     1       345         1        28        9.05     265      -71.8
   05/17/2017 21:00      58.4      58.3       65     46.9      0.00     18.28      70.5     0.35      1011.0     2       143         3       140        9.05     266      -72.1
   05/17/2017 20:50      59.5      58.7       64     46.9      0.00     18.28      70.4     0.35      1011.0     2       140         3       157        9.05     265      -73.9
   05/17/2017 20:40      59.6      59.4       63     46.9      0.00     18.28      70.5     0.35      1011.0     3        99         3        70        9.05     265      -75.4
   05/17/2017 20:30      59.5      59.1       63     46.9      0.00     18.28      70.4     0.35      1011.0     2        73         5        62        9.05     265      -74.9
   05/17/2017 20:20      60.4      59.6       63     47.2      0.00     18.28      70.3     0.35      1011.0     2        53         2        40        9.05     265      -73.5
   05/17/2017 20:10      61.1      60.4       61     47.2      0.00     18.28      70.1     0.35      1010.0     1        94         2        82        9.06     265      -73.8
   05/17/2017 20:00      62.0      61.4       59     47.3      0.00     18.28      70.3     0.35      1010.0     2       102         2       165        9.06     265      -74.5
   05/17/2017 19:50      63.3      62.3       57     47.4      0.00     18.28      70.5     0.35      1010.0     1       110         2       172        9.07     265      -74.2
   05/17/2017 19:40      64.1      63.5       56     47.5      0.00     18.28      70.2     0.35      1010.0     2        75         3        76        9.07     265      -72.4
   05/17/2017 19:30      64.4      64.1       55     47.7      0.00     18.28      70.0     0.35      1010.0     2        75         3        75        9.07     265      -65.5
   05/17/2017 19:20      64.7      64.4       54     47.7      0.00     18.28      70.0     0.35      1010.0     3       100         5       144        9.07     265      -50.1
   05/17/2017 19:10      64.9      64.6       54     47.7      0.00     18.28      70.1     0.35      1010.0     4       129         6       135        9.07     265      -30.8
   05/17/2017 19:00      66.5      64.9       53     47.8      0.00     18.28      69.9     0.35      1010.0     7       134        13       137        9.08     264       -7.0
   05/17/2017 18:50      67.2      66.5       51     48.2      0.00     18.28      70.1     0.35      1010.0     4        72         7        64        9.08     265       10.0
   05/17/2017 18:40      67.9      67.4       50     48.3      0.00     18.28      70.0     0.35      1010.0     3        71         6        62        9.08     264       32.2
   05/17/2017 18:30      68.0      67.8       50     48.4      0.00     18.28      69.9     0.35      1010.0     2       179         4       187        9.08     265       53.1
   05/17/2017 18:20      67.9      67.7       50     48.3      0.00     18.28      70.3     0.35      1010.0     2       141         4       154        9.08     265       79.1
   05/17/2017 18:10      68.1      67.4       50     48.3      0.00     18.28      69.8     0.35      1010.0     3       154         6       142        9.09     265      104.5
   05/17/2017 18:00      67.8      67.5       50     48.2      0.00     18.28      70.1     0.35      1010.0     4       124         5        85        9.09     265      132.3
   05/17/2017 17:50      67.8      67.6       50     48.2      0.00     18.28      70.0     0.35      1011.0     4       133         8       155        9.09     265      156.2
   05/17/2017 17:40      68.0      67.7       49     48.1      0.00     18.28      69.8     0.35      1011.0     3       136         7       133        9.09     265      180.7
   05/17/2017 17:30      68.6      67.5       49     48.2      0.00     18.28      69.7     0.35      1011.0     5       149         6       140        9.09     264      204.3
   05/17/2017 17:20      68.3      67.5       49     48.0      0.00     18.28      69.9     0.35      1011.0     5       131         8       165        9.09     265      219.8
   05/17/2017 17:10      68.1      67.7       49     48.2      0.00     18.28      69.7     0.35      1011.0     6       142         8       123        9.09     265      254.7
   05/17/2017 17:00      68.4      67.7       49     48.2      0.00     18.28      69.6     0.35      1011.0     7       161         8       195        9.09     265      274.0
   05/17/2017 16:50      68.5      67.7       49     48.2      0.00     18.28      69.8     0.35      1011.0     5       147         6       127        9.09     265      302.8
   05/17/2017 16:40      68.4      67.5       49     48.0      0.00     18.28      69.8     0.35      1011.0     6       129         9       124        9.09     265      340.8
   05/17/2017 16:30      68.8      66.8       49     48.1      0.00     18.28      69.6     0.35      1011.0     5       151         9       167        9.09     266      356.3
   05/17/2017 16:20      69.0      66.8       48     48.0      0.00     18.28      69.5     0.35      1011.0     8       140        13       122        9.09     265      373.1
   05/17/2017 16:10      68.6      67.8       49     48.2      0.00     18.28      69.4     0.35      1011.0     6       132         8       139        9.09     266      417.8
   05/17/2017 16:00      68.0      67.5       50     48.2      0.00     18.28      69.4     0.35      1011.0     6       143         9       165        9.09     265      363.0
   05/17/2017 15:50      69.0      67.8       49     48.6      0.00     18.28      69.5     0.35      1011.0     5       154         8       161        9.09     265      451.0
   05/17/2017 15:40      70.1      68.4       48     48.8      0.00     18.28      69.6     0.35      1011.0     6       177        11       145        9.09     265      512.6
   05/17/2017 15:30      69.9      68.1       50     48.9      0.00     18.28      69.3     0.35      1011.0     4       166         5       153        9.09     266      361.6
   05/17/2017 15:20      68.6      67.2       51     48.7      0.00     18.28      69.6     0.35      1011.0     3       238         5       155        9.09     266      230.1
   05/17/2017 15:10      68.7      67.2       50     48.7      0.00     18.28      69.3     0.35      1011.0     4       194         7       189        9.09     265      189.8
   05/17/2017 15:00      68.7      67.7       50     48.6      0.00     18.28      69.2     0.35      1012.0     4       210         6       135        9.09     266      387.0
   05/17/2017 14:50      69.7      68.9       48     48.9      0.00     18.28      69.2     0.35      1012.0     5       172         8       187        9.09     265      512.2
   05/17/2017 14:40      68.9      68.5       49     48.8      0.00     18.28      69.2     0.35      1012.0     4       173         7       155        9.09     266      605.3
   05/17/2017 14:30      68.5      67.5       50     48.5      0.00     18.28      69.5     0.35      1012.0     3       297         6       213        9.09     266      585.2
   05/17/2017 14:20      67.7      67.1       50     48.4      0.00     18.28      69.2     0.35      1012.0     4       144         8       145        9.09     266      621.5
   05/17/2017 14:10      67.1      65.7       52     48.3      0.00     18.28      69.0     0.35      1012.0     5       159         7       144        9.09     266      646.4
   05/17/2017 14:00      65.9      65.2       53     48.3      0.00     18.28      69.2     0.35      1012.0     6       170         9       154        9.09     266      472.8
   05/17/2017 13:50      65.7      65.3       54     48.3      0.00     18.28      69.1     0.35      1012.0     5       167         9       176        9.09     266      297.5
   05/17/2017 13:40      66.9      65.0       53     48.2      0.00     18.28      69.0     0.35      1012.0     5       125         7       161        9.09     266      249.6
   05/17/2017 13:30      67.2      65.5       52     48.0      0.00     18.28      68.9     0.35      1013.0     2       307         5       131        9.09     266      274.3
   05/17/2017 13:20      65.6      65.0       53     47.7      0.00     18.28      69.0     0.35      1013.0     3       160         4       124        9.09     266      320.6
   05/17/2017 13:10      65.9      65.0       52     47.7      0.00     18.28      69.0     0.35      1013.0     4       120         6       190        9.09     266      325.6
   05/17/2017 13:00      66.3      65.2       53     48.0      0.00     18.28      69.0     0.35      1013.0     3       178         5       179        9.09     267      435.7
   05/17/2017 12:50      65.4      64.0       54     47.6      0.00     18.28      69.0     0.35      1013.0     4       118         8       164        9.09     267      429.6
   05/17/2017 12:40      65.1      64.3       54     47.7      0.00     18.28      69.3     0.35      1013.0     4        74         5       115        9.09     267      282.1
   05/17/2017 12:30      64.2      62.9       56     47.5      0.00     18.28      68.7     0.35      1013.0     3       104         6       134        9.09     267      260.0
   05/17/2017 12:20      64.8      64.1       54     47.7      0.00     18.28      68.8     0.35      1013.0     3       135         6       131        9.09     267      232.9
   05/17/2017 12:10      64.6      63.5       55     47.3      0.00     18.28      69.0     0.35      1013.0     3        99         4       110        9.09     267      264.2
   05/17/2017 12:00      63.5      63.3       55     47.1      0.00     18.28      69.0     0.35      1013.0     3       164         5       158        9.09     267      232.9
   05/17/2017 11:50      63.9      62.6       56     47.2      0.00     18.28      69.0     0.35      1014.0     3       167         5       154        9.09     267      259.1
   05/17/2017 11:40      63.4      62.8       56     47.1      0.00     18.28      68.9     0.35      1014.0     4       151         9       168        9.09     267      195.4
   05/17/2017 11:30      62.6      61.8       57     46.6      0.00     18.28      69.1     0.35      1014.0     3       127         5        74        9.09     267      238.4
   05/17/2017 11:20      61.9      61.5       57     46.6      0.00     18.28      68.9     0.35      1014.0     5       139         7       196        9.09     267      224.7
   05/17/2017 11:10      62.2      61.4       58     46.6      0.00     18.28      68.9     0.35      1014.0     5       141         9       129        9.09     267      212.9
   05/17/2017 11:00      63.0      62.1       55     46.3      0.00     18.28      69.2     0.35      1014.0     3       112         5        82        9.09     267      215.0
   05/17/2017 10:50      63.3      62.5       55     46.4      0.00     18.28      68.7     0.35      1014.0     3        41         5        85        9.09     267      181.6
   05/17/2017 10:40      63.7      62.3       54     46.3      0.00     18.28      69.1     0.35      1014.0     2       357         4        22        9.09     267      185.9
   05/17/2017 10:30      62.1      61.4       55     45.6      0.00     18.28      68.8     0.35      1014.0     2       140         3       128        9.09     267      295.3
   05/17/2017 10:20      61.3      60.3       58     45.9      0.00     18.28      68.9     0.35      1014.0     2       113         3       128        9.09     267      290.3
   05/17/2017 10:10      61.2      60.3       59     46.1      0.00     18.28      69.0     0.35      1014.0     3       158         5       163        9.09     267      109.5
   05/17/2017 10:00      62.0      61.0       57     46.4      0.00     18.28      69.0     0.35      1014.0     3       308         4       284        9.09     267       92.0
   05/17/2017 09:50      63.7      62.5       54     46.3      0.00     18.28      69.0     0.35      1014.0     2       326         3       269        9.09     267      184.9
   05/17/2017 09:40      63.3      62.0       56     46.4      0.00     18.28      69.0     0.35      1014.0     2       343         5       333        9.09     267      521.9
   05/17/2017 09:30      62.2      60.0       58     46.0      0.00     18.28      68.9     0.35      1015.0     2       322         3       358        9.09     267      435.1
   05/17/2017 09:20      60.3      59.5       61     46.3      0.00     18.28      69.2     0.35      1015.0     3       344         5       337        9.09     267      360.3
   05/17/2017 09:10      60.9      59.8       62     47.1      0.00     18.28      68.9     0.35      1015.0     3        19         5         5        9.09     267      343.7
   05/17/2017 09:00      60.0      59.1       64     47.3      0.00     18.28      69.2     0.35      1015.0     2        46         4        31        9.09     268      326.0
   05/17/2017 08:50      59.2      58.3       66     47.3      0.00     18.28      69.2     0.35      1015.0     2        28         4        26        8.40     268      286.6
   05/17/2017 08:40      58.2      57.5       68     47.4      0.00     18.28      69.3     0.35      1015.0     2        23         5        33        8.40     268      248.2
   05/17/2017 08:30      57.6      56.8       70     47.5      0.00     18.28      69.4     0.35      1015.0     1         0         3       345        8.40     268       99.1
   05/17/2017 08:20      56.9      56.8       71     47.5      0.00     18.28      69.3     0.35      1015.0     2       353         2       350        8.40     268      114.7
   05/17/2017 08:10      56.8      56.3       72     47.6      0.00     18.28      69.1     0.35      1015.0     1       353         3       358        8.40     267      110.4
   05/17/2017 08:00      56.2      55.4       73     47.5      0.00     18.28      69.1     0.35      1015.0     1         9         2       349        8.40     268       97.2
   05/17/2017 07:50      55.6      55.3       74     47.4      0.00     18.28      69.3     0.35      1015.0     1       101         2       135        8.40     268       87.6
   05/17/2017 07:40      55.3      54.5       76     47.5      0.00     18.28      69.2     0.35      1015.0     1       353         1       205        8.40     268       82.1
   05/17/2017 07:30      54.6      53.8       78     47.5      0.00     18.28      69.3     0.35      1015.0     1       151         2       173        8.40     268       54.5
   05/17/2017 07:20      53.9      53.0       80     47.5      0.00     18.28      69.7     0.35      1015.0     1       146         2       138        8.40     268       53.4
   05/17/2017 07:10      52.9      51.6       83     47.2      0.00     18.28      69.2     0.35      1015.0     1       149         1       145        8.40     268       44.7
   05/17/2017 07:00      51.6      50.2       86     46.8      0.00     18.28      69.3     0.35      1015.0     1       182         2       173        8.40     268       26.4
   05/17/2017 06:50      50.4      49.3       87     46.1      0.00     18.28      69.2     0.35      1015.0     1       149         1       152        8.40     268       17.1
   05/17/2017 06:40      49.4      48.8       88     45.5      0.00     18.28      69.4     0.35      1015.0     1       140         1       165        8.41     268       11.2
   05/17/2017 06:30      48.8      48.4       88     45.3      0.00     18.28      69.6     0.35      1015.0     1       142         1       164        8.41     268       -1.7
   05/17/2017 06:20      48.4      48.2       89     45.1      0.00     18.28      69.5     0.35      1014.0     1       156         2       161        8.41     267      -17.0
   05/17/2017 06:10      48.3      47.7       89     44.7      0.00     18.28      69.4     0.35      1014.0     1       156         2       143        8.41     267      -24.1
   05/17/2017 06:00      48.0      47.8       88     44.6      0.00     18.28      69.8     0.35      1014.0     1       179         1       189        8.41     267      -31.5
   05/17/2017 05:50      48.0      47.8       88     44.5      0.00     18.28      69.6     0.35      1014.0     1       148         1       144        8.41     267      -34.9
   05/17/2017 05:40      47.9      47.6       87     44.1      0.00     18.28      69.7     0.35      1014.0     1       194         2       159        8.40     267      -37.6
   05/17/2017 05:30      48.5      47.8       86     44.0      0.00     18.28      69.5     0.35      1014.0     1       160         2       145        8.40     267      -38.5
   05/17/2017 05:20      48.8      48.5       86     44.5      0.00     18.28      69.8     0.35      1014.0     1       160         1       145        8.41     267      -35.4
   05/17/2017 05:10      48.7      48.4       86     44.5      0.00     18.28      69.6     0.35      1014.0     1       172         2       190        8.41     267      -34.1
   05/17/2017 05:00      48.7      48.3       86     44.4      0.00     18.28      69.8     0.35      1014.0     1       169         1       196        8.41     267      -23.8
   05/17/2017 04:50      48.2      47.8       87     44.1      0.00     18.28      69.7     0.35      1014.0     1       158         2       146        8.41     267      -31.0
   05/17/2017 04:40      48.1      47.8       85     43.7      0.00     18.28      70.0     0.35      1014.0     1       133         2       127        8.41     267      -42.7
   05/17/2017 04:30      48.4      48.2       84     43.8      0.00     18.28      70.0     0.35      1014.0     1       170         2       161        8.41     267      -41.7
   05/17/2017 04:20      48.5      48.2       85     44.1      0.00     18.28      70.0     0.35      1014.0     1       193         1       183        8.41     267      -35.2
   05/17/2017 04:10      48.5      48.3       85     44.2      0.00     18.28      69.8     0.35      1015.0     0       209         0       205        8.41     267      -41.0
   05/17/2017 04:00      48.7      48.5       85     44.5      0.00     18.28      70.1     0.35      1014.0     1       155         1       144        8.41     267      -44.3
   05/17/2017 03:50      48.7      48.5       85     44.3      0.00     18.28      70.2     0.35      1015.0     1       141         1       142        8.41     267      -45.9
   05/17/2017 03:40      48.9      48.6       84     44.3      0.00     18.28      69.9     0.35      1015.0     1       107         1       145        8.41     267      -48.0
   05/17/2017 03:30      49.3      48.8       84     44.5      0.00     18.28      70.0     0.35      1015.0     1       157         2       147        8.41     267      -49.9
   05/17/2017 03:20      48.9      48.6       84     44.2      0.00     18.28      70.0     0.35      1015.0     1       153         2       138        8.41     267      -51.4
   05/17/2017 03:10      48.8      48.1       84     43.8      0.00     18.28      70.0     0.35      1015.0     2       181         3       173        8.41     267      -53.1
   05/17/2017 03:00      49.3      48.6       81     43.2      0.00     18.28      70.3     0.36      1015.0     1       169         2       166        8.41     267      -54.5
   05/17/2017 02:50      49.7      49.4       79     43.2      0.00     18.28      70.3     0.35      1015.0     2       150         2       168        8.41     267      -54.7
   05/17/2017 02:40      50.2      49.9       78     43.5      0.00     18.28      70.3     0.36      1015.0     1       170         2       187        8.41     266      -54.0
   05/17/2017 02:30      50.0      49.7       79     43.7      0.00     18.28      70.4     0.36      1015.0     1       147         1       147        8.41     267      -54.7
   05/17/2017 02:20      49.9      49.7       79     43.4      0.00     18.28      70.4     0.36      1015.0     0        53         1        75        8.41     267      -55.2
   05/17/2017 02:10      50.0      49.7       78     43.5      0.00     18.28      70.3     0.36      1015.0     0        57         1        85        8.41     266      -55.9
   05/17/2017 02:00      50.8      50.0       76     43.1      0.00     18.28      70.2     0.36      1015.0     1       180         2       179        8.41     266      -55.2
   05/17/2017 01:50      50.8      50.1       77     43.3      0.00     18.28      70.4     0.35      1015.0     1       172         1       183        8.41     266      -55.4
   05/17/2017 01:40      50.2      49.7       77     43.0      0.00     18.28      70.3     0.36      1015.0     1       189         2       186        8.41     266      -54.4
   05/17/2017 01:30      50.0      49.5       77     42.9      0.00     18.28      70.3     0.36      1015.0     2       174         3       168        8.41     266      -52.3
   05/17/2017 01:20      50.3      49.7       77     43.1      0.00     18.28      70.4     0.36      1015.0     2       162         3       163        8.41     266      -53.3
   05/17/2017 01:10      51.1      50.6       75     43.2      0.00     18.28      70.3     0.35      1015.0     2       172         2       196        8.41     266      -52.8
   05/17/2017 01:00      51.2      50.6       76     43.6      0.00     18.28      70.5     0.36      1016.0     1       212         1       196        8.41     266      -50.5
   05/17/2017 00:50      50.8      50.5       77     43.5      0.00     18.28      70.5     0.36      1016.0     1       146         1       109        8.41     266      -51.1
   05/17/2017 00:40      51.7      51.0       75     43.7      0.00     18.28      70.3     0.36      1016.0     2       154         3       161        8.41     266      -53.3
   05/17/2017 00:30      51.7      51.4       75     43.9      0.00     18.28      70.5     0.36      1016.0     1       195         2       166        8.41     266      -52.3
   05/17/2017 00:20      51.5      51.1       75     43.8      0.00     18.28      70.6     0.36      1016.0     2       164         2       167        8.41     266      -53.9
   05/17/2017 00:10      51.9      51.4       73     43.4      0.00     18.28      70.7     0.36      1016.0     2       150         2       165        8.41     266      -57.4
   05/17/2017 00:00      52.6      52.0       71     43.2      0.00     18.28      70.6     0.36      1016.0     1       123         2       133        8.41     266      -59.5
   05/16/2017 23:50      52.8      52.4       71     43.4      0.00     18.28      70.6     0.36      1016.0     1        48         1       136        8.41     266      -59.2
   05/16/2017 23:40      53.0      52.5       70     43.3      0.00     18.28      70.7     0.36      1016.0     1       175         1       194        8.41     266      -59.2
   05/16/2017 23:30      52.9      52.4       70     43.1      0.00     18.28      70.5     0.36      1016.0     1       171         2       193        8.41     266      -59.3
   05/16/2017 23:20      53.1      52.6       69     43.0      0.00     18.28      70.5     0.36      1016.0     1       169         2       182        8.41     266      -59.4
   05/16/2017 23:10      53.2      52.6       68     42.7      0.00     18.28      70.8     0.36      1016.0     2       163         2       159        8.41     265      -59.3
   05/16/2017 23:00      53.7      53.2       67     42.6      0.00     18.28      70.9     0.36      1016.0     2       156         2       166        8.41     265      -58.5
   05/16/2017 22:50      54.2      53.8       65     42.6      0.00     18.28      70.5     0.36      1016.0     2       173         2       161        8.41     265      -58.7
   05/16/2017 22:40      53.8      53.5       66     42.4      0.00     18.28      70.7     0.36      1016.0     2       152         2       160        8.41     265      -60.0
   05/16/2017 22:30      54.1      54.0       64     42.3      0.00     18.28      70.6     0.36      1016.0     1       131         1       126        8.41     265      -61.4
   05/16/2017 22:20      54.3      54.1       64     42.2      0.00     18.28      70.8     0.36      1016.0     1        68         1        69        8.41     265      -63.0
   05/16/2017 22:10      55.5      54.6       62     42.2      0.00     18.28      70.7     0.35      1016.0     1       147         2       148        8.41     265      -63.2
   05/16/2017 22:00      55.8      55.4       61     42.4      0.00     18.28      70.7     0.36      1016.0     2       171         2       169        8.41     265      -61.6
   05/16/2017 21:50      56.1      55.8       60     42.5      0.00     18.28      70.7     0.36      1016.0     2       159         3       150        8.41     265      -60.4
   05/16/2017 21:40      56.4      56.0       60     42.6      0.00     18.28      70.7     0.36      1016.0     2       160         3       154        8.41     265      -61.6
   05/16/2017 21:30      56.6      56.1       60     42.5      0.00     18.28      70.5     0.36      1016.0     1       174         2       165        8.41     265      -62.1
   05/16/2017 21:20      56.6      56.4       59     42.4      0.00     18.28      70.5     0.36      1016.0     2       160         2       149        8.41     265      -58.8
   05/16/2017 21:10      56.8      56.4       58     42.2      0.00     18.28      70.8     0.36      1016.0     3       174         3       158        8.41     265      -57.2
   05/16/2017 21:00      57.1      56.7       58     42.2      0.00     18.28      70.3     0.36      1016.0     2       168         3       162        8.41     265      -59.1
   05/16/2017 20:50      57.2      56.7       57     42.1      0.00     18.28      70.6     0.36      1016.0     2       135         3       141        8.42     265      -59.6
   05/16/2017 20:40      57.0      56.6       57     41.9      0.00     18.28      70.7     0.36      1016.0     2       154         3       170        8.42     265      -62.8
   05/16/2017 20:30      57.6      57.1       56     41.7      0.00     18.28      70.7     0.35      1016.0     2       173         3       159        8.41     265      -69.3
   05/16/2017 20:20      58.4      57.7       54     41.5      0.00     18.28      70.3     0.35      1016.0     3       159         4       157        8.42     265      -70.5
   05/16/2017 20:10      58.7      58.4       53     41.3      0.00     18.28      70.4     0.35      1016.0     3       137         5       136        8.42     265      -68.1
   05/16/2017 20:00      58.8      58.4       52     41.2      0.00     18.28      70.4     0.35      1016.0     3       157         4       172        8.42     265      -65.5
   05/16/2017 19:50      59.3      58.8       52     41.2      0.00     18.28      70.5     0.35      1016.0     4       163         5       189        8.42     264      -63.6
   05/16/2017 19:40      60.0      59.6       51     41.3      0.00     18.28      70.4     0.35      1016.0     4       171         5       182        8.42     265      -54.7
   05/16/2017 19:30      60.2      59.9       49     41.1      0.00     18.28      70.6     0.35      1016.0     4       173         6       183        8.42     264      -38.9
   05/16/2017 19:20      61.5      60.4       48     41.0      0.00     18.28      70.5     0.35      1016.0     5       164         7       170        8.42     264      -23.3
   05/16/2017 19:10      61.7      61.2       47     41.1      0.00     18.28      70.4     0.35      1016.0     5       120         9       134        8.42     264        5.0
   05/16/2017 19:00      62.0      61.3       46     40.8      0.00     18.28      70.4     0.35      1016.0     6       130         8       138        8.42     264       31.6
   05/16/2017 18:50      62.2      61.3       46     41.0      0.00     18.28      70.3     0.35      1016.0     5       141         8       131        8.42     264       62.6
   05/16/2017 18:40      61.4      61.2       46     40.6      0.00     18.28      70.5     0.35      1016.0     5       174         7       172        8.42     265       49.4
   05/16/2017 18:30      61.8      61.3       47     41.0      0.00     18.28      70.4     0.35      1016.0     6       170         8       171        8.42     264       49.4
   05/16/2017 18:20      62.3      61.8       46     41.3      0.00     18.28      70.3     0.35      1016.0     5       166         8       186        8.43     264       28.5
   05/16/2017 18:10      62.5      62.3       45     40.9      0.00     18.28      70.2     0.35      1016.0     6       162         9       166        8.43     264       70.4
   05/16/2017 18:00      62.9      62.3       45     41.1      0.00     18.28      70.3     0.35      1016.0     7       158        11       155        8.43     264       60.5
   05/16/2017 17:50      63.3      62.8       44     41.0      0.00     18.28      70.0     0.35      1016.0     7       156        10       172        8.43     265      102.6
   05/16/2017 17:40      63.8      63.1       44     41.1      0.00     18.28      70.1     0.35      1016.0     6       149         9       156        8.43     265       65.5
   05/16/2017 17:30      64.3      63.7       44     41.4      0.00     18.28      69.9     0.35      1016.0     7       158        10       139        8.43     264      201.6
   05/16/2017 17:20      65.5      63.7       43     41.8      0.00     18.28      70.0     0.35      1016.0     7       159         9       178        8.43     264      145.3
   05/16/2017 17:10      65.3      64.3       44     42.5      0.00     18.28      69.9     0.35      1016.0     6       162        10       160        8.43     264      287.0
   05/16/2017 17:00      65.0      64.2       45     42.8      0.00     18.28      70.0     0.35      1016.0     7       142        11       150        8.44     264      186.1
   05/16/2017 16:50      65.3      64.9       45     43.2      0.00     18.28      70.0     0.35      1016.0     7       152        11       151        8.43     264      255.7
   05/16/2017 16:40      65.4      64.8       45     43.3      0.00     18.28      69.9     0.35      1016.0     7       153         9       153        8.44     264      341.3
   05/16/2017 16:30      65.8      64.7       45     43.7      0.00     18.28      69.8     0.35      1016.0     6       167         9       187        8.44     264      296.5
   05/16/2017 16:20      65.8      64.5       45     43.8      0.00     18.28      69.7     0.35      1016.0     7       148         9       153        8.44     264      369.9
   05/16/2017 16:10      65.9      65.5       45     44.0      0.00     18.28      69.7     0.35      1016.0     6       149         8       136        8.44     264      385.8
   05/16/2017 16:00      66.5      65.8       45     44.4      0.00     18.28      69.5     0.35      1016.0     6       154         8       162        8.44     264      405.1
   05/16/2017 15:50      67.4      65.9       45     44.6      0.00     18.28      69.5     0.35      1016.0     7       148        10       165        8.44     264      428.6
   05/16/2017 15:40      67.4      66.5       45     44.9      0.00     18.28      69.5     0.35      1016.0     6       124         9       123        8.44     265      445.5
   05/16/2017 15:30      67.1      66.0       46     45.0      0.00     18.28      69.4     0.35      1016.0     6       142         8       110        8.44     265      469.2
   05/16/2017 15:20      66.8      65.2       46     44.9      0.00     18.28      69.4     0.35      1016.0     5       160         8       169        8.44     264      477.2
   05/16/2017 15:10      66.2      65.5       47     45.0      0.00     18.28      69.4     0.35      1016.0     7       140        11       128        8.45     265      493.8
   05/16/2017 15:00      65.8      65.2       47     45.1      0.00     18.28      69.2     0.35      1016.0     7       181        11       120        8.45     265      519.4
   05/16/2017 14:50      66.5      65.2       47     45.0      0.00     18.28      69.1     0.35      1016.0     7       169        11       164        8.45     265      528.2
   05/16/2017 14:40      66.3      64.8       48     45.1      0.00     18.28      69.0     0.35      1016.0     6       156         8       167        8.45     265      539.5
   05/16/2017 14:30      66.3      65.0       47     45.0      0.00     18.28      69.1     0.35      1016.0     6       166         9       179        8.45     265      545.5
   05/16/2017 14:20      67.6      66.0       45     44.9      0.00     18.28      69.4     0.35      1016.0     6       160         8       133        8.45     265      569.8
   05/16/2017 14:10      67.2      66.3       45     44.5      0.00     18.28      69.1     0.35      1016.0     7       161        10       160        8.45     265      584.6
   05/16/2017 14:00      68.1      65.7       45     44.6      0.00     18.28      69.0     0.35      1016.0     6       131        11       161        8.45     265      582.0
   05/16/2017 13:50      67.4      65.7       45     44.6      0.00     18.28      68.9     0.35      1016.0     6       148        13       169        8.45     265      675.0
   05/16/2017 13:40      65.4      64.8       47     44.4      0.00     18.28      68.6     0.35      1016.0     6       107        10       142        8.46     266      407.2
   05/16/2017 13:30      65.4      64.9       47     44.5      0.00     18.28      68.8     0.35      1016.0     6       110         7       139        8.46     265      389.1
   05/16/2017 13:20      64.9      64.0       48     44.2      0.00     18.28      68.8     0.35      1016.0     6       116         9        83        8.46     265      314.0
   05/16/2017 13:10      65.8      64.9       46     44.1      0.00     18.28      68.8     0.35      1016.0     5        87         7        79        8.46     265      211.4
   05/16/2017 13:00      66.0      65.2       46     44.2      0.00     18.28      68.8     0.35      1016.0     6       122        12       150        8.47     265      710.7
   05/16/2017 12:50      66.6      65.9       45     44.5      0.00     18.28      68.7     0.35      1016.0     7       122        11       127        8.46     266      718.4
   05/16/2017 12:40      66.1      65.2       46     44.4      0.00     18.28      68.4     0.35      1016.0     6       134        10        72        8.47     266      717.0
   05/16/2017 12:30      66.1      64.2       47     44.5      0.00     18.28      68.5     0.35      1016.0     6       160        10       150        8.47     266      460.4
   05/16/2017 12:20      65.2      63.8       49     44.8      0.00     18.28      68.5     0.35      1016.0     5       159         8       156        8.47     266      614.7
   05/16/2017 12:10      64.4      63.5       51     45.2      0.00     18.28      68.5     0.35      1016.0     4       127         6        81        8.47     266      326.2
   05/16/2017 12:00      64.3      63.3       51     45.4      0.00     18.28      68.5     0.35      1016.0     4        85         7        88        8.47     266      337.7
   05/16/2017 11:50      65.0      63.5       50     45.4      0.00     18.28      68.7     0.35      1016.0     5       101         8       133        8.48     266      427.4
   05/16/2017 11:40      66.0      64.7       49     45.6      0.00     18.28      68.5     0.35      1016.0     4        99         6       107        8.48     266      581.2
   05/16/2017 11:30      65.5      64.3       49     45.4      0.00     18.28      68.4     0.35      1016.0     4       106         7       121        8.48     266      652.4
   05/16/2017 11:20      65.5      64.3       49     45.2      0.00     18.28      68.5     0.35      1016.0     4        53         7        12        8.48     266      274.5
   05/16/2017 11:10      65.5      64.8       48     45.2      0.00     18.28      68.6     0.35      1016.0     4        44         7        35        8.48     266      439.4
   05/16/2017 11:00      65.3      64.1       49     45.0      0.00     18.28      68.8     0.35      1016.0     4        79         7        77        8.48     267      577.7
   05/16/2017 10:50      65.1      64.2       49     45.0      0.00     18.28      68.6     0.35      1016.0     3        47         6        80        8.48     267      558.1
   05/16/2017 10:40      64.1      63.5       50     44.8      0.00     18.28      68.8     0.35      1016.0     4        41         5        90        8.48     267      528.7
   05/16/2017 10:30      63.7      62.5       51     44.9      0.00     18.28      68.6     0.35      1016.0     3        79         5        74        8.48     268      501.1
   05/16/2017 10:20      62.4      61.8       54     45.0      0.00     18.28      68.5     0.35      1016.0     3        24         6        24        8.48     268      501.4
   05/16/2017 10:10      62.0      61.2       54     44.9      0.00     18.28      68.8     0.35      1016.0     3        38         5       105        8.48     268      384.9
   05/16/2017 10:00      61.7      60.4       55     44.6      0.00     18.28      68.5     0.35      1016.0     5        77         7        95        8.48     268      425.8
   05/16/2017 09:50      61.8      60.4       55     44.5      0.00     18.28      68.8     0.35      1016.0     4        65         7       137        8.48     267      351.9
   05/16/2017 09:40      61.3      59.2       56     44.1      0.00     18.28      68.8     0.35      1016.0     2       101         3       147        8.48     268      301.0
   05/16/2017 09:30      61.0      60.2       54     43.8      0.00     18.28      69.0     0.35      1016.0     4        78         7        93        8.48     268      365.5
   05/16/2017 09:20      59.9      58.9       57     44.1      0.00     18.28      68.5     0.35      1016.0     3        17         6         9        8.48     268      378.9
   05/16/2017 09:10      59.6      58.5       58     44.4      0.00     18.28      68.5     0.35      1016.0     2        50         3        65        8.48     267      290.2
   05/16/2017 09:00      58.6      57.9       60     44.5      0.00     18.28      69.3     0.35      1016.0     3        48         5        62        8.48     268      341.3
   05/16/2017 08:50      57.9      56.2       63     44.6      0.00     18.28      68.8     0.35      1016.0     2        80         3         9        8.48     268      326.5
   05/16/2017 08:40      56.0      55.0       67     44.4      0.00     18.28      68.5     0.35      1016.0     3        36         4        91        8.50     268       74.0
   05/16/2017 08:30      55.1      54.5       67     44.3      0.00     18.28      68.9     0.35      1016.0     2        42         4        71        8.50     268      -20.3
   05/16/2017 08:20      54.7      53.9       69     44.3      0.00     18.28      68.9     0.35      1016.0     2        34         4        69        8.50     268      -17.1
   05/16/2017 08:10      53.9      53.3       71     44.3      0.00     18.28      69.2     0.35      1016.0     2        23         3        40        8.50     268       -4.3
   05/16/2017 08:00      53.5      52.6       72     44.2      0.00     18.28      69.1     0.35      1016.0     2        62         3        71        8.50     268       11.4
   05/16/2017 07:50      52.8      51.8       73     44.0      0.00     18.28      69.2     0.35      1016.0     1        23         2        15        8.50     268       15.6
   05/16/2017 07:40      52.0      51.1       75     43.7      0.00     18.28      69.4     0.35      1015.0     2        23         3       346        8.50     268       18.6
   05/16/2017 07:30      51.2      50.2       77     43.6      0.00     18.28      69.1     0.35      1015.0     1        62         2       127        8.50     268       22.1
   05/16/2017 07:20      50.3      49.5       80     43.8      0.00     18.28      69.1     0.35      1015.0     1        29         2        35        8.50     268       16.5
   05/16/2017 07:10      49.5      48.2       84     44.2      0.00     18.28      69.2     0.35      1015.0     1       139         2        95        8.50     268       14.3
   05/16/2017 07:00      48.0      47.0       88     44.1      0.00     18.28      69.0     0.35      1015.0     0        16         1        19        8.50     267       12.2
   05/16/2017 06:50      47.0      46.1       90     43.6      0.00     18.28      69.1     0.35      1015.0     0        24         1       352        8.50     268        7.0
   05/16/2017 06:40      46.3      45.6       90     43.1      0.00     18.28      69.4     0.35      1015.0     1       129         1       124        8.50     267        3.0
   05/16/2017 06:30      45.6      44.9       91     42.6      0.00     18.28      69.9     0.35      1015.0     1       161         1       143        8.50     268       -4.1
   05/16/2017 06:20      45.0      44.8       90     42.1      0.00     18.28      69.7     0.36      1014.0     1       194         2       174        8.50     267       -9.0
   05/16/2017 06:10      45.1      44.9       90     42.2      0.00     18.28      69.1     0.35      1014.0     2       152         2       142        8.50     267      -14.4
   05/16/2017 06:00      45.3      44.8       89     42.1      0.00     18.28      69.8     0.36      1014.0     1       155         2       133        8.50     267      -19.6
   05/16/2017 05:50      45.4      45.3       89     42.4      0.00     18.28      69.6     0.36      1014.0     1       164         2       146        8.50     267      -24.0
   05/16/2017 05:40      45.5      45.1       88     42.1      0.00     18.28      69.3     0.36      1014.0     1       153         2       146        8.50     267      -25.9
   05/16/2017 05:30      45.9      45.4       89     42.5      0.00     18.28      69.8     0.36      1014.0     1       177         1       200        8.50     267      -21.0
   05/16/2017 05:20      45.7      44.9       89     42.3      0.00     18.28      69.5     0.36      1014.0     1       149         1        93        8.50     267      -14.4
   05/16/2017 05:10      45.3      44.9       89     42.1      0.00     18.28      69.3     0.36      1014.0     1       140         2       127        8.50     267      -17.9
   05/16/2017 05:00      45.2      45.0       89     42.2      0.00     18.28      69.7     0.36      1014.0     1       174         2       187        8.50     267      -25.0
   05/16/2017 04:50      45.3      45.0       90     42.3      0.00     18.28      69.6     0.36      1014.0     1       156         2       139        8.50     267      -27.4
   05/16/2017 04:40      45.1      44.9       90     42.0      0.00     18.28      69.6     0.36      1014.0     2       165         3       148        8.50     267      -22.8
   05/16/2017 04:30      45.1      44.8       89     41.8      0.00     18.28      69.7     0.36      1014.0     1       158         2       159        8.50     267      -16.4
   05/16/2017 04:20      45.4      44.9       88     41.8      0.00     18.28      69.6     0.36      1014.0     2       155         2       175        8.50     267      -24.1
   05/16/2017 04:10      45.5      45.1       88     41.9      0.00     18.28      69.9     0.36      1014.0     0       113         1       162        8.50     267      -27.2
   05/16/2017 04:00      45.6      45.4       88     42.2      0.00     18.28      70.0     0.36      1014.0     0       292         1       321        8.50     267      -31.4
   05/16/2017 03:50      45.8      45.4       88     42.4      0.00     18.28      70.2     0.36      1014.0     1       178         1       188        8.50     267      -32.8
   05/16/2017 03:40      45.9      45.4       89     42.5      0.00     18.28      70.2     0.36      1014.0     1       201         2       158        8.50     267      -33.5
   05/16/2017 03:30      45.6      45.2       89     42.4      0.00     18.28      70.0     0.36      1014.0     1       205         2       140        8.50     267      -34.9
   05/16/2017 03:20      45.7      45.5       89     42.4      0.00     18.28      70.2     0.36      1014.0     1       165         2       142        8.50     267      -37.3
   05/16/2017 03:10      45.8      45.5       89     42.4      0.00     18.28      70.0     0.36      1014.0     1       179         1       125        8.50     267      -40.0
   05/16/2017 03:00      46.0      45.5       88     42.5      0.00     18.28      70.2     0.36      1014.0     1       186         2       197        8.50     267      -41.9
   05/16/2017 02:50      46.0      45.9       88     42.7      0.00     18.28      70.0     0.36      1014.0     1       139         1       122        8.51     267      -46.2
   05/16/2017 02:40      46.0      45.5       88     42.2      0.00     18.28      70.0     0.36      1014.0     1       154         3       163        8.51     267      -49.4
   05/16/2017 02:30      46.3      45.9       87     42.3      0.00     18.28      70.4     0.36      1014.0     2       148         3       153        8.51     267      -51.0
   05/16/2017 02:20      47.0      46.0       85     42.1      0.00     18.28      70.2     0.36      1014.0     2       170         2       142        8.51     267      -55.2
   05/16/2017 02:10      47.0      46.6       84     42.2      0.00     18.28      70.5     0.36      1015.0     1       182         1       215        8.51     267      -55.2
   05/16/2017 02:00      47.4      46.8       83     42.2      0.00     18.28      70.3     0.36      1015.0     1       163         1       217        8.51     267      -57.4
   05/16/2017 01:50      47.9      47.3       81     41.9      0.00     18.28      70.4     0.36      1015.0     1       276         1        50        8.51     267      -58.4
   05/16/2017 01:40      48.4      47.8       83     43.1      0.00     18.28      70.3     0.36      1015.0     1       222         2       194        8.51     267      -56.1
   05/16/2017 01:30      47.9      47.3       84     43.0      0.00     18.28      70.3     0.36      1015.0     1       175         1       230        8.51     267      -57.1
   05/16/2017 01:20      48.4      47.3       82     42.6      0.00     18.28      70.7     0.36      1015.0     1       124         2       143        8.51     267      -60.1
   05/16/2017 01:10      48.9      48.2       81     43.0      0.00     18.28      70.5     0.36      1015.0     1       202         1       164        8.51     267      -60.1
   05/16/2017 01:00      48.9      47.8       83     43.3      0.00     18.28      70.5     0.36      1015.0     3       215         3       201        8.51     267      -58.9
   05/16/2017 00:50      47.9      47.1       83     42.6      0.00     18.28      70.7     0.36      1015.0     3       148         4       156        8.51     267      -59.8
   05/16/2017 00:40      48.9      47.9       80     42.5      0.00     18.28      70.4     0.36      1015.0     1       184         2       137        8.51     267      -59.9
   05/16/2017 00:30      49.3      48.8       80     43.3      0.00     18.28      70.9     0.36      1015.0     1       174         1       143        8.51     266      -59.7
   05/16/2017 00:20      50.0      48.9       78     42.9      0.00     18.28      70.7     0.36      1015.0     1       147         2       139        8.51     266      -61.2
   05/16/2017 00:10      50.2      50.0       78     43.5      0.00     18.28      70.6     0.36      1015.0     1       253         2       266        8.51     266      -61.4
   05/16/2017 00:00      50.1      49.4       79     43.5      0.00     18.28      70.5     0.36      1014.0     2       167         3       163        8.51     267      -62.3
   05/15/2017 23:50      50.6      50.0       77     43.4      0.00     18.28      70.9     0.36      1015.0     1       200         3       140        8.51     267      -62.2
   05/15/2017 23:40      50.8      50.3       77     43.6      0.00     18.28      70.7     0.36      1015.0     1       196         2       174        8.51     267      -63.5
   05/15/2017 23:30      50.6      50.3       77     43.5      0.00     18.28      70.5     0.36      1014.0     3       185         4       175        8.51     266      -63.9
   05/15/2017 23:20      51.4      50.2       76     43.3      0.00     18.28      70.7     0.36      1015.0     3       185         3       187        8.51     266      -62.7
   05/15/2017 23:10      51.7      51.2       74     43.5      0.00     18.28      70.5     0.36      1015.0     2       222         3       247        8.51     266      -63.1
   05/15/2017 23:00      51.3      51.0       75     43.7      0.00     18.28      70.5     0.36      1015.0     1       182         2       158        8.51     266      -63.4
   05/15/2017 22:50      52.2      51.1       74     43.3      0.00     18.28      70.7     0.36      1014.0     1       161         2       149        8.51     266      -64.2
   05/15/2017 22:40      52.6      52.3       71     43.5      0.00     18.28      70.9     0.36      1014.0     1       250         2       284        8.51     266      -65.2
   05/15/2017 22:30      52.8      52.5       71     43.5      0.00     18.28      70.7     0.36      1014.0     2       211         3       244        8.51     266      -67.0
   05/15/2017 22:20      52.8      52.6       71     43.5      0.00     18.28      70.9     0.36      1014.0     3       207         3       220        8.51     266      -66.0
   05/15/2017 22:10      53.4      53.0       69     43.4      0.00     18.28      70.8     0.36      1014.0     2       216         4       195        8.51     266      -63.4
   05/15/2017 22:00      53.5      53.4       68     43.2      0.00     18.28      70.8     0.36      1014.0     2       237         4       243        8.51     266      -60.9
   05/15/2017 21:50      53.9      53.7       67     43.2      0.00     18.28      71.0     0.36      1014.0     2       237         3       245        8.51     266      -61.5
   05/15/2017 21:40      54.0      53.7       67     43.2      0.00     18.28      70.9     0.36      1014.0     3       261         3       258        8.51     266      -67.0
   05/15/2017 21:30      54.2      53.7       66     43.0      0.00     18.28      70.9     0.36      1014.0     3       216         4       225        8.51     266      -68.3
   05/15/2017 21:20      54.7      54.1       65     42.8      0.00     18.28      70.9     0.36      1014.0     3       225         4       242        8.51     266      -70.0
   05/15/2017 21:10      55.1      54.6       64     42.8      0.00     18.28      71.0     0.36      1014.0     2       231         3       241        8.51     266      -71.8
   05/15/2017 21:00      55.2      54.5       64     42.9      0.00     18.28      70.8     0.36      1014.0     4       254         7       260        8.51     266      -72.0
   05/15/2017 20:50      54.9      54.7       64     43.1      0.00     18.28      70.7     0.36      1014.0     3       232         4       195        8.51     265      -72.3
   05/15/2017 20:40      55.0      54.7       65     43.3      0.00     18.28      70.6     0.36      1013.0     3       226         3       229        8.51     265      -73.3
   05/15/2017 20:30      55.5      54.9       64     43.2      0.00     18.28      70.7     0.36      1013.0     3       208         3       182        8.51     265      -75.2
   05/15/2017 20:20      56.0      55.6       62     43.1      0.00     18.28      70.9     0.36      1013.0     3       226         5       224        8.51     265      -76.7
   05/15/2017 20:10      56.8      56.1       61     43.1      0.00     18.28      71.0     0.36      1013.0     4       228         6       236        8.51     265      -77.5
   05/15/2017 20:00      57.1      56.7       59     42.8      0.00     18.28      71.0     0.36      1013.0     5       226         7       206        8.51     265      -77.0
   05/15/2017 19:50      58.0      57.3       57     42.4      0.00     18.28      71.1     0.36      1013.0     6       240        10       233        8.51     265      -74.5
   05/15/2017 19:40      58.7      58.2       54     42.0      0.00     18.28      71.0     0.36      1013.0     5       235         7       249        8.51     265      -55.5
   05/15/2017 19:30      59.5      58.8       53     41.9      0.00     18.28      70.9     0.36      1013.0     4       222         8       195        8.51     265      -33.1
   05/15/2017 19:20      60.0      59.5       51     41.8      0.00     18.28      70.8     0.36      1013.0     5       208         6       197        8.51     265      -14.3
   05/15/2017 19:10      60.4      59.8       48     40.5      0.00     18.28      71.0     0.36      1012.0     4       178         7       160        8.51     265        3.0
   05/15/2017 19:00      60.5      60.0       47     39.8      0.00     18.28      70.8     0.36      1013.0     4       185         8       195        8.51     265       21.9
   05/15/2017 18:50      60.6      60.1       45     39.2      0.00     18.28      70.9     0.36      1012.0     5       162         6       150        8.51     265       21.3
   05/15/2017 18:40      60.8      60.1       45     38.8      0.00     18.28      70.7     0.36      1012.0     4       152         8       162        8.51     265       34.9
   05/15/2017 18:30      60.3      60.0       44     38.5      0.00     18.28      70.8     0.36      1012.0     4       151         7       159        8.51     265       19.9
   05/15/2017 18:20      60.4      60.0       44     38.2      0.00     18.28      70.7     0.36      1012.0     5       170         7       149        8.51     265       16.1
   05/15/2017 18:10      60.5      60.2       44     38.1      0.00     18.28      70.6     0.36      1012.0     5       146         7       148        8.51     265        1.4
   05/15/2017 18:00      60.8      60.4       43     38.0      0.00     18.28      70.9     0.36      1012.0     4       166         5       156        8.51     265        4.7
   05/15/2017 17:50      60.6      60.4       43     37.8      0.00     18.28      70.7     0.36      1012.0     5       164         7       175        8.51     265       -4.1
   05/15/2017 17:40      61.1      60.5       42     37.7      0.00     18.28      70.9     0.36      1012.0     6       160         8       159        8.51     265       -8.2
   05/15/2017 17:30      61.8      61.3       41     37.8      0.00     18.28      70.6     0.36      1012.0     3       152         6       138        8.51     265        0.3
   05/15/2017 17:20      62.1      61.8       41     38.0      0.00     18.28      70.7     0.36      1012.0     2       227         4       281        8.51     265       -1.8
   05/15/2017 17:10      62.4      62.1       41     38.3      0.00     18.28      70.7     0.36      1012.0     3       168         6       152        8.51     265       16.9
   05/15/2017 17:00      62.4      62.2       40     38.0      0.00     18.28      70.8     0.36      1012.0     2       180         3       131        8.51     265       42.7
   05/15/2017 16:50      62.7      62.2       41     38.1      0.00     18.28      70.5     0.36      1012.0     3       162         5       163        8.51     265       75.4
   05/15/2017 16:40      63.3      62.6       40     38.7      0.00     18.28      70.7     0.36      1012.0     3       221         4       214        8.51     265       78.7
   05/15/2017 16:30      63.0      62.5       40     38.2      0.00     18.28      70.5     0.36      1012.0     2       356         4         8        8.51     265      106.5
   05/15/2017 16:20      62.7      61.6       41     38.1      0.00     18.28      70.5     0.36      1012.0     2       355         3         3        8.51     265      102.1
   05/15/2017 16:10      62.1      61.6       41     37.9      0.00     18.28      70.5     0.36      1012.0     3       218         6       233        8.51     265       75.0
   05/15/2017 16:00      62.0      61.7       41     37.9      0.00     18.28      70.4     0.36      1012.0     4       159         6       174        8.51     265       75.6
   05/15/2017 15:50      61.9      61.7       41     37.7      0.00     18.28      70.4     0.36      1012.0     4       127         7       140        8.51     265       64.7
   05/15/2017 15:40      62.0      61.4       41     37.9      0.00     18.28      70.5     0.36      1012.0     2       101         5       124        8.51     265       60.8
   05/15/2017 15:30      61.7      60.9       42     38.1      0.00     18.28      70.4     0.36      1012.0     4       153         7       168        8.51     265       55.5
   05/15/2017 15:20      61.9      61.3       42     38.2      0.00     18.28      70.3     0.36      1013.0     5       136         7       163        8.51     265       85.5
   05/15/2017 15:10      62.3      61.1       42     38.6      0.00     18.28      70.7     0.36      1013.0     6       154         9       181        8.51     265      170.7
   05/15/2017 15:00      61.8      61.4       42     38.6      0.00     18.28      70.3     0.36      1013.0     6       140         9       171        8.51     265      131.7
   05/15/2017 14:50      62.0      61.7       43     39.2      0.00     18.28      70.4     0.36      1013.0     7       137        10       142        8.51     265      240.2
   05/15/2017 14:40      62.0      61.3       44     39.6      0.00     18.28      70.5     0.36      1013.0     5       181         9       168        8.51     265      269.1
   05/15/2017 14:30      61.2      60.8       46     39.8      0.00     18.28      70.3     0.36      1013.0     6       171        10       174        8.51     265      272.9
   05/15/2017 14:20      61.8      60.8       46     40.3      0.00     18.28      70.3     0.36      1013.0     6       179        12       170        8.39     265      258.3
   05/15/2017 14:10      61.3      60.6       46     40.3      0.00     18.28      70.0     0.36      1013.0     6       171         9       211        8.39     265      175.4
   05/15/2017 14:00      61.2      60.7       47     40.4      0.00     18.28      70.3     0.36      1013.0     5       174         8       157        8.39     265      158.6
   05/15/2017 13:50      60.8      60.3       47     40.3      0.00     18.28      70.1     0.36      1013.0     6       191         8       156        8.39     265      139.3
   05/15/2017 13:40      60.9      60.1       48     40.7      0.00     18.28      70.3     0.36      1013.0     6       207         9       216        8.39     265      119.8
   05/15/2017 13:30      61.3      60.9       47     40.9      0.00     18.28      70.2     0.35      1013.0     5       186         9       173        8.39     265      168.9
   05/15/2017 13:20      61.9      60.9       46     40.6      0.00     18.28      70.3     0.35      1013.0     8       165        13       145        8.40     265      141.5
   05/15/2017 13:10      63.3      62.2       44     40.5      0.00     18.28      70.3     0.35      1012.0     8       150        12       143        8.40     265      331.5
   05/15/2017 13:00      64.1      62.6       44     41.0      0.00     18.28      70.1     0.35      1012.0     8       147        12       131        8.40     265      552.5
   05/15/2017 12:50      63.9      62.8       45     41.5      0.00     18.28      70.1     0.35      1012.0     6       156        10       166        8.40     265      569.1
   05/15/2017 12:40      63.5      61.8       46     41.5      0.00     18.28      70.3     0.35      1012.0     5       141         8       167        8.40     266      642.6
   05/15/2017 12:30      62.0      60.2       47     40.7      0.00     18.28      70.1     0.35      1012.0     6       148         9       148        8.41     266      372.1
   05/15/2017 12:20      61.2      60.6       47     40.5      0.00     18.28      70.4     0.35      1012.0     6       151        11       125        8.41     265      154.9
   05/15/2017 12:10      62.6      61.3       46     40.8      0.00     18.28      70.3     0.35      1012.0     7       167        11       163        8.41     265      275.1
   05/15/2017 12:00      63.3      62.0       46     41.6      0.00     18.28      70.2     0.35      1012.0     7       148        10       140        8.41     266      645.3
   05/15/2017 11:50      62.9      61.3       47     41.8      0.00     18.28      70.5     0.35      1012.0     7       134        11       133        8.41     266      599.3
   05/15/2017 11:40      62.3      61.3       47     41.6      0.00     18.28      70.2     0.35      1012.0     5       119        10       126        8.41     266      470.2
   05/15/2017 11:30      61.5      59.4       50     41.7      0.00     18.28      70.2     0.36      1012.0     7       128        10       127        8.41     267      517.6
   05/15/2017 11:20      59.7      58.8       52     41.5      0.00     18.28      70.1     0.36      1012.0     6       144        10       174        8.41     267      220.0
   05/15/2017 11:10      59.3      58.8       52     41.6      0.00     18.28      70.5     0.36      1012.0     6       184        10       205        8.41     267      149.1
   05/15/2017 11:00      59.0      58.6       52     41.4      0.00     18.28      70.1     0.36      1012.0     6       166         9       148        8.41     267       98.9
   05/15/2017 10:50      59.2      58.6       52     41.1      0.00     18.28      70.3     0.36      1012.0     6       172         8       162        8.41     267       78.3
   05/15/2017 10:40      60.1      59.4       52     42.2      0.00     18.28      70.4     0.36      1012.0     6       167         8       184        8.42     267      106.9
   05/15/2017 10:30      60.8      60.3       51     42.2      0.00     18.28      70.5     0.36      1012.0     3       115         7       131        8.41     267      115.0
   05/15/2017 10:20      61.8      60.7       49     41.9      0.00     18.28      70.6     0.36      1012.0     4        92         7        79        8.41     267      189.3
   05/15/2017 10:10      60.9      60.0       51     42.1      0.00     18.28      70.1     0.36      1012.0     4       114         8        68        8.41     267      432.1
   05/15/2017 10:00      61.0      59.4       53     43.0      0.00     18.28      70.5     0.36      1012.0     3       146         6       140        8.42     267      552.9
   05/15/2017 09:50      59.5      58.3       55     42.7      0.00     18.28      70.6     0.36      1012.0     5       134         7       131        8.42     267      438.8
   05/15/2017 09:40      58.6      57.5       58     43.2      0.00     18.28      70.9     0.36      1012.0     3       140         5       126        8.42     267      137.4
   05/15/2017 09:30      57.8      57.5       59     43.4      0.00     18.28      70.8     0.36      1012.0     5       151         8       159        8.42     267      114.6
   05/15/2017 09:20      57.8      57.2       60     43.7      0.00     18.28      70.6     0.36      1012.0     3       170         6       214        8.42     267      110.3
   05/15/2017 09:10      58.0      57.5       60     43.8      0.00     18.28      70.3     0.36      1012.0     4       200         5       136        8.42     267      152.8
   05/15/2017 09:00      57.7      57.4       58     43.0      0.00     18.28      70.9     0.36      1012.0     4       133         5       131        8.42     268      166.4
   05/15/2017 08:50      57.7      57.5       58     42.8      0.00     18.28      70.8     0.36      1012.0     3        77         5        56        8.42     268       96.1
   05/15/2017 08:40      57.6      56.5       61     43.6      0.00     18.28      70.6     0.36      1012.0     2       131         3       118        8.42     268      119.0
   05/15/2017 08:30      57.0      56.5       63     44.1      0.00     18.28      71.0     0.36      1012.0     4       153         6       136        8.43     268       20.4
   05/15/2017 08:20      57.0      55.9       64     44.4      0.00     18.28      70.5     0.36      1012.0     2       100         4       223        8.43     268        7.2
   05/15/2017 08:10      56.2      55.7       65     44.4      0.00     18.28      70.9     0.36      1012.0     3        49         5        78        8.43     268       12.3
   05/15/2017 08:00      56.0      55.3       67     44.8      0.00     18.28      70.6     0.36      1012.0     3        66         5        67        8.42     268        3.8
   05/15/2017 07:50      55.3      54.6       70     45.6      0.00     18.28      70.8     0.36      1012.0     3       136         5       139        8.43     268       -3.9
   05/15/2017 07:40      54.8      54.6       71     45.7      0.00     18.28      70.8     0.36      1012.0     3        98         6       134        8.43     268        3.8
   05/15/2017 07:30      54.7      54.0       73     46.0      0.00     18.28      70.7     0.36      1012.0     2        80         4        70        8.43     268       -3.2
   05/15/2017 07:20      54.1      53.4       77     46.6      0.00     18.28      70.9     0.36      1012.0     2        84         3        77        8.43     268      -14.1
   05/15/2017 07:10      53.6      52.8       80     47.1      0.00     18.28      70.9     0.36      1012.0     2        91         3        79        8.43     269      -16.7
   05/15/2017 07:00      52.8      52.2       81     46.9      0.00     18.28      70.7     0.36      1012.0     1       194         1       186        8.43     268      -24.3
   05/15/2017 06:50      52.4      51.7       82     46.8      0.00     18.28      70.9     0.36      1012.0     1       159         2       178        8.43     268      -32.3
   05/15/2017 06:40      51.8      51.2       84     46.7      0.00     18.28      71.3     0.36      1012.0     1       148         2       169        8.43     268      -27.9
   05/15/2017 06:30      51.4      51.1       83     46.3      0.00     18.28      71.2     0.36      1012.0     1       126         2       126        8.43     268      -22.9
   05/15/2017 06:20      51.4      51.2       83     46.2      0.00     18.28      71.2     0.36      1011.0     1        15         1        28        8.43     268      -35.6
   05/15/2017 06:10      51.7      51.5       83     46.4      0.00     18.28      71.2     0.36      1011.0     2       176         2       202        8.43     268      -54.3
   05/15/2017 06:00      51.9      51.7       82     46.6      0.00     18.28      71.2     0.36      1011.0     1       120         2       126        8.43     268      -46.1
   05/15/2017 05:50      51.8      51.1       84     46.9      0.00     18.28      70.9     0.36      1011.0     2       116         2       121        8.43     268      -29.5
   05/15/2017 05:40      51.2      50.6       86     46.8      0.00     18.28      71.3     0.36      1011.0     1        80         2        83        8.43     268      -14.0
   05/15/2017 05:30      50.6      50.2       86     46.3      0.00     18.28      71.3     0.36      1011.0     1        85         3        71        8.43     268      -17.4
   05/15/2017 05:20      50.7      50.2       85     46.1      0.00     18.28      71.4     0.36      1011.0     2       143         2       153        8.43     268      -38.6
   05/15/2017 05:10      50.9      50.7       85     46.4      0.00     18.28      71.2     0.36      1012.0     2       140         2       138        8.43     268      -48.7
   05/15/2017 05:00      51.1      50.8       85     46.5      0.00     18.28      71.3     0.36      1011.0     1       160         1       136        8.43     268      -49.9
   05/15/2017 04:50      50.9      50.7       85     46.4      0.00     18.28      71.5     0.36      1011.0     1       189         1       204        8.43     268      -39.3
   05/15/2017 04:40      51.2      50.9       84     46.4      0.00     18.28      71.5     0.36      1011.0     1       129         1       143        8.43     268      -40.7
   05/15/2017 04:30      51.4      51.1       83     46.3      0.00     18.28      71.3     0.36      1011.0     0       185         1       206        8.43     268      -44.9
   05/15/2017 04:20      51.9      51.2       82     46.1      0.00     18.28      71.4     0.36      1011.0     1        84         1        78        8.43     268      -49.7
   05/15/2017 04:10      52.2      51.8       81     46.3      0.00     18.28      71.5     0.36      1011.0     1       110         2       105        8.43     268      -48.9
   05/15/2017 04:00      52.5      52.3       80     46.4      0.00     18.28      71.5     0.36      1011.0     2       101         3        73        8.43     268      -41.6
   05/15/2017 03:50      52.5      52.2       80     46.4      0.00     18.28      71.3     0.36      1011.0     2        95         3        74        8.43     268      -36.4
   05/15/2017 03:40      52.3      52.1       81     46.5      0.00     18.28      71.6     0.36      1011.0     2        94         2        76        8.44     268      -27.3
   05/15/2017 03:30      52.2      52.2       80     46.4      0.00     18.28      71.6     0.36      1011.0     2        83         3        74        8.44     268      -20.7
   05/15/2017 03:20      52.3      51.7       81     46.4      0.00     18.28      72.0     0.36      1011.0     2        36         3        66        8.44     268      -24.2
   05/15/2017 03:10      51.6      51.0       83     46.3      0.00     18.28      71.6     0.36      1011.0     2        49         3        45        8.44     268      -29.7
   05/15/2017 03:00      51.0      50.2       86     46.4      0.00     18.28      71.5     0.36      1011.0     1         3         3       358        8.44     267      -28.9
   05/15/2017 02:50      50.2      49.4       87     46.0      0.00     18.28      71.8     0.36      1011.0     1       119         2        62        8.44     267      -36.5
   05/15/2017 02:40      49.6      49.4       86     45.4      0.00     18.28      71.8     0.36      1011.0     1        97         2        84        8.45     267      -35.5
   05/15/2017 02:30      50.1      49.8       87     46.2      0.00     18.28      71.7     0.36      1011.0     1        68         2       355        8.45     267      -32.5
   05/15/2017 02:20      50.0      49.6       87     46.0      0.00     18.28      71.8     0.36      1011.0     1       113         2       139        8.45     267      -42.1
   05/15/2017 02:10      50.0      49.7       86     45.8      0.00     18.28      71.9     0.36      1011.0     1        94         2        70        8.45     267      -47.3
   05/15/2017 02:00      50.1      49.9       86     45.8      0.00     18.28      71.8     0.36      1011.0     2       116         3       135        8.45     267      -47.7
   05/15/2017 01:50      50.3      49.4       87     45.9      0.00     18.28      71.6     0.36      1012.0     1       128         2        83        8.46     267      -36.9
   05/15/2017 01:40      50.0      49.3       85     45.5      0.00     18.28      72.3     0.36      1012.0     2       143         2       161        8.46     267      -49.5
   05/15/2017 01:30      50.6      50.2       85     46.0      0.00     18.28      71.8     0.36      1012.0     1        95         2       157        8.46     267      -54.4
   05/15/2017 01:20      50.7      50.3       85     46.1      0.00     18.28      72.1     0.36      1012.0     1       238         1        11        8.46     267      -58.3
   05/15/2017 01:10      50.5      50.2       84     45.7      0.00     18.28      71.7     0.36      1012.0     1       103         1       107        8.46     266      -62.3
   05/15/2017 01:00      50.9      50.7       83     45.8      0.00     18.28      72.0     0.36      1012.0     1        97         2       110        8.46     267      -65.2
   05/15/2017 00:50      51.4      51.0       82     46.0      0.00     18.28      72.3     0.36      1012.0     2       111         3        93        8.46     267      -67.3
   05/15/2017 00:40      51.7      51.5       82     46.5      0.00     18.28      72.3     0.36      1012.0     1       109         2        98        8.47     267      -68.4
   05/15/2017 00:30      52.1      51.7       81     46.3      0.00     18.28      72.0     0.36      1012.0     2       137         3       144        8.47     267      -70.7
   05/15/2017 00:20      52.7      52.2       80     46.5      0.00     18.28      72.5     0.36      1012.0     3       144         4       139        8.47     267      -71.3
   05/15/2017 00:10      52.8      52.6       79     46.3      0.00     18.28      72.3     0.36      1012.0     2        80         3        98        8.47     266      -71.6
   05/15/2017 00:00      53.4      52.9       78     46.4      0.00     18.28      72.4     0.36      1012.0     2        71         3        68        8.47     266      -65.1
   05/14/2017 23:50      53.8      53.6       77     46.6      0.00     18.28      72.1     0.36      1012.0     1        69         2        78        8.47     266      -68.0
   05/14/2017 23:40      54.1      54.0       76     46.6      0.00     18.28      72.2     0.36      1012.0     2        88         3        78        8.47     266      -69.3
   05/14/2017 23:30      54.1      54.0       75     46.4      0.00     18.28      72.0     0.36      1012.0     3       125         5       127        8.47     266      -57.7
   05/14/2017 23:20      54.4      54.1       75     46.4      0.00     18.28      72.2     0.36      1012.0     3       117         4       124        8.47     267      -60.4
   05/14/2017 23:10      54.3      54.0       75     46.3      0.00     18.28      72.4     0.36      1012.0     3       107         5        99        8.47     266      -46.8
   05/14/2017 23:00      54.3      54.1       74     46.2      0.00     18.28      72.3     0.36      1012.0     4       130         5       133        8.47     266      -66.7
   05/14/2017 22:50      54.5      54.3       74     46.4      0.00     18.28      72.7     0.36      1012.0     4        71         8        62        8.47     266      -66.9
   05/14/2017 22:40      54.6      54.4       73     46.2      0.00     18.28      72.1     0.36      1012.0     2        51         4        79        8.48     266      -74.9
   05/14/2017 22:30      54.6      54.3       71     45.5      0.00     18.28      72.5     0.36      1012.0     2        65         3        63        8.48     266      -75.3
   05/14/2017 22:20      55.2      54.6       70     45.4      0.00     18.28      72.3     0.36      1012.0     2       106         3       123        8.48     266      -75.9
   05/14/2017 22:10      55.5      55.2       70     45.7      0.00     18.28      72.3     0.36      1012.0     4       125         5       130        8.48     266      -76.2
   05/14/2017 22:00      55.6      55.4       70     46.0      0.00     18.28      72.3     0.36      1012.0     4       138         6       138        8.48     266      -75.7
   05/14/2017 21:50      55.5      55.3       70     46.0      0.00     18.28      72.5     0.36      1012.0     3       137         5       170        8.48     265      -70.9
   05/14/2017 21:40      55.6      55.5       70     46.0      0.00     18.28      72.4     0.36      1011.0     2       112         2       117        8.48     265      -65.0
   05/14/2017 21:30      55.9      55.5       70     45.9      0.00     18.28      72.4     0.36      1011.0     1        91         2        87        8.48     266      -63.2
   05/14/2017 21:20      55.8      55.5       70     45.8      0.00     18.28      72.5     0.36      1011.0     1        85         1       126        8.48     265      -60.0
   05/14/2017 21:10      56.0      55.7       69     45.9      0.00     18.28      72.4     0.36      1011.0     2       168         2       144        8.49     265      -59.3
   05/14/2017 21:00      56.9      56.0       67     45.8      0.00     18.28      72.3     0.36      1011.0     1       118         2       127        8.49     265      -76.5
   05/14/2017 20:50      57.2      56.9       66     46.0      0.00     18.28      72.5     0.36      1011.0     2        89         3        62        8.49     265      -73.1
   05/14/2017 20:40      57.2      57.0       66     45.9      0.00     18.28      72.3     0.36      1011.0     2       105         4       130        8.49     265      -80.6
   05/14/2017 20:30      57.6      57.1       65     45.7      0.00     18.28      72.3     0.36      1011.0     3       132         4        90        8.50     265      -82.3
   05/14/2017 20:20      57.7      57.3       65     45.7      0.00     18.28      72.2     0.36      1011.0     4       136         5       140        8.50     265      -83.5
   05/14/2017 20:10      58.1      57.9       64     45.7      0.00     18.28      72.7     0.36      1011.0     3       140         4       139        8.50     265      -83.2
   05/14/2017 20:00      59.1      58.2       61     45.4      0.00     18.28      72.3     0.36      1011.0     3       163         4       178        8.50     265      -82.6
   05/14/2017 19:50      59.6      59.3       59     45.3      0.00     18.28      72.3     0.36      1011.0     3       130         5       137        8.50     265      -81.9
   05/14/2017 19:40      59.9      59.6       60     45.7      0.00     18.28      72.3     0.36      1011.0     4       131         6       124        8.51     265      -79.9
   05/14/2017 19:30      60.4      60.0       59     46.0      0.00     18.28      72.1     0.36      1011.0     3       132         6       104        8.51     265      -76.2
   05/14/2017 19:20      61.0      60.4       58     46.0      0.00     18.28      72.4     0.36      1010.0     5       136         6       140        8.51     265      -72.1
   05/14/2017 19:10      61.5      61.0       57     46.1      0.00     18.28      72.2     0.36      1010.0     4       133         7       122        8.51     265      -69.9
   05/14/2017 19:00      62.5      61.6       56     46.0      0.00     18.28      72.3     0.36      1010.0     5       123         8       131        8.51     265      -67.3
   05/14/2017 18:50      63.4      62.5       53     45.7      0.00     18.28      72.3     0.36      1010.0     4       104         6       130        8.51     265      -64.7
   05/14/2017 18:40      64.1      63.5       52     45.6      0.00     18.28      72.2     0.36      1010.0     4       118         6       119        8.51     264      -44.0
   05/14/2017 18:30      65.0      64.1       49     44.8      0.00     18.28      72.3     0.36      1010.0     4       135         7       126        8.51     264      -32.2
   05/14/2017 18:20      65.7      64.8       46     43.8      0.00     18.28      72.2     0.36      1010.0     6       131         9       153        8.51     264       56.0
   05/14/2017 18:10      66.1      65.5       42     42.2      0.00     18.28      72.1     0.36      1010.0     5       120         8       106        8.52     264       88.1
   05/14/2017 18:00      66.9      66.1       41     42.5      0.00     18.28      72.2     0.36      1010.0     4       128         7       129        8.52     264      116.3
   05/14/2017 17:50      67.2      66.3       43     43.5      0.00     18.28      72.3     0.36      1010.0     5       127         8       134        8.52     264      148.0
   05/14/2017 17:40      68.4      67.0       40     42.5      0.00     18.28      72.0     0.36      1010.0     6       100         9       139        8.52     264      177.7
   05/14/2017 17:30      68.8      68.3       39     42.8      0.00     18.28      72.0     0.36      1010.0     4       131         7       144        8.53     264      203.9
   05/14/2017 17:20      68.7      68.0       40     42.8      0.00     18.28      72.0     0.36      1010.0     4       104         5       119        8.53     264      224.8
   05/14/2017 17:10      68.2      67.6       41     43.1      0.00     18.28      72.0     0.36      1010.0     4        99         5       114        8.54     264      248.7
   05/14/2017 17:00      67.8      67.2       42     43.4      0.00     18.28      71.8     0.36      1010.0     4        90         7        92        8.54     264      268.7
   05/14/2017 16:50      68.6      67.4       42     43.7      0.00     18.28      71.7     0.36      1010.0     6        99         8        65        8.55     264      299.6
   05/14/2017 16:40      68.8      68.2       41     44.0      0.00     18.28      71.7     0.36      1010.0     5       106         8        96        8.55     264      318.2
   05/14/2017 16:30      69.3      68.5       41     44.3      0.00     18.28      71.9     0.36      1010.0     4       103         6       131        8.55     264      346.4
   05/14/2017 16:20      68.9      67.2       43     44.8      0.00     18.28      71.7     0.36      1010.0     6       111         9       138        8.55     264      369.2
   05/14/2017 16:10      67.9      66.9       44     44.7      0.00     18.28      71.5     0.36      1010.0     6       117        11       104        8.55     264      393.5
   05/14/2017 16:00      68.3      66.7       44     44.9      0.00     18.28      71.6     0.36      1010.0     6       107        11        98        8.56     264      397.4
   05/14/2017 15:50      67.3      66.7       44     44.5      0.00     18.28      71.4     0.36      1010.0     7       130        12       136        8.56     264      361.7
   05/14/2017 15:40      69.0      67.3       44     45.2      0.00     18.28      71.5     0.36      1010.0     8       124        11       135        8.56     264      418.8
   05/14/2017 15:30      68.8      68.0       42     44.1      0.00     18.28      71.4     0.36      1010.0     7       153        10       126        8.56     265      484.4
   05/14/2017 15:20      68.6      67.5       44     45.4      0.00     18.28      71.5     0.36      1010.0     8       144        10       150        8.57     265      499.5
   05/14/2017 15:10      68.4      67.8       44     45.3      0.00     18.28      71.5     0.36      1010.0     8       141        14       130        8.57     265      525.4
   05/14/2017 15:00      69.2      68.5       42     45.1      0.00     18.28      71.2     0.36      1010.0     6       130        12       131        8.57     265      547.1
   05/14/2017 14:50      69.2      68.5       43     45.4      0.00     18.28      71.3     0.36      1011.0     5       148         8       126        8.57     264      558.0
   05/14/2017 14:40      69.9      68.9       43     45.8      0.00     18.28      71.4     0.36      1011.0     6       146         8       134        8.57     264      576.2
   05/14/2017 14:30      69.1      68.2       45     46.2      0.00     18.28      71.3     0.36      1011.0     5       183         8       165        8.57     265      582.7
   05/14/2017 14:20      68.8      68.5       44     46.2      0.00     18.28      71.1     0.36      1011.0     5       133         8       145        8.57     265      579.7
   05/14/2017 14:10      68.7      66.4       46     45.8      0.00     18.28      71.3     0.36      1011.0     5       143         9       146        8.57     265      434.6
   05/14/2017 14:00      67.1      66.1       48     46.1      0.00     18.28      71.2     0.36      1011.0     5       161         7       132        8.58     265      329.4
   05/14/2017 13:50      68.0      66.3       47     46.2      0.00     18.28      70.9     0.36      1011.0     5       142         9       154        8.58     265      266.5
   05/14/2017 13:40      68.0      67.2       46     46.4      0.00     18.28      71.0     0.36      1011.0     5       172         7       165        8.58     265      527.7
   05/14/2017 13:30      67.0      65.7       47     45.7      0.00     18.28      71.0     0.36      1011.0     4       150         6       128        8.57     265      446.2
   05/14/2017 13:20      67.8      66.3       47     46.5      0.00     18.28      71.2     0.36      1011.0     7       134        11       146        8.58     265      443.2
   05/14/2017 13:10      67.6      67.2       46     45.9      0.00     18.28      71.0     0.36      1011.0     7       133        11       117        8.58     265      748.4
   05/14/2017 13:00      68.5      66.9       48     47.0      0.00     18.28      71.0     0.36      1011.0     5       109         8       111        8.58     266      494.9
   05/14/2017 12:50      68.6      65.6       49     47.3      0.00     18.28      70.9     0.36      1011.0     6       140         9       137        8.58     266      740.5
   05/14/2017 12:40      67.4      65.4       50     47.4      0.00     18.28      71.0     0.36      1012.0     8       166        11       171        8.58     265      410.9
   05/14/2017 12:30      67.2      66.0       48     46.4      0.00     18.28      70.9     0.36      1012.0     6       141         9       139        8.58     265      334.2
   05/14/2017 12:20      67.1      65.2       49     46.2      0.00     18.28      71.2     0.36      1012.0     6       142         7       174        8.58     266      595.1
   05/14/2017 12:10      68.0      65.3       47     46.0      0.00     18.28      71.0     0.36      1012.0     4       166         7       167        8.58     265      143.5
   05/14/2017 12:00      68.2      65.4       48     46.7      0.00     18.28      70.9     0.36      1012.0     2        26         6        77        8.58     266      658.9
   05/14/2017 11:50      66.6      65.7       49     46.6      0.00     18.28      70.9     0.36      1012.0     5        95         9       130        8.58     266      440.7
   05/14/2017 11:40      66.5      65.2       49     46.3      0.00     18.28      70.8     0.36      1012.0     3        82         5       126        8.58     266      427.0
   05/14/2017 11:30      66.4      63.2       52     46.7      0.00     18.28      70.8     0.36      1012.0     3       133         5       154        8.62     266      477.8
   05/14/2017 11:20      63.7      63.2       54     46.5      0.00     18.28      71.0     0.36      1012.0     4       111         6        96        8.63     266      202.2
   05/14/2017 11:10      63.6      62.9       54     46.4      0.00     18.28      70.9     0.36      1012.0     4       128         7       130        8.63     266      178.7
   05/14/2017 11:00      65.2      63.6       53     46.7      0.00     18.28      71.1     0.36      1012.0     6       130         9       130        8.63     266      423.5
   05/14/2017 10:50      64.8      63.3       54     47.0      0.00     18.28      71.1     0.36      1012.0     4       108         8       130        8.63     267      336.4
   05/14/2017 10:40      65.5      63.8       53     47.2      0.00     18.28      71.0     0.36      1012.0     4        55         7        77        8.64     267      375.2
   05/14/2017 10:30      64.8      63.4       54     46.9      0.00     18.28      71.0     0.36      1012.0     5        93         8       106        8.64     267      509.1
   05/14/2017 10:20      63.7      63.3       55     46.9      0.00     18.28      71.0     0.36      1012.0     4        91         7       134        8.64     267      272.9
   05/14/2017 10:10      63.7      62.6       56     47.3      0.00     18.28      71.0     0.36      1012.0     4        70         7        69        8.64     267      320.0
   05/14/2017 10:00      62.5      61.0       58     46.8      0.00     18.28      71.0     0.36      1012.0     4       118         5        78        8.64     267      323.9
   05/14/2017 09:50      62.5      61.9       57     46.7      0.00     18.28      71.4     0.36      1012.0     3       113         5       113        8.64     267      210.9
   05/14/2017 09:40      63.0      62.3       56     46.7      0.00     18.28      71.2     0.36      1012.0     4        42         6        60        8.64     267      371.5
   05/14/2017 09:30      63.0      61.3       57     46.6      0.00     18.28      71.5     0.36      1012.0     3        62         7        74        8.64     267      442.8
   05/14/2017 09:20      61.7      61.1       58     46.5      0.00     18.28      71.5     0.36      1012.0     4        61         5        66        8.64     267      377.0
   05/14/2017 09:10      61.7      60.5       59     46.7      0.00     18.28      71.3     0.36      1012.0     5        66         7        74        8.65     267      389.3
   05/14/2017 09:00      60.7      59.4       61     46.4      0.00     18.28      71.4     0.36      1012.0     5        89         7       103        8.65     268      371.9
   05/14/2017 08:50      59.5      58.0       64     46.7      0.00     18.28      71.4     0.36      1012.0     5        83        10        81        8.65     267      351.5
   05/14/2017 08:40      58.1      57.6       68     47.2      0.00     18.28      71.3     0.36      1012.0     3        76         5        76        8.65     268       65.0
   05/14/2017 08:30      57.6      56.9       70     47.6      0.00     18.28      71.8     0.36      1012.0     4        64         7        77        8.65     268       12.9
   05/14/2017 08:20      56.8      56.3       73     47.8      0.00     18.28      71.6     0.36      1012.0     3        20         5        13        8.65     268        1.4
   05/14/2017 08:10      56.5      55.7       72     47.1      0.00     18.28      71.5     0.36      1012.0     3        46         5        61        8.65     268       -3.3
   05/14/2017 08:00      55.7      55.0       72     46.5      0.00     18.28      71.4     0.36      1012.0     3        43         5        80        8.65     268       15.8
   05/14/2017 07:50      54.8      53.9       72     45.6      0.00     18.28      71.7     0.36      1012.0     2        42         4        34        8.66     268       25.6
   05/14/2017 07:40      53.8      52.4       74     45.0      0.00     18.28      71.9     0.36      1012.0     1        80         3        92        8.66     268       29.9
   05/14/2017 07:30      52.4      51.3       77     44.9      0.00     18.28      71.9     0.36      1012.0     1        50         1        99        8.66     267       18.4
   05/14/2017 07:20      51.3      50.1       81     44.9      0.00     18.28      71.7     0.36      1012.0     1       161         1       169        8.66     267       16.3
   05/14/2017 07:10      50.0      49.0       83     44.6      0.00     18.28      71.8     0.36      1012.0     2       156         2       154        8.66     267       15.7
   05/14/2017 07:00      48.9      48.3       83     43.7      0.00     18.28      72.0     0.36      1012.0     1       140         2       160        8.66     267       14.3
   05/14/2017 06:50      48.4      48.2       83     43.3      0.00     18.28      72.0     0.36      1012.0     1       115         1       115        8.66     267        8.0
   05/14/2017 06:40      48.1      47.4       84     43.2      0.00     18.28      71.8     0.36      1012.0     1       111         1       137        8.66     267        3.4
   05/14/2017 06:30      47.7      47.0       86     43.3      0.00     18.28      72.1     0.36      1011.0     1         9         2       319        8.66     267       -4.3
   05/14/2017 06:20      47.1      46.3       87     42.9      0.00     18.28      72.1     0.36      1011.0     1       329         1       316        8.66     267       -9.8
   05/14/2017 06:10      46.6      46.2       86     42.4      0.00     18.28      72.0     0.36      1011.0     1       134         2       131        8.66     267      -15.7
   05/14/2017 06:00      47.1      46.8       85     42.7      0.00     18.28      72.4     0.36      1011.0     2       156         2       142        8.66     267      -19.9
   05/14/2017 05:50      47.9      47.2       83     42.7      0.00     18.28      72.3     0.36      1011.0     1        95         2       138        8.66     267      -23.8
   05/14/2017 05:40      47.9      47.7       84     43.1      0.00     18.28      72.1     0.36      1011.0     1       298         2       238        8.66     266      -25.4
   05/14/2017 05:30      47.8      47.0       86     43.3      0.00     18.28      72.4     0.36      1011.0     2       193         2       138        8.66     267      -25.7
   05/14/2017 05:20      47.3      47.0       86     43.1      0.00     18.28      72.2     0.36      1011.0     2       119         3       138        8.66     267      -27.1
   05/14/2017 05:10      47.1      46.7       88     43.4      0.00     18.28      72.3     0.36      1011.0     2       138         3       136        8.66     267      -26.5
   05/14/2017 05:00      47.2      46.8       87     43.4      0.00     18.28      72.5     0.36      1011.0     1       177         2       126        8.66     267      -27.2
   05/14/2017 04:50      47.4      47.3       87     43.7      0.00     18.28      72.6     0.36      1011.0     2       170         3       135        8.66     266      -27.8
   05/14/2017 04:40      47.4      47.0       87     43.5      0.00     18.28      72.5     0.36      1011.0     2       152         2       137        8.66     266      -29.2
   05/14/2017 04:30      47.5      47.1       87     43.6      0.00     18.28      72.5     0.37      1011.0     1       147         1       125        8.66     266      -30.6
   05/14/2017 04:20      47.7      47.3       86     43.4      0.00     18.28      72.6     0.36      1011.0     2       136         2       141        8.66     266      -32.5
   05/14/2017 04:10      48.8      47.9       84     43.9      0.00     18.28      72.8     0.37      1011.0     2       141         2       150        8.66     266      -32.8
   05/14/2017 04:00      48.9      48.3       85     44.3      0.00     18.28      72.4     0.37      1011.0     1       168         2       134        8.66     266      -34.2
   05/14/2017 03:50      48.4      48.3       86     44.3      0.00     18.28      72.9     0.37      1011.0     1       255         1       238        8.66     266      -36.2
   05/14/2017 03:40      48.8      48.3       85     44.3      0.00     18.28      72.9     0.37      1011.0     2       146         2       152        8.66     266      -37.4
   05/14/2017 03:30      48.8      48.2       86     44.5      0.00     18.28      72.7     0.37      1011.0     1       203         1       191        8.66     266      -39.4
   05/14/2017 03:20      48.5      48.2       86     44.3      0.00     18.28      73.0     0.37      1011.0     1       191         3       141        8.66     266      -41.5
   05/14/2017 03:10      48.7      48.4       86     44.6      0.00     18.28      73.0     0.37      1011.0     2       141         3       138        8.66     266      -43.5
   05/14/2017 03:00      48.6      48.3       85     44.4      0.00     18.28      72.9     0.37      1011.0     1       151         2       136        8.67     266      -47.5
   05/14/2017 02:50      49.6      48.5       83     44.2      0.00     18.28      72.5     0.37      1011.0     2       135         2       138        8.67     266      -49.9
   05/14/2017 02:40      49.6      48.8       84     44.7      0.00     18.28      72.8     0.37      1011.0     1       195         2       122        8.67     266      -50.4
   05/14/2017 02:30      49.7      49.0       83     44.5      0.00     18.28      73.0     0.37      1011.0     2       153         2       163        8.67     266      -52.3
   05/14/2017 02:20      49.9      49.6       84     45.1      0.00     18.28      73.2     0.37      1011.0     2       150         3       142        8.67     266      -53.2
   05/14/2017 02:10      49.9      49.7       83     44.8      0.00     18.28      73.4     0.37      1011.0     2       155         3       139        8.67     266      -55.3
   05/14/2017 02:00      50.0      49.7       85     45.5      0.00     18.28      73.2     0.37      1011.0     1       207         2       149        8.67     266      -54.9
   05/14/2017 01:50      49.9      49.2       85     45.0      0.00     18.28      73.2     0.37      1011.0     1       142         2       139        8.67     266      -59.2
   05/14/2017 01:40      50.2      49.9       85     45.6      0.00     18.28      73.4     0.37      1011.0     2       160         2       153        8.67     266      -60.5
   05/14/2017 01:30      50.5      50.0       83     45.3      0.00     18.28      73.2     0.37      1011.0     2       157         3       160        8.67     266      -64.6
   05/14/2017 01:20      51.4      50.8       82     45.9      0.00     18.28      73.2     0.37      1011.0     2       175         2       175        8.67     266      -65.2
   05/14/2017 01:10      51.4      51.1       82     45.8      0.00     18.28      73.2     0.37      1011.0     2       172         3       176        8.67     266      -67.5
   05/14/2017 01:00      52.5      51.4       78     45.4      0.00     18.28      73.2     0.37      1011.0     2       157         3       161        8.67     266      -69.3
   05/14/2017 00:50      52.8      52.2       77     45.7      0.00     18.28      73.2     0.37      1011.0     1       126         1       146        8.67     266      -70.1
   05/14/2017 00:40      53.2      52.9       76     45.9      0.00     18.28      73.5     0.37      1011.0     0        83         1         0        8.67     266      -70.3
   05/14/2017 00:30      53.2      53.0       78     46.4      0.00     18.28      73.3     0.37      1011.0     0        65         1        56        8.67     266      -70.0
   05/14/2017 00:20      53.2      53.0       78     46.3      0.00     18.28      73.4     0.37      1011.0     1       105         2        81        8.67     266      -70.8
   05/14/2017 00:10      53.5      53.3       76     46.1      0.00     18.28      73.6     0.37      1011.0     1        69         2        78        8.67     266      -72.5
   05/14/2017 00:00      53.9      53.6       76     46.2      0.00     18.28      73.3     0.37      1011.0     1        77         1        74        8.67     265      -73.5
   05/13/2017 23:50      54.2      54.0       75     46.3      0.00     18.28      73.1     0.37      1011.0     1        61         1        72        8.67     265      -74.6
   05/13/2017 23:40      54.5      54.3       75     46.5      0.00     18.28      73.5     0.37      1011.0     1        66         2        95        8.67     265      -75.3
   05/13/2017 23:30      54.6      54.3       75     46.6      0.00     18.28      73.5     0.37      1011.0     1        66         2        39        8.67     265      -76.2
   05/13/2017 23:20      54.7      54.5       74     46.7      0.00     18.28      73.5     0.37      1011.0     2        45         3        66        8.67     265      -77.1
   05/13/2017 23:10      55.2      54.7       74     46.7      0.00     18.28      73.5     0.37      1011.0     1        42         2        50        8.68     265      -78.3
   05/13/2017 23:00      55.7      55.3       73     46.9      0.00     18.28      73.5     0.37      1011.0     1        61         2        50        8.68     265      -79.6
   05/13/2017 22:50      56.5      55.9       71     46.8      0.00     18.28      73.5     0.37      1011.0     2        50         3        69        8.68     265      -80.5
   05/13/2017 22:40      56.8      56.5       69     46.6      0.00     18.28      73.4     0.37      1011.0     2        41         3        28        8.68     265      -81.7
   05/13/2017 22:30      56.8      56.6       69     46.5      0.00     18.28      73.5     0.37      1011.0     2        54         4        67        8.68     265      -83.3
   05/13/2017 22:20      57.1      56.8       68     46.4      0.00     18.28      73.5     0.37      1011.0     2        60         2        53        8.68     265      -82.6
   05/13/2017 22:10      57.5      57.2       67     46.4      0.00     18.28      73.7     0.37      1011.0     2        70         4        76        8.68     265      -84.0
   05/13/2017 22:00      57.6      57.4       66     46.1      0.00     18.28      73.5     0.37      1010.0     2        94         3        90        8.68     265      -84.3
   05/13/2017 21:50      58.0      57.8       64     46.0      0.00     18.28      73.5     0.37      1010.0     2        87         4        83        8.68     264      -84.5
   05/13/2017 21:40      58.3      58.1       64     46.0      0.00     18.28      73.4     0.37      1010.0     2        83         4        78        8.68     264      -84.5
   05/13/2017 21:30      58.7      58.3       63     46.0      0.00     18.28      73.5     0.37      1010.0     2        83         3        76        8.68     264      -83.9
   05/13/2017 21:20      58.9      58.6       62     45.9      0.00     18.28      73.4     0.37      1010.0     2        77         4        84        8.68     264      -83.5
   05/13/2017 21:10      59.4      59.0       62     46.1      0.00     18.28      73.5     0.37      1010.0     2        98         2        68        8.68     264      -84.8
   05/13/2017 21:00      59.8      59.3       61     46.1      0.00     18.28      73.5     0.37      1010.0     2        96         4        82        8.69     264      -86.5
   05/13/2017 20:50      60.4      59.9       60     46.0      0.00     18.28      73.5     0.37      1010.0     2        97         3       104        8.69     264      -88.2
   05/13/2017 20:40      61.1      60.4       58     46.0      0.00     18.28      73.4     0.36      1010.0     3        77         5        99        8.69     264      -89.7
   05/13/2017 20:30      62.0      61.2       56     45.8      0.00     18.28      73.5     0.36      1010.0     2        74         4        86        8.69     264      -91.4
   05/13/2017 20:20      63.0      62.2       55     46.0      0.00     18.28      73.3     0.36      1010.0     3        41         5        66        8.69     264      -93.1
   05/13/2017 20:10      64.2      63.3       53     45.9      0.00     18.28      73.3     0.36      1009.0     2        27         3         8        8.69     264      -94.3
   05/13/2017 20:00      65.4      64.3       50     46.0      0.00     18.28      73.5     0.36      1009.0     2        18         4        20        8.69     263      -94.9
   05/13/2017 19:50      66.4      65.5       48     45.9      0.00     18.28      73.3     0.36      1009.0     3        14         5         0        8.69     263      -93.3
   05/13/2017 19:40      67.5      66.8       46     45.9      0.00     18.28      73.3     0.36      1009.0     2        16         4        25        8.70     263      -90.1
   05/13/2017 19:30      68.8      67.8       45     45.9      0.00     18.28      73.3     0.36      1009.0     3        16         5        11        8.70     263      -85.6
   05/13/2017 19:20      69.6      68.9       44     46.2      0.00     18.28      73.2     0.36      1009.0     3        28         5        28        8.70     262      -68.5
   05/13/2017 19:10      70.9      69.9       40     45.0      0.00     18.28      73.2     0.36      1009.0     3        34         4        39        8.70     262      -53.2
   05/13/2017 19:00      71.8      71.2       37     44.2      0.00     18.28      73.2     0.36      1009.0     3        54         5        68        8.71     262      -34.4
   05/13/2017 18:50      73.8      72.1       33     42.2      0.00     18.28      73.2     0.36      1009.0     3        50         5        78        8.71     262      -11.2
   05/13/2017 18:40      74.0      73.7       26     36.6      0.00     18.28      73.2     0.36      1009.0     3       331         5       300        8.71     262       13.3
   05/13/2017 18:30      74.0      73.7       25     35.8      0.00     18.28      73.1     0.36      1009.0     4       312         5       323        8.72     262       40.0
   05/13/2017 18:20      74.6      73.9       25     35.9      0.00     18.28      73.1     0.36      1009.0     5       310         8       299        8.72     262       65.3
   05/13/2017 18:10      75.4      74.4       24     35.7      0.00     18.28      73.0     0.36      1009.0     5       310         7       318        8.72     262       90.3
   05/13/2017 18:00      75.7      75.2       24     35.8      0.00     18.28      72.9     0.36      1009.0     4       313         6       254        8.73     262      113.4
   05/13/2017 17:50      75.6      75.2       24     36.2      0.00     18.28      72.9     0.36      1009.0     5       305         7       312        8.73     262      138.9
   05/13/2017 17:40      75.7      75.1       23     35.6      0.00     18.28      72.7     0.36      1009.0     5       294         8       313        8.73     263      164.7
   05/13/2017 17:30      76.0      75.3       24     36.5      0.00     18.28      72.7     0.36      1009.0     5       315         8       320        8.74     262      188.8
   05/13/2017 17:20      76.6      75.8       24     36.9      0.00     18.28      72.7     0.36      1009.0     4       287         7       265        8.74     262      211.6
   05/13/2017 17:10      76.8      75.8       25     37.6      0.00     18.28      72.6     0.36      1009.0     6       270        11       248        8.75     263      236.6
   05/13/2017 17:00      76.2      75.7       25     37.2      0.00     18.28      72.6     0.36      1009.0     5       287         7       242        8.75     263      260.5
   05/13/2017 16:50      76.7      75.8       24     36.3      0.00     18.28      72.4     0.36      1009.0     5       282         8       300        8.75     263      283.4
   05/13/2017 16:40      76.1      75.4       23     35.7      0.00     18.28      72.4     0.36      1009.0     6       281         9       253        8.76     263      306.7
   05/13/2017 16:30      76.2      75.3       24     35.9      0.00     18.28      72.3     0.36      1009.0     5       264         8       238        8.76     263      328.7
   05/13/2017 16:20      76.9      76.1       23     36.3      0.00     18.28      72.2     0.36      1009.0     6       286         8       286        8.76     263      349.4
   05/13/2017 16:10      76.9      75.9       24     36.5      0.00     18.28      72.2     0.36      1009.0     6       308        10       316        8.77     262      370.3
   05/13/2017 16:00      76.8      75.6       23     36.0      0.00     18.28      72.0     0.36      1010.0     6       271        10       262        8.77     262      390.1
   05/13/2017 15:50      76.8      75.9       23     35.8      0.00     18.28      71.9     0.36      1010.0     6       286        10       271        8.77     262      409.8
   05/13/2017 15:40      77.5      77.0       22     36.0      0.00     18.28      72.0     0.36      1010.0     5       279        10       221        8.78     262      426.4
   05/13/2017 15:30      77.9      77.4       22     35.7      0.00     18.28      71.9     0.36      1010.0     5       275        10       229        8.78     263      442.9
   05/13/2017 15:20      77.9      77.1       22     35.9      0.00     18.28      71.8     0.36      1010.0     4       299         8       328        8.78     262      458.3
   05/13/2017 15:10      77.8      77.0       22     35.5      0.00     18.28      71.7     0.36      1010.0     6       253        10       254        8.79     262      475.0
   05/13/2017 15:00      77.3      76.4       23     36.3      0.00     18.28      71.7     0.36      1010.0     7       250        11       239        8.79     262      490.1
   05/13/2017 14:50      77.9      76.5       24     38.1      0.00     18.28      71.5     0.36      1010.0     7       155        10       161        8.79     262      500.4
   05/13/2017 14:40      79.2      78.0       22     36.1      0.00     18.28      71.3     0.35      1010.0     4       220         6       265        8.79     262      512.3
   05/13/2017 14:30      79.0      78.3       16     28.9      0.00     18.28      71.3     0.35      1010.0     4       261         6       237        8.80     262      526.8
   05/13/2017 14:20      78.6      78.3       15     26.4      0.00     18.28      71.5     0.35      1010.0     3       219         8       260        8.80     262      536.6
   05/13/2017 14:10      78.4      77.2       15     26.4      0.00     18.28      71.3     0.35      1010.0     3       301         6       351        8.80     262      549.5
   05/13/2017 14:00      78.6      77.9       14     25.3      0.00     18.28      71.2     0.35      1010.0     6       319        11       315        8.80     262      557.9
   05/13/2017 13:50      78.9      77.0       13     24.0      0.00     18.28      71.2     0.35      1011.0     2        14         4       358        8.80     262      563.4
   05/13/2017 13:40      77.9      77.0       14     24.4      0.00     18.28      71.1     0.35      1011.0     4       335         6       346        8.81     262      572.9
   05/13/2017 13:30      78.5      76.7       14     25.2      0.00     18.28      71.0     0.35      1011.0     3       214         5       241        8.81     263      578.9
   05/13/2017 13:20      77.0      76.2       15     24.8      0.00     18.28      71.0     0.35      1011.0     3       199         4       197        8.82     263      584.3
   05/13/2017 13:10      76.3      75.4       15     25.5      0.00     18.28      71.1     0.35      1011.0     5       246         9       231        8.83     263      592.2
   05/13/2017 13:00      76.4      75.0       15     25.4      0.00     18.28      71.0     0.35      1011.0     4       241         8       295        8.84     263      594.0
   05/13/2017 12:50      76.1      75.0       14     23.8      0.00     18.28      70.9     0.35      1011.0     5       313         9       265        8.84     263      596.0
   05/13/2017 12:40      75.6      74.0       15     24.4      0.00     18.28      70.9     0.35      1011.0     5       225         9       247        8.84     263      599.3
   05/13/2017 12:30      75.7      74.4       16     25.7      0.00     18.28      70.8     0.35      1011.0     4       236         7       260        8.85     263      593.8
   05/13/2017 12:20      74.9      73.7       17     26.6      0.00     18.28      70.8     0.35      1012.0     3       321         4       356        8.85     264      593.9
   05/13/2017 12:10      73.8      73.0       17     25.6      0.00     18.28      70.8     0.35      1012.0     5       272         8       271        8.85     264      592.8
   05/13/2017 12:00      73.4      72.6       18     26.4      0.00     18.28      70.7     0.35      1012.0     5       280         9       294        8.85     264      586.3
   05/13/2017 11:50      73.2      72.3       18     26.5      0.00     18.28      70.7     0.35      1012.0     5       296         9       279        8.86     264      581.6
   05/13/2017 11:40      72.8      71.3       18     26.3      0.00     18.28      70.7     0.35      1012.0     4       312         6       282        8.86     264      575.7
   05/13/2017 11:30      72.0      71.3       18     25.6      0.00     18.28      70.8     0.35      1012.0     5       286         9       256        8.86     264      570.1
   05/13/2017 11:20      72.0      71.0       18     26.4      0.00     18.28      70.9     0.35      1012.0     5       312        10       255        8.86     264      559.2
   05/13/2017 11:10      71.7      71.3       18     25.7      0.00     18.28      70.8     0.35      1012.0     5       309         8       267        8.86     264      548.9
   05/13/2017 11:00      71.5      70.2       18     25.4      0.00     18.28      70.9     0.35      1012.0     4       324         6       340        8.86     264      538.8
   05/13/2017 10:50      70.3      69.2       20     27.0      0.00     18.28      70.8     0.35      1012.0     8       322        20       328        8.86     264      533.3
   05/13/2017 10:40      69.8      69.3       20     26.3      0.00     18.28      70.8     0.35      1012.0     5       316        11       297        8.86     264      516.3
   05/13/2017 10:30      69.6      67.7       25     31.3      0.00     18.28      70.9     0.35      1012.0     3       301         5       282        8.86     265      500.0
   05/13/2017 10:20      68.3      67.1       26     31.9      0.00     18.28      70.8     0.35      1013.0     4       276         7       287        8.86     265      484.7
   05/13/2017 10:10      67.7      67.0       27     32.3      0.00     18.28      70.7     0.36      1013.0     4       276         7       262        8.86     265      469.9
   05/13/2017 10:00      67.3      66.3       27     31.8      0.00     18.28      71.1     0.36      1013.0     3       271         6       237        8.86     265      452.0
   05/13/2017 09:50      66.6      65.8       27     31.2      0.00     18.28      71.2     0.36      1013.0     4       293         7       306        8.87     265      433.8
   05/13/2017 09:40      66.0      65.6       27     30.8      0.00     18.28      71.3     0.36      1013.0     4       298         7       322        8.87     265      416.5
   05/13/2017 09:30      65.8      64.9       27     30.5      0.00     18.28      71.2     0.36      1013.0     2       241         4       181        8.87     265      399.9
   05/13/2017 09:20      65.0      64.3       29     31.5      0.00     18.28      71.1     0.36      1013.0     3       283         6       310        8.87     265      382.1
   05/13/2017 09:10      64.4      63.3       30     31.8      0.00     18.28      71.2     0.36      1013.0     2       293         4       242        8.87     265      360.4
   05/13/2017 09:00      63.1      62.2       31     31.5      0.00     18.28      71.4     0.36      1013.0     3       286         6       274        8.87     265      345.9
   05/13/2017 08:50      62.1      61.0       31     30.3      0.00     18.28      71.0     0.36      1013.0     5       344         8       351        8.87     266      338.3
   05/13/2017 08:40      61.2      60.5       31     30.3      0.00     18.28      71.4     0.36      1013.0     5       334         7        14        8.87     265      145.8
   05/13/2017 08:30      60.5      60.0       33     30.9      0.00     18.28      71.3     0.36      1013.0     6       354        10         5        8.87     266      -49.6
   05/13/2017 08:20      60.0      59.2       34     30.9      0.00     18.28      71.5     0.36      1013.0     7       345        10       347        8.87     265      -48.1
   05/13/2017 08:10      59.1      58.6       35     31.1      0.00     18.28      71.2     0.36      1013.0     6         4        10       351        8.87     265      -45.5
   05/13/2017 08:00      58.8      58.4       37     32.1      0.00     18.28      71.3     0.36      1013.0     8         4        11       349        8.87     266      -42.0
   05/13/2017 07:50      58.2      57.6       38     32.8      0.00     18.28      71.3     0.36      1013.0     7       353        11         8        8.87     265      -38.0
   05/13/2017 07:40      57.6      57.1       40     33.5      0.00     18.28      71.5     0.36      1013.0     6       346        12       340        8.87     266      -35.0
   05/13/2017 07:30      57.3      56.8       42     34.0      0.00     18.28      71.5     0.36      1013.0     9       355        13         4        8.87     266      -50.2
   05/13/2017 07:20      56.7      56.5       43     34.2      0.00     18.28      71.6     0.36      1013.0     9         1        13       355        8.87     266      -52.1
   05/13/2017 07:10      56.5      56.1       44     34.7      0.00     18.28      71.6     0.36      1013.0     8         6        13         2        8.87     266      -52.3
   05/13/2017 07:00      56.1      56.0       45     34.9      0.00     18.28      71.6     0.36      1012.0     6        17         9         5        8.87     266      -53.0
   05/13/2017 06:50      56.1      55.9       45     34.7      0.00     18.28      71.7     0.36      1012.0     7         5        10       352        8.87     266      -53.8
   05/13/2017 06:40      56.0      55.5       45     34.7      0.00     18.28      71.5     0.36      1012.0     4        19         8        12        8.87     266      -55.4
   05/13/2017 06:30      55.6      55.0       46     34.9      0.00     18.28      72.0     0.36      1012.0     4         5         5         9        8.87     266      -61.5
   05/13/2017 06:20      55.2      55.0       47     35.0      0.00     18.28      71.9     0.36      1012.0     1       201         2        87        8.87     266      -64.7
   05/13/2017 06:10      55.7      54.9       46     35.2      0.00     18.28      72.0     0.36      1012.0     1        80         3       173        8.87     266      -68.3
   05/13/2017 06:00      55.7      55.6       46     35.1      0.00     18.28      71.9     0.36      1012.0     3       319         8         0        8.87     266      -72.6
   05/13/2017 05:50      55.9      55.6       46     35.1      0.00     18.28      71.8     0.36      1012.0     5       318         9       293        8.88     266      -74.5
   05/13/2017 05:40      56.1      55.5       46     35.1      0.00     18.28      72.2     0.36      1012.0     2       333         6       340        8.88     266      -74.8
   05/13/2017 05:30      56.0      55.8       45     35.1      0.00     18.28      72.0     0.36      1012.0     3       345         6       285        8.88     266      -75.0
   05/13/2017 05:20      56.1      55.9       45     35.2      0.00     18.28      72.0     0.36      1012.0     2       324         5       309        8.88     266      -75.5
   05/13/2017 05:10      56.3      56.0       45     35.2      0.00     18.28      72.2     0.36      1012.0     3       328         5       359        8.88     266      -76.4
   05/13/2017 05:00      56.5      56.0       44     35.0      0.00     18.28      72.1     0.36      1012.0     3       332         6       316        8.88     266      -75.8
   05/13/2017 04:50      56.6      56.5       43     34.7      0.00     18.28      72.0     0.36      1012.0     3       323         5       327        8.88     266      -76.7
   05/13/2017 04:40      57.0      56.8       43     34.6      0.00     18.28      72.1     0.36      1012.0     4       308         6       343        8.88     266      -77.1
   05/13/2017 04:30      57.0      56.7       43     34.7      0.00     18.28      72.2     0.36      1012.0     4       329         7       310        8.88     266      -76.5
   05/13/2017 04:20      57.4      57.0       42     34.5      0.00     18.28      72.3     0.36      1012.0     4       315         7       329        8.88     266      -75.8
   05/13/2017 04:10      57.5      57.1       42     34.3      0.00     18.28      72.3     0.36      1012.0     4       337         8       339        8.88     266      -75.5
   05/13/2017 04:00      57.3      56.6       41     33.7      0.00     18.28      72.4     0.36      1012.0     3       350         4       321        8.88     266      -74.0
   05/13/2017 03:50      58.5      56.8       39     33.0      0.00     18.28      72.4     0.36      1012.0     2       338         6       325        8.88     266      -73.1
   05/13/2017 03:40      58.6      58.4       37     32.4      0.00     18.28      72.5     0.36      1012.0     3       320         5       325        8.88     266      -74.5
   05/13/2017 03:30      58.6      58.4       37     32.1      0.00     18.28      72.3     0.36      1012.0     4       327         6       310        8.89     266      -74.1
   05/13/2017 03:20      58.3      57.5       37     31.9      0.00     18.28      72.7     0.37      1012.0     3       314         7       331        8.89     267      -71.3
   05/13/2017 03:10      58.5      57.6       37     31.8      0.00     18.28      72.6     0.36      1012.0     1       282         3       289        8.89     266      -70.0
   05/13/2017 03:00      58.9      58.6       35     31.4      0.00     18.28      72.5     0.36      1012.0     2       263         3       291        8.89     266      -71.1
   05/13/2017 02:50      58.9      57.8       36     31.4      0.00     18.28      72.9     0.37      1012.0     2       317         4       289        8.90     267      -71.9
   05/13/2017 02:40      57.7      55.6       38     31.3      0.00     18.28      72.3     0.37      1012.0     2       308         4       299        8.90     266      -70.7
   05/13/2017 02:30      55.6      54.6       41     31.9      0.00     18.28      72.2     0.37      1012.0     2       245         3       216        8.90     266      -69.8
   05/13/2017 02:20      56.2      55.2       40     31.7      0.00     18.28      72.6     0.37      1012.0     2       238         3       217        8.90     266      -70.2
   05/13/2017 02:10      56.4      55.1       40     31.8      0.00     18.28      72.6     0.37      1012.0     1       228         3       261        8.90     266      -70.8
   05/13/2017 02:00      56.0      55.6       41     32.7      0.00     18.28      73.0     0.37      1012.0     2       181         4       105        8.91     266      -71.4
   05/13/2017 01:50      56.7      55.6       43     33.6      0.00     18.28      73.0     0.36      1012.0     1       170         3       139        8.91     266      -72.0
   05/13/2017 01:40      57.1      56.1       41     33.2      0.00     18.28      72.6     0.36      1012.0     2       144         3       151        8.91     266      -70.5
   05/13/2017 01:30      57.0      55.7       43     34.3      0.00     18.28      73.0     0.37      1012.0     2        38         3        36        8.91     267      -71.0
   05/13/2017 01:20      55.7      55.1       49     36.3      0.00     18.28      73.2     0.36      1012.0     1       107         2       217        8.91     266      -70.7
   05/13/2017 01:10      55.3      54.2       51     37.0      0.00     18.28      72.9     0.37      1012.0     1       211         4       208        8.91     267      -70.5
   05/13/2017 01:00      55.2      54.6       52     37.7      0.00     18.28      73.0     0.37      1012.0     1       139         2       145        8.92     267      -69.5
   05/13/2017 00:50      54.7      54.3       54     38.3      0.00     18.28      73.0     0.37      1012.0     2       141         3       153        8.92     267      -70.7
   05/13/2017 00:40      55.1      54.1       53     37.9      0.00     18.28      73.0     0.37      1012.0     2       169         2        84        8.92     267      -70.4
   05/13/2017 00:30      55.4      55.0       54     38.7      0.00     18.28      72.9     0.37      1012.0     2       164         3       131        8.92     266      -71.3
   05/13/2017 00:20      55.4      54.6       55     38.8      0.00     18.28      72.9     0.37      1012.0     2       156         3       161        8.92     266      -70.4
   05/13/2017 00:10      54.7      54.1       57     39.5      0.00     18.28      72.8     0.37      1012.0     1       176         2       131        8.92     266      -70.8
   05/13/2017 00:00      55.7      54.8       56     39.9      0.00     18.28      72.9     0.37      1012.0     2       171         3       170        8.92     266      -69.7
   05/12/2017 23:50      56.5      55.5       56     40.5      0.00     18.28      72.8     0.37      1012.0     1       165         2       157        8.93     266      -69.6
   05/12/2017 23:40      56.8      56.5       55     40.8      0.00     18.28      72.8     0.37      1012.0     2       157         2       161        8.93     266      -69.0
   05/12/2017 23:30      57.3      56.6       56     41.2      0.00     18.28      73.1     0.36      1012.0     2       141         3       146        8.93     266      -69.2
   05/12/2017 23:20      57.7      57.3       56     41.9      0.00     18.28      73.3     0.36      1012.0     3       155         3       166        8.93     267      -68.9
   05/12/2017 23:10      58.2      57.6       56     42.4      0.00     18.28      73.3     0.37      1012.0     2       148         3       142        8.94     266      -69.5
   05/12/2017 23:00      59.5      58.5       54     42.3      0.00     18.28      73.3     0.37      1012.0     2       152         3       163        8.94     266      -68.8
   05/12/2017 22:50      59.7      58.9       54     42.3      0.00     18.28      73.3     0.36      1012.0     2       180         2       148        8.94     266      -69.6
   05/12/2017 22:40      59.3      58.8       54     42.7      0.00     18.28      73.2     0.36      1012.0     2       136         3       143        8.95     266      -70.3
   05/12/2017 22:30      59.5      59.3       55     43.1      0.00     18.28      72.9     0.36      1012.0     2       116         3       119        8.95     266      -71.8
   05/12/2017 22:20      60.6      59.7       54     43.5      0.00     18.28      72.9     0.36      1012.0     2       114         3       109        8.95     266      -72.3
   05/12/2017 22:10      60.8      60.5       55     44.4      0.00     18.28      73.2     0.36      1012.0     2       101         3       109        8.95     266      -74.5
   05/12/2017 22:00      61.2      60.9       59     46.6      0.00     18.28      73.0     0.36      1012.0     2        95         3       106        8.95     266      -76.1
   05/12/2017 21:50      61.4      61.1       62     48.3      0.00     18.28      72.9     0.36      1012.0     2        85         3        86        8.96     267      -78.6
   05/12/2017 21:40      61.6      61.4       65     49.5      0.00     18.28      73.0     0.36      1012.0     3        95         4       115        8.96     267      -79.3
   05/12/2017 21:30      62.1      61.6       66     50.2      0.00     18.28      73.1     0.36      1012.0     4        94         5        77        8.96     266      -79.2
   05/12/2017 21:20      62.8      62.2       66     51.1      0.00     18.28      73.0     0.36      1012.0     2        87         4        98        8.97     266      -79.0
   05/12/2017 21:10      64.0      63.0       65     51.6      0.00     18.28      73.1     0.36      1012.0     3        69         4        77        8.97     266      -79.0
   05/12/2017 21:00      64.4      64.1       62     51.1      0.00     18.28      72.9     0.36      1012.0     3        35         6       344        8.97     266      -78.0
   05/12/2017 20:50      64.3      64.2       62     50.8      0.00     18.28      72.9     0.36      1012.0     2       303         3       315        8.97     266      -78.6
   05/12/2017 20:40      64.5      64.2       61     50.8      0.00     18.28      73.0     0.36      1012.0     3       299         3       301        8.97     266      -79.7
   05/12/2017 20:30      64.7      64.2       61     50.8      0.00     18.28      73.0     0.36      1012.0     3       295         6       267        8.97     266      -81.2
   05/12/2017 20:20      64.8      64.3       61     50.9      0.00     18.28      72.7     0.36      1011.0     4       305         6       308        8.98     266      -82.3
   05/12/2017 20:10      64.8      64.2       60     50.5      0.00     18.28      72.8     0.36      1011.0     3       241         5       241        8.98     266      -83.1
   05/12/2017 20:00      66.0      65.0       59     50.5      0.00     18.28      72.9     0.36      1011.0     4       238         6       248        8.99     265      -82.8
   05/12/2017 19:50      66.6      66.2       58     51.0      0.00     18.28      72.7     0.36      1011.0     3       282         4       306        8.99     265      -81.9
   05/12/2017 19:40      67.1      66.6       57     51.1      0.00     18.28      72.8     0.36      1011.0     4       310         6       325        9.00     265      -79.9
   05/12/2017 19:30      68.7      67.2       55     51.0      0.00     18.28      72.9     0.36      1011.0     5       307         8       312        9.00     265      -73.8
   05/12/2017 19:20      69.5      68.6       53     51.1      0.00     18.28      72.8     0.36      1011.0     5       295         7       263        9.00     265      -55.9
   05/12/2017 19:10      70.6      69.8       52     51.6      0.00     18.28      72.7     0.36      1011.0     5       302         6       271        9.00     265      -42.3
   05/12/2017 19:00      70.9      70.6       52     52.1      0.00     18.28      72.8     0.36      1011.0     4       299         7       304        9.00     265      -23.8
   05/12/2017 18:50      70.8      70.4       52     52.3      0.00     18.28      72.8     0.36      1011.0     4       315         8       322        9.01     265       -0.7
   05/12/2017 18:40      71.0      70.5       53     52.6      0.00     18.28      72.5     0.36      1011.0     5       304         8       314        9.00     265       22.1
   05/12/2017 18:30      71.5      71.0       52     52.8      0.00     18.28      72.8     0.36      1011.0     6       290         9       249        9.01     265       46.2
   05/12/2017 18:20      72.9      72.2       50     52.8      0.00     18.28      72.4     0.36      1011.0     5       279         8       290        9.01     264       69.9
   05/12/2017 18:10      73.3      72.4       49     52.3      0.00     18.28      72.3     0.36      1011.0     4       208         6       173        9.01     265       94.7
   05/12/2017 18:00      73.7      72.8       48     52.5      0.00     18.28      72.3     0.36      1011.0     3       227         6       233        9.01     264      119.8
   05/12/2017 17:50      73.8      72.4       48     52.4      0.00     18.28      72.3     0.36      1011.0     3       191         5       152        9.01     265      146.5
   05/12/2017 17:40      73.4      72.7       48     52.4      0.00     18.28      72.3     0.36      1011.0     4       202         8       259        9.01     265      169.6
   05/12/2017 17:30      73.8      73.3       48     52.4      0.00     18.28      72.5     0.36      1011.0     4       191         6       203        9.01     265      195.1
   05/12/2017 17:20      74.0      73.3       48     53.0      0.00     18.28      72.2     0.36      1011.0     5       229         8       233        9.01     265      220.7
   05/12/2017 17:10      74.0      73.2       48     52.8      0.00     18.28      72.1     0.36      1011.0     4       224         7       239        9.01     265      247.0
   05/12/2017 17:00      73.8      72.9       47     51.9      0.00     18.28      72.0     0.36      1012.0     5       190        12       161        9.01     265      269.3
   05/12/2017 16:50      73.9      73.3       46     51.4      0.00     18.28      72.0     0.36      1012.0     6       162         8       150        9.01     265      293.0
   05/12/2017 16:40      74.7      73.8       44     51.2      0.00     18.28      71.9     0.36      1012.0     5       175         7       153        9.01     265      318.3
   05/12/2017 16:30      75.6      75.0       42     50.3      0.00     18.28      72.0     0.36      1012.0     6       148         8       191        9.01     265      338.8
   05/12/2017 16:20      75.8      74.1       43     50.7      0.00     18.28      71.7     0.36      1012.0     5       167        10       179        9.02     265      359.9
   05/12/2017 16:10      75.0      74.2       44     51.0      0.00     18.28      71.8     0.36      1012.0     7       177        10       169        9.02     265      380.7
   05/12/2017 16:00      75.0      74.5       44     51.5      0.00     18.28      71.6     0.36      1012.0     7       169        11       189        9.02     265      401.3
   05/12/2017 15:50      75.6      74.9       44     51.9      0.00     18.28      71.6     0.36      1012.0     6       180         8       158        9.02     265      422.3
   05/12/2017 15:40      75.5      74.5       43     51.2      0.00     18.28      71.7     0.36      1012.0     7       152        10       124        9.02     265      444.4
   05/12/2017 15:30      75.2      74.4       43     50.7      0.00     18.28      71.4     0.36      1012.0     7       144        11       159        9.02     265      460.8
   05/12/2017 15:20      74.5      73.5       44     50.8      0.00     18.28      71.5     0.36      1012.0     8       156        12       155        9.02     265      476.6
   05/12/2017 15:10      75.0      73.4       44     50.8      0.00     18.28      71.1     0.36      1012.0     8       175        11       168        9.02     265      489.1
   05/12/2017 15:00      76.0      74.5       45     52.2      0.00     18.28      71.1     0.36      1012.0     6       175        11       172        9.03     265      502.4
   05/12/2017 14:50      77.0      75.8       44     52.9      0.00     18.28      71.1     0.36      1013.0     6       176         9       191        9.03     265      513.1
   05/12/2017 14:40      76.5      75.7       45     53.4      0.00     18.28      71.0     0.35      1013.0     5       189         8       141        9.03     265      530.6
   05/12/2017 14:30      77.0      75.2       46     53.6      0.00     18.28      70.7     0.35      1013.0     6       184         9       215        9.03     266      543.0
   05/12/2017 14:20      76.4      75.4       45     53.5      0.00     18.28      70.9     0.35      1013.0     6       186         9       182        9.03     265      552.3
   05/12/2017 14:10      77.3      76.1       45     53.7      0.00     18.28      70.7     0.35      1013.0     6       180        10       148        9.03     266      559.5
   05/12/2017 14:00      76.7      75.2       46     53.8      0.00     18.28      70.7     0.35      1013.0     6       174         9       173        9.03     266      562.9
   05/12/2017 13:50      76.3      75.3       45     53.1      0.00     18.28      70.5     0.35      1013.0     5       166         9       142        9.04     266      569.3
   05/12/2017 13:40      77.0      75.3       45     53.1      0.00     18.28      70.5     0.35      1013.0     6       199         7       184        9.04     266      580.6
   05/12/2017 13:30      75.7      74.8       46     53.3      0.00     18.28      70.3     0.35      1013.0     4       160         7       152        9.04     266      587.3
   05/12/2017 13:20      78.0      75.7       45     53.5      0.00     18.28      70.4     0.35      1013.0     3       108         5       186        9.04     266      584.6
   05/12/2017 13:10      77.4      76.3       44     53.3      0.00     18.28      70.4     0.35      1013.0     4        35         6        80        9.04     267      586.1
   05/12/2017 13:00      76.3      75.8       46     53.6      0.00     18.28      70.7     0.35      1014.0     4        51         7        77        9.04     267      598.1
   05/12/2017 12:50      75.9      75.6       46     53.8      0.00     18.28      70.1     0.35      1014.0     5        55         8       126        9.04     266      600.4
   05/12/2017 12:40      77.0      76.3       45     54.0      0.00     18.28      70.1     0.35      1014.0     4        33         6        28        9.04     266      596.0
   05/12/2017 12:30      76.8      75.7       45     53.4      0.00     18.28      70.3     0.35      1014.0     5        33         8         2        9.04     267      593.0
   05/12/2017 12:20      76.1      74.6       46     52.8      0.00     18.28      70.3     0.35      1014.0     4        14         7        71        9.04     267      592.3
   05/12/2017 12:10      75.6      74.8       46     53.1      0.00     18.28      70.5     0.35      1014.0     4        26         5        64        9.05     267      587.4
   05/12/2017 12:00      75.3      74.6       46     52.9      0.00     18.28      70.1     0.35      1014.0     3        47         4        32        9.05     267      581.7
   05/12/2017 11:50      74.9      74.0       47     52.6      0.00     18.28      70.2     0.35      1014.0     3        13         6        27        9.05     267      578.1
   05/12/2017 11:40      74.5      73.3       48     53.0      0.00     18.28      70.0     0.35      1015.0     3        23         5         0        9.05     268      571.5
   05/12/2017 11:30      73.9      72.8       48     52.6      0.00     18.28      70.1     0.35      1015.0     3        25         4        29        9.05     268      561.7
   05/12/2017 11:20      72.7      71.3       51     52.9      0.00     18.28      69.8     0.35      1015.0     3        46         5       112        9.05     268      559.0
   05/12/2017 11:10      71.5      71.0       52     52.8      0.00     18.28      70.1     0.35      1015.0     3        80         6        94        9.05     268      549.1
   05/12/2017 11:00      71.0      69.9       54     52.9      0.00     18.28      70.1     0.35      1015.0     2        21         4       100        9.05     269      534.6
   05/12/2017 10:50      69.8      68.8       56     52.7      0.00     18.28      70.1     0.35      1015.0     3       359         4        42        9.05     268      523.7
   05/12/2017 10:40      69.2      68.3       56     52.5      0.00     18.28      70.2     0.35      1015.0     3        45         5       103        9.05     269      510.9
   05/12/2017 10:30      68.5      67.7       58     52.6      0.00     18.28      69.8     0.35      1015.0     3        20         4        34        9.05     270      495.1
   05/12/2017 10:20      67.8      66.4       60     52.8      0.00     18.28      70.3     0.35      1015.0     3        26         4        11        9.05     270      480.8
   05/12/2017 10:10      66.5      65.5       62     52.6      0.00     18.28      70.1     0.35      1015.0     3        26         5         5        9.05     270      464.6
   05/12/2017 10:00      66.0      64.5       65     52.8      0.00     18.28      70.1     0.36      1015.0     3        47         4        42        9.05     270      445.6
   05/12/2017 09:50      64.5      63.4       67     52.8      0.00     18.28      70.5     0.36      1016.0     3        10         5        14        9.05     270      428.8
   05/12/2017 09:40      63.2      62.4       70     52.7      0.00     18.28      70.0     0.36      1016.0     3        28         4        25        9.05     270      408.0
   05/12/2017 09:30      62.6      61.8       71     52.7      0.00     18.28      70.1     0.36      1016.0     2        31         4        62        9.05     271      387.1
   05/12/2017 09:20      61.8      60.9       73     52.8      0.00     18.28      70.3     0.36      1016.0     3        16         4         6        9.05     271      365.6
   05/12/2017 09:10      61.1      60.3       75     52.7      0.00     18.28      70.5     0.36      1016.0     2        20         3        16        9.05     270      342.2
   05/12/2017 09:00      60.4      59.3       77     52.7      0.00     18.28      70.2     0.36      1016.0     3        40         4        29        9.05     271      326.1
   05/12/2017 08:50      58.9      58.0       80     52.5      0.00     18.28      70.0     0.36      1016.0     2        29         4       353        9.05     270      304.9
   05/12/2017 08:40      58.0      57.4       82     52.4      0.00     18.28      70.4     0.36      1016.0     2        29         4         5        9.05     270      252.3
   05/12/2017 08:30      57.5      57.1       83     52.3      0.00     18.28      70.3     0.36      1016.0     3       356         4       359        9.05     270       60.9
   05/12/2017 08:20      57.1      56.3       85     52.2      0.00     18.28      71.0     0.36      1016.0     1       334         2       344        9.05     271      120.5
   05/12/2017 08:10      56.5      55.5       87     52.4      0.00     18.28      70.9     0.36      1016.0     2       320         3       347        9.05     271      143.4
   05/12/2017 08:00      55.4      54.6       89     51.9      0.00     18.28      70.8     0.36      1016.0     1       280         2       343        9.05     271      139.4
   05/12/2017 07:50      54.9      54.6       90     51.8      0.00     18.28      70.6     0.36      1016.0     1       324         2       337        9.05     271      104.8
   05/12/2017 07:40      54.8      54.2       91     51.7      0.00     18.28      70.4     0.36      1016.0     2       341         2        15        9.05     271       88.6
   05/12/2017 07:30      54.5      54.3       91     51.7      0.00     18.28      70.9     0.36      1016.0     3       341         4       350        9.05     271       74.7
   05/12/2017 07:20      54.6      54.0       91     51.6      0.00     18.28      70.6     0.36      1016.0     1       201         2       139        9.05     271       57.5
   05/12/2017 07:10      54.0      53.5       91     51.4      0.00     18.28      70.5     0.36      1016.0     2       109         3        76        9.05     271       51.2
   05/12/2017 07:00      54.0      53.5       92     51.6      0.00     18.28      70.6     0.36      1016.0     1        53         2        70        9.05     271       47.7
   05/12/2017 06:50      53.8      53.3       93     51.5      0.00     18.28      70.5     0.36      1016.0     1       103         3       107        9.05     271       34.8
   05/12/2017 06:40      53.3      52.5       93     50.9      0.00     18.28      70.8     0.36      1016.0     1        94         2        91        9.05     270       25.5
   05/12/2017 06:30      52.4      51.7       93     50.1      0.00     18.28      70.7     0.36      1016.0     1        93         1        72        9.05     271       15.3
   05/12/2017 06:20      51.8      51.3       94     49.8      0.00     18.28      71.0     0.36      1016.0     1       131         1       137        9.05     271        7.7
   05/12/2017 06:10      51.4      51.2       93     49.5      0.00     18.28      70.7     0.36      1016.0     1       133         1       129        9.05     271        0.9
   05/12/2017 06:00      51.3      51.1       94     49.4      0.00     18.28      71.2     0.36      1016.0     1       167         1       191        9.05     271       -6.9
   05/12/2017 05:50      51.2      50.7       94     49.1      0.00     18.28      71.2     0.36      1016.0     0       179         1       185        9.05     271       -9.4
   05/12/2017 05:40      50.7      49.9       93     48.3      0.00     18.28      71.1     0.36      1016.0     1       192         2       166        9.05     270      -12.4
   05/12/2017 05:30      50.8      50.2       93     48.5      0.00     18.28      71.0     0.36      1016.0     2       154         2       163        9.05     270      -14.7
   05/12/2017 05:20      50.9      50.6       93     48.8      0.00     18.28      71.3     0.36      1016.0     1       177         2       134        9.05     270      -14.4
   05/12/2017 05:10      50.8      50.5       93     48.5      0.00     18.28      71.4     0.36      1016.0     1       151         2       147        9.05     270      -15.2
   05/12/2017 05:00      50.9      50.6       93     48.7      0.00     18.28      71.1     0.36      1016.0     1       216         1       256        9.06     270      -15.3
   05/12/2017 04:50      51.3      51.0       92     49.0      0.00     18.28      71.3     0.36      1016.0     1       161         2       148        9.06     270      -15.6
   05/12/2017 04:40      51.4      50.9       92     48.9      0.00     18.28      71.2     0.36      1016.0     1       179         1       141        9.06     270      -15.9
   05/12/2017 04:30      51.5      50.9       92     48.9      0.00     18.28      71.4     0.36      1016.0     1       170         2       144        9.06     270      -16.3
   05/12/2017 04:20      51.5      51.3       92     49.1      0.00     18.28      71.7     0.36      1016.0     1       215         1       139        9.06     270      -17.6
   05/12/2017 04:10      51.5      51.3       92     49.2      0.00     18.28      71.3     0.36      1016.0     1       161         2       136        9.06     270      -17.6
   05/12/2017 04:00      51.6      51.1       92     49.1      0.00     18.28      71.4     0.36      1016.0     1       181         1       188        9.06     270      -18.4
   05/12/2017 03:50      51.3      51.1       92     48.9      0.00     18.28      71.6     0.36      1017.0     1       117         2       140        9.06     270      -19.6
   05/12/2017 03:40      52.0      51.3       91     49.2      0.00     18.28      71.3     0.36      1017.0     2       139         2       132        9.06     270      -19.8
   05/12/2017 03:30      52.3      52.1       92     49.9      0.00     18.28      71.6     0.36      1017.0     1       170         1       190        9.06     270      -20.7
   05/12/2017 03:20      52.2      51.9       91     49.5      0.00     18.28      71.6     0.36      1017.0     1       195         1       191        9.06     270      -21.6
   05/12/2017 03:10      52.4      52.1       90     49.4      0.00     18.28      71.6     0.36      1017.0     1       155         1       138        9.06     270      -22.9
   05/12/2017 03:00      52.7      52.2       90     49.5      0.00     18.28      71.6     0.36      1017.0     1       142         2       135        9.06     270      -24.3
   05/12/2017 02:50      52.8      52.5       90     49.7      0.00     18.28      71.6     0.36      1017.0     1       227         1       183        9.06     270      -25.1
   05/12/2017 02:40      52.6      52.4       90     49.8      0.00     18.28      71.5     0.36      1017.0     1       230         1       253        9.06     270      -26.8
   05/12/2017 02:30      52.8      52.0       91     49.7      0.00     18.28      71.5     0.36      1017.0     1       161         2       157        9.06     270      -29.3
   05/12/2017 02:20      52.2      51.8       89     49.0      0.00     18.28      71.4     0.36      1017.0     2       141         2       143        9.07     270      -31.9
   05/12/2017 02:10      53.3      52.4       89     49.5      0.00     18.28      71.6     0.36      1017.0     2       135         2       140        9.07     270      -32.6
   05/12/2017 02:00      53.6      53.4       89     50.4      0.00     18.28      72.1     0.36      1017.0     1       162         1       176        9.07     270      -33.7
   05/12/2017 01:50      53.4      52.6       88     49.6      0.00     18.28      71.8     0.36      1017.0     1       167         1       182        9.07     270      -38.0
   05/12/2017 01:40      54.0      53.1       87     49.7      0.00     18.28      71.8     0.36      1017.0     1       245         1       206        9.07     270      -39.8
   05/12/2017 01:30      54.1      53.7       88     50.4      0.00     18.28      71.8     0.36      1018.0     1       210         1       151        9.07     269      -39.2
   05/12/2017 01:20      54.1      53.6       88     50.3      0.00     18.28      71.6     0.36      1018.0     1       135         1       150        9.07     269      -42.6
   05/12/2017 01:10      54.1      53.6       87     50.0      0.00     18.28      72.1     0.36      1018.0     1       107         1       116        9.07     269      -46.2
   05/12/2017 01:00      54.6      54.4       87     50.6      0.00     18.28      71.8     0.36      1018.0     1        71         1       127        9.07     269      -48.0
   05/12/2017 00:50      54.7      54.6       86     50.7      0.00     18.28      71.8     0.36      1018.0     1       349         1       212        9.07     269      -52.2
   05/12/2017 00:40      54.7      54.5       86     50.4      0.00     18.28      71.8     0.36      1018.0     0        30         1        69        9.07     269      -55.5
   05/12/2017 00:30      55.2      54.6       85     50.4      0.00     18.28      71.8     0.36      1018.0     1       111         1        72        9.07     269      -58.8
   05/12/2017 00:20      55.5      55.2       84     50.6      0.00     18.28      72.1     0.36      1018.0     0       178         1       183        9.08     269      -60.9
   05/12/2017 00:10      56.0      55.7       83     50.6      0.00     18.28      72.0     0.36      1018.0     0        46         1       335        9.08     268      -63.8
   05/12/2017 00:00      56.1      55.7       82     50.5      0.00     18.28      71.7     0.36      1018.0     1        90         1       347        9.08     268      -65.4
   05/11/2017 23:50      56.8      56.3       81     50.6      0.00     18.28      72.3     0.36      1018.0     1        56         1        73        9.08     268      -66.7
   05/11/2017 23:40      57.0      56.8       80     50.9      0.00     18.28      71.9     0.36      1018.0     1       204         2       241        9.08     268      -67.7
   05/11/2017 23:30      57.1      56.4       81     51.1      0.00     18.28      72.2     0.36      1018.0     2       265         3       228        9.08     268      -66.8
   05/11/2017 23:20      56.6      56.2       81     50.8      0.00     18.28      72.0     0.36      1018.0     1       257         3       257        9.08     268      -66.6
   05/11/2017 23:10      57.2      56.5       80     50.7      0.00     18.28      72.0     0.36      1018.0     1       222         3       293        9.08     268      -68.2
   05/11/2017 23:00      58.0      57.4       78     50.9      0.00     18.28      72.0     0.36      1018.0     1       239         1       289        9.09     268      -69.5
   05/11/2017 22:50      58.5      58.1       77     51.3      0.00     18.28      71.8     0.36      1018.0     2       259         4       282        9.09     268      -71.4
   05/11/2017 22:40      58.6      58.5       77     51.3      0.00     18.28      72.1     0.36      1018.0     2       264         5       251        9.09     267      -72.3
   05/11/2017 22:30      58.9      58.6       76     51.3      0.00     18.28      72.3     0.36      1018.0     2       232         5       249        9.09     267      -73.4
   05/11/2017 22:20      59.3      59.0       76     51.4      0.00     18.28      72.2     0.36      1018.0     1       217         2       238        9.09     267      -74.6
   05/11/2017 22:10      59.4      59.2       75     51.5      0.00     18.28      71.9     0.36      1018.0     2       225         3       238        9.09     267      -75.3
   05/11/2017 22:00      59.7      59.4       75     51.5      0.00     18.28      72.0     0.36      1018.0     2       186         4       197        9.10     267      -76.5
   05/11/2017 21:50      60.1      59.8       74     51.5      0.00     18.28      71.9     0.36      1018.0     2       192         4       237        9.10     267      -77.3
   05/11/2017 21:40      60.4      60.1       73     51.5      0.00     18.28      71.9     0.36      1018.0     3       189         6       194        9.10     267      -77.3
   05/11/2017 21:30      60.9      60.4       71     51.4      0.00     18.28      71.7     0.36      1018.0     2       197         4       223        9.10     267      -77.3
   05/11/2017 21:20      61.4      61.0       70     51.5      0.00     18.28      71.8     0.36      1018.0     2       229         3       254        9.10     267      -78.3
   05/11/2017 21:10      62.1      61.5       69     51.5      0.00     18.28      72.1     0.36      1018.0     3       226         4       217        9.11     267      -79.3
   05/11/2017 21:00      62.9      62.3       67     51.6      0.00     18.28      72.0     0.36      1018.0     3       229         5       250        9.11     267      -79.8
   05/11/2017 20:50      63.6      63.0       66     51.7      0.00     18.28      71.8     0.36      1018.0     4       234         6       233        9.11     267      -80.1
   05/11/2017 20:40      64.5      63.8       64     51.9      0.00     18.28      71.9     0.36      1018.0     3       242         5       214        9.11     267      -80.6
   05/11/2017 20:30      65.1      64.5       63     51.8      0.00     18.28      71.9     0.36      1017.0     2       245         4       252        9.11     267      -81.1
   05/11/2017 20:20      66.2      65.1       61     51.7      0.00     18.28      72.2     0.36      1017.0     3       238         5       260        9.12     266      -82.1
   05/11/2017 20:10      66.8      66.3       59     51.7      0.00     18.28      71.9     0.36      1017.0     3       285         5       256        9.12     266      -83.2
   05/11/2017 20:00      67.5      67.0       58     51.8      0.00     18.28      71.8     0.36      1017.0     2       291         4       282        9.12     266      -83.4
   05/11/2017 19:50      68.2      67.6       57     52.0      0.00     18.28      71.7     0.36      1017.0     3       298         4       311        9.12     266      -82.1
   05/11/2017 19:40      68.8      68.3       56     52.1      0.00     18.28      72.0     0.36      1017.0     3       293         5       301        9.12     266      -78.8
   05/11/2017 19:30      69.7      68.9       55     52.2      0.00     18.28      71.8     0.36      1017.0     3       301         6       308        9.12     266      -74.2
   05/11/2017 19:20      70.3      69.5       53     52.3      0.00     18.28      71.7     0.36      1017.0     4       305         6       310        9.12     265      -59.0
   05/11/2017 19:10      70.8      70.1       53     52.3      0.00     18.28      71.8     0.36      1017.0     5       306         8       331        9.13     265      -43.9
   05/11/2017 19:00      71.5      70.9       52     52.4      0.00     18.28      71.6     0.36      1017.0     5       308         7       308        9.13     265      -25.5
   05/11/2017 18:50      71.8      71.5       51     52.5      0.00     18.28      71.5     0.36      1017.0     5       305         7       280        9.13     265       -3.9
   05/11/2017 18:40      72.6      71.4       50     52.5      0.00     18.28      71.4     0.36      1017.0     5       315         9       307        9.13     265       19.5
   05/11/2017 18:30      73.2      72.7       49     52.4      0.00     18.28      71.5     0.36      1017.0     5       324         7       298        9.13     265       44.1
   05/11/2017 18:20      73.5      73.1       48     52.2      0.00     18.28      71.5     0.36      1017.0     5       312         8       322        9.13     265       69.9
   05/11/2017 18:10      73.7      73.2       47     52.1      0.00     18.28      71.4     0.36      1017.0     5       309         9       287        9.13     265       95.7
   05/11/2017 18:00      74.4      73.7       47     52.4      0.00     18.28      71.2     0.36      1017.0     6       315         9       315        9.13     265      120.2
   05/11/2017 17:50      75.2      74.6       46     52.9      0.00     18.28      71.2     0.36      1017.0     5       314         8       294        9.13     265      145.1
   05/11/2017 17:40      75.3      74.9       46     53.0      0.00     18.28      71.2     0.36      1017.0     6       310         9       332        9.13     265      169.2
   05/11/2017 17:30      76.0      75.4       45     52.9      0.00     18.28      71.0     0.36      1017.0     5       309         7       332        9.13     265      192.4
   05/11/2017 17:20      76.3      75.6       44     52.7      0.00     18.28      71.3     0.36      1017.0     5       284         7       319        9.13     265      211.7
   05/11/2017 17:10      76.9      75.9       43     52.4      0.00     18.28      71.0     0.36      1017.0     4       258         5       220        9.13     266      239.1
   05/11/2017 17:00      76.1      75.6       44     52.3      0.00     18.28      71.1     0.36      1017.0     4       248         9       230        9.13     266      265.1
   05/11/2017 16:50      76.4      75.3       44     52.5      0.00     18.28      70.8     0.36      1017.0     4       253         7       233        9.13     266      286.9
   05/11/2017 16:40      75.7      75.2       45     52.9      0.00     18.28      70.7     0.36      1017.0     4       214         6       182        9.13     266      312.3
   05/11/2017 16:30      76.7      75.7       45     53.2      0.00     18.28      70.8     0.36      1017.0     4       233         5       208        9.13     266      331.1
   05/11/2017 16:20      76.4      75.9       45     53.2      0.00     18.28      70.5     0.36      1017.0     4       269         9       244        9.13     266      353.3
   05/11/2017 16:10      76.1      74.9       46     53.1      0.00     18.28      70.5     0.36      1017.0     5       309         7       310        9.13     266      375.4
   05/11/2017 16:00      76.9      76.1       44     53.3      0.00     18.28      70.4     0.35      1017.0     7       297        10       297        9.13     266      393.2
   05/11/2017 15:50      77.2      75.6       45     53.3      0.00     18.28      70.5     0.36      1017.0     5       257        10       203        9.13     266      414.4
   05/11/2017 15:40      76.5      75.8       45     53.3      0.00     18.28      70.3     0.35      1017.0     6       210         8       222        9.13     266      433.4
   05/11/2017 15:30      76.2      75.5       45     53.3      0.00     18.28      70.4     0.35      1017.0     4       216         8       231        9.13     266      451.0
   05/11/2017 15:20      76.2      74.8       46     53.1      0.00     18.28      70.1     0.35      1017.0     5       187         8       259        9.13     267      467.2
   05/11/2017 15:10      76.0      75.4       45     53.0      0.00     18.28      70.3     0.35      1017.0     5       148         9       165        9.13     267      484.7
   05/11/2017 15:00      77.3      76.3       44     53.3      0.00     18.28      70.0     0.35      1018.0     5       168         7       168        9.13     267      501.6
   05/11/2017 14:50      75.8      75.1       45     52.8      0.00     18.28      69.5     0.35      1018.0     5       154         7       194        9.13     267      516.2
   05/11/2017 14:40      75.5      74.8       46     52.8      0.00     18.28      69.8     0.35      1018.0     6       141         9       123        9.13     267      527.7
   05/11/2017 14:30      75.8      74.4       46     52.9      0.00     18.28      69.7     0.35      1018.0     5       157         9       124        9.13     268      538.3
   05/11/2017 14:20      76.3      75.5       45     53.2      0.00     18.28      69.9     0.35      1018.0     5       139         9       153        9.13     268      549.0
   05/11/2017 14:10      76.4      74.8       46     53.2      0.00     18.28      69.3     0.35      1018.0     6       153         8       140        9.13     268      560.7
   05/11/2017 14:00      76.9      75.7       45     53.3      0.00     18.28      69.6     0.35      1018.0     6       159        10       160        9.13     269      567.4
   05/11/2017 13:50      76.5      76.0       45     53.2      0.00     18.28      69.6     0.35      1018.0     7       160        10       175        9.13     271      576.3
   05/11/2017 13:40      77.2      75.6       44     53.2      0.00     18.28      69.8     0.35      1018.0     5       154         8       166        9.13     274      583.0
   05/11/2017 13:30      76.5      75.1       45     53.0      0.00     18.28      69.4     0.35      1018.0     6       139         9       100        9.13     277      590.1
   05/11/2017 13:20      77.7      76.7       43     53.1      0.00     18.28      69.3     0.35      1018.0     5       122         8       136        9.13     286      589.8
   05/11/2017 13:10      78.1      77.4       40     51.8      0.00     18.28      69.2     0.35      1018.0     2       262         4       262        9.13     294      585.0
   05/11/2017 13:00      77.6      76.4       41     51.7      0.00     18.28      69.1     0.35      1018.0     2       178         5       157        9.13     305      588.7
   05/11/2017 12:50      77.4      76.1       41     51.4      0.00     18.28      69.3     0.35      1018.0     2       341         4       321        9.13     318      591.6
   05/11/2017 12:40      76.1      75.0       42     51.2      0.00     18.28      69.0     0.35      1018.0     3        65         5        71        9.13     330      594.3
   05/11/2017 12:30      76.2      75.2       43     51.5      0.00     18.28      69.0     0.35      1018.0     3       164         6       144        9.13     349      594.0
   05/11/2017 12:20      74.6      74.1       44     51.4      0.00     18.28      69.2     0.35      1019.0     3       189         6       186        9.13     367      591.6
   05/11/2017 12:10      74.9      74.4       44     51.4      0.00     18.28      69.3     0.35      1019.0     4       270         6       270        9.13     388      588.5
   05/11/2017 12:00      74.6      73.8       45     51.5      0.00     18.28      69.1     0.35      1019.0     2       265         5       286        9.13     403      584.6
   05/11/2017 11:50      74.3      73.2       45     51.2      0.00     18.28      68.7     0.35      1019.0     3       291         5       234        9.13     416      580.3
   05/11/2017 11:40      73.7      72.1       46     51.0      0.00     18.28      69.0     0.35      1019.0     3       172         5       154        9.13     430      575.1
   05/11/2017 11:30      74.0      71.9       47     51.4      0.00     18.28      69.2     0.35      1019.0     4       217         8       246        9.13     448      567.0
   05/11/2017 11:20      72.0      71.2       48     51.0      0.00     18.28      69.0     0.35      1019.0     4       187         7       193        9.13     468      555.7
   05/11/2017 11:10      71.5      70.1       49     50.8      0.00     18.28      68.9     0.35      1019.0     3       313         6       285        9.13     476      549.4
   05/11/2017 11:00      70.7      69.7       50     50.6      0.00     18.28      69.2     0.35      1019.0     3       264         5       278        9.13     494      537.5
   05/11/2017 10:50      71.2      70.1       49     50.6      0.00     18.28      68.9     0.35      1019.0     4       184         7       274        9.13     506      526.0
   05/11/2017 10:40      70.4      69.8       50     50.4      0.00     18.28      69.2     0.35      1019.0     2       319         5       324        9.13     519      511.9
   05/11/2017 10:30      69.9      69.4       51     50.5      0.00     18.28      68.8     0.35      1019.0     3       266         6       300        9.13     533      495.2
   05/11/2017 10:20      69.5      68.3       52     50.8      0.00     18.28      68.8     0.35      1019.0     5       281         7       265        9.13     541      488.6
   05/11/2017 10:10      68.7      68.1       53     50.5      0.00     18.28      68.9     0.35      1020.0     4       288         5       314        9.13     559      471.5
   05/11/2017 10:00      68.3      67.7       54     50.7      0.00     18.28      69.0     0.35      1020.0     2       206         5       159        9.13     567      456.3
   05/11/2017 09:50      68.1      66.3       55     50.7      0.00     18.28      68.9     0.35      1020.0     4       288         5       274        9.13     576      437.7
   05/11/2017 09:40      66.4      66.1       56     50.3      0.00     18.28      69.0     0.35      1019.0     4       317         8       320        9.13     573      421.1
   05/11/2017 09:30      66.6      66.0       57     50.5      0.00     18.28      68.9     0.35      1020.0     3       322         5       330        9.13     547      401.0
   05/11/2017 09:20      66.8      66.0       57     50.7      0.00     18.28      69.4     0.35      1020.0     2       349         3       358        9.13     545      378.4
   05/11/2017 09:10      66.0      65.3       60     51.2      0.00     18.28      69.3     0.35      1020.0     1         5         2        34        9.13     617      358.7
   05/11/2017 09:00      65.6      64.4       62     51.6      0.00     18.28      69.3     0.35      1020.0     1       185         3       235        9.12     607      338.6
   05/11/2017 08:50      64.2      62.3       66     51.5      0.00     18.28      69.2     0.35      1019.0     2        68         3        37        8.80     269      311.9
   05/11/2017 08:40      62.3      61.0       70     51.5      0.00     18.28      69.5     0.35      1020.0     2        70         3        66        8.80     269      302.8
   05/11/2017 08:30      61.1      60.4       71     51.4      0.00     18.28      69.1     0.35      1019.0     2         3         3        72        8.80     270       93.7
   05/11/2017 08:20      60.4      59.9       73     51.5      0.00     18.28      69.4     0.35      1019.0     2       345         2       354        8.81     270       42.1
   05/11/2017 08:10      60.1      59.4       74     51.4      0.00     18.28      69.1     0.35      1019.0     2       320         3        36        8.80     270       43.0
   05/11/2017 08:00      59.3      58.5       76     51.4      0.00     18.28      69.7     0.35      1019.0     1       258         1       251        8.80     270       40.9
   05/11/2017 07:50      58.5      57.5       79     51.4      0.00     18.28      69.7     0.35      1019.0     1       284         2       258        8.80     270       53.0
   05/11/2017 07:40      57.6      56.7       81     51.5      0.00     18.28      69.2     0.35      1019.0     1        18         2       338        8.81     270       52.5
   05/11/2017 07:30      56.8      55.5       85     51.5      0.00     18.28      69.6     0.35      1019.0     0        23         1        10        8.80     270       48.0
   05/11/2017 07:20      55.6      54.6       88     51.6      0.00     18.28      69.6     0.35      1019.0     1       117         1       130        8.80     270       40.0
   05/11/2017 07:10      54.7      53.8       91     51.6      0.00     18.28      69.8     0.35      1019.0     1       223         2       245        8.80     270       35.3
   05/11/2017 07:00      53.8      52.6       92     50.9      0.00     18.28      69.5     0.35      1019.0     1       306         1       236        8.80     269       35.2
   05/11/2017 06:50      52.6      51.9       92     50.1      0.00     18.28      69.7     0.35      1019.0     1        97         1       236        8.80     269       28.7
   05/11/2017 06:40      52.2      51.7       93     49.9      0.00     18.28      69.6     0.35      1019.0     1       125         1        55        8.80     269       22.6
   05/11/2017 06:30      51.8      51.4       93     49.6      0.00     18.28      69.7     0.35      1019.0     1       202         1       194        8.80     269       15.1
   05/11/2017 06:20      51.4      50.9       93     49.3      0.00     18.28      69.6     0.35      1019.0     1       215         2       202        8.80     269        5.6
   05/11/2017 06:10      51.1      50.4       93     49.0      0.00     18.28      69.7     0.35      1019.0     0       174         1       143        8.80     269       -4.0
   05/11/2017 06:00      50.3      50.1       93     48.2      0.00     18.28      69.5     0.35      1019.0     1        48         1       142        8.80     269       -9.6
   05/11/2017 05:50      50.5      49.9       92     48.0      0.00     18.28      69.5     0.35      1019.0     1       107         2       134        8.80     269      -13.2
   05/11/2017 05:40      50.8      50.4       93     48.5      0.00     18.28      69.9     0.35      1019.0     1        88         1       140        8.80     269      -15.0
   05/11/2017 05:30      50.7      50.5       92     48.5      0.00     18.28      69.6     0.35      1019.0     1        99         1       183        8.80     269      -15.6
   05/11/2017 05:20      50.8      50.3       92     48.3      0.00     18.28      70.0     0.35      1019.0     1       209         3       217        8.80     269      -16.0
   05/11/2017 05:10      51.4      50.9       92     49.1      0.00     18.28      70.1     0.35      1019.0     2       204         2       215        8.80     269      -15.6
   05/11/2017 05:00      51.4      50.9       92     49.0      0.00     18.28      70.0     0.35      1019.0     1       333         1       263        8.80     269      -16.9
   05/11/2017 04:50      51.1      50.7       92     48.7      0.00     18.28      70.2     0.35      1019.0     1        20         2        17        8.80     269      -17.4
   05/11/2017 04:40      51.2      50.7       92     48.8      0.00     18.28      70.3     0.35      1019.0     1       123         2         3        8.80     269      -18.1
   05/11/2017 04:30      50.9      50.6       92     48.5      0.00     18.28      69.9     0.35      1019.0     1       123         2       126        8.80     269      -19.1
   05/11/2017 04:20      51.2      50.6       92     48.6      0.00     18.28      69.6     0.35      1019.0     1       125         1       136        8.80     268      -20.0
   05/11/2017 04:10      51.7      51.3       92     49.2      0.00     18.28      70.3     0.35      1019.0     1       138         1       143        8.80     268      -20.8
   05/11/2017 04:00      51.7      51.3       91     48.9      0.00     18.28      69.9     0.35      1019.0     1       110         1       124        8.80     268      -22.4
   05/11/2017 03:50      51.8      51.5       91     49.1      0.00     18.28      70.1     0.35      1019.0     1       135         1       129        8.80     268      -23.5
   05/11/2017 03:40      52.3      51.9       91     49.5      0.00     18.28      70.0     0.35      1019.0     1       146         1       140        8.80     268      -24.3
   05/11/2017 03:30      52.3      52.2       91     49.6      0.00     18.28      69.9     0.35      1020.0     0       112         1       129        8.80     269      -26.4
   05/11/2017 03:20      52.4      52.2       90     49.5      0.00     18.28      69.9     0.35      1020.0     1       111         1       144        8.80     268      -28.6
   05/11/2017 03:10      52.7      52.3       90     49.7      0.00     18.28      69.9     0.35      1020.0     1       145         1       143        8.80     268      -30.6
   05/11/2017 03:00      53.0      52.6       90     50.0      0.00     18.28      70.5     0.35      1020.0     1       161         1       134        8.80     268      -32.5
   05/11/2017 02:50      52.9      52.6       89     49.7      0.00     18.28      70.1     0.35      1020.0     1       183         1       128        8.80     268      -35.4
   05/11/2017 02:40      53.2      52.9       89     49.9      0.00     18.28      70.5     0.35      1020.0     1       133         1       134        8.80     268      -37.7
   05/11/2017 02:30      53.6      53.4       88     50.1      0.00     18.28      70.4     0.35      1020.0     0       107         1       114        8.80     268      -41.1
   05/11/2017 02:20      53.8      53.5       88     50.1      0.00     18.28      70.5     0.35      1020.0     1       132         1       129        8.80     268      -44.6
   05/11/2017 02:10      54.1      53.6       87     50.0      0.00     18.28      70.1     0.35      1020.0     0        84         1        59        8.80     268      -48.4
   05/11/2017 02:00      54.6      54.1       86     50.4      0.00     18.28      70.7     0.35      1020.0     1       165         2       166        8.80     268      -51.5
   05/11/2017 01:50      54.7      54.2       86     50.4      0.00     18.28      70.4     0.35      1020.0     1       172         2       170        8.80     268      -53.1
   05/11/2017 01:40      54.6      54.1       84     49.8      0.00     18.28      70.1     0.35      1020.0     1       128         2       129        8.80     268      -54.2
   05/11/2017 01:30      55.5      54.7       82     49.8      0.00     18.28      70.2     0.35      1020.0     1       107         1       163        8.80     268      -52.5
   05/11/2017 01:20      56.3      55.7       81     50.3      0.00     18.28      70.1     0.35      1020.0     1       197         1       203        8.80     268      -56.1
   05/11/2017 01:10      56.6      56.3       80     50.3      0.00     18.28      70.2     0.35      1020.0     2       218         2       230        8.80     268      -56.0
   05/11/2017 01:00      57.5      56.7       77     49.9      0.00     18.28      70.5     0.35      1020.0     1       326         1       345        8.80     268      -58.2
   05/11/2017 00:50      57.7      57.4       77     50.4      0.00     18.28      70.1     0.35      1020.0     1       218         1       216        8.80     268      -58.2
   05/11/2017 00:40      58.5      57.5       75     50.2      0.00     18.28      70.3     0.35      1020.0     1       155         1       140        8.80     268      -56.6
   05/11/2017 00:30      58.6      58.3       75     50.4      0.00     18.28      70.5     0.35      1020.0     1       192         2       176        8.80     268      -51.1
   05/11/2017 00:20      58.8      58.6       74     50.4      0.00     18.28      70.8     0.35      1020.0     2       166         2       165        8.80     268      -42.2
   05/11/2017 00:10      59.1      58.8       73     50.3      0.00     18.28      70.1     0.35      1020.0     2       165         2       160        8.80     268      -27.6
   05/11/2017 00:00      59.4      58.9       72     50.2      0.00     18.28      70.5     0.35      1020.0     1       160         1       172        8.80     268      -24.1
   05/10/2017 23:50      59.6      59.4       71     50.1      0.00     18.28      70.3     0.35      1020.0     1       171         1       224        8.80     268      -29.5
   05/10/2017 23:40      59.7      59.4       71     50.1      0.00     18.28      70.3     0.35      1020.0     1       192         1       209        8.80     268      -24.3
   05/10/2017 23:30      59.9      59.4       71     50.3      0.00     18.28      70.3     0.35      1020.0     1       212         1       201        8.80     268      -25.1
   05/10/2017 23:20      59.6      59.4       72     50.4      0.00     18.28      70.6     0.35      1020.0     1       184         1       195        8.80     268      -20.8
   05/10/2017 23:10      59.6      59.4       72     50.4      0.00     18.28      70.3     0.35      1020.0     1       180         2       154        8.80     268      -16.9
   05/10/2017 23:00      59.8      59.4       71     50.4      0.00     18.28      70.4     0.35      1020.0     1       174         2       163        8.80     268      -17.2
   05/10/2017 22:50      59.9      59.8       71     50.4      0.00     18.28      70.3     0.35      1020.0     1       129         1       131        8.80     268      -23.5
   05/10/2017 22:40      60.0      59.8       71     50.4      0.00     18.28      70.2     0.35      1020.0     1       153         2       172        8.80     268      -19.9
   05/10/2017 22:30      60.3      60.0       70     50.2      0.00     18.28      70.5     0.35      1020.0     2       147         2       124        8.80     268      -19.4
   05/10/2017 22:20      60.3      60.0       69     50.1      0.00     18.28      70.2     0.35      1020.0     2       127         3       128        8.80     268      -19.7
   05/10/2017 22:10      60.3      60.0       69     50.0      0.00     18.28      70.1     0.35      1020.0     1       132         2       165        8.80     268      -19.0
   05/10/2017 22:00      60.2      60.0       69     49.9      0.00     18.28      70.4     0.35      1020.0     1       169         3       170        8.80     268      -18.5
   05/10/2017 21:50      60.1      60.0       69     50.0      0.00     18.28      70.6     0.35      1020.0     2       150         3       163        8.80     268      -19.6
   05/10/2017 21:40      60.1      59.9       69     50.0      0.00     18.28      70.4     0.35      1020.0     2       160         3       162        8.80     268      -18.8
   05/10/2017 21:30      60.0      59.9       69     49.9      0.00     18.28      70.4     0.35      1020.0     2       162         3       158        8.80     268      -19.7
   05/10/2017 21:20      60.1      59.9       69     49.9      0.00     18.28      70.4     0.35      1020.0     2       166         4       181        8.80     268      -19.5
   05/10/2017 21:10      60.1      59.9       69     50.0      0.00     18.28      70.3     0.35      1020.0     2       161         3       162        8.80     268      -18.8
   05/10/2017 21:00      60.0      59.8       69     49.9      0.00     18.28      70.6     0.35      1020.0     3       168         4       151        8.80     268      -18.6
   05/10/2017 20:50      60.2      59.9       69     50.0      0.00     18.28      70.7     0.35      1019.0     3       182         5       216        8.80     268      -20.5
   05/10/2017 20:40      60.5      60.2       69     50.0      0.00     18.28      70.1     0.35      1019.0     2       184         4       170        8.80     268      -22.9
   05/10/2017 20:30      60.7      60.4       68     49.8      0.00     18.28      70.1     0.35      1019.0     3       179         5       170        8.80     268      -24.0
   05/10/2017 20:20      60.9      60.7       67     49.8      0.00     18.28      70.0     0.35      1019.0     3       179         4       198        8.80     268      -21.1
   05/10/2017 20:10      61.2      60.9       66     49.8      0.00     18.28      70.6     0.35      1019.0     3       181         4       158        8.80     268      -21.6
   05/10/2017 20:00      61.6      61.3       66     49.9      0.00     18.28      70.2     0.35      1019.0     3       186         4       163        8.80     268      -21.0
   05/10/2017 19:50      61.7      61.4       66     50.1      0.00     18.28      70.5     0.35      1019.0     2       183         4       179        8.80     268      -20.6
   05/10/2017 19:40      61.8      61.7       66     50.1      0.00     18.28      70.1     0.35      1019.0     2       190         3       211        8.81     268      -19.4
   05/10/2017 19:30      61.9      61.8       65     50.1      0.00     18.28      70.2     0.35      1019.0     2       189         3       190        8.80     267      -17.2
   05/10/2017 19:20      62.1      61.8       65     50.0      0.00     18.28      70.1     0.35      1019.0     3       199         4       210        8.80     268      -11.9
   05/10/2017 19:10      62.4      62.1       64     50.1      0.00     18.28      70.5     0.35      1018.0     3       186         4       205        8.80     268       -7.2
   05/10/2017 19:00      62.4      62.2       64     50.1      0.00     18.28      70.2     0.35      1019.0     4       171         5       204        8.80     267       -3.3
   05/10/2017 18:50      62.6      62.3       64     50.1      0.00     18.28      70.4     0.35      1018.0     3       186         5       169        8.80     268        0.1
   05/10/2017 18:40      62.9      62.5       63     50.2      0.00     18.28      70.5     0.35      1018.0     3       196         5       186        8.81     267        4.7
   05/10/2017 18:30      63.5      63.1       63     50.4      0.00     18.28      70.1     0.35      1018.0     3       190         5       148        8.81     267        9.7
   05/10/2017 18:20      63.8      63.5       62     50.5      0.00     18.28      70.4     0.35      1018.0     3       159         5       139        8.80     268       14.8
   05/10/2017 18:10      63.9      63.6       62     50.5      0.00     18.28      70.3     0.35      1018.0     3       166         3       173        8.80     267       16.4
   05/10/2017 18:00      64.3      64.0       61     50.5      0.00     18.28      70.4     0.35      1018.0     3       155         5       145        8.81     268       19.1
   05/10/2017 17:50      64.1      63.7       61     50.1      0.00     18.28      70.1     0.35      1018.0     3       100         5       106        8.80     267       19.5
   05/10/2017 17:40      64.3      64.0       60     50.2      0.00     18.28      70.1     0.35      1018.0     4       118         6       126        8.80     268       25.5
   05/10/2017 17:30      64.8      64.2       60     50.1      0.00     18.28      70.4     0.35      1018.0     5       127         8       112        8.80     267       35.9
   05/10/2017 17:20      64.9      64.7       59     50.3      0.00     18.28      69.9     0.35      1018.0     4       120         5       103        8.80     267       38.2
   05/10/2017 17:10      65.5      64.8       59     50.4      0.00     18.28      70.2     0.35      1018.0     5       130         6       123        8.81     267       59.5
   05/10/2017 17:00      65.8      65.2       59     50.7      0.00     18.28      70.3     0.35      1018.0     3       131         5       157        8.81     267       92.1
   05/10/2017 16:50      65.6      64.8       60     50.8      0.00     18.28      70.5     0.35      1018.0     3       153         7       157        8.81     267      105.1
   05/10/2017 16:40      65.5      65.0       59     50.7      0.00     18.28      70.0     0.35      1018.0     5       135         7       116        8.81     267      100.0
   05/10/2017 16:30      65.5      65.2       59     50.7      0.00     18.28      70.2     0.35      1018.0     4       116         7       105        8.81     268      102.5
   05/10/2017 16:20      65.5      65.1       59     50.6      0.00     18.28      70.2     0.35      1018.0     5       131         8       138        8.81     267      110.8
   05/10/2017 16:10      66.0      65.7       57     50.3      0.00     18.28      70.0     0.35      1018.0     4       107         6       122        8.81     267      116.0
   05/10/2017 16:00      66.1      65.6       57     50.3      0.00     18.28      70.0     0.35      1018.0     4       124         7       128        8.81     267      163.8
   05/10/2017 15:50      66.1      65.6       57     50.4      0.00     18.28      70.2     0.35      1018.0     5       135         8       142        8.81     267      197.2
   05/10/2017 15:40      66.1      65.7       57     50.3      0.00     18.28      69.9     0.35      1018.0     4        87         8        92        8.81     267      198.3
   05/10/2017 15:30      65.6      65.2       58     50.2      0.00     18.28      70.1     0.35      1018.0     4       104         5        80        8.81     267      200.6
   05/10/2017 15:20      65.3      65.0       58     50.1      0.00     18.28      70.4     0.35      1018.0     4       120         7       124        8.81     267      182.4
   05/10/2017 15:10      65.2      64.6       58     49.9      0.00     18.28      70.0     0.35      1018.0     4       108         6        89        8.81     267      142.6
   05/10/2017 15:00      64.9      64.5       59     50.2      0.00     18.28      70.1     0.35      1018.0     5       145         8       159        8.81     267      121.7
   05/10/2017 14:50      64.8      64.6       60     50.7      0.00     18.28      70.1     0.35      1018.0     5       115         7       126        8.81     268       97.6
   05/10/2017 14:40      65.0      64.8       60     50.7      0.00     18.28      70.2     0.35      1018.0     3       154         5       167        8.81     268       88.8
   05/10/2017 14:30      65.3      64.8       60     50.7      0.00     18.28      69.9     0.35      1019.0     4       161         7       159        8.81     268      109.3
   05/10/2017 14:20      65.3      64.8       60     50.8      0.00     18.28      70.1     0.35      1019.0     4       144         5       134        8.81     268      161.3
   05/10/2017 14:10      65.6      65.2       59     50.8      0.00     18.28      70.0     0.35      1019.0     3       121         6       131        8.81     268      168.6
   05/10/2017 14:00      65.3      65.0       60     50.8      0.00     18.28      70.1     0.35      1019.0     4        96         6       134        8.81     268      185.4
   05/10/2017 13:50      65.1      64.5       60     50.6      0.00     18.28      70.0     0.35      1019.0     3        91         5        69        8.81     268      207.2
   05/10/2017 13:40      64.5      63.6       62     50.8      0.00     18.28      70.1     0.35      1019.0     3       104         7        95        8.81     268      196.5
   05/10/2017 13:30      64.2      63.1       63     50.9      0.00     18.28      70.4     0.35      1019.0     4       137         7       129        8.81     268      191.1
   05/10/2017 13:20      63.6      63.3       63     50.7      0.00     18.28      70.1     0.35      1019.0     5       142         8       150        8.80     268      186.9
   05/10/2017 13:10      63.7      63.5       63     50.9      0.00     18.28      70.2     0.35      1019.0     5       139        10       146        8.80     268      213.3
   05/10/2017 13:00      63.9      62.8       65     51.3      0.00     18.28      70.1     0.35      1019.0     2       149         4       142        8.80     268      295.5
   05/10/2017 12:50      63.0      62.3       67     51.5      0.00     18.28      70.2     0.35      1019.0     2       126         3       124        8.80     269      145.6
   05/10/2017 12:40      62.5      61.8       67     51.2      0.00     18.28      70.2     0.35      1019.0     3        65         5        70        8.80     269      142.1
   05/10/2017 12:30      61.9      60.9       71     51.8      0.00     18.28      70.0     0.35      1019.0     2       155         4        85        8.80     269      126.9
   05/10/2017 12:20      61.1      60.9       72     52.0      0.00     18.28      70.1     0.35      1019.0     2       184         4       177        8.80     269      102.2
   05/10/2017 12:10      61.0      60.5       73     52.1      0.00     18.28      70.2     0.35      1019.0     2       169         4       174        8.80     269       71.6
   05/10/2017 12:00      60.9      60.4       73     51.9      0.00     18.28      70.4     0.35      1019.0     4       151         6       156        8.80     269       76.1
   05/10/2017 11:50      61.1      60.4       73     52.1      0.00     18.28      70.1     0.35      1019.0     3       183         5       156        8.80     269      127.3
   05/10/2017 11:40      60.9      60.3       73     51.9      0.00     18.28      70.0     0.35      1019.0     5       172         7       170        8.80     269      142.0
   05/10/2017 11:30      60.7      60.3       72     51.5      0.00     18.28      70.3     0.35      1019.0     4       134         6       136        8.80     269      114.3
   05/10/2017 11:20      60.5      60.3       73     51.9      0.00     18.28      70.1     0.35      1019.0     2       102         4        75        8.80     269       76.3
   05/10/2017 11:10      60.4      59.6       74     51.8      0.00     18.28      70.1     0.35      1019.0     2        76         3        98        8.80     269       71.0
   05/10/2017 11:00      60.1      59.6       74     51.6      0.00     18.28      70.1     0.35      1018.0     3       104         4       104        8.80     269       63.4
   05/10/2017 10:50      60.3      59.8       74     51.9      0.00     18.28      70.3     0.35      1018.0     2       101         3        73        8.80     269       61.6
   05/10/2017 10:40      59.8      59.3       76     52.0      0.00     18.28      70.0     0.35      1018.0     3       146         5       139        8.80     269       60.8
   05/10/2017 10:30      59.5      59.2       77     52.2      0.00     18.28      70.1     0.35      1018.0     3        99         3        87        8.80     269       70.2
   05/10/2017 10:20      59.2      58.9       79     52.4      0.00     18.28      70.2     0.35      1018.0     3       112         5       148        8.80     269       67.8
   05/10/2017 10:10      58.9      58.4       80     52.7      0.00     18.28      70.3     0.35      1018.0     2        93         3        70        8.80     269       52.0
   05/10/2017 10:00      58.5      58.4       81     52.6      0.00     18.28      70.1     0.35      1018.0     2       109         3        69        8.80     269       44.2
   05/10/2017 09:50      59.2      58.5       79     52.5      0.00     18.28      70.1     0.35      1018.0     3       130         5       136        8.80     269       31.3
   05/10/2017 09:40      59.5      59.3       75     51.5      0.00     18.28      70.3     0.35      1018.0     3       143         4       132        8.80     269       23.3
   05/10/2017 09:30      60.1      59.6       73     51.4      0.00     18.28      70.3     0.35      1018.0     2        91         3       117        8.80     269       44.6
   05/10/2017 09:20      60.1      59.5       74     51.5      0.00     18.28      70.5     0.35      1018.0     2        68         3        67        8.80     269       68.5
   05/10/2017 09:10      59.6      59.2       75     51.4      0.00     18.28      70.0     0.35      1018.0     2        71         3       108        8.80     269       58.6
   05/10/2017 09:00      59.5      58.9       75     51.4      0.00     18.28      70.3     0.35      1018.0     2        84         5        82        8.80     269       38.0
   05/10/2017 08:50      59.0      58.6       76     51.3      0.00     18.28      70.5     0.35      1018.0     3        81         5        63        8.80     269       44.5
   05/10/2017 08:40      58.7      58.4       77     51.3      0.00     18.28      70.5     0.35      1018.0     3        92         5        59        8.80     269       51.1
   05/10/2017 08:30      58.6      58.1       78     51.5      0.00     18.28      70.2     0.35      1018.0     3       117         5       136        8.80     269       51.7
   05/10/2017 08:20      58.7      58.3       76     51.2      0.00     18.28      70.2     0.35      1018.0     3       125         5       139        8.80     269       26.2
   05/10/2017 08:10      58.9      58.7       75     50.9      0.00     18.28      70.3     0.35      1018.0     2       113         4        88        8.80     269       20.8
   05/10/2017 08:00      58.9      58.5       75     50.8      0.00     18.28      70.2     0.35      1018.0     2       112         3       134        8.79     269       27.3
   05/10/2017 07:50      58.6      58.3       75     50.7      0.00     18.28      69.9     0.35      1017.0     3       120         4       105        8.79     269       21.4
   05/10/2017 07:40      58.5      58.3       75     50.6      0.00     18.28      70.5     0.35      1017.0     2       103         3        88        8.78     269        9.1
   05/10/2017 07:30      58.6      58.3       75     50.6      0.00     18.28      70.3     0.35      1017.0     2        89         3        86        8.03     269        8.7
   05/10/2017 07:20      58.6      58.1       75     50.5      0.00     18.28      70.5     0.35      1017.0     2        89         3       107        8.03     268        7.4
   05/10/2017 07:10      58.3      58.0       75     50.4      0.00     18.28      70.4     0.35      1017.0     2        73         4        63        8.03     269       10.5
   05/10/2017 07:00      58.3      58.0       76     50.4      0.00     18.28      70.6     0.35      1017.0     2        92         3        85        8.03     269        3.0
   05/10/2017 06:50      58.2      57.9       76     50.4      0.00     18.28      70.3     0.35      1017.0     2        90         3        80        8.03     268       -0.1
   05/10/2017 06:40      58.0      57.6       76     50.3      0.00     18.28      70.3     0.35      1017.0     2       103         3       118        8.03     268       -2.6
   05/10/2017 06:30      57.8      57.6       76     50.3      0.00     18.28      70.7     0.35      1017.0     3       103         4        95        8.03     268       -6.7
   05/10/2017 06:20      57.8      57.5       76     50.1      0.00     18.28      70.7     0.35      1016.0     3       106         4       135        8.03     268       -9.4
   05/10/2017 06:10      57.9      57.7       76     50.2      0.00     18.28      70.4     0.35      1016.0     2        94         3       140        8.03     268      -11.5
   05/10/2017 06:00      57.8      57.5       76     50.1      0.00     18.28      70.7     0.35      1016.0     1        82         3        84        8.03     268      -12.8
   05/10/2017 05:50      57.7      57.5       76     50.1      0.00     18.28      70.6     0.35      1016.0     3        77         4        76        8.03     268      -15.1
   05/10/2017 05:40      58.0      57.5       76     50.1      0.00     18.28      70.7     0.35      1016.0     2        63         3        78        8.03     268      -14.0
   05/10/2017 05:30      57.7      57.5       76     49.9      0.00     18.28      70.6     0.35      1016.0     3        97         4        99        8.03     268      -13.7
   05/10/2017 05:20      57.7      57.5       75     49.9      0.00     18.28      71.0     0.35      1016.0     2        75         4        79        8.03     268      -13.9
   05/10/2017 05:10      57.7      57.4       76     50.0      0.00     18.28      70.7     0.35      1016.0     1        73         2        72        8.03     268      -14.3
   05/10/2017 05:00      57.6      57.5       76     49.9      0.00     18.28      70.7     0.35      1016.0     3        94         4        73        8.03     268      -17.1
   05/10/2017 04:50      57.7      57.4       75     49.8      0.00     18.28      70.7     0.35      1016.0     3        83         4        65        8.03     268      -14.3
   05/10/2017 04:40      57.7      57.6       75     49.8      0.00     18.28      71.0     0.35      1016.0     3        86         4        66        8.03     268      -13.9
   05/10/2017 04:30      57.8      57.5       75     49.8      0.00     18.28      70.5     0.35      1016.0     2        80         3       107        8.03     268      -14.5
   05/10/2017 04:20      57.7      57.5       75     49.7      0.00     18.28      70.5     0.35      1016.0     3        63         5        68        8.03     268      -18.3
   05/10/2017 04:10      57.6      57.5       75     49.7      0.00     18.28      70.9     0.35      1016.0     3        82         4       154        8.03     268      -15.2
   05/10/2017 04:00      57.7      57.5       75     49.7      0.00     18.28      71.2     0.35      1016.0     2        66         4        62        8.04     268      -15.8
   05/10/2017 03:50      57.7      57.5       75     49.7      0.00     18.28      70.8     0.35      1016.0     3        86         5        94        8.04     268      -16.7
   05/10/2017 03:40      57.8      57.5       75     49.8      0.00     18.28      70.7     0.35      1016.0     3        93         4       118        8.04     268      -14.6
   05/10/2017 03:30      57.7      57.5       75     49.7      0.00     18.28      70.9     0.35      1016.0     2        67         3        82        8.04     268      -14.3
   05/10/2017 03:20      57.7      57.5       75     49.7      0.00     18.28      70.9     0.35      1016.0     3        92         5       139        8.04     268      -15.3
   05/10/2017 03:10      57.7      57.5       75     49.6      0.00     18.28      71.1     0.35      1016.0     3        78         4       140        8.04     268      -15.1
   05/10/2017 03:00      57.8      57.5       74     49.5      0.00     18.28      70.6     0.35      1016.0     2        80         3       101        8.04     268      -15.8
   05/10/2017 02:50      57.7      57.4       75     49.6      0.00     18.28      70.8     0.35      1016.0     2        85         4        75        8.04     268      -15.1
   05/10/2017 02:40      57.8      57.5       75     49.6      0.00     18.28      70.8     0.35      1016.0     3       100         4       100        8.04     268      -15.6
   05/10/2017 02:30      57.6      57.5       75     49.5      0.00     18.28      71.0     0.35      1016.0     3        82         6        89        8.04     268      -16.8
   05/10/2017 02:20      57.7      57.5       74     49.5      0.00     18.28      70.6     0.35      1016.0     4       117         7       124        8.04     268      -15.5
   05/10/2017 02:10      57.7      57.5       74     49.4      0.00     18.28      70.8     0.35      1016.0     3        93         6        92        8.04     268      -15.1
   05/10/2017 02:00      57.6      57.5       74     49.4      0.00     18.28      70.7     0.35      1016.0     3        88         4        71        8.04     268      -15.1
   05/10/2017 01:50      57.6      57.5       74     49.3      0.00     18.28      70.8     0.35      1016.0     4        87         6        64        8.04     268      -15.0
   05/10/2017 01:40      57.9      57.6       74     49.5      0.00     18.28      70.9     0.35      1016.0     4        82         6       100        8.04     268      -15.0
   05/10/2017 01:30      57.7      57.5       75     49.5      0.00     18.28      70.7     0.35      1016.0     3        94         5       127        8.04     268      -15.1
   05/10/2017 01:20      57.8      57.5       74     49.6      0.00     18.28      71.0     0.35      1016.0     3        91         6       106        8.05     268      -15.7
   05/10/2017 01:10      57.8      57.6       74     49.5      0.00     18.28      70.8     0.35      1016.0     3        87         6       116        8.05     267      -16.4
   05/10/2017 01:00      57.7      57.5       74     49.5      0.00     18.28      70.9     0.35      1016.0     3        89         5       128        8.05     268      -15.2
   05/10/2017 00:50      57.8      57.5       74     49.5      0.00     18.28      71.0     0.35      1016.0     4        85         6        78        8.05     268      -15.8
   05/10/2017 00:40      57.7      57.6       74     49.5      0.00     18.28      70.8     0.35      1016.0     4       103         6        69        8.05     268      -15.7
   05/10/2017 00:30      58.0      57.6       74     49.6      0.00     18.28      71.1     0.35      1016.0     4        88         6       133        8.05     267      -16.1
   05/10/2017 00:20      58.0      57.8       74     49.6      0.00     18.28      71.2     0.35      1016.0     4        86         6        66        8.05     268      -15.9
   05/10/2017 00:10      58.1      57.9       74     49.7      0.00     18.28      71.0     0.35      1016.0     4        85         5        78        8.05     268      -15.9
   05/10/2017 00:00      58.1      57.9       73     49.6      0.00     18.28      70.8     0.35      1016.0     3        97         5        86        8.05     267      -15.7
   05/09/2017 23:50      58.2      58.0       73     49.5      0.00     18.28      70.9     0.35      1016.0     3        72         6        73        8.06     267      -16.1
   05/09/2017 23:40      58.2      58.0       73     49.5      0.00     18.28      71.1     0.35      1016.0     3        89         5       138        8.06     267      -16.9
   05/09/2017 23:30      58.2      57.8       73     49.4      0.00     18.28      70.9     0.35      1016.0     2       108         4       130        8.06     267      -16.3
   05/09/2017 23:20      58.3      58.0       73     49.3      0.00     18.28      71.1     0.35      1016.0     2        97         4        70        8.06     267      -16.5
   05/09/2017 23:10      58.3      58.2       72     49.4      0.00     18.28      71.1     0.35      1016.0     3        95         4        86        8.06     267      -16.8
   05/09/2017 23:00      58.5      58.3       72     49.5      0.00     18.28      71.3     0.35      1016.0     2        77         4        89        8.06     267      -17.5
   05/09/2017 22:50      58.4      58.1       72     49.4      0.00     18.28      71.1     0.35      1016.0     2       106         2       129        8.06     267      -17.2
   05/09/2017 22:40      58.5      58.1       72     49.4      0.00     18.28      71.2     0.35      1016.0     2        86         3        76        8.06     267      -17.7
   05/09/2017 22:30      58.3      58.0       72     49.3      0.00     18.28      71.1     0.35      1016.0     2        93         4       110        8.06     267      -18.4
   05/09/2017 22:20      58.3      58.0       72     49.4      0.00     18.28      71.1     0.35      1016.0     3       100         4       129        8.06     267      -17.8
   05/09/2017 22:10      58.5      58.1       72     49.4      0.00     18.28      70.9     0.35      1016.0     4        81         5        64        8.06     267      -18.1
   05/09/2017 22:00      58.2      58.0       73     49.3      0.00     18.28      71.4     0.35      1016.0     3       113         5        74        8.06     267      -23.8
   05/09/2017 21:50      58.4      58.2       72     49.5      0.00     18.28      70.8     0.35      1015.0     2       114         3        85        8.06     267      -32.0
   05/09/2017 21:40      58.4      58.1       72     49.4      0.00     18.28      71.0     0.35      1015.0     2       114         3       134        8.06     267      -23.9
   05/09/2017 21:30      58.2      58.1       72     49.3      0.00     18.28      71.3     0.35      1015.0     3       126         5       107        8.06     267      -22.1
   05/09/2017 21:20      58.4      58.0       72     49.3      0.00     18.28      71.1     0.35      1015.0     4       128         5       162        8.06     267      -23.4
   05/09/2017 21:10      58.3      58.2       72     49.3      0.00     18.28      71.0     0.35      1015.0     3       127         6       138        8.07     267      -26.0
   05/09/2017 21:00      58.6      58.3       72     49.4      0.00     18.28      71.3     0.35      1015.0     5       127         6       132        8.07     267      -29.2
   05/09/2017 20:50      58.9      58.7       71     49.3      0.00     18.28      70.8     0.35      1015.0     4       137         6       151        8.07     267      -24.9
   05/09/2017 20:40      59.4      59.0       70     49.2      0.00     18.28      71.0     0.35      1015.0     4        97         5        65        8.07     267      -24.0
   05/09/2017 20:30      59.5      59.3       69     49.3      0.00     18.28      71.1     0.35      1015.0     2       104         3       137        8.07     267      -22.3
   05/09/2017 20:20      59.5      59.2       69     49.2      0.00     18.28      71.0     0.35      1015.0     2       107         3        91        8.07     267      -22.8
   05/09/2017 20:10      59.5      59.4       69     49.3      0.00     18.28      71.4     0.35      1015.0     3       121         6       107        8.07     266      -24.2
   05/09/2017 20:00      59.8      59.3       69     49.2      0.00     18.28      71.1     0.35      1015.0     3       106         5       142        8.07     266      -27.8
   05/09/2017 19:50      59.9      59.6       68     49.2      0.00     18.28      70.8     0.35      1014.0     4        68         6        68        8.08     266      -26.4
   05/09/2017 19:40      60.4      60.0       67     49.3      0.00     18.28      70.9     0.35      1014.0     4        99        10        65        8.08     266      -22.5
   05/09/2017 19:30      60.5      60.3       66     49.1      0.00     18.28      70.8     0.35      1014.0     3        88         6        74        8.08     266      -18.2
   05/09/2017 19:20      60.6      60.2       67     49.3      0.00     18.28      71.0     0.35      1014.0     3       108         5       163        8.09     266      -12.3
   05/09/2017 19:10      60.5      60.2       67     49.3      0.00     18.28      70.5     0.35      1014.0     7       139        10       143        8.09     266       -7.1
   05/09/2017 19:00      61.0      60.6       66     49.5      0.00     18.28      71.0     0.35      1014.0     6       129         9       118        8.09     266        2.5
   05/09/2017 18:50      61.1      60.6       66     49.4      0.00     18.28      70.9     0.35      1014.0     8       147        10       143        8.09     266       21.2
   05/09/2017 18:40      61.4      61.2       65     49.4      0.00     18.28      70.8     0.35      1014.0     6       138         9       129        8.09     266       28.6
   05/09/2017 18:30      61.9      61.4       64     49.5      0.00     18.28      70.8     0.35      1014.0     7       124        11       134        8.10     266       64.8
   05/09/2017 18:20      62.0      61.4       64     49.6      0.00     18.28      70.8     0.35      1014.0     6       122         9       153        8.10     266       75.9
   05/09/2017 18:10      63.3      61.7       63     49.8      0.00     18.28      71.0     0.35      1014.0     6       137         8       146        8.10     266      102.1
   05/09/2017 18:00      63.4      63.0       62     49.8      0.00     18.28      70.9     0.35      1013.0     5       127         8        98        8.10     266      124.0
   05/09/2017 17:50      63.5      62.6       62     49.8      0.00     18.28      70.7     0.35      1013.0     6       125         9       126        8.11     266      157.9
   05/09/2017 17:40      63.4      62.6       62     49.9      0.00     18.28      70.7     0.35      1013.0     8       137        13       122        8.11     266      180.9
   05/09/2017 17:30      63.5      62.6       62     49.8      0.00     18.28      70.6     0.35      1013.0    10       137        14       115        8.11     266      198.2
   05/09/2017 17:20      64.3      63.1       60     49.9      0.00     18.28      70.8     0.35      1013.0     8       141        11       157        8.12     265      224.2
   05/09/2017 17:10      65.2      64.1       59     49.9      0.00     18.28      70.7     0.35      1013.0     7       125        12       142        8.12     266      247.7
   05/09/2017 17:00      65.2      64.6       58     50.0      0.00     18.28      70.5     0.35      1013.0     6       116        12       124        8.12     266      273.6
   05/09/2017 16:50      65.3      64.2       60     50.5      0.00     18.28      70.4     0.35      1013.0     6       139        11       121        8.12     266      303.8
   05/09/2017 16:40      64.9      64.3       60     50.6      0.00     18.28      70.8     0.35      1013.0     7       181        10       179        8.12     266      330.3
   05/09/2017 16:30      65.5      64.9       59     50.6      0.00     18.28      70.6     0.35      1013.0     6       178        10       170        8.12     266      372.9
   05/09/2017 16:20      66.3      65.9       58     50.9      0.00     18.28      70.4     0.35      1013.0     8       166        11       159        8.12     266      433.8
   05/09/2017 16:10      66.1      65.5       59     50.9      0.00     18.28      70.2     0.35      1013.0     6       158        10       193        8.13     266      436.2
   05/09/2017 16:00      65.6      65.0       60     50.9      0.00     18.28      70.3     0.35      1013.0     7       167        11       176        8.13     266      415.0
   05/09/2017 15:50      65.5      64.9       60     51.0      0.00     18.28      70.5     0.35      1013.0     9       178        12       191        8.13     266      505.4
   05/09/2017 15:40      65.2      64.4       61     51.1      0.00     18.28      70.3     0.35      1013.0     8       176        11       170        8.13     266      354.5
   05/09/2017 15:30      65.4      64.9       61     51.2      0.00     18.28      70.3     0.35      1013.0     8       173        12       198        8.14     266      522.9
   05/09/2017 15:20      65.5      64.0       62     51.4      0.00     18.28      70.3     0.35      1013.0     7       178        11       189        8.14     266      502.9
   05/09/2017 15:10      65.4      64.8       61     51.4      0.00     18.28      70.2     0.35      1013.0     6       157        11       182        8.14     267      449.6
   05/09/2017 15:00      65.5      64.5       62     51.5      0.00     18.28      70.4     0.35      1013.0     6       155        10       148        8.14     267      480.0
   05/09/2017 14:50      65.1      64.2       62     51.4      0.00     18.28      70.4     0.35      1013.0     6       166         9       191        8.14     267      346.4
   05/09/2017 14:40      64.8      64.3       62     51.4      0.00     18.28      70.3     0.35      1013.0     7       168        12       167        8.14     267      364.4
   05/09/2017 14:30      65.9      65.0       61     51.5      0.00     18.28      70.4     0.35      1013.0     7       160        11       139        8.15     267      416.9
   05/09/2017 14:20      65.3      64.5       61     51.1      0.00     18.28      70.3     0.35      1013.0     6       141        10       125        8.15     267      360.5
   05/09/2017 14:10      65.4      64.6       61     51.2      0.00     18.28      70.4     0.35      1013.0     7       150        12       146        8.15     267      319.0
   05/09/2017 14:00      65.2      64.2       61     50.9      0.00     18.28      70.0     0.35      1013.0     8       143        11       131        8.15     267      261.7
   05/09/2017 13:50      66.1      65.3       59     51.1      0.00     18.28      70.4     0.35      1013.0     7       129        11       142        8.15     267      318.6
   05/09/2017 13:40      65.9      64.8       61     51.3      0.00     18.28      70.5     0.35      1013.0     8       148        12       185        8.16     267      382.3
   05/09/2017 13:30      65.1      64.0       62     51.2      0.00     18.28      70.0     0.35      1013.0     6       125         8       118        8.16     268      252.5
   05/09/2017 13:20      64.5      63.9       62     51.1      0.00     18.28      70.3     0.35      1013.0     6       134        10       126        8.16     267      198.1
   05/09/2017 13:10      64.6      64.2       62     51.1      0.00     18.28      70.4     0.35      1013.0     5       139         8       129        8.16     267      169.5
   05/09/2017 13:00      65.2      64.6       61     51.3      0.00     18.28      70.3     0.35      1013.0     5       125         8        97        8.16     267      230.9
   05/09/2017 12:50      65.2      64.2       62     51.4      0.00     18.28      70.3     0.35      1013.0     4       129         6       144        8.16     267      226.9
   05/09/2017 12:40      64.8      63.7       62     51.1      0.00     18.28      70.3     0.35      1013.0     5       145         7       133        8.16     268      349.7
   05/09/2017 12:30      64.3      63.7       62     50.8      0.00     18.28      70.1     0.35      1013.0     6       114         8        90        8.16     268      290.4
   05/09/2017 12:20      64.0      63.6       62     50.8      0.00     18.28      70.3     0.35      1013.0     5       105         8        92        8.17     267      209.1
   05/09/2017 12:10      64.0      63.4       63     50.6      0.00     18.28      70.3     0.35      1013.0     6       113         8       128        8.17     268      400.8
   05/09/2017 12:00      63.8      63.3       63     50.7      0.00     18.28      70.2     0.35      1013.0     7        94        10        74        8.17     268      321.1
   05/09/2017 11:50      63.9      62.5       64     50.8      0.00     18.28      70.5     0.35      1013.0     6        94         9        78        8.17     268      325.4
   05/09/2017 11:40      62.6      61.8       66     50.8      0.00     18.28      70.1     0.35      1013.0     6        83         9        82        8.17     268      278.1
   05/09/2017 11:30      62.1      61.7       67     50.9      0.00     18.28      70.5     0.35      1013.0     4        94         7        93        8.17     268      197.0
   05/09/2017 11:20      61.9      61.6       68     51.0      0.00     18.28      70.1     0.35      1013.0     4       112         5        99        8.17     268      116.8
   05/09/2017 11:10      62.5      62.3       66     51.0      0.00     18.28      70.1     0.35      1013.0     4        76         6       136        8.18     268      115.3
   05/09/2017 11:00      62.6      62.1       65     50.5      0.00     18.28      70.4     0.35      1013.0     4        88         8       134        8.17     268      159.2
   05/09/2017 10:50      62.7      61.3       66     50.6      0.00     18.28      70.2     0.35      1013.0     3        51         7        92        8.17     268      219.3
   05/09/2017 10:40      61.3      60.3       69     50.5      0.00     18.28      70.3     0.35      1013.0     4        69         7        95        8.17     268      162.1
   05/09/2017 10:30      60.5      60.2       70     50.6      0.00     18.28      70.0     0.35      1013.0     5        96         7        76        8.18     268      121.3
   05/09/2017 10:20      60.8      60.4       69     50.5      0.00     18.28      70.3     0.35      1013.0     4       121         7       113        8.18     268       96.3
   05/09/2017 10:10      60.9      60.6       68     50.1      0.00     18.28      70.2     0.35      1013.0     4        93         6        73        8.18     268      109.3
   05/09/2017 10:00      61.0      60.5       68     50.0      0.00     18.28      70.2     0.35      1013.0     5        98         7       130        8.18     268      128.7
   05/09/2017 09:50      61.2      60.5       68     50.2      0.00     18.28      70.3     0.35      1013.0     4        96         6       115        8.18     268      141.4
   05/09/2017 09:40      60.8      60.1       69     50.4      0.00     18.28      70.4     0.35      1013.0     3        90         7       102        8.18     268      142.7
   05/09/2017 09:30      60.5      59.8       70     50.4      0.00     18.28      70.3     0.35      1012.0     4        84         5        79        8.18     268      124.7
   05/09/2017 09:20      60.0      59.6       71     50.5      0.00     18.28      70.6     0.35      1012.0     3        76         4        37        8.18     268      107.0
   05/09/2017 09:10      59.9      59.6       72     50.8      0.00     18.28      70.7     0.35      1012.0     3        64         4        84        8.19     268      119.1
   05/09/2017 09:00      59.7      59.0       73     50.8      0.00     18.28      70.5     0.35      1012.0     3        62         4        72        8.19     269      174.9
   05/09/2017 08:50      59.3      58.9       74     50.9      0.00     18.28      70.3     0.35      1012.0     3        37         5        56        8.19     268       88.7
   05/09/2017 08:40      59.0      58.4       75     50.9      0.00     18.28      70.5     0.35      1012.0     3        38         3        44        8.19     268       85.1
   05/09/2017 08:30      58.7      58.0       77     51.1      0.00     18.28      70.5     0.35      1012.0     2        37         3        27        8.19     269      104.8
   05/09/2017 08:20      58.1      57.5       78     50.8      0.00     18.28      70.7     0.35      1012.0     2        47         5        63        8.19     269       77.8
   05/09/2017 08:10      57.7      57.5       78     50.8      0.00     18.28      70.8     0.35      1012.0     2        36         3         6        8.19     268       70.0
   05/09/2017 08:00      57.7      57.1       78     50.8      0.00     18.28      70.5     0.35      1012.0     2        46         3        35        8.19     269       76.7
   05/09/2017 07:50      57.3      56.5       80     50.7      0.00     18.28      70.5     0.35      1012.0     2        24         3        33        8.19     268       66.8
   05/09/2017 07:40      56.6      56.1       81     50.6      0.00     18.28      70.7     0.35      1012.0     2        42         3        38        8.19     268       42.1
   05/09/2017 07:30      56.1      55.8       82     50.5      0.00     18.28      71.0     0.35      1012.0     2        40         3        67        8.19     268       24.5
   05/09/2017 07:20      55.8      55.5       82     50.3      0.00     18.28      70.8     0.35      1012.0     2        39         4        35        8.19     268       18.8
   05/09/2017 07:10      55.7      55.4       83     50.4      0.00     18.28      70.9     0.35      1012.0     2        29         3        73        8.19     269       10.8
   05/09/2017 07:00      55.5      55.4       83     50.4      0.00     18.28      70.7     0.35      1012.0     2        32         3        23        8.19     268        3.9
   05/09/2017 06:50      55.5      55.1       83     50.4      0.00     18.28      71.1     0.35      1012.0     2        38         2        38        8.19     268        1.7
   05/09/2017 06:40      55.2      54.9       84     50.4      0.00     18.28      71.0     0.35      1011.0     1        38         3         2        8.19     269        0.5
   05/09/2017 06:30      54.8      54.5       85     50.3      0.00     18.28      70.8     0.35      1011.0     1        49         5        72        8.19     269       -2.0
   05/09/2017 06:20      54.6      54.3       86     50.4      0.00     18.28      70.9     0.35      1011.0     2        46         2        58        8.19     268       -4.7
   05/09/2017 06:10      54.4      54.0       87     50.2      0.00     18.28      71.2     0.35      1011.0     3        56         4        60        8.19     268       -6.5
   05/09/2017 06:00      54.2      54.0       87     50.1      0.00     18.28      71.1     0.35      1011.0     4        65         7        83        8.19     269       -6.8
   05/09/2017 05:50      54.2      53.6       87     50.2      0.00     18.28      71.5     0.35      1011.0     3        49         6        87        8.19     268       -5.6
   05/09/2017 05:40      53.8      53.4       88     50.2      0.00     18.28      71.3     0.35      1011.0     2        45         3        90        8.20     268       -9.9
   05/09/2017 05:30      53.6      53.1       89     50.2      0.00     18.28      71.0     0.35      1010.0     2        55         5        82        8.20     268       -5.3
   05/09/2017 05:20      53.2      53.0       89     50.1      0.00     18.28      71.0     0.35      1010.0     3        56         5        93        8.20     268       -9.4
   05/09/2017 05:10      53.1      52.9       89     49.9      0.00     18.28      71.1     0.35      1010.0     3        68         6        79        8.20     268      -17.3
   05/09/2017 05:00      53.1      52.4       89     49.5      0.00     18.28      71.2     0.35      1010.0     3        74         7        99        8.20     268      -25.3
   05/09/2017 04:50      52.4      51.4       89     48.9      0.00     18.28      71.0     0.35      1010.0     3        86         4        75        8.20     268      -26.5
   05/09/2017 04:40      51.8      51.4       90     48.8      0.00     18.28      71.2     0.36      1010.0     1        75         2       123        8.20     268      -28.0
   05/09/2017 04:30      51.5      50.5       90     48.0      0.00     18.28      70.9     0.36      1010.0     1       137         3       143        8.20     268      -29.8
   05/09/2017 04:20      51.3      50.9       89     48.0      0.00     18.28      71.4     0.36      1010.0     1        70         2       325        8.20     267      -31.8
   05/09/2017 04:10      51.5      51.2       90     48.4      0.00     18.28      71.2     0.36      1010.0     1        79         2       103        8.20     267      -33.0
   05/09/2017 04:00      51.5      50.9       90     48.4      0.00     18.28      71.4     0.35      1009.0     1       215         2       140        8.20     267      -35.1
   05/09/2017 03:50      51.3      51.0       89     48.1      0.00     18.28      71.5     0.35      1009.0     2       137         2       139        8.20     267      -39.9
   05/09/2017 03:40      51.4      51.1       88     47.9      0.00     18.28      71.6     0.35      1009.0     2       134         2       148        8.20     267      -44.4
   05/09/2017 03:30      52.0      51.7       88     48.2      0.00     18.28      71.3     0.36      1009.0     2       139         3       141        8.20     267      -46.6
   05/09/2017 03:20      52.2      51.7       88     48.4      0.00     18.28      71.5     0.36      1009.0     2       171         2       139        8.21     267      -50.0
   05/09/2017 03:10      52.2      51.9       86     48.1      0.00     18.28      71.1     0.35      1009.0     2       188         2       169        8.21     267      -53.8
   05/09/2017 03:00      52.6      52.2       86     48.2      0.00     18.28      71.6     0.36      1009.0     2       170         2       148        8.21     267      -55.1
   05/09/2017 02:50      53.6      52.6       83     48.4      0.00     18.28      71.4     0.36      1009.0     1       197         2       131        8.21     267      -56.1
   05/09/2017 02:40      53.7      53.4       84     48.9      0.00     18.28      71.4     0.36      1009.0     1       243         2       255        8.21     267      -55.5
   05/09/2017 02:30      53.5      53.1       84     48.5      0.00     18.28      71.4     0.36      1009.0     1       200         1       155        8.21     267      -55.3
   05/09/2017 02:20      53.7      53.0       83     48.4      0.00     18.28      71.4     0.36      1009.0     1       161         2       221        8.21     267      -56.6
   05/09/2017 02:10      53.5      53.1       83     48.1      0.00     18.28      71.8     0.36      1009.0     1       142         2       128        8.21     267      -56.8
   05/09/2017 02:00      54.6      53.4       80     47.8      0.00     18.28      71.7     0.36      1009.0     1        81         2        77        8.21     267      -57.9
   05/09/2017 01:50      54.8      54.5       79     48.3      0.00     18.28      71.3     0.36      1009.0     1       329         2       322        8.21     267      -58.2
   05/09/2017 01:40      54.6      53.9       81     48.6      0.00     18.28      71.8     0.36      1009.0     2       227         3       216        8.21     267      -57.7
   05/09/2017 01:30      54.6      54.0       81     48.6      0.00     18.28      71.7     0.36      1009.0     1       152         2       124        8.21     266      -58.2
   05/09/2017 01:20      54.3      53.7       80     47.9      0.00     18.28      71.8     0.36      1009.0     2       126         2       123        8.21     266      -59.3
   05/09/2017 01:10      56.1      54.5       77     48.0      0.00     18.28      71.8     0.36      1009.0     1       101         2       115        8.21     266      -59.8
   05/09/2017 01:00      56.8      56.0       75     48.5      0.00     18.28      71.8     0.36      1009.0     1        14         2        36        8.21     266      -59.7
   05/09/2017 00:50      56.8      56.1       76     48.8      0.00     18.28      71.8     0.36      1009.0     2       205         2       251        8.21     266      -59.0
   05/09/2017 00:40      56.8      56.3       75     48.7      0.00     18.28      71.8     0.36      1009.0     2       142         3       136        8.21     266      -59.8
   05/09/2017 00:30      56.6      56.0       74     48.1      0.00     18.28      72.0     0.36      1009.0     2       120         4       139        8.21     266      -59.7
   05/09/2017 00:20      56.8      56.3       72     47.6      0.00     18.28      71.7     0.36      1009.0     1       151         2       133        8.22     266      -59.8
   05/09/2017 00:10      57.4      56.5       70     47.0      0.00     18.28      71.9     0.36      1009.0     1       116         2       106        8.22     266      -61.2
   05/09/2017 00:00      57.6      56.9       70     47.3      0.00     18.28      71.8     0.36      1009.0     1       173         1       218        8.22     266      -61.1
   05/08/2017 23:50      58.3      57.3       67     47.0      0.00     18.28      71.8     0.36      1009.0     1        77         2        77        8.22     266      -61.4
   05/08/2017 23:40      59.3      58.4       64     47.1      0.00     18.28      71.7     0.36      1010.0     1       340         2       294        8.22     265      -60.5
   05/08/2017 23:30      59.3      58.4       65     47.2      0.00     18.28      71.9     0.36      1010.0     2       189         4       173        8.22     265      -58.0
   05/08/2017 23:20      58.8      58.5       65     47.2      0.00     18.28      72.0     0.36      1010.0     2       137         2       155        8.22     265      -55.1
   05/08/2017 23:10      59.6      58.5       65     47.0      0.00     18.28      71.9     0.36      1010.0     2       157         3       157        8.22     265      -57.3
   05/08/2017 23:00      59.6      59.4       63     47.0      0.00     18.28      71.8     0.36      1010.0     1       229         2       188        8.22     265      -58.8
   05/08/2017 22:50      59.5      58.8       64     47.2      0.00     18.28      71.7     0.36      1010.0     1       222         2       221        8.22     265      -55.5
   05/08/2017 22:40      59.4      58.7       65     47.2      0.00     18.28      71.9     0.36      1010.0     1       151         2       148        8.22     265      -51.5
   05/08/2017 22:30      60.0      59.7       62     46.8      0.00     18.28      71.8     0.36      1010.0     1       245         2       243        8.22     265      -53.4
   05/08/2017 22:20      59.9      59.2       64     47.2      0.00     18.28      72.0     0.36      1010.0     1       188         1       206        8.23     265      -56.8
   05/08/2017 22:10      60.4      59.3       63     46.9      0.00     18.28      71.8     0.36      1010.0     1       136         2       142        8.23     265      -63.5
   05/08/2017 22:00      60.4      59.8       62     47.2      0.00     18.28      71.8     0.36      1010.0     1       256         2       252        8.23     265      -64.4
   05/08/2017 21:50      61.1      59.9       61     46.8      0.00     18.28      71.5     0.36      1010.0     1       159         1       152        8.23     265      -66.0
   05/08/2017 21:40      61.5      60.9       59     47.0      0.00     18.28      71.8     0.36      1010.0     2       231         3       245        8.23     265      -65.4
   05/08/2017 21:30      61.2      60.4       61     47.0      0.00     18.28      71.8     0.36      1010.0     2       151         2       137        8.23     265      -66.4
   05/08/2017 21:20      62.5      61.5       57     46.8      0.00     18.28      71.6     0.35      1010.0     1        77         2       126        8.23     265      -68.2
   05/08/2017 21:10      63.3      62.7       55     46.8      0.00     18.28      71.6     0.35      1010.0     1       191         3       210        8.23     265      -69.2
   05/08/2017 21:00      63.6      63.0       55     46.9      0.00     18.28      72.1     0.35      1010.0     2       230         3       222        8.23     264      -70.0
   05/08/2017 20:50      64.0      63.5       54     46.9      0.00     18.28      71.7     0.36      1010.0     1       238         3       204        8.23     264      -71.9
   05/08/2017 20:40      65.0      64.4       53     47.3      0.00     18.28      71.7     0.35      1010.0     2       240         4       264        8.23     264      -72.0
   05/08/2017 20:30      65.2      65.0       53     47.6      0.00     18.28      71.7     0.35      1010.0     2       286         3       304        8.23     264      -74.3
   05/08/2017 20:20      65.6      65.2       52     47.5      0.00     18.28      71.8     0.35      1010.0     2       282         3       279        8.23     264      -74.8
   05/08/2017 20:10      65.9      65.7       52     47.7      0.00     18.28      71.5     0.35      1010.0     3       305         4       316        8.23     264      -72.0
   05/08/2017 20:00      66.4      66.1       51     47.6      0.00     18.28      71.5     0.35      1010.0     4       301         6       305        8.23     264      -73.6
   05/08/2017 19:50      67.2      66.4       50     47.5      0.00     18.28      71.5     0.35      1010.0     3       300         5       316        8.23     264      -73.0
   05/08/2017 19:40      68.2      67.3       47     47.0      0.00     18.28      71.3     0.35      1010.0     3       296         4       302        8.24     264      -64.6
   05/08/2017 19:30      68.8      68.4       44     45.9      0.00     18.28      71.3     0.35      1010.0     3       294         4       258        8.24     264      -48.5
   05/08/2017 19:20      69.3      69.1       44     46.1      0.00     18.28      71.4     0.35      1010.0     3       299         5       277        8.24     264      -47.3
   05/08/2017 19:10      69.8      69.3       43     46.4      0.00     18.28      71.4     0.35      1009.0     3       308         5       308        8.25     264      -42.2
   05/08/2017 19:00      70.5      69.7       43     46.4      0.00     18.28      71.2     0.35      1009.0     3       314         5       324        8.25     263      -49.7
   05/08/2017 18:50      70.6      70.2       40     45.1      0.00     18.28      71.3     0.35      1009.0     2       257         3       266        8.26     263      -26.0
   05/08/2017 18:40      70.7      70.2       39     44.5      0.00     18.28      71.2     0.35      1009.0     4       220         7       231        8.26     263      -23.4
   05/08/2017 18:30      71.0      70.7       38     44.4      0.00     18.28      71.1     0.35      1009.0     5       239         7       262        8.26     263       -0.2
   05/08/2017 18:20      71.6      71.1       37     43.9      0.00     18.28      71.1     0.35      1009.0     7       221        10       249        8.27     263       47.5
   05/08/2017 18:10      71.7      71.4       36     43.4      0.00     18.28      71.0     0.35      1009.0     8       245        11       230        8.27     263       55.9
   05/08/2017 18:00      71.5      71.0       36     43.1      0.00     18.28      70.9     0.35      1009.0     7       234        11       231        8.27     263       24.8
   05/08/2017 17:50      72.3      71.3       34     42.1      0.00     18.28      71.1     0.35      1009.0     8       222        10       216        8.27     263        2.9
   05/08/2017 17:40      73.8      72.7       31     41.1      0.00     18.28      70.8     0.35      1009.0     8       237        14       233        8.28     262       80.1
   05/08/2017 17:30      73.7      72.9       31     40.8      0.00     18.28      71.0     0.35      1009.0     7       225        11       240        8.28     263      175.6
   05/08/2017 17:20      74.4      73.7       30     40.7      0.00     18.28      70.9     0.35      1010.0     6       241         9       279        8.28     263      131.4
   05/08/2017 17:10      74.3      73.5       30     40.9      0.00     18.28      70.6     0.35      1009.0     6       234         9       255        8.29     264      177.7
   05/08/2017 17:00      73.8      73.4       31     41.2      0.00     18.28      70.7     0.35      1009.0     7       248        10       252        8.29     264      120.6
   05/08/2017 16:50      74.4      73.8       31     41.3      0.00     18.28      70.6     0.35      1009.0     8       235        15       237        8.29     263      108.9
   05/08/2017 16:40      76.3      74.5       29     40.6      0.00     18.28      70.5     0.35      1009.0     7       232        10       257        8.30     263      113.7
   05/08/2017 16:30      77.4      76.2       27     40.2      0.00     18.28      70.3     0.35      1009.0     5       212         9       253        8.30     263      249.3
   05/08/2017 16:20      78.0      77.1       26     39.6      0.00     18.28      70.4     0.35      1009.0     6       256         9       265        8.30     264      307.1
   05/08/2017 16:10      77.8      76.9       24     38.1      0.00     18.28      70.1     0.35      1009.0     7       264        10       259        8.30     263      324.1
   05/08/2017 16:00      77.3      76.8       24     37.3      0.00     18.28      70.1     0.35      1009.0     8       260        12       251        8.31     263      349.1
   05/08/2017 15:50      77.3      76.7       24     37.6      0.00     18.28      70.0     0.35      1009.0     8       254        12       256        8.31     264      364.6
   05/08/2017 15:40      77.5      77.0       24     37.3      0.00     18.28      69.9     0.35      1009.0     7       235        13       264        8.32     263      419.1
   05/08/2017 15:30      78.1      76.7       24     37.7      0.00     18.28      69.8     0.35      1009.0     8       236        11       238        8.32     264      355.2
   05/08/2017 15:20      78.8      78.0       24     38.3      0.00     18.28      69.8     0.35      1009.0     6       243        11       268        8.33     264      457.4
   05/08/2017 15:10      79.1      77.9       30     44.2      0.00     18.28      69.8     0.35      1009.0     3        15         6       260        8.33     264      496.5
   05/08/2017 15:00      79.1      78.4       32     46.0      0.00     18.28      69.6     0.35      1009.0     4        73         6       103        8.33     264      507.9
   05/08/2017 14:50      80.1      79.0       30     45.6      0.00     18.28      69.6     0.35      1009.0     3        24         4        31        8.33     264      513.0
   05/08/2017 14:40      80.7      78.5       32     46.8      0.00     18.28      69.6     0.35      1009.0     5       348        11       345        8.33     264      535.5
   05/08/2017 14:30      80.4      79.1       29     45.0      0.00     18.28      69.6     0.34      1009.0     4         7         6       322        8.33     264      573.9
   05/08/2017 14:20      80.3      79.5       27     42.5      0.00     18.28      69.5     0.34      1010.0     4       359         8       294        8.33     264      526.2
   05/08/2017 14:10      80.0      78.8       25     40.2      0.00     18.28      69.4     0.34      1010.0     5       310         9       318        8.34     264      565.1
   05/08/2017 14:00      79.1      78.0       25     39.9      0.00     18.28      69.3     0.35      1010.0     5       298         9       289        8.34     264      604.1
   05/08/2017 13:50      77.8      76.8       25     38.9      0.00     18.28      69.2     0.35      1010.0     5       237         8       197        8.34     264      533.7
   05/08/2017 13:40      77.5      75.8       25     38.7      0.00     18.28      69.0     0.35      1010.0     6       243         9       235        8.34     264      446.9
   05/08/2017 13:30      76.3      75.9       25     38.2      0.00     18.28      69.1     0.35      1010.0     5       238        10       238        8.35     264      279.1
   05/08/2017 13:20      76.5      76.0       25     38.3      0.00     18.28      69.3     0.35      1010.0     6       250        10       230        8.35     264      425.7
   05/08/2017 13:10      76.5      75.5       25     37.6      0.00     18.28      69.1     0.35      1010.0     5       278         8       256        8.36     264      279.8
   05/08/2017 13:00      76.1      75.1       26     38.0      0.00     18.28      68.9     0.35      1010.0     6       273         9       298        8.36     264      288.8
   05/08/2017 12:50      76.3      75.8       24     36.6      0.00     18.28      68.9     0.35      1010.0     5       275        11       254        8.36     264      255.5
   05/08/2017 12:40      76.5      75.8       23     35.6      0.00     18.28      69.1     0.34      1010.0     5       308         9       275        8.36     264      308.4
   05/08/2017 12:30      77.9      76.7       21     34.1      0.00     18.28      68.8     0.34      1010.0     5       333         7       312        8.36     264      268.5
   05/08/2017 12:20      78.0      76.8       20     33.5      0.00     18.28      68.7     0.34      1011.0     5       337        10         8        8.36     265      580.9
   05/08/2017 12:10      77.5      76.6       20     33.3      0.00     18.28      68.8     0.34      1011.0     6        19         9        11        8.36     265      581.6
   05/08/2017 12:00      76.6      75.8       20     32.3      0.00     18.28      69.0     0.34      1011.0     6       357        13       317        8.37     265      580.7
   05/08/2017 11:50      76.8      75.8       20     32.7      0.00     18.28      68.6     0.34      1011.0     4         2         8       339        8.37     265      571.9
   05/08/2017 11:40      76.1      74.9       21     32.9      0.00     18.28      68.8     0.34      1011.0     4        11         8       354        8.37     266      567.4
   05/08/2017 11:30      75.4      74.3       23     34.2      0.00     18.28      68.9     0.34      1011.0     5       329         9       351        8.37     266      559.0
   05/08/2017 11:20      74.9      73.8       24     35.3      0.00     18.28      68.9     0.34      1011.0     4       299         7       288        8.37     266      550.4
   05/08/2017 11:10      73.9      72.9       24     34.3      0.00     18.28      68.9     0.34      1012.0     3       318         5       300        8.37     266      542.5
   05/08/2017 11:00      73.0      71.7       26     36.0      0.00     18.28      69.1     0.34      1012.0     4       324         9       356        8.37     267      531.7
   05/08/2017 10:50      71.7      70.9       26     34.7      0.00     18.28      68.7     0.34      1012.0     5       320         8       335        8.37     267      520.6
   05/08/2017 10:40      71.2      70.4       30     37.7      0.00     18.28      68.7     0.35      1012.0     6       316         8       325        8.37     268      508.0
   05/08/2017 10:30      70.3      69.4       33     39.7      0.00     18.28      68.8     0.35      1012.0     3       305         5       324        8.37     269      493.6
   05/08/2017 10:20      69.7      68.2       36     40.8      0.00     18.28      68.9     0.35      1012.0     3       297         5       289        8.37     269      478.0
   05/08/2017 10:10      68.4      67.5       37     40.8      0.00     18.28      68.7     0.35      1012.0     3       278         5       323        8.38     269      466.5
   05/08/2017 10:00      67.7      66.1       39     40.9      0.00     18.28      69.1     0.35      1012.0     3       278         5       233        8.37     269      450.6
   05/08/2017 09:50      65.7      64.8       41     40.9      0.00     18.28      69.2     0.35      1012.0     2       342         3       324        8.38     269      433.7
   05/08/2017 09:40      64.9      63.6       44     41.7      0.00     18.28      69.2     0.35      1013.0     2       320         4       266        8.38     269      415.2
   05/08/2017 09:30      63.4      61.9       48     42.4      0.00     18.28      69.4     0.35      1013.0     2       282         4       264        8.38     270      394.7
   05/08/2017 09:20      61.6      60.5       52     43.2      0.00     18.28      69.2     0.35      1013.0     3       275         5       309        8.38     270      375.6
   05/08/2017 09:10      60.6      59.0       56     43.9      0.00     18.28      69.1     0.35      1013.0     2       267         4       300        8.38     270      357.6
   05/08/2017 09:00      58.9      57.4       59     43.8      0.00     18.28      69.2     0.35      1013.0     3       271         4       262        8.38     270      339.9
   05/08/2017 08:50      57.4      54.8       62     43.2      0.00     18.28      69.3     0.35      1013.0     1       314         3       283        8.38     270      324.1
   05/08/2017 08:40      54.8      53.5       66     42.9      0.00     18.28      69.3     0.35      1013.0     2       320         5       315        8.38     271      324.9
   05/08/2017 08:30      53.6      52.7       69     43.0      0.00     18.28      69.0     0.35      1013.0     2       344         4       304        8.38     270      253.0
   05/08/2017 08:20      52.8      52.3       70     43.0      0.00     18.28      69.3     0.35      1013.0     2       322         3       308        8.38     271       73.8
   05/08/2017 08:10      52.1      51.2       72     42.8      0.00     18.28      69.4     0.35      1013.0     2       290         3       300        8.38     271       30.4
   05/08/2017 08:00      51.3      50.2       78     43.9      0.00     18.28      70.2     0.35      1013.0     2       275         3       244        8.38     271       26.1
   05/08/2017 07:50      50.4      48.9       80     43.4      0.00     18.28      69.3     0.35      1013.0     2       276         3       207        8.38     270       63.9
   05/08/2017 07:40      48.8      47.8       82     42.9      0.00     18.28      69.1     0.35      1013.0     1       319         3       308        8.38     270       29.8
   05/08/2017 07:30      48.0      47.0       85     42.9      0.00     18.28      69.6     0.35      1013.0     1       242         1       247        8.38     270       22.4
   05/08/2017 07:20      47.0      46.1       88     43.1      0.00     18.28      69.1     0.35      1013.0     1       230         1       262        8.38     270       19.8
   05/08/2017 07:10      46.1      44.9       90     43.0      0.00     18.28      70.0     0.35      1013.0     1       152         1       133        8.38     270       21.4
   05/08/2017 07:00      45.1      43.9       92     42.4      0.00     18.28      70.1     0.35      1013.0     1       160         1       156        8.38     270       16.9
   05/08/2017 06:50      43.8      43.2       92     41.4      0.00     18.28      69.7     0.35      1013.0     1       141         2       137        8.38     270        9.1
   05/08/2017 06:40      43.3      42.4       93     40.8      0.00     18.28      70.2     0.35      1013.0     0       300         1       308        8.38     270        3.8
   05/08/2017 06:30      42.3      42.0       93     40.2      0.00     18.28      69.9     0.35      1013.0     1       118         1        87        8.38     270       -3.4
   05/08/2017 06:20      42.3      41.5       93     40.1      0.00     18.28      69.8     0.35      1013.0     1       221         2       252        8.38     270       -7.6
   05/08/2017 06:10      42.0      41.4       92     39.5      0.00     18.28      69.3     0.35      1013.0     2       147         2       135        8.38     270      -12.2
   05/08/2017 06:00      42.0      41.5       92     39.7      0.00     18.28      69.7     0.35      1013.0     1       145         2       135        8.38     270      -16.5
   05/08/2017 05:50      42.2      41.7       91     39.6      0.00     18.28      70.1     0.36      1013.0     2       161         2       202        8.38     270      -18.6
   05/08/2017 05:40      42.3      41.7       90     39.4      0.00     18.28      69.6     0.35      1013.0     2       162         2       131        8.38     270      -19.6
   05/08/2017 05:30      43.0      42.5       90     39.9      0.00     18.28      70.1     0.35      1012.0     1       185         2       145        8.38     270      -19.5
   05/08/2017 05:20      43.1      42.6       89     39.8      0.00     18.28      70.3     0.35      1012.0     1       104         1       137        8.38     270      -20.8
   05/08/2017 05:10      44.2      43.1       88     40.4      0.01     18.28      70.0     0.35      1012.0     1       100         1        66        8.38     270      -20.6
   05/08/2017 05:00      44.3      43.9       89     41.2      0.00     18.27      70.1     0.35      1012.0     1       229         2       237        8.38     270      -21.1
   05/08/2017 04:50      44.4      43.4       91     41.6      0.00     18.27      70.3     0.36      1012.0     1       273         3       262        8.38     270      -22.8
   05/08/2017 04:40      43.3      42.2       92     40.6      0.00     18.27      70.7     0.36      1012.0     2       243         4       255        8.38     270      -22.8
   05/08/2017 04:30      43.1      42.2       91     40.1      0.00     18.27      70.3     0.36      1012.0     1       188         2       187        8.38     270      -23.2
   05/08/2017 04:20      43.3      43.0       91     40.7      0.00     18.27      70.6     0.36      1012.0     1       171         1       179        8.38     270      -24.5
   05/08/2017 04:10      43.2      42.9       90     40.5      0.00     18.27      70.3     0.36      1013.0     1       165         1       145        8.38     270      -26.4
   05/08/2017 04:00      43.5      42.9       90     40.4      0.00     18.27      70.5     0.36      1013.0     1       110         1       257        8.38     270      -27.5
   05/08/2017 03:50      43.6      43.0       90     40.4      0.00     18.27      70.4     0.36      1013.0     2       193         2       129        8.38     270      -27.9
   05/08/2017 03:40      44.0      43.4       89     40.8      0.00     18.27      70.7     0.36      1013.0     1       211         2       132        8.38     270      -28.2
   05/08/2017 03:30      44.1      43.6       90     41.1      0.00     18.27      70.8     0.36      1013.0     1       230         2       209        8.38     270      -29.2
   05/08/2017 03:20      44.1      43.5       88     40.6      0.00     18.27      70.6     0.36      1013.0     1        64         1        74        8.38     270      -31.5
   05/08/2017 03:10      44.6      44.0       88     40.8      0.00     18.27      70.8     0.36      1013.0     1        45         2       133        8.38     270      -33.3
   05/08/2017 03:00      44.9      44.5       86     40.8      0.00     18.27      70.3     0.36      1013.0     2       135         2       141        8.38     270      -33.8
   05/08/2017 02:50      46.6      45.1       83     41.2      0.00     18.27      70.8     0.36      1013.0     1       172         2       239        8.38     270      -34.8
   05/08/2017 02:40      46.5      44.8       86     41.6      0.00     18.27      70.7     0.36      1013.0     3       259         4       265        8.38     270      -34.4
   05/08/2017 02:30      45.8      45.1       86     41.5      0.00     18.27      70.8     0.36      1013.0     1       223         3       289        8.38     270      -35.0
   05/08/2017 02:20      45.9      45.7       87     42.0      0.00     18.27      70.8     0.36      1013.0     2       286         3       294        8.38     270      -35.7
   05/08/2017 02:10      45.8      45.2       86     41.5      0.00     18.27      71.3     0.36      1012.0     1       316         1       323        8.38     270      -37.7
   05/08/2017 02:00      46.5      45.5       84     41.3      0.00     18.27      71.1     0.36      1013.0     2        69         2        69        8.38     270      -39.3
   05/08/2017 01:50      47.3      46.6       82     41.7      0.00     18.27      70.9     0.36      1013.0     2        86         3       184        8.38     270      -40.4
   05/08/2017 01:40      47.9      47.3       81     41.8      0.00     18.27      70.7     0.36      1013.0     2       209         3       235        8.38     270      -39.1
   05/08/2017 01:30      48.7      48.1       79     42.1      0.00     18.27      71.1     0.36      1013.0     2       219         4       238        8.38     270      -39.2
   05/08/2017 01:20      48.5      48.1       80     42.3      0.00     18.27      70.8     0.36      1013.0     3       250         5       242        8.38     270      -37.2
   05/08/2017 01:10      48.5      48.3       79     42.0      0.00     18.27      71.0     0.36      1013.0     2       238         3       244        8.38     270      -36.8
   05/08/2017 01:00      48.4      48.0       79     42.2      0.00     18.27      71.2     0.36      1013.0     2       222         5       212        8.38     271      -35.6
   05/08/2017 00:50      48.3      47.6       80     42.2      0.00     18.27      71.3     0.36      1013.0     3       210         5       203        8.38     270      -33.5
   05/08/2017 00:40      47.8      47.4       82     42.5      0.00     18.27      71.1     0.36      1013.0     3       189         4       208        8.38     271      -31.9
   05/08/2017 00:30      47.9      47.4       83     42.7      0.00     18.27      71.4     0.36      1013.0     3       168         4       172        8.38     271      -31.2
   05/08/2017 00:20      47.6      47.3       84     42.7      0.00     18.27      71.2     0.36      1013.0     3       211         5       210        8.38     270      -29.6
   05/08/2017 00:10      48.0      47.7       82     42.8      0.00     18.27      71.3     0.36      1013.0     2       185         3       215        8.38     271      -30.2
   05/08/2017 00:00      48.0      47.6       83     43.0      0.00     18.27      71.4     0.36      1013.0     2       201         4       230        8.38     270      -29.9
   05/07/2017 23:50      47.6      46.6       86     43.3      0.00     18.27      71.5     0.36      1013.0     2       228         4       234        8.38     270      -28.9
   05/07/2017 23:40      47.1      46.6       87     43.2      0.00     18.27      71.4     0.36      1013.0     2       182         4       203        8.38     271      -29.4
   05/07/2017 23:30      47.4      46.8       89     44.0      0.00     18.27      71.4     0.36      1013.0     2       206         2       222        8.39     271      -29.6
   05/07/2017 23:20      46.9      46.3       89     43.5      0.00     18.27      71.5     0.36      1013.0     1       160         2       197        8.39     270      -32.6
   05/07/2017 23:10      47.0      46.8       89     43.9      0.00     18.27      71.4     0.36      1013.0     1       136         1       135        8.39     271      -34.8
   05/07/2017 23:00      47.4      47.1       88     43.9      0.00     18.27      71.6     0.36      1013.0     1       237         2       143        8.39     271      -37.5
   05/07/2017 22:50      47.9      47.4       88     44.3      0.00     18.27      71.6     0.36      1013.0     1       144         1       159        8.39     271      -40.2
   05/07/2017 22:40      47.9      47.7       87     44.2      0.00     18.27      71.8     0.36      1013.0     1       172         2       176        8.39     271      -42.0
   05/07/2017 22:30      48.8      48.3       86     44.4      0.00     18.27      71.6     0.36      1013.0     2       206         3       219        8.39     271      -43.5
   05/07/2017 22:20      49.1      48.3       85     44.3      0.00     18.27      71.9     0.36      1013.0     2       214         3       229        8.40     271      -46.6
   05/07/2017 22:10      49.4      48.4       85     44.5      0.00     18.27      71.5     0.36      1013.0     3       247         4       237        8.40     272      -47.8
   05/07/2017 22:00      48.8      48.2       85     44.2      0.00     18.27      71.6     0.36      1013.0     2       232         3       236        8.40     272      -49.1
   05/07/2017 21:50      48.8      47.9       88     44.7      0.00     18.27      71.4     0.36      1013.0     2       276         2       284        8.40     273      -49.8
   05/07/2017 21:40      47.9      47.7       88     44.4      0.00     18.27      71.5     0.36      1013.0     2       216         2       302        8.40     274      -52.5
   05/07/2017 21:30      48.5      47.8       87     44.4      0.00     18.27      71.5     0.36      1013.0     2       138         3       141        8.40     274      -57.6
   05/07/2017 21:20      48.6      48.3       86     44.3      0.00     18.27      71.5     0.36      1013.0     1       161         1       147        8.40     275      -62.4
   05/07/2017 21:10      49.4      48.8       84     44.5      0.00     18.27      72.2     0.36      1013.0     1       131         2       145        8.40     276      -66.8
   05/07/2017 21:00      49.5      48.9       85     44.8      0.00     18.27      71.8     0.36      1012.0     2       162         2       135        8.40     277      -68.5
   05/07/2017 20:50      49.8      49.2       84     44.7      0.00     18.27      72.0     0.36      1012.0     2       131         2       139        8.40     279      -71.2
   05/07/2017 20:40      49.7      49.2       83     44.5      0.00     18.27      72.2     0.36      1012.0     3       153         3       168        8.40     280      -70.9
   05/07/2017 20:30      49.8      48.7       83     44.2      0.00     18.27      71.9     0.36      1012.0     3       162         4       158        8.40     282      -71.1
   05/07/2017 20:20      50.5      50.0       81     44.5      0.00     18.27      72.3     0.36      1012.0     2       140         2       127        8.40     284      -72.4
   05/07/2017 20:10      50.7      50.4       79     44.4      0.00     18.27      72.1     0.36      1012.0     1       203         1       161        8.40     285      -72.5
   05/07/2017 20:00      51.8      50.8       77     44.1      0.00     18.27      72.2     0.36      1012.0     1       132         2       131        8.40     287      -73.1
   05/07/2017 19:50      52.7      51.7       74     44.0      0.00     18.27      72.0     0.36      1012.0     1       132         1       142        8.40     289      -73.6
   05/07/2017 19:40      54.5      53.2       68     43.6      0.00     18.27      72.3     0.36      1012.0     1       181         2       230        8.40     292      -71.0
   05/07/2017 19:30      54.8      54.5       66     43.5      0.00     18.27      72.1     0.36      1012.0     2       271         3       243        8.40     294      -68.0
   05/07/2017 19:20      55.6      54.9       65     43.7      0.00     18.27      72.0     0.36      1011.0     2       274         3       257        8.40     297      -61.0
   05/07/2017 19:10      55.7      55.2       64     43.4      0.00     18.27      71.4     0.36      1011.0     2       272         3       283        8.40     300      -38.3
   05/07/2017 19:00      55.4      54.6       65     43.5      0.00     18.27      72.4     0.36      1011.0     2       224         4       252        8.40     303      -16.5
   05/07/2017 18:50      54.7      54.4       66     43.6      0.00     18.27      72.0     0.36      1011.0     3       195         4       170        8.40     307        7.9
   05/07/2017 18:40      54.9      54.6       67     44.0      0.00     18.27      72.3     0.36      1011.0     4       151         7       129        8.40     312       38.6
   05/07/2017 18:30      54.8      54.4       68     44.4      0.00     18.27      72.2     0.36      1011.0     3       154         4       135        8.40     319       18.3
   05/07/2017 18:20      55.0      54.6       67     44.0      0.00     18.27      72.0     0.36      1011.0     4       126         7       118        8.40     323       10.6
   05/07/2017 18:10      55.0      54.5       66     43.8      0.00     18.27      72.0     0.36      1011.0     2       118         3       124        8.40     327       27.7
   05/07/2017 18:00      54.7      54.5       65     43.0      0.00     18.27      72.0     0.36      1011.0     4       137         6       152        8.40     331       39.0
   05/07/2017 17:50      55.2      54.7       63     42.5      0.00     18.27      72.4     0.36      1011.0     5       126         8       136        8.40     335       46.2
   05/07/2017 17:40      55.5      55.2       66     44.0      0.00     18.27      72.0     0.36      1010.0     7       140        13       203        8.40     341       51.4
   05/07/2017 17:30      55.6      55.3       69     45.3      0.00     18.27      71.9     0.36      1011.0     5       167         8       159        8.40     349       46.3
   05/07/2017 17:20      56.9      55.5       66     44.8      0.01     18.27      72.3     0.36      1011.0     3       187         6       183        8.40     351       14.9
   05/07/2017 17:10      57.7      56.9       60     43.4      0.00     18.26      72.1     0.36      1011.0     3       173         6       151        8.40     333       18.5
   05/07/2017 17:00      59.1      58.0       53     41.7      0.00     18.26      72.1     0.36      1010.0     3       108         5       115        8.40     334       80.4
   05/07/2017 16:50      59.3      59.0       49     40.0      0.00     18.26      71.9     0.36      1010.0     4        33         7        28        8.40     341      127.8
   05/07/2017 16:40      59.1      58.1       46     37.5      0.01     18.26      72.0     0.36      1010.0     6        19        12        30        8.40     348      101.5
   05/07/2017 16:30      58.4      57.6       50     39.2      0.00     18.25      72.2     0.36      1010.0     4        24         7       317        8.40     336       42.0
   05/07/2017 16:20      61.7      58.8       47     40.5      0.00     18.25      72.2     0.36      1010.0     6        49         9        50        8.40     293       77.7
   05/07/2017 16:10      61.9      61.1       49     42.0      0.00     18.25      72.1     0.36      1010.0     5        33         9        78        8.40     287      405.2
   05/07/2017 16:00      62.1      61.3       49     42.5      0.00     18.25      71.7     0.36      1010.0     4        48         5        32        8.40     296      265.4
   05/07/2017 15:50      62.8      61.8       49     42.8      0.00     18.25      71.8     0.36      1010.0     4        55         7        21        8.40     304      275.5
   05/07/2017 15:40      62.0      60.4       53     43.7      0.00     18.25      72.1     0.36      1010.0     3        29         8       347        8.40     311      504.7
   05/07/2017 15:30      61.1      59.9       54     44.0      0.00     18.25      71.7     0.36      1010.0     4        99         7        82        8.40     316      535.5
   05/07/2017 15:20      61.4      59.3       57     45.4      0.00     18.25      71.7     0.36      1010.0     3       196         5        71        8.40     320      560.5
   05/07/2017 15:10      59.2      57.8       60     44.5      0.00     18.25      72.1     0.36      1010.0     2       178         5       122        8.40     326      566.4
   05/07/2017 15:00      58.7      57.4       65     46.2      0.00     18.25      71.8     0.36      1010.0     2       101         5       124        8.40     337      584.2
   05/07/2017 14:50      56.9      56.3       65     45.0      0.00     18.25      71.8     0.36      1010.0     2        89         5       109        8.40     347      446.9
   05/07/2017 14:40      56.2      55.5       66     44.5      0.00     18.25      71.8     0.36      1010.0     2        67         3        84        8.40     338      176.3
   05/07/2017 14:30      55.5      55.0       66     43.8      0.01     18.25      71.7     0.36      1010.0     2       154         3       147        8.40     345      138.3
   05/07/2017 14:20      55.0      53.8       64     42.7      0.00     18.24      71.9     0.36      1011.0     2         4         4       336        8.40     345      117.8
   05/07/2017 14:10      53.7      53.2       70     44.0      0.00     18.24      71.7     0.36      1011.0     5       300        10       296        8.40     340      124.4
   05/07/2017 14:00      55.3      53.4       71     45.0      0.00     18.24      71.6     0.36      1011.0     7       331        12       317        8.40     350       61.0
   05/07/2017 13:50      58.1      56.0       59     43.0      0.00     18.24      71.8     0.35      1011.0     7        17        12        12        8.40     357       -3.9
   05/07/2017 13:40      62.2      58.8       44     39.0      0.00     18.24      71.6     0.36      1010.0     6        42        15       350        8.40     269       40.9
   05/07/2017 13:30      63.4      62.4       40     38.3      0.00     18.24      71.5     0.36      1010.0     4       100         9       152        8.40     265      380.1
   05/07/2017 13:20      62.4      60.6       41     37.8      0.00     18.24      71.7     0.36      1010.0     4       105         8        87        8.41     265      631.0
   05/07/2017 13:10      61.8      60.6       41     37.3      0.00     18.24      71.6     0.36      1010.0     4        95         7       125        8.41     265      262.6
   05/07/2017 13:00      62.3      60.8       40     37.0      0.00     18.24      71.7     0.36      1010.0     4       119         8       120        8.41     265      414.9
   05/07/2017 12:50      61.4      59.6       44     38.5      0.00     18.24      71.7     0.36      1010.0     4       165         7       125        8.41     265      710.1
   05/07/2017 12:40      59.6      57.9       47     38.4      0.00     18.24      71.9     0.36      1010.0     3       162         5       111        8.41     266      373.2
   05/07/2017 12:30      60.1      58.0       47     38.6      0.00     18.24      71.7     0.36      1010.0     4       165        10       151        8.41     265      164.1
   05/07/2017 12:20      60.2      58.4       46     38.2      0.00     18.24      71.9     0.36      1011.0     4       147         6       139        8.41     265      311.3
   05/07/2017 12:10      61.0      59.4       44     38.5      0.00     18.24      71.7     0.36      1011.0     5       148         7       161        8.41     265      662.2
   05/07/2017 12:00      59.5      57.6       48     39.2      0.00     18.24      71.7     0.36      1011.0     4       162         7       197        8.41     266      624.2
   05/07/2017 11:50      58.1      57.5       50     39.0      0.00     18.24      72.0     0.36      1011.0     4       117         7       127        8.41     266      307.8
   05/07/2017 11:40      57.5      56.0       52     39.0      0.00     18.24      71.7     0.36      1011.0     3        90         5       103        8.41     266      145.7
   05/07/2017 11:30      56.5      56.2       51     38.5      0.00     18.24      71.8     0.36      1011.0     4       106         6       134        8.42     266      147.6
   05/07/2017 11:20      56.4      55.9       52     38.6      0.00     18.24      71.8     0.36      1011.0     4        91         6        90        8.41     266      172.2
   05/07/2017 11:10      55.9      55.4       53     38.9      0.00     18.24      71.7     0.36      1011.0     5       117        10       132        8.41     266      140.3
   05/07/2017 11:00      55.9      55.2       54     39.4      0.00     18.24      71.8     0.36      1011.0     4        98         6       128        8.41     266      180.7
   05/07/2017 10:50      56.5      55.7       54     39.6      0.00     18.24      72.0     0.36      1011.0     5       101         7       132        8.41     266      225.7
   05/07/2017 10:40      56.4      56.0       54     40.0      0.00     18.24      71.8     0.36      1011.0     4        94         8        88        8.41     266      229.8
   05/07/2017 10:30      56.5      54.5       55     39.9      0.00     18.24      72.1     0.36      1011.0     4        76         8        73        8.41     267      372.5
   05/07/2017 10:20      55.6      54.7       56     39.7      0.00     18.24      71.9     0.36      1011.0     5       105         8        86        8.41     266      199.2
   05/07/2017 10:10      55.4      54.6       56     39.8      0.00     18.24      72.0     0.36      1011.0     4        83         8       119        8.41     266      210.3
   05/07/2017 10:00      54.8      54.1       58     40.1      0.00     18.24      71.9     0.36      1011.0     5       106         9       132        8.42     267      163.3
   05/07/2017 09:50      54.5      53.9       59     40.2      0.00     18.24      71.9     0.36      1011.0     5       114         8       147        8.42     267      263.7
   05/07/2017 09:40      54.8      54.2       59     40.3      0.00     18.24      72.0     0.36      1011.0     5        68         7        78        8.42     267      170.9
   05/07/2017 09:30      55.4      54.5       57     40.2      0.00     18.24      72.1     0.36      1011.0     5        61         8       117        8.42     267      222.1
   05/07/2017 09:20      55.7      53.6       57     40.0      0.00     18.24      72.2     0.36      1011.0     6        90         9       143        8.42     267      461.2
   05/07/2017 09:10      54.1      53.4       58     39.3      0.00     18.24      72.4     0.36      1011.0     6       101        10        94        8.42     267      324.1
   05/07/2017 09:00      53.4      52.1       59     39.2      0.00     18.24      72.0     0.36      1011.0     4        60         8        66        8.42     267      213.0
   05/07/2017 08:50      52.3      51.5       61     39.0      0.00     18.24      72.3     0.36      1011.0     6        82         9        66        8.42     267      150.5
   05/07/2017 08:40      51.8      51.4       63     39.3      0.00     18.24      72.4     0.36      1011.0     6        87         8        91        8.42     267       96.3
   05/07/2017 08:30      52.7      51.8       62     39.9      0.00     18.24      72.3     0.36      1011.0     5        78         9        79        8.42     267       86.6
   05/07/2017 08:20      52.9      51.7       64     40.3      0.00     18.24      72.5     0.36      1011.0     4        78         6        80        8.42     267      123.5
   05/07/2017 08:10      51.8      51.2       65     40.2      0.00     18.24      72.3     0.36      1011.0     6        87        10        82        8.42     267      105.1
   05/07/2017 08:00      51.9      50.6       67     40.5      0.00     18.24      72.5     0.36      1011.0     5        69         8        78        8.42     267       79.3
   05/07/2017 07:50      50.9      50.2       69     40.8      0.00     18.24      72.3     0.36      1011.0     5        74         9        97        8.42     267      140.1
   05/07/2017 07:40      50.3      49.1       73     41.4      0.00     18.24      72.4     0.36      1011.0     5        83         8        83        8.42     267      107.9
   05/07/2017 07:30      49.2      48.6       76     41.7      0.00     18.24      72.4     0.36      1010.0     5        85         9        85        8.42     267       71.5
   05/07/2017 07:20      48.8      48.3       78     41.7      0.00     18.24      72.7     0.36      1010.0     3        78         6        74        8.42     268       32.1
   05/07/2017 07:10      48.3      47.8       78     41.4      0.00     18.24      72.5     0.36      1010.0     4        77         6        71        8.42     267       11.9
   05/07/2017 07:00      48.0      47.8       79     41.8      0.00     18.24      72.9     0.36      1010.0     4        77         7        88        8.42     267        3.6
   05/07/2017 06:50      48.0      47.8       81     42.3      0.00     18.24      72.7     0.36      1010.0     4        88         7       109        8.42     268        3.0
   05/07/2017 06:40      48.0      47.7       82     42.6      0.00     18.24      72.9     0.36      1010.0     5        86         9        78        8.42     267        4.5
   05/07/2017 06:30      47.9      47.8       83     42.8      0.00     18.24      72.9     0.36      1010.0     3        70         6        73        8.42     267        0.1
   05/07/2017 06:20      47.8      47.5       84     43.0      0.00     18.24      73.1     0.36      1010.0     4        71         6        64        8.42     267       -5.4
   05/07/2017 06:10      47.6      47.3       84     42.8      0.00     18.24      72.8     0.36      1009.0     4        80         6        68        8.42     268      -13.7
   05/07/2017 06:00      47.6      47.4       84     42.8      0.00     18.24      73.0     0.36      1009.0     4        65         6        73        8.42     268      -21.3
   05/07/2017 05:50      47.9      47.5       83     43.0      0.00     18.24      72.6     0.36      1009.0     4        92         7       109        8.42     268      -23.4
   05/07/2017 05:40      48.1      47.9       83     43.0      0.00     18.24      73.0     0.36      1009.0     3        84         4       101        8.42     268      -23.7
   05/07/2017 05:30      48.2      47.9       82     42.9      0.00     18.24      73.0     0.36      1009.0     3        78         4        76        8.42     267      -21.8
   05/07/2017 05:20      48.3      47.9       82     43.0      0.00     18.24      73.3     0.36      1009.0     3        74         4        59        8.42     267      -21.3
   05/07/2017 05:10      48.4      47.9       83     43.2      0.00     18.24      73.3     0.36      1009.0     2        63         3        86        8.42     267      -19.6
   05/07/2017 05:00      48.2      47.9       83     43.0      0.00     18.24      73.2     0.36      1009.0     3        51         4        78        8.42     267      -18.8
   05/07/2017 04:50      48.0      47.7       83     42.8      0.00     18.24      72.9     0.36      1009.0     2        36         4        34        8.42     267      -20.5
   05/07/2017 04:40      47.9      47.3       83     42.5      0.00     18.24      73.3     0.36      1009.0     2        41         4        80        8.42     267      -23.7
   05/07/2017 04:30      47.4      46.8       83     42.5      0.00     18.24      73.3     0.36      1009.0     2        48         4        67        8.42     267      -35.4
   05/07/2017 04:20      47.0      46.3       85     42.3      0.00     18.24      73.5     0.36      1009.0     2        69         4        66        8.42     267      -38.3
   05/07/2017 04:10      46.5      46.3       84     41.8      0.00     18.24      73.4     0.36      1009.0     1        82         1        89        8.42     267      -27.1
   05/07/2017 04:00      46.6      46.3       84     41.8      0.00     18.24      73.6     0.36      1009.0     1        61         2       104        8.42     266      -35.3
   05/07/2017 03:50      46.6      46.5       84     42.0      0.00     18.24      73.8     0.36      1009.0     1       105         2        91        8.42     266      -50.8
   05/07/2017 03:40      46.6      46.1       85     42.0      0.00     18.24      73.7     0.36      1009.0     2        99         3       107        8.42     266      -50.2
   05/07/2017 03:30      46.1      45.4       86     41.7      0.00     18.24      73.8     0.36      1009.0     3        88         5        73        8.42     266      -31.0
   05/07/2017 03:20      45.5      44.8       86     41.0      0.00     18.24      73.8     0.37      1009.0     2       108         2        93        8.42     266      -46.3
   05/07/2017 03:10      45.4      44.9       84     40.4      0.00     18.24      73.8     0.37      1009.0     2        99         2       114        8.42     266      -56.5
   05/07/2017 03:00      45.5      45.3       82     40.1      0.00     18.24      73.7     0.37      1008.0     1        87         2        92        8.42     266      -62.0
   05/07/2017 02:50      45.5      44.9       81     39.7      0.00     18.24      73.7     0.37      1009.0     1        30         2        63        8.43     266      -60.5
   05/07/2017 02:40      45.1      44.7       81     39.4      0.00     18.24      73.8     0.37      1008.0     2       108         2       120        8.43     266      -66.7
   05/07/2017 02:30      46.0      45.0       78     39.1      0.00     18.24      73.7     0.37      1009.0     1        96         2        76        8.43     266      -64.8
   05/07/2017 02:20      46.1      45.9       78     39.3      0.00     18.24      74.1     0.37      1009.0     1       171         1       204        8.43     266      -63.1
   05/07/2017 02:10      46.1      45.9       78     39.4      0.00     18.24      74.2     0.37      1009.0     2       127         3       153        8.43     266      -68.8
   05/07/2017 02:00      46.5      46.0       77     39.4      0.00     18.24      74.0     0.37      1009.0     2       150         4       140        8.43     266      -68.4
   05/07/2017 01:50      46.9      46.4       75     39.4      0.00     18.24      74.1     0.37      1009.0     1        99         2       109        8.43     266      -64.3
   05/07/2017 01:40      47.1      46.7       75     39.5      0.00     18.24      74.1     0.37      1009.0     2        96         2       116        8.43     266      -65.5
   05/07/2017 01:30      47.3      46.9       75     39.5      0.00     18.24      74.3     0.37      1009.0     3       133         4       134        8.43     266      -70.0
   05/07/2017 01:20      47.3      47.1       75     39.5      0.00     18.24      74.6     0.37      1009.0     2       142         3       125        8.43     266      -59.2
   05/07/2017 01:10      47.8      47.4       73     39.5      0.00     18.24      74.0     0.37      1009.0     2       112         2       122        8.43     266      -48.5
   05/07/2017 01:00      47.9      47.5       73     39.5      0.00     18.24      74.5     0.37      1009.0     1        91         2        85        8.43     266      -54.1
   05/07/2017 00:50      47.8      47.7       73     39.4      0.00     18.24      74.2     0.37      1009.0     2       105         3       130        8.43     266      -42.6
   05/07/2017 00:40      47.9      47.7       72     39.3      0.00     18.24      74.2     0.37      1009.0     3       133         4       127        8.43     266      -58.5
   05/07/2017 00:30      47.9      47.7       73     39.5      0.00     18.24      74.3     0.37      1009.0     2       103         3       105        8.43     266      -66.7
   05/07/2017 00:20      47.8      47.5       73     39.5      0.00     18.24      74.6     0.37      1009.0     2        94         4       126        8.43     266      -74.0
   05/07/2017 00:10      48.4      48.0       72     39.7      0.00     18.24      74.3     0.37      1009.0     1       127         3       126        8.43     266      -74.6
   05/07/2017 00:00      48.5      48.2       72     39.8      0.00     18.24      74.3     0.37      1009.0     1       124         2       186        8.43     266      -61.5
   05/06/2017 23:50      48.5      48.1       72     39.6      0.00     18.24      74.5     0.37      1009.0     1       193         3       160        8.43     266      -63.8
   05/06/2017 23:40      48.9      48.5       70     39.5      0.00     18.24      74.8     0.37      1009.0     2       169         3       132        8.43     265      -69.5
   05/06/2017 23:30      49.4      48.8       68     38.8      0.00     18.24      74.8     0.37      1009.0     2       160         3       168        8.43     266      -65.9
   05/06/2017 23:20      49.4      49.2       65     38.2      0.00     18.24      74.6     0.37      1009.0     2       123         4       141        8.43     266      -63.0
   05/06/2017 23:10      49.9      49.4       63     37.7      0.00     18.24      74.7     0.37      1009.0     3       158         4       162        8.43     265      -63.5
   05/06/2017 23:00      50.0      49.8       62     37.5      0.00     18.24      74.6     0.37      1009.0     2       130         4       111        8.43     265      -55.5
   05/06/2017 22:50      50.1      49.7       62     37.5      0.00     18.24      74.9     0.37      1009.0     3       144         4       160        8.44     265      -54.4
   05/06/2017 22:40      50.3      49.9       63     37.8      0.00     18.24      74.4     0.37      1009.0     3       175         5       134        8.44     265      -62.5
   05/06/2017 22:30      50.3      50.0       63     38.0      0.00     18.24      74.5     0.37      1009.0     4       202         6       201        8.44     265      -56.2
   05/06/2017 22:20      50.2      50.1       63     38.0      0.00     18.24      74.9     0.37      1009.0     3       180         4       191        8.45     265      -53.1
   05/06/2017 22:10      50.3      50.1       63     38.3      0.00     18.24      74.8     0.37      1009.0     3       180         5       225        8.46     265      -53.3
   05/06/2017 22:00      50.4      50.2       63     38.1      0.00     18.24      74.8     0.37      1008.0     3       199         5       208        8.46     265      -54.9
   05/06/2017 21:50      50.4      50.1       61     37.5      0.00     18.24      75.0     0.37      1008.0     4       196         5       188        8.46     265      -62.5
   05/06/2017 21:40      50.8      50.6       60     37.2      0.00     18.24      75.0     0.37      1008.0     3       197         5       192        8.46     265      -71.0
   05/06/2017 21:30      51.0      50.7       59     37.1      0.00     18.24      74.8     0.37      1008.0     4       181         7       208        8.46     265      -74.5
   05/06/2017 21:20      51.4      51.0       59     37.2      0.00     18.24      74.8     0.37      1008.0     3       183         4       140        8.47     265      -70.3
   05/06/2017 21:10      51.8      51.5       58     37.2      0.00     18.24      74.8     0.37      1008.0     4       204         6       197        8.47     265      -57.0
   05/06/2017 21:00      52.0      51.6       57     37.1      0.00     18.24      74.8     0.37      1007.0     4       242         6       262        8.47     265      -47.8
   05/06/2017 20:50      52.1      51.8       57     37.3      0.00     18.24      75.0     0.37      1007.0     7       228        11       247        8.47     265      -44.6
   05/06/2017 20:40      52.3      52.1       57     37.5      0.00     18.24      75.0     0.37      1007.0     5       240         9       228        8.47     265      -47.1
   05/06/2017 20:30      52.3      52.1       57     37.3      0.00     18.24      75.0     0.37      1007.0     6       250         9       260        8.47     265      -53.2
   05/06/2017 20:20      52.4      52.1       56     36.8      0.00     18.24      75.0     0.37      1006.0     5       222         9       235        8.48     264      -65.7
   05/06/2017 20:10      52.6      52.4       56     37.1      0.00     18.24      75.0     0.37      1006.0     8       236        14       239        8.48     264      -66.1
   05/06/2017 20:00      52.8      52.6       56     37.4      0.00     18.24      74.8     0.37      1006.0     6       239         8       247        8.48     264      -73.5
   05/06/2017 19:50      53.1      52.7       56     37.6      0.00     18.24      75.1     0.37      1006.0     6       233        11       252        8.48     264      -77.4
   05/06/2017 19:40      53.9      53.1       55     37.6      0.00     18.24      75.0     0.37      1006.0     7       235        10       225        8.49     264      -76.8
   05/06/2017 19:30      54.4      54.0       52     37.0      0.00     18.24      75.0     0.37      1006.0     7       239        11       235        8.49     264      -72.8
   05/06/2017 19:20      54.8      54.4       51     36.9      0.00     18.24      75.0     0.37      1006.0     7       237        11       247        8.50     264      -60.0
   05/06/2017 19:10      55.6      54.8       51     37.2      0.00     18.24      75.0     0.37      1006.0     8       223        12       233        8.50     264      -34.5
   05/06/2017 19:00      56.4      55.6       49     37.0      0.00     18.24      75.2     0.37      1005.0     7       226        15       250        8.50     264      -28.4
   05/06/2017 18:50      57.4      56.5       49     37.9      0.00     18.24      74.9     0.37      1005.0     7       223        12       224        8.51     264      -36.8
   05/06/2017 18:40      58.4      57.7       48     38.2      0.00     18.24      75.0     0.37      1005.0     6       234        13       220        8.51     264        6.8
   05/06/2017 18:30      58.9      58.3       48     38.8      0.00     18.24      74.8     0.37      1005.0     6       233         9       230        8.51     264       55.3
   05/06/2017 18:20      59.4      58.5       47     39.1      0.00     18.24      75.1     0.37      1005.0     6       220        11       189        8.51     264       82.5
   05/06/2017 18:10      59.5      59.1       49     40.1      0.00     18.24      74.9     0.37      1005.0     5       217         7       225        8.52     264      106.1
   05/06/2017 18:00      59.7      59.2       49     40.2      0.00     18.24      75.0     0.37      1005.0     6       224         9       193        8.52     264      125.3
   05/06/2017 17:50      60.6      59.3       48     40.0      0.00     18.24      74.9     0.37      1006.0     6       208         9       210        8.52     264      148.3
   05/06/2017 17:40      60.6      59.9       47     39.8      0.00     18.24      74.9     0.37      1005.0     6       175         7       162        8.53     265      157.6
   05/06/2017 17:30      59.9      58.9       47     39.2      0.00     18.24      74.9     0.37      1006.0     8       160        12       145        8.53     265      190.5
   05/06/2017 17:20      60.8      59.0       46     39.2      0.00     18.24      75.0     0.37      1006.0     9       167        13       177        8.53     264      144.0
   05/06/2017 17:10      62.4      61.1       39     36.5      0.00     18.24      74.9     0.37      1006.0     8       156        16       173        8.54     264      207.1
   05/06/2017 17:00      63.1      61.7       39     37.5      0.00     18.24      75.0     0.37      1006.0     6       159         8       156        8.54     265      288.5
   05/06/2017 16:50      62.3      61.4       42     38.4      0.00     18.24      74.9     0.36      1006.0     9       121        15       132        8.54     265      336.1
   05/06/2017 16:40      62.8      61.3       47     41.3      0.00     18.24      74.8     0.36      1006.0     5       196        12       162        8.54     265      348.2
   05/06/2017 16:30      62.3      60.0       50     42.2      0.00     18.24      75.0     0.36      1006.0     8       177        13       156        8.54     265      440.9
   05/06/2017 16:20      60.6      60.4       52     42.9      0.00     18.24      74.8     0.36      1006.0     7       186        11       184        8.55     265       86.2
   05/06/2017 16:10      61.5      60.6       53     43.6      0.00     18.24      74.7     0.36      1006.0     8       155        12       155        8.55     265      101.6
   05/06/2017 16:00      63.3      61.5       52     44.8      0.00     18.24      74.7     0.36      1006.0     8       174        12       170        8.55     265      267.9
   05/06/2017 15:50      63.5      62.1       53     45.3      0.00     18.24      74.6     0.36      1006.0     7       150        11       145        8.55     265      477.8
   05/06/2017 15:40      62.2      61.5       55     45.5      0.00     18.24      74.6     0.36      1007.0     8       151        11       131        8.55     265      279.6
   05/06/2017 15:30      63.3      62.0       55     46.4      0.00     18.24      74.6     0.36      1007.0     8       159        12       155        8.56     265      161.9
   05/06/2017 15:20      64.2      63.1       54     46.9      0.00     18.24      74.7     0.36      1007.0     8       180        12       188        8.56     265      312.3
   05/06/2017 15:10      64.9      63.8       54     47.3      0.00     18.24      74.8     0.36      1007.0     8       167        13       192        8.56     265      458.1
   05/06/2017 15:00      65.5      64.4       54     47.8      0.00     18.24      74.6     0.36      1007.0     9       153        12       167        8.57     265      541.0
   05/06/2017 14:50      66.1      64.5       54     48.2      0.00     18.24      75.0     0.36      1007.0     9       142        13       136        8.57     265      586.7
   05/06/2017 14:40      66.0      64.9       54     48.6      0.00     18.24      74.5     0.36      1007.0     8       160        13       159        8.57     266      563.0
   05/06/2017 14:30      65.4      64.9       54     48.0      0.00     18.24      74.5     0.36      1007.0     9       150        12       143        8.57     265      508.9
   05/06/2017 14:20      65.2      64.1       55     48.4      0.00     18.24      74.7     0.36      1007.0     9       159        14       163        8.57     265      477.9
   05/06/2017 14:10      66.0      64.9       55     48.6      0.00     18.24      74.6     0.36      1007.0     8       168        11       199        8.57     266      647.4
   05/06/2017 14:00      66.4      65.4       55     49.1      0.00     18.24      74.6     0.36      1007.0     8       177        12       181        8.57     266      723.1
   05/06/2017 13:50      65.6      64.6       57     49.7      0.00     18.24      74.7     0.36      1008.0     8       147        13       133        8.57     267      780.5
   05/06/2017 13:40      64.8      63.2       60     50.0      0.00     18.24      74.7     0.36      1008.0     7       161        11       132        8.57     267      644.2
   05/06/2017 13:30      63.7      62.7       63     50.3      0.00     18.24      74.8     0.36      1008.0     6       152         9       139        8.57     267      491.8
   05/06/2017 13:20      63.3      61.4       66     50.6      0.00     18.24      74.7     0.36      1008.0     6       158        10       140        8.57     267      469.1
   05/06/2017 13:10      63.7      61.6       65     50.7      0.00     18.24      74.8     0.36      1008.0     8       160        11       174        8.57     267      397.3
   05/06/2017 13:00      62.2      60.2       70     51.0      0.00     18.24      74.6     0.36      1008.0     7       154        11       162        8.57     268      543.1
   05/06/2017 12:50      62.1      61.0       68     50.9      0.00     18.24      74.5     0.36      1008.0     8       156        12       167        8.57     267      268.7
   05/06/2017 12:40      61.8      59.7       70     50.9      0.00     18.24      74.8     0.36      1008.0     7       144        11       176        8.57     267      538.3
   05/06/2017 12:30      59.5      59.0       73     50.7      0.00     18.24      74.9     0.37      1009.0     8       144        11       145        8.57     267      328.5
   05/06/2017 12:20      59.4      58.9       73     50.6      0.00     18.24      74.8     0.37      1009.0     5       153         9       139        8.57     267       97.3
   05/06/2017 12:10      59.5      59.1       73     50.6      0.00     18.24      74.4     0.37      1009.0     5       164         8       168        8.57     267       95.6
   05/06/2017 12:00      60.3      59.2       71     50.3      0.00     18.24      74.6     0.37      1009.0     8       152        11       131        8.57     267      106.9
   05/06/2017 11:50      60.7      60.3       68     50.1      0.00     18.24      74.7     0.36      1009.0     5       163        10       166        8.57     267      122.2
   05/06/2017 11:40      61.4      60.6       67     50.0      0.00     18.24      74.9     0.36      1009.0     7       153        11       138        8.57     267      144.3
   05/06/2017 11:30      62.8      61.7       65     50.1      0.00     18.24      74.6     0.36      1009.0     8       164        14       155        8.58     267      229.5
   05/06/2017 11:20      64.2      63.3       62     50.5      0.00     18.24      74.9     0.36      1009.0     7       149        13       136        8.57     267      413.5
   05/06/2017 11:10      63.4      62.3       64     50.2      0.00     18.24      74.7     0.36      1009.0     7       158        11       159        8.58     267      492.4
   05/06/2017 11:00      62.5      61.6       64     50.0      0.00     18.24      75.0     0.36      1009.0     7       145        11       131        8.58     267      413.7
   05/06/2017 10:50      62.1      61.3       66     50.2      0.00     18.24      75.0     0.36      1009.0     6       147        11       161        8.58     267      417.1
   05/06/2017 10:40      61.6      60.7       68     50.5      0.00     18.24      74.8     0.37      1009.0     7       134        10       138        8.58     267      396.2
   05/06/2017 10:30      61.6      61.0       67     50.4      0.00     18.24      74.5     0.37      1010.0     6       158        11       193        8.64     267      278.8
   05/06/2017 10:20      61.0      59.3       70     50.3      0.00     18.24      74.8     0.37      1010.0     5       147         9       136        8.64     268      240.3
   05/06/2017 10:10      59.6      59.3       71     50.1      0.00     18.24      74.8     0.37      1010.0     7       130         9       168        8.64     267      158.9
   05/06/2017 10:00      59.5      59.3       72     50.3      0.00     18.24      74.9     0.37      1010.0     5       117         9       145        8.64     267      130.9
   05/06/2017 09:50      59.4      59.0       72     50.2      0.00     18.24      75.1     0.37      1010.0     4       117         9        98        8.64     268       74.0
   05/06/2017 09:40      59.4      59.1       72     50.1      0.00     18.24      74.7     0.37      1010.0     5       117         9       169        8.64     267       88.4
   05/06/2017 09:30      59.3      58.8       73     50.2      0.00     18.24      75.0     0.37      1009.0     4       117         7       111        8.64     267       94.0
   05/06/2017 09:20      59.2      58.7       73     50.2      0.00     18.24      75.0     0.37      1010.0     6       142         9       143        8.64     268      107.2
   05/06/2017 09:10      58.9      58.6       73     50.1      0.00     18.24      75.1     0.37      1010.0     5       143         8       143        8.64     268       92.6
   05/06/2017 09:00      58.7      58.4       73     49.9      0.00     18.24      75.2     0.37      1010.0     5       154         8       157        8.64     267       71.2
   05/06/2017 08:50      59.0      58.4       73     49.8      0.00     18.24      75.4     0.37      1010.0     4       152         7       164        8.64     268       67.8
   05/06/2017 08:40      58.6      58.2       72     49.5      0.00     18.24      75.0     0.37      1010.0     3       154         5       164        8.65     268       44.7
   05/06/2017 08:30      58.5      58.1       72     49.4      0.00     18.24      75.3     0.37      1010.0     4       150         7       119        8.65     268       28.6
   05/06/2017 08:20      58.5      58.0       73     49.7      0.00     18.24      75.3     0.37      1010.0     2       165         5       162        8.65     268       34.0
   05/06/2017 08:10      58.2      58.0       73     49.5      0.00     18.24      75.4     0.37      1010.0     1       180         3       195        8.65     268       25.9
   05/06/2017 08:00      58.1      58.0       73     49.6      0.00     18.24      75.2     0.37      1010.0     2       199         4       218        8.65     268       37.4
   05/06/2017 07:50      58.2      58.0       72     49.3      0.00     18.24      75.2     0.37      1010.0     2       132         2       149        8.65     268       43.6
   05/06/2017 07:40      58.1      57.5       73     49.0      0.00     18.24      75.5     0.37      1010.0     2       137         3       148        8.65     268       37.2
   05/06/2017 07:30      58.1      57.6       72     48.8      0.00     18.24      75.1     0.37      1010.0     2       152         3       141        8.65     268       25.6
   05/06/2017 07:20      58.1      57.5       72     49.0      0.00     18.24      75.5     0.37      1010.0     2        80         3        75        8.65     268       34.5
   05/06/2017 07:10      57.6      57.4       73     48.9      0.00     18.24      75.5     0.37      1010.0     2        87         2        88        8.65     268       17.9
   05/06/2017 07:00      57.6      57.0       74     49.0      0.00     18.24      75.3     0.37      1010.0     2        89         3        89        8.65     268        3.4
   05/06/2017 06:50      57.1      56.9       74     48.9      0.00     18.24      75.5     0.37      1010.0     3       108         4       101        8.65     268       -4.9
   05/06/2017 06:40      57.1      57.0       74     48.9      0.00     18.24      75.6     0.37      1009.0     3       131         4       117        8.65     268      -10.1
   05/06/2017 06:30      57.2      56.9       74     48.8      0.00     18.24      75.8     0.37      1009.0     3       118         4       148        8.65     267      -13.2
   05/06/2017 06:20      57.2      57.0       74     48.7      0.00     18.24      75.7     0.37      1009.0     2       122         3       139        8.66     268      -15.3
   05/06/2017 06:10      57.0      56.9       74     48.7      0.00     18.24      75.6     0.37      1009.0     2       104         4        62        8.66     268      -17.1
   05/06/2017 06:00      57.3      57.0       74     48.7      0.00     18.24      75.8     0.37      1009.0     3        87         4        91        8.66     267      -19.0
   05/06/2017 05:50      57.3      57.0       74     48.8      0.00     18.24      75.7     0.37      1009.0     3        86         5        81        8.66     268      -21.5
   05/06/2017 05:40      57.2      57.0       73     48.8      0.00     18.24      75.7     0.37      1009.0     3        71         5        82        8.66     268      -19.4
   05/06/2017 05:30      57.2      57.1       74     48.9      0.00     18.24      75.7     0.37      1009.0     2        68         5        78        8.66     268      -18.4
   05/06/2017 05:20      57.4      57.1       73     48.7      0.00     18.24      75.6     0.37      1009.0     2        84         4        77        8.66     268      -18.4
   05/06/2017 05:10      57.2      57.0       73     48.7      0.00     18.24      76.0     0.37      1009.0     3        75         4        69        8.66     267      -18.8
   05/06/2017 05:00      57.2      57.0       74     48.8      0.00     18.24      76.0     0.37      1009.0     3       119         6       137        8.66     267      -18.6
   05/06/2017 04:50      57.2      57.0       74     48.9      0.00     18.24      75.8     0.37      1009.0     3       139         6       111        8.66     267      -18.0
   05/06/2017 04:40      57.2      57.0       75     49.2      0.00     18.24      76.0     0.37      1009.0     4       116         6       141        8.66     267      -17.7
   05/06/2017 04:30      57.5      57.2       75     49.6      0.00     18.24      75.6     0.37      1009.0     2       175         6       140        8.66     267      -17.8
   05/06/2017 04:20      57.5      57.2       76     49.7      0.00     18.24      75.9     0.37      1009.0     2       134         6       142        8.66     267      -17.4
   05/06/2017 04:10      57.6      57.4       75     49.8      0.00     18.24      76.0     0.37      1009.0     2       160         3       138        8.66     267      -17.1
   05/06/2017 04:00      57.5      57.4       76     49.8      0.00     18.24      76.0     0.37      1009.0     4       130         7       148        8.66     267      -16.7
   05/06/2017 03:50      57.5      57.3       76     50.1      0.00     18.24      76.3     0.37      1009.0     5       121         8       131        8.66     267      -16.8
   05/06/2017 03:40      57.6      57.4       76     50.2      0.00     18.24      76.2     0.37      1009.0     5       100         8       118        8.66     267      -16.2
   05/06/2017 03:30      57.7      57.5       76     50.2      0.00     18.24      76.0     0.37      1009.0     4       100         6        95        8.66     268      -16.2
   05/06/2017 03:20      57.7      57.5       76     50.3      0.00     18.24      76.5     0.37      1009.0     5       109         8        91        8.66     267      -16.2
   05/06/2017 03:10      57.8      57.7       77     50.5      0.00     18.24      76.4     0.37      1009.0     3        95         6       112        8.66     267      -16.5
   05/06/2017 03:00      57.8      57.5       77     50.6      0.00     18.24      76.3     0.37      1009.0     3       143         5       161        8.66     267      -16.3
   05/06/2017 02:50      58.0      57.6       77     50.6      0.00     18.24      76.2     0.37      1009.0     4       133         6       148        8.66     268      -16.6
   05/06/2017 02:40      58.1      57.8       77     50.6      0.00     18.24      76.2     0.37      1009.0     3       100         5       119        8.66     267      -16.4
   05/06/2017 02:30      58.0      57.7       77     50.6      0.00     18.24      76.5     0.37      1009.0     3       100         7        62        8.67     268      -16.3
   05/06/2017 02:20      58.0      57.7       77     50.7      0.00     18.24      76.4     0.37      1010.0     4        96         8        92        8.67     267      -16.1
   05/06/2017 02:10      58.0      57.7       77     50.8      0.00     18.24      76.2     0.37      1010.0     5       124         8       125        8.67     267      -15.9
   05/06/2017 02:00      58.1      57.8       77     50.9      0.00     18.24      76.5     0.37      1009.0     3       107         6       113        8.67     267      -16.3
   05/06/2017 01:50      57.8      57.6       78     50.8      0.00     18.24      76.3     0.37      1010.0     3        97         5        89        8.67     267      -16.3
   05/06/2017 01:40      57.8      57.5       78     50.9      0.00     18.24      76.3     0.37      1010.0     3        80         4        60        8.67     267      -16.7
   05/06/2017 01:30      57.7      57.3       79     51.1      0.00     18.24      76.4     0.37      1010.0     2        71         4        73        8.67     267      -16.9
   05/06/2017 01:20      57.5      57.2       80     51.1      0.00     18.24      76.7     0.37      1010.0     2        94         4        83        8.67     267      -16.5
   05/06/2017 01:10      57.2      57.0       80     51.0      0.00     18.24      76.5     0.37      1010.0     3        74         4        84        8.67     267      -16.6
   05/06/2017 01:00      57.2      56.9       80     51.0      0.00     18.24      76.6     0.37      1010.0     4       122         6       126        8.67     267      -16.4
   05/06/2017 00:50      57.4      57.0       80     51.0      0.00     18.24      76.6     0.37      1010.0     4       117         6       134        8.67     267      -16.7
   05/06/2017 00:40      57.2      57.0       81     51.1      0.00     18.24      76.7     0.37      1010.0     3       116         5       110        8.67     267      -16.7
   05/06/2017 00:30      57.2      56.7       81     51.2      0.00     18.24      76.7     0.37      1010.0     4       104         5       118        8.67     267      -16.1
   05/06/2017 00:20      57.1      56.8       82     51.3      0.00     18.24      76.7     0.37      1010.0     4       118         6       121        8.67     267      -16.3
   05/06/2017 00:10      57.1      57.0       81     51.4      0.00     18.24      76.8     0.37      1010.0     3        97         6        86        8.67     267      -16.9
   05/06/2017 00:00      57.1      56.9       82     51.5      0.00     18.24      76.9     0.37      1010.0     3       128         4       137        8.67     267      -16.6
   05/05/2017 23:50      57.0      56.6       82     51.4      0.00     18.24      76.8     0.37      1010.0     4       122         5       127        8.67     267      -16.7
   05/05/2017 23:40      56.9      56.5       82     51.4      0.00     18.24      76.8     0.37      1010.0     4       117         8       132        8.67     267      -16.6
   05/05/2017 23:30      57.0      56.5       82     51.4      0.00     18.24      76.9     0.37      1010.0     3       130         5       146        8.67     267      -16.9
   05/05/2017 23:20      56.8      56.5       82     51.4      0.00     18.24      76.5     0.37      1010.0     3        94         6       136        8.67     267      -16.9
   05/05/2017 23:10      56.8      56.5       82     51.3      0.00     18.24      76.8     0.37      1010.0     4       107         6       103        8.67     267      -17.0
   05/05/2017 23:00      56.8      56.5       82     51.3      0.00     18.24      77.1     0.37      1011.0     3       120         6       131        8.67     267      -17.2
   05/05/2017 22:50      56.8      56.5       82     51.3      0.00     18.24      76.9     0.37      1011.0     2       130         4       131        8.68     267      -17.3
   05/05/2017 22:40      56.8      56.4       83     51.3      0.00     18.24      77.1     0.37      1010.0     2       110         3       159        8.68     267      -17.1
   05/05/2017 22:30      56.7      56.4       82     51.1      0.00     18.24      77.3     0.37      1010.0     3       127         6       130        8.68     267      -16.8
   05/05/2017 22:20      56.6      56.2       82     51.0      0.00     18.24      76.8     0.37      1010.0     3       115         5       123        8.68     267      -16.3
   05/05/2017 22:10      56.5      56.1       81     50.7      0.00     18.24      76.9     0.37      1010.0     3       121         5       121        8.68     266      -18.4
   05/05/2017 22:00      56.1      55.6       81     50.2      0.00     18.24      77.0     0.37      1010.0     3       130         3       116        8.68     267      -40.6
   05/05/2017 21:50      56.2      55.9       81     50.3      0.00     18.24      77.1     0.37      1010.0     3       144         4       140        8.68     266      -72.6
   05/05/2017 21:40      57.0      56.1       80     50.2      0.00     18.24      76.7     0.37      1010.0     3       164         4       162        8.68     266      -74.3
   05/05/2017 21:30      57.5      57.0       79     50.7      0.00     18.24      77.0     0.37      1010.0     2       136         3       135        8.68     266      -75.5
   05/05/2017 21:20      58.0      57.6       78     51.2      0.00     18.24      77.1     0.37      1010.0     2        75         3       138        8.68     266      -76.6
   05/05/2017 21:10      58.4      58.1       78     51.2      0.00     18.24      77.0     0.37      1010.0     3        59         4        71        8.68     266      -77.0
   05/05/2017 21:00      58.5      58.3       77     51.2      0.00     18.24      77.2     0.37      1010.0     3        51         3        62        8.69     266      -77.8
   05/05/2017 20:50      59.1      58.5       75     51.1      0.00     18.24      76.9     0.37      1010.0     3        53         4        58        8.69     266      -78.4
   05/05/2017 20:40      59.5      59.3       74     51.0      0.00     18.24      77.1     0.37      1009.0     2        50         3        68        8.69     266      -78.3
   05/05/2017 20:30      59.9      59.5       73     51.0      0.00     18.24      77.0     0.37      1009.0     3        40         5        72        8.69     266      -78.0
   05/05/2017 20:20      60.7      59.9       72     51.1      0.00     18.24      76.8     0.37      1009.0     2        41         3        18        8.69     266      -77.8
   05/05/2017 20:10      61.4      60.7       70     51.1      0.00     18.24      76.7     0.37      1009.0     3        38         4        37        8.69     266      -78.8
   05/05/2017 20:00      62.5      61.6       67     51.2      0.00     18.24      76.8     0.37      1009.0     3        31         3        26        8.70     266      -80.6
   05/05/2017 19:50      63.4      62.7       65     51.1      0.00     18.24      77.0     0.37      1009.0     3        42         4        30        8.70     266      -80.0
   05/05/2017 19:40      64.3      63.5       63     51.2      0.00     18.24      77.1     0.37      1009.0     3        46         4        34        8.70     265      -77.7
   05/05/2017 19:30      65.5      64.6       61     51.4      0.00     18.24      77.0     0.37      1009.0     3        48         4        63        8.71     266      -70.8
   05/05/2017 19:20      66.6      65.9       59     51.5      0.00     18.24      76.7     0.37      1009.0     3        51         4        59        8.71     265      -57.1
   05/05/2017 19:10      67.1      66.5       58     51.6      0.00     18.24      76.8     0.37      1009.0     3        83         5        33        8.71     265      -39.4
   05/05/2017 19:00      67.1      66.7       57     51.3      0.00     18.24      76.8     0.37      1009.0     2       159         4       184        8.71     265      -34.1
   05/05/2017 18:50      69.3      67.5       55     51.4      0.00     18.24      76.6     0.37      1008.0     3       153         4        91        8.72     265      -46.8
   05/05/2017 18:40      71.0      69.5       53     52.3      0.00     18.24      76.7     0.37      1008.0     3        97         5        85        8.72     265      -22.1
   05/05/2017 18:30      71.8      71.0       51     52.4      0.00     18.24      76.7     0.37      1008.0     3        63         4       111        8.72     265       -6.6
   05/05/2017 18:20      72.7      72.3       50     52.5      0.00     18.24      76.6     0.37      1008.0     3       344         5        30        8.72     264       60.6
   05/05/2017 18:10      72.9      72.3       49     52.5      0.00     18.24      76.7     0.37      1008.0     2       130         3       352        8.72     265       56.4
   05/05/2017 18:00      73.0      72.2       49     52.5      0.00     18.24      76.5     0.37      1008.0     2       252         3       247        8.73     265       89.5
   05/05/2017 17:50      74.2      73.0       48     52.8      0.00     18.24      76.5     0.37      1008.0     3       247         5       237        8.73     265       48.9
   05/05/2017 17:40      74.5      74.1       48     53.4      0.00     18.24      76.6     0.37      1008.0     2       153         3       153        8.73     265      106.4
   05/05/2017 17:30      74.6      74.1       46     52.5      0.00     18.24      76.5     0.37      1008.0     3        89         5        40        8.73     265      181.7
   05/05/2017 17:20      75.0      74.6       46     52.4      0.00     18.24      76.5     0.37      1008.0     3        66         5        76        8.74     265      157.9
   05/05/2017 17:10      76.4      75.0       46     53.2      0.00     18.24      76.3     0.37      1008.0     4        62         9        70        8.74     265      109.4
   05/05/2017 17:00      76.6      76.2       45     53.5      0.00     18.24      76.4     0.37      1008.0     4        27         6        23        8.74     265      164.7
   05/05/2017 16:50      76.8      76.2       45     53.5      0.00     18.24      76.2     0.37      1008.0     4        26         6        32        8.75     265      236.8
   05/05/2017 16:40      76.8      76.2       45     53.5      0.00     18.24      76.3     0.37      1008.0     4        39         6        59        8.75     265      321.4
   05/05/2017 16:30      76.7      75.9       46     53.6      0.00     18.24      76.1     0.37      1009.0     4        34         6        30        8.75     265      379.1
   05/05/2017 16:20      77.1      76.2       45     53.8      0.00     18.24      76.0     0.37      1009.0     4        45         8        85        8.76     265      347.0
   05/05/2017 16:10      78.5      75.9       45     53.9      0.00     18.24      76.0     0.37      1009.0     5        40         6        32        8.76     265      272.7
   05/05/2017 16:00      78.5      77.9       44     54.4      0.00     18.24      76.0     0.37      1009.0     4        49         5        63        8.76     265      384.5
   05/05/2017 15:50      78.2      77.8       44     54.4      0.00     18.24      75.9     0.37      1009.0     3        62         5        80        8.77     265      322.8
   05/05/2017 15:40      78.4      77.5       45     54.5      0.00     18.24      76.0     0.37      1009.0     3        61         6       115        8.77     265      414.0
   05/05/2017 15:30      78.4      77.3       45     54.7      0.00     18.24      75.7     0.37      1009.0     4        57         7        65        8.77     265      439.7
   05/05/2017 15:20      78.6      77.9       44     54.6      0.00     18.24      76.0     0.36      1009.0     4        56         7        85        8.77     265      365.7
   05/05/2017 15:10      78.7      78.2       44     54.7      0.00     18.24      75.7     0.36      1010.0     4        73         8        74        8.78     265      442.5
   05/05/2017 15:00      78.5      78.0       44     54.8      0.00     18.24      75.7     0.36      1010.0     5        56         7       140        8.78     266      498.5
   05/05/2017 14:50      79.0      78.5       43     54.5      0.00     18.24      75.7     0.36      1010.0     4        48         5        67        8.78     265      458.4
   05/05/2017 14:40      79.8      79.0       42     54.6      0.00     18.24      75.5     0.36      1010.0     4        51         8        78        8.79     265      512.5
   05/05/2017 14:30      79.6      78.1       44     55.4      0.00     18.24      75.4     0.36      1010.0     4        35         6         7        8.79     265      532.4
   05/05/2017 14:20      78.4      78.0       45     55.1      0.00     18.24      75.4     0.36      1010.0     4        64         7        79        8.79     265      547.5
   05/05/2017 14:10      78.2      77.8       45     55.1      0.00     18.24      75.7     0.36      1010.0     4        60         7        91        8.79     265      560.6
   05/05/2017 14:00      77.8      77.2       46     55.1      0.00     18.24      75.4     0.36      1010.0     3        28         6        40        8.79     266      461.7
   05/05/2017 13:50      77.9      77.0       46     54.8      0.00     18.24      75.5     0.36      1011.0     3        66         5        63        8.79     266      556.3
   05/05/2017 13:40      77.8      76.1       46     54.5      0.00     18.24      75.4     0.36      1011.0     4        58         7        73        8.79     266      589.1
   05/05/2017 13:30      76.0      74.8       49     54.8      0.00     18.24      75.5     0.36      1011.0     4        60         8        82        8.80     266      592.6
   05/05/2017 13:20      75.8      75.1       48     54.5      0.00     18.24      75.3     0.36      1011.0     3        29         5        25        8.80     266      611.0
   05/05/2017 13:10      76.3      75.5       48     55.1      0.00     18.24      75.5     0.36      1011.0     4        34         6        71        8.80     266      633.1
   05/05/2017 13:00      75.7      73.8       50     55.2      0.00     18.24      75.3     0.36      1011.0     3        59         5        29        8.80     266      678.6
   05/05/2017 12:50      74.3      73.4       51     54.7      0.00     18.24      75.5     0.36      1011.0     4        37         7        78        8.80     266      409.9
   05/05/2017 12:40      74.6      72.7       52     54.8      0.00     18.24      75.2     0.36      1011.0     3        39         5        30        8.80     266      466.5
   05/05/2017 12:30      73.0      72.2       53     54.6      0.00     18.24      75.0     0.36      1012.0     3        38         5        84        8.80     267      459.2
   05/05/2017 12:20      72.7      71.2       54     54.5      0.00     18.24      75.3     0.36      1012.0     3        18         4        64        8.80     266      490.4
   05/05/2017 12:10      72.1      70.9       55     54.5      0.00     18.24      75.1     0.36      1012.0     3       358         5        17        8.81     267      575.0
   05/05/2017 12:00      71.0      70.3       57     54.4      0.00     18.24      75.3     0.36      1012.0     3        24         4        65        8.81     267      489.8
   05/05/2017 11:50      70.3      69.5       58     54.3      0.00     18.24      75.1     0.36      1012.0     3         9         4       347        8.81     267      483.6
   05/05/2017 11:40      69.7      68.8       59     54.3      0.00     18.24      75.5     0.36      1012.0     4        24         6        63        8.81     267      447.0
   05/05/2017 11:30      69.3      68.3       59     54.1      0.00     18.24      75.4     0.36      1013.0     4        20         4         5        8.81     267      488.8
   05/05/2017 11:20      69.2      67.4       61     53.9      0.00     18.24      75.4     0.37      1013.0     3        54         4        46        8.81     267      509.0
   05/05/2017 11:10      67.2      66.3       63     53.5      0.00     18.24      75.2     0.37      1013.0     4        51         8        75        8.81     267      439.5
   05/05/2017 11:00      66.5      65.9       64     53.7      0.00     18.24      75.5     0.37      1013.0     5        45         6        71        8.81     267      400.3
   05/05/2017 10:50      65.9      64.8       66     53.7      0.00     18.24      75.3     0.37      1013.0     4        60         6        88        8.82     268      395.7
   05/05/2017 10:40      66.3      65.0       65     53.7      0.00     18.24      75.3     0.37      1013.0     4        59         8        82        8.82     267      420.0
   05/05/2017 10:30      66.3      65.6       65     53.8      0.00     18.24      75.4     0.37      1013.0     4        63         6        63        8.82     268      408.3
   05/05/2017 10:20      66.6      65.8       65     54.0      0.00     18.24      75.5     0.37      1013.0     4        55         5        63        8.82     268      395.1
   05/05/2017 10:10      67.0      66.2       64     54.2      0.00     18.24      75.3     0.37      1012.0     4        57         6        63        8.82     268      391.7
   05/05/2017 10:00      66.4      65.7       66     54.2      0.00     18.24      75.6     0.37      1012.0     3        30         5        15        8.82     269      421.4
   05/05/2017 09:50      65.9      64.8       67     54.0      0.00     18.24      75.6     0.37      1012.0     2        53         3       103        8.82     269      404.7
   05/05/2017 09:40      65.0      63.9       68     54.0      0.00     18.24      75.6     0.37      1012.0     3        33         4        61        8.82     269      352.9
   05/05/2017 09:30      64.3      63.9       70     53.9      0.00     18.24      75.4     0.37      1012.0     3        21         4        38        8.82     269      331.9
   05/05/2017 09:20      64.1      63.8       69     53.8      0.00     18.24      75.6     0.37      1012.0     3        11         4        17        8.82     269      333.5
   05/05/2017 09:10      63.9      63.2       70     53.6      0.00     18.24      75.3     0.37      1012.0     2       116         4        78        8.82     269      291.7
   05/05/2017 09:00      63.4      62.9       71     53.8      0.00     18.24      75.7     0.37      1012.0     3        80         5        77        8.83     269      291.5
   05/05/2017 08:50      63.0      62.3       73     53.8      0.00     18.24      75.8     0.37      1012.0     3       105         4        76        8.83     269      281.0
   05/05/2017 08:40      62.4      61.5       75     53.8      0.00     18.24      75.5     0.37      1012.0     2        47         4        73        8.83     269      272.0
   05/05/2017 08:30      61.6      61.5       76     53.8      0.00     18.24      75.6     0.37      1012.0     2       345         3        14        8.83     269      111.9
   05/05/2017 08:20      61.6      60.7       77     54.0      0.00     18.24      75.8     0.37      1012.0     1         8         2        22        8.83     269      113.7
   05/05/2017 08:10      60.5      59.7       79     53.7      0.00     18.24      75.7     0.37      1012.0     2        89         4       125        8.83     269      120.0
   05/05/2017 08:00      59.8      59.0       81     53.7      0.00     18.24      75.6     0.37      1012.0     2       358         3        23        8.83     269       93.7
   05/05/2017 07:50      58.9      58.1       84     53.5      0.00     18.24      76.0     0.37      1011.0     1        63         2        99        8.83     269       70.9
   05/05/2017 07:40      58.1      57.9       85     53.5      0.00     18.24      75.5     0.37      1011.0     2       177         3       211        8.83     269       61.2
   05/05/2017 07:30      57.9      57.5       86     53.5      0.00     18.24      76.0     0.37      1012.0     2       290         3       337        8.83     269       52.0
   05/05/2017 07:20      57.7      57.2       87     53.6      0.00     18.24      76.2     0.37      1012.0     1        16         2       357        8.83     269       36.5
   05/05/2017 07:10      57.2      56.9       88     53.6      0.00     18.24      76.0     0.37      1011.0     1        98         2       102        8.83     269       22.1
   05/05/2017 07:00      56.9      56.5       89     53.5      0.00     18.24      76.2     0.37      1011.0     1       211         2       225        8.83     269       18.1
   05/05/2017 06:50      56.5      56.3       89     53.3      0.00     18.24      76.2     0.37      1011.0     2       201         3       219        8.83     269        6.5
   05/05/2017 06:40      56.5      56.3       89     53.2      0.00     18.24      76.5     0.37      1011.0     2       208         3       228        8.83     269       -1.5
   05/05/2017 06:30      56.6      56.3       89     53.3      0.00     18.24      76.0     0.37      1011.0     1       137         2       211        8.83     269       -3.7
   05/05/2017 06:20      56.4      56.0       89     53.1      0.00     18.24      76.5     0.37      1011.0     1        29         2       343        8.83     269       -7.8
   05/05/2017 06:10      56.3      56.1       89     53.1      0.00     18.24      76.5     0.37      1011.0     2         0         3        19        8.83     269      -11.1
   05/05/2017 06:00      56.5      56.1       89     53.2      0.00     18.24      76.5     0.37      1011.0     2       338         3       351        8.83     269      -12.8
   05/05/2017 05:50      56.4      56.0       89     53.0      0.00     18.24      76.2     0.37      1011.0     3       309         3       308        8.83     269      -13.6
   05/05/2017 05:40      56.6      56.3       89     53.3      0.00     18.24      76.4     0.37      1011.0     1        22         2        35        8.84     269      -13.6
   05/05/2017 05:30      56.5      56.1       90     53.1      0.00     18.24      76.5     0.37      1011.0     1       216         2       114        8.84     269      -13.5
   05/05/2017 05:20      56.2      55.9       90     53.1      0.00     18.24      76.7     0.37      1011.0     1         8         2        81        8.84     269      -13.0
   05/05/2017 05:10      56.0      55.9       90     53.0      0.00     18.24      76.7     0.37      1011.0     2        99         3        77        8.84     269      -12.7
   05/05/2017 05:00      56.1      55.7       90     53.0      0.00     18.24      76.5     0.37      1011.0     2        36         4        28        8.84     268      -13.0
   05/05/2017 04:50      55.7      55.6       90     52.8      0.00     18.24      76.8     0.37      1012.0     2       149         4       123        8.84     268      -12.0
   05/05/2017 04:40      55.8      55.7       90     52.8      0.00     18.24      76.7     0.37      1012.0     1        97         2       100        8.84     268      -11.8
   05/05/2017 04:30      55.8      55.5       90     52.8      0.00     18.24      76.8     0.37      1012.0     2        63         3        59        8.84     269      -12.7
   05/05/2017 04:20      55.7      55.4       90     52.7      0.00     18.24      77.0     0.37      1012.0     2        69         4        80        8.84     268      -11.7
   05/05/2017 04:10      55.6      55.4       91     52.8      0.00     18.24      76.7     0.37      1012.0     2       110         3       149        8.84     268      -11.2
   05/05/2017 04:00      55.5      55.3       91     52.7      0.00     18.24      77.2     0.37      1012.0     1        69         3        79        8.84     268      -13.4
   05/05/2017 03:50      55.4      55.1       90     52.4      0.00     18.24      76.7     0.37      1012.0     2        67         3       123        8.84     268      -12.5
   05/05/2017 03:40      55.1      54.7       90     52.0      0.00     18.24      77.0     0.37      1012.0     1        54         2        89        8.84     268      -16.7
   05/05/2017 03:30      55.1      54.8       89     51.7      0.00     18.24      77.1     0.37      1012.0     1        66         2        85        8.84     268      -24.8
   05/05/2017 03:20      55.4      55.1       88     51.8      0.00     18.24      77.2     0.37      1012.0     1        60         2        74        8.84     268      -38.0
   05/05/2017 03:10      55.5      55.3       88     51.9      0.00     18.24      77.0     0.37      1013.0     2        68         4        73        8.84     268      -40.4
   05/05/2017 03:00      55.8      55.5       87     51.9      0.00     18.24      77.0     0.37      1013.0     2        79         4        73        8.84     268      -42.4
   05/05/2017 02:50      56.0      55.8       86     51.8      0.00     18.24      77.2     0.37      1013.0     2        71         3        90        8.84     268      -44.0
   05/05/2017 02:40      56.5      56.0       85     51.9      0.00     18.24      77.4     0.37      1013.0     2        85         3        65        8.84     268      -44.3
   05/05/2017 02:30      56.6      56.4       85     52.0      0.00     18.24      77.5     0.37      1013.0     2        84         3        91        8.84     268      -45.3
   05/05/2017 02:20      57.1      56.8       84     52.0      0.00     18.24      77.3     0.37      1013.0     1        80         2        72        8.84     268      -47.0
   05/05/2017 02:10      57.4      57.1       84     52.4      0.00     18.24      77.5     0.37      1013.0     2        63         3        74        8.85     268      -47.5
   05/05/2017 02:00      57.0      56.6       85     52.2      0.00     18.24      77.4     0.37      1013.0     3        71         6        75        8.85     267      -47.6
   05/05/2017 01:50      57.0      56.5       85     52.2      0.00     18.24      77.4     0.37      1013.0     1       101         3       102        8.85     267      -47.8
   05/05/2017 01:40      56.6      56.5       85     52.0      0.00     18.24      77.4     0.37      1013.0     1        86         2        84        8.85     267      -50.7
   05/05/2017 01:30      57.4      56.8       84     52.0      0.00     18.24      77.1     0.37      1014.0     1       137         2       138        8.85     267      -53.1
   05/05/2017 01:20      57.4      57.0       83     52.1      0.00     18.24      77.4     0.37      1014.0     1       170         2       204        8.85     267      -54.0
   05/05/2017 01:10      57.5      57.1       83     52.1      0.00     18.24      77.5     0.37      1013.0     1       105         1       138        8.85     267      -56.4
   05/05/2017 01:00      57.6      57.2       83     52.2      0.00     18.24      77.8     0.37      1013.0     1        76         2       102        8.85     267      -57.9
   05/05/2017 00:50      57.5      57.1       83     52.1      0.00     18.24      77.7     0.37      1013.0     2        97         2        97        8.85     267      -59.0
   05/05/2017 00:40      57.7      57.4       82     52.1      0.00     18.24      77.6     0.37      1013.0     1        96         2        65        8.85     267      -61.0
   05/05/2017 00:30      57.9      57.6       82     52.2      0.00     18.24      77.6     0.37      1013.0     1       113         2        92        8.85     267      -62.5
   05/05/2017 00:20      58.2      58.0       81     52.4      0.00     18.24      77.7     0.37      1013.0     1        92         2       104        8.86     267      -63.4
   05/05/2017 00:10      58.1      57.9       81     52.3      0.00     18.24      77.7     0.37      1013.0     2        94         2        82        8.86     267      -64.5
   05/05/2017 00:00      58.4      58.0       81     52.4      0.00     18.24      77.6     0.37      1013.0     1        94         2        78        8.86     267      -64.7
   05/04/2017 23:50      58.5      58.0       82     52.6      0.00     18.24      77.7     0.37      1013.0     2       107         2       101        8.86     267      -64.5
   05/04/2017 23:40      58.6      58.3       81     52.7      0.00     18.24      77.6     0.37      1013.0     1        96         2        70        8.86     267      -65.2
   05/04/2017 23:30      58.8      58.6       80     52.7      0.00     18.24      77.8     0.37      1013.0     1       104         1        96        8.86     267      -67.0
   05/04/2017 23:20      59.3      58.8       79     52.6      0.00     18.24      77.8     0.37      1013.0     2       122         2       125        8.86     267      -68.9
   05/04/2017 23:10      59.7      59.3       79     52.8      0.00     18.24      78.1     0.37      1013.0     1       106         2        96        8.86     267      -70.4
   05/04/2017 23:00      60.0      59.7       78     53.0      0.00     18.24      78.2     0.37      1013.0     1        90         1        58        8.87     267      -71.8
   05/04/2017 22:50      60.1      59.8       78     53.0      0.00     18.24      77.9     0.37      1013.0     1        98         2        71        8.87     267      -72.9
   05/04/2017 22:40      60.9      60.0       76     52.9      0.00     18.24      78.0     0.37      1013.0     1        80         3        76        8.87     266      -74.1
   05/04/2017 22:30      60.9      60.8       76     53.2      0.00     18.24      77.9     0.37      1013.0     2        56         3        75        8.87     267      -75.8
   05/04/2017 22:20      61.2      60.9       75     53.1      0.00     18.24      77.6     0.37      1013.0     2        60         4        68        8.87     266      -76.6
   05/04/2017 22:10      61.5      61.3       74     53.0      0.00     18.24      77.9     0.37      1013.0     2        56         3        39        8.87     266      -77.2
   05/04/2017 22:00      61.6      61.4       73     52.9      0.00     18.24      78.0     0.37      1013.0     2        44         4        30        8.88     266      -77.8
   05/04/2017 21:50      61.8      61.3       73     52.9      0.00     18.24      78.1     0.37      1013.0     2        56         3        62        8.88     266      -78.3
   05/04/2017 21:40      62.4      62.0       72     52.9      0.00     18.24      77.9     0.37      1013.0     3        68         6        71        8.88     266      -78.9
   05/04/2017 21:30      62.8      62.4       71     53.0      0.00     18.24      78.0     0.37      1013.0     3        44         4        78        8.88     266      -79.2
   05/04/2017 21:20      62.8      62.7       70     53.1      0.00     18.24      78.0     0.37      1013.0     3        58         4        79        8.88     266      -79.6
   05/04/2017 21:10      63.6      63.0       69     53.2      0.00     18.24      78.1     0.37      1013.0     3        74         5        72        8.89     266      -80.0
   05/04/2017 21:00      63.9      63.5       69     53.2      0.00     18.24      78.0     0.37      1013.0     3        59         6        60        8.89     265      -81.1
   05/04/2017 20:50      65.0      64.0       67     53.2      0.00     18.24      77.8     0.37      1013.0     4        68         7        77        8.89     265      -82.4
   05/04/2017 20:40      65.9      65.2       65     53.3      0.00     18.24      77.7     0.37      1013.0     3        56         4        65        8.89     265      -83.3
   05/04/2017 20:30      66.3      65.8       64     53.4      0.00     18.24      77.7     0.37      1012.0     2        42         3        28        8.90     265      -83.9
   05/04/2017 20:20      66.8      66.2       63     53.5      0.00     18.24      77.7     0.37      1012.0     2        44         4        34        8.90     265      -84.8
   05/04/2017 20:10      67.7      66.9       61     53.5      0.00     18.24      77.6     0.37      1012.0     3        58         4        75        8.90     264      -86.1
   05/04/2017 20:00      68.8      67.7       60     53.6      0.00     18.24      77.8     0.37      1012.0     2        40         4        74        8.90     264      -87.2
   05/04/2017 19:50      69.9      68.9       58     53.7      0.00     18.24      77.8     0.37      1012.0     2        46         4        73        8.90     264      -87.6
   05/04/2017 19:40      71.6      70.0       55     53.9      0.00     18.24      77.9     0.37      1012.0     3        47         3        39        8.91     264      -86.5
   05/04/2017 19:30      74.8      72.0       51     54.1      0.00     18.24      77.8     0.37      1012.0     3        39         5        35        8.91     264      -83.5
   05/04/2017 19:20      76.8      75.2       43     52.2      0.00     18.24      77.7     0.37      1012.0     3       356         4       351        8.92     264      -78.5
   05/04/2017 19:10      78.0      77.0       40     51.1      0.00     18.24      77.6     0.37      1012.0     3       314         6       321        8.92     264      -56.7
   05/04/2017 19:00      78.5      78.0       38     50.8      0.00     18.24      77.5     0.37      1012.0     4       285         5       258        8.93     264      -38.3
   05/04/2017 18:50      78.7      78.3       38     50.9      0.00     18.24      77.6     0.37      1012.0     5       275         8       267        8.93     264      -17.1
   05/04/2017 18:40      79.5      78.8       37     50.9      0.00     18.24      77.7     0.37      1012.0     6       276         8       257        8.94     264        6.8
   05/04/2017 18:30      80.3      79.7       36     51.0      0.00     18.24      77.3     0.37      1012.0     4       294         7       307        8.95     263       31.1
   05/04/2017 18:20      81.5      80.2       35     50.5      0.00     18.24      77.2     0.37      1011.0     7       294         9       315        8.95     264       55.2
   05/04/2017 18:10      82.2      81.6       33     50.0      0.00     18.24      77.4     0.37      1011.0     5       298         6       276        8.96     263       78.1
   05/04/2017 18:00      83.1      82.2       32     50.0      0.00     18.24      77.5     0.37      1011.0     5       301         8       328        8.97     264      104.3
   05/04/2017 17:50      84.1      82.9       31     50.2      0.00     18.24      77.5     0.37      1011.0     6       308         9       308        8.97     264      131.6
   05/04/2017 17:40      85.0      84.2       30     50.3      0.00     18.24      77.2     0.37      1011.0     7       313        11       324        8.98     264      158.2
   05/04/2017 17:30      85.9      84.9       30     50.2      0.00     18.24      77.0     0.37      1011.0     5       311         8       272        8.98     264      181.4
   05/04/2017 17:20      86.3      85.4       29     49.6      0.00     18.24      77.1     0.37      1011.0     6       309         8       274        8.99     264      202.2
   05/04/2017 17:10      87.7      86.5       27     49.6      0.00     18.24      77.1     0.37      1011.0     5       315        10       314        8.99     264      223.1
   05/04/2017 17:00      88.3      87.7       26     49.3      0.00     18.24      76.9     0.37      1011.0     5       308         8       302        9.00     264      246.6
   05/04/2017 16:50      88.5      87.4       27     50.0      0.00     18.24      76.8     0.37      1011.0     6       320        11       315        9.00     264      268.8
   05/04/2017 16:40      89.7      88.8       25     49.1      0.00     18.24      76.8     0.37      1011.0     6       266         8       326        9.01     264      289.9
   05/04/2017 16:30      90.1      89.4       25     49.0      0.00     18.24      76.7     0.37      1011.0     5       297         6       285        9.01     264      311.1
   05/04/2017 16:20      90.3      89.9       24     48.6      0.00     18.24      76.8     0.37      1011.0     7       279         9       300        9.01     264      331.8
   05/04/2017 16:10      90.8      89.7       24     48.6      0.00     18.24      76.5     0.37      1011.0     6       305         9       306        9.02     263      353.1
   05/04/2017 16:00      91.4      90.6       22     46.8      0.00     18.24      76.5     0.37      1011.0     6       273        10       290        9.02     264      373.3
   05/04/2017 15:50      91.5      90.8       20     44.5      0.00     18.24      76.3     0.37      1011.0     5       245         8       231        9.02     264      393.6
   05/04/2017 15:40      91.2      90.8       21     45.7      0.00     18.24      76.3     0.37      1011.0     7       233         8       237        9.03     264      412.3
   05/04/2017 15:30      91.8      91.1       23     48.2      0.00     18.24      76.3     0.37      1011.0     7       218         9       227        9.03     264      427.7
   05/04/2017 15:20      92.0      91.3       24     49.8      0.00     18.24      76.3     0.37      1011.0     5       225         7       248        9.04     264      443.1
   05/04/2017 15:10      92.6      91.7       24     49.7      0.00     18.24      76.1     0.36      1011.0     6       239         8       257        9.04     264      456.1
   05/04/2017 15:00      92.8      91.9       22     48.3      0.00     18.24      76.1     0.36      1011.0     6       270        11       259        9.04     265      470.9
   05/04/2017 14:50      92.9      91.7       23     49.1      0.00     18.24      75.9     0.36      1011.0     6       231         8       273        9.04     265      483.4
   05/04/2017 14:40      93.7      92.7       24     50.7      0.00     18.24      75.8     0.36      1011.0     5       262         9       227        9.05     265      493.2
   05/04/2017 14:30      92.7      92.4       26     52.9      0.00     18.24      75.8     0.36      1012.0     4       349         6       356        9.05     265      501.5
   05/04/2017 14:20      92.8      91.3       30     56.6      0.00     18.24      75.7     0.36      1012.0     3        18         5       352        9.05     265      507.9
   05/04/2017 14:10      94.4      92.6       28     55.5      0.00     18.24      75.7     0.36      1012.0     3        12         5       354        9.05     265      518.3
   05/04/2017 14:00      93.7      93.2       24     51.1      0.00     18.24      75.6     0.36      1012.0     5       344         7       347        9.05     266      530.4
   05/04/2017 13:50      94.5      92.6       24     51.9      0.00     18.24      75.7     0.36      1012.0     5       325         7       335        9.05     266      538.4
   05/04/2017 13:40      94.2      93.5       28     56.2      0.00     18.24      75.5     0.36      1012.0     3       356         4       274        9.05     267      543.7
   05/04/2017 13:30      94.5      93.4       28     55.4      0.00     18.24      75.5     0.36      1012.0     2       356         3        38        9.05     268      548.9
   05/04/2017 13:20      94.5      93.6       23     51.1      0.00     18.24      75.5     0.36      1012.0     2       293         4       320        9.06     268      555.6
   05/04/2017 13:10      93.4      92.9       24     51.1      0.00     18.24      75.3     0.36      1012.0     3       269         5       316        9.06     268      561.3
   05/04/2017 13:00      94.4      93.3       24     52.0      0.00     18.24      75.4     0.36      1012.0     3       246         5       230        9.06     269      561.2
   05/04/2017 12:50      94.4      92.9       25     52.2      0.00     18.24      75.4     0.36      1012.0     2        54         4        67        9.06     270      561.7
   05/04/2017 12:40      92.7      91.0       26     52.0      0.00     18.24      75.3     0.36      1012.0     3        54         4        69        9.06     273      566.1
   05/04/2017 12:30      91.4      90.8       26     52.0      0.00     18.24      75.1     0.36      1012.0     3        47         5        31        9.06     277      567.9
   05/04/2017 12:20      90.8      89.3       28     51.9      0.00     18.24      75.4     0.36      1012.0     3        67         4        68        9.06     285      565.8
   05/04/2017 12:10      89.9      89.4       28     52.7      0.00     18.24      75.2     0.36      1013.0     2        31         3        40        9.06     297      563.3
   05/04/2017 12:00      89.6      87.8       30     53.1      0.00     18.24      75.2     0.36      1013.0     2       352         4       345        9.06     319      561.1
   05/04/2017 11:50      88.0      87.3       29     51.9      0.00     18.24      75.0     0.36      1013.0     2        47         4        76        9.06     350      556.8
   05/04/2017 11:40      87.1      85.6       31     51.9      0.00     18.24      75.2     0.36      1013.0     2        51         4       356        9.06     376      550.8
   05/04/2017 11:30      85.4      84.5       32     51.6      0.00     18.24      75.1     0.36      1013.0     2        11         3       353        9.06     400      546.6
   05/04/2017 11:20      85.0      84.3       32     51.8      0.00     18.24      75.3     0.36      1013.0     1       316         3       343        9.06     422      538.7
   05/04/2017 11:10      84.6      83.3       33     51.9      0.00     18.24      75.4     0.36      1013.0     2        41         3        20        9.06     441      527.6
   05/04/2017 11:00      83.4      82.1       35     52.3      0.00     18.24      75.5     0.36      1013.0     3        14         5       358        9.06     461      521.4
   05/04/2017 10:50      82.4      80.5       36     52.1      0.00     18.24      75.4     0.36      1013.0     2       299         4       302        9.06     478      510.7
   05/04/2017 10:40      80.5      78.8       38     51.8      0.00     18.24      75.1     0.36      1014.0     2        16         3       316        9.06     489      500.8
   05/04/2017 10:30      78.7      78.1       39     51.6      0.00     18.24      75.4     0.36      1014.0     2       329         4       336        9.06     510      488.0
   05/04/2017 10:20      77.9      76.8       40     51.4      0.00     18.24      75.5     0.36      1014.0     2       339         3       349        9.06     543      474.9
   05/04/2017 10:10      76.9      76.3       41     51.5      0.00     18.24      74.9     0.36      1014.0     3       357         4       344        9.06     568      461.4
   05/04/2017 10:00      77.5      75.7       41     51.4      0.00     18.24      74.9     0.36      1014.0     2        20         3        25        9.06     591      445.6
   05/04/2017 09:50      75.6      74.5       43     50.7      0.00     18.24      75.6     0.36      1014.0     2        20         3         3        9.06     605      430.8
   05/04/2017 09:40      74.7      72.8       44     50.6      0.00     18.24      75.8     0.36      1014.0     2        54         3       109        9.06     618      414.5
   05/04/2017 09:30      72.8      72.4       46     50.5      0.00     18.24      75.4     0.37      1014.0     3        17         3       359        9.06     636      397.3
   05/04/2017 09:20      72.7      71.6       46     50.2      0.00     18.24      75.7     0.36      1014.0     2        26         3        27        9.06     656      379.8
   05/04/2017 09:10      71.6      70.6       49     50.6      0.00     18.24      75.5     0.36      1014.0     2        25         3        48        9.06     657      360.0
   05/04/2017 09:00      71.3      69.8       51     51.3      0.00     18.24      75.8     0.36      1014.0     1        62         3       111        9.06     666      341.0
   05/04/2017 08:50      69.6      68.4       54     51.4      0.00     18.24      75.4     0.36      1014.0     2        25         2        85        9.06     672      322.7
   05/04/2017 08:40      68.8      66.1       55     50.6      0.00     18.24      75.7     0.36      1015.0     1        40         2        32        9.06     267      308.5
   05/04/2017 08:30      65.9      65.3       59     50.8      0.00     18.24      75.5     0.36      1015.0     1       290         2       321        9.06     266       87.3
   05/04/2017 08:20      65.5      65.0       60     51.1      0.00     18.24      76.0     0.36      1015.0     1       310         2       327        9.07     267        3.1
   05/04/2017 08:10      65.0      64.3       62     51.4      0.00     18.24      76.0     0.36      1015.0     2        95         2        94        9.06     266      -22.0
   05/04/2017 08:00      64.3      63.7       65     52.0      0.00     18.24      76.0     0.36      1015.0     1        64         2       145        9.06     266       -3.3
   05/04/2017 07:50      63.8      62.9       66     51.9      0.00     18.24      76.0     0.37      1015.0     2        90         3        83        9.06     266       56.3
   05/04/2017 07:40      63.0      62.2       68     51.8      0.00     18.24      76.0     0.37      1015.0     2        78         3        81        9.07     266        2.4
   05/04/2017 07:30      62.3      61.3       70     51.7      0.00     18.24      76.0     0.37      1015.0     2        82         3        85        9.07     266      -24.2
   05/04/2017 07:20      61.4      60.0       72     51.6      0.00     18.24      75.8     0.37      1015.0     1        67         1        89        9.07     266      -26.2
   05/04/2017 07:10      59.9      58.6       74     51.3      0.00     18.24      75.9     0.37      1015.0     0        33         1        89        9.07     266      -25.4
   05/04/2017 07:00      58.7      57.9       78     51.7      0.00     18.24      76.1     0.37      1015.0     0        80         1         7        9.07     266      -23.4
   05/04/2017 06:50      58.1      57.3       81     51.7      0.00     18.24      76.1     0.37      1015.0     1       139         1       142        9.07     266      -22.6
   05/04/2017 06:40      57.6      57.3       81     51.7      0.00     18.24      76.2     0.37      1015.0     1       140         1       135        9.07     266      -26.4
   05/04/2017 06:30      57.4      56.4       82     51.4      0.00     18.24      76.5     0.37      1015.0     1       135         1       130        9.07     266      -28.0
   05/04/2017 06:20      56.5      56.0       84     51.6      0.00     18.24      76.3     0.37      1015.0     0       177         1       192        9.07     265      -32.7
   05/04/2017 06:10      56.1      55.9       85     51.5      0.00     18.24      76.2     0.37      1015.0     1       175         1       189        9.07     265      -38.5
   05/04/2017 06:00      56.5      55.9       84     51.5      0.00     18.24      76.3     0.37      1015.0     1       174         2       158        9.07     266      -42.2
   05/04/2017 05:50      56.5      56.0       84     51.6      0.00     18.24      76.2     0.37      1015.0     1       168         2       186        9.07     265      -44.7
   05/04/2017 05:40      56.5      56.3       84     51.6      0.00     18.24      76.2     0.37      1015.0     1       155         2       142        9.07     265      -46.3
   05/04/2017 05:30      56.7      56.4       84     51.6      0.00     18.24      76.4     0.37      1015.0     1       178         1       192        9.07     265      -48.0
   05/04/2017 05:20      56.6      56.5       83     51.5      0.00     18.24      76.6     0.37      1015.0     1       149         2       157        9.08     265      -49.7
   05/04/2017 05:10      56.6      56.4       83     51.3      0.00     18.24      76.5     0.37      1015.0     1       154         2       141        9.08     265      -50.9
   05/04/2017 05:00      57.1      56.7       82     51.5      0.00     18.24      76.5     0.37      1015.0     1       146         1       142        9.08     265      -51.0
   05/04/2017 04:50      57.0      56.8       82     51.5      0.00     18.24      76.7     0.37      1015.0     0       132         1       175        9.08     265      -51.5
   05/04/2017 04:40      57.5      57.0       82     51.6      0.00     18.24      76.5     0.37      1015.0     1       109         2       131        9.08     265      -52.5
   05/04/2017 04:30      57.6      57.3       81     51.8      0.00     18.24      76.8     0.37      1015.0     1       188         1       208        9.08     265      -52.4
   05/04/2017 04:20      57.6      57.3       82     52.0      0.00     18.24      76.7     0.37      1015.0     1       158         1       141        9.08     265      -52.3
   05/04/2017 04:10      57.7      57.5       81     52.0      0.00     18.24      76.7     0.37      1015.0     1       174         2       149        9.08     265      -52.8
   05/04/2017 04:00      57.9      57.6       81     52.1      0.00     18.24      76.8     0.37      1015.0     2       149         2       149        9.08     265      -52.7
   05/04/2017 03:50      57.8      57.3       82     52.3      0.00     18.24      76.9     0.37      1015.0     1       164         1       140        9.09     265      -52.8
   05/04/2017 03:40      57.4      56.9       84     52.3      0.00     18.24      76.8     0.37      1015.0     1       187         1       186        9.09     265      -53.8
   05/04/2017 03:30      57.3      57.0       84     52.3      0.00     18.24      77.0     0.37      1015.0     2       167         2       166        9.09     265      -55.1
   05/04/2017 03:20      58.0      57.2       82     52.3      0.00     18.24      76.9     0.37      1015.0     2       151         2       160        9.09     265      -56.4
   05/04/2017 03:10      58.6      58.0       81     52.7      0.00     18.24      77.2     0.37      1015.0     2       148         2       141        9.09     265      -56.9
   05/04/2017 03:00      59.0      58.5       81     52.9      0.00     18.24      77.2     0.37      1015.0     1       180         2       140        9.09     265      -56.4
   05/04/2017 02:50      59.4      59.0       80     53.0      0.00     18.24      77.0     0.37      1015.0     1       158         2       142        9.09     265      -57.0
   05/04/2017 02:40      59.3      59.1       80     53.1      0.00     18.24      77.2     0.37      1015.0     1       150         2       140        9.09     265      -57.4
   05/04/2017 02:30      59.4      58.9       79     52.7      0.00     18.24      77.3     0.37      1015.0     1       164         2       189        9.09     265      -58.4
   05/04/2017 02:20      59.3      59.0       79     52.7      0.00     18.24      77.0     0.37      1015.0     1       169         1       160        9.09     265      -58.6
   05/04/2017 02:10      59.5      59.4       78     52.8      0.00     18.24      77.2     0.37      1015.0     1       142         2       143        9.09     265      -58.7
   05/04/2017 02:00      60.3      59.8       76     52.5      0.00     18.24      77.2     0.37      1015.0     1       164         1       171        9.10     265      -58.4
   05/04/2017 01:50      60.4      60.0       77     52.8      0.00     18.24      77.3     0.37      1015.0     1       206         1       222        9.10     265      -58.1
   05/04/2017 01:40      60.3      60.0       77     53.0      0.00     18.24      77.0     0.37      1015.0     1       144         1       124        9.10     265      -59.0
   05/04/2017 01:30      60.6      60.2       77     53.0      0.00     18.24      77.2     0.37      1015.0     1       111         2       108        9.10     265      -60.2
   05/04/2017 01:20      61.0      60.6       76     53.0      0.00     18.24      77.2     0.37      1015.0     1        96         1        92        9.11     265      -60.9
   05/04/2017 01:10      61.3      60.9       75     53.2      0.00     18.24      77.3     0.37      1015.0     2       106         2       102        9.11     265      -61.6
   05/04/2017 01:00      61.7      61.3       75     53.5      0.00     18.24      77.4     0.37      1015.0     1       110         2        71        9.11     265      -61.9
   05/04/2017 00:50      62.0      61.7       74     53.5      0.00     18.24      77.2     0.37      1015.0     1       115         2       109        9.12     265      -62.8
   05/04/2017 00:40      61.9      61.7       74     53.3      0.00     18.24      77.4     0.37      1015.0     2        96         3        99        9.12     265      -62.9
   05/04/2017 00:30      62.2      61.9       74     53.7      0.00     18.24      77.4     0.37      1015.0     1        62         2        42        9.12     265      -62.6
   05/04/2017 00:20      62.5      62.2       73     53.8      0.00     18.24      77.3     0.37      1015.0     1        71         2        82        9.13     265      -63.1
   05/04/2017 00:10      62.7      62.3       73     53.6      0.00     18.24      77.3     0.37      1015.0     1        94         2        65        9.13     265      -64.2
   05/04/2017 00:00      63.3      62.8       71     53.7      0.00     18.24      77.4     0.37      1015.0     1       101         2       111        9.13     264      -65.4
   05/03/2017 23:50      63.6      63.4       71     53.9      0.00     18.24      77.4     0.37      1015.0     2        72         3        81        9.13     265      -65.8
   05/03/2017 23:40      63.6      63.3       71     54.0      0.00     18.24      77.5     0.37      1015.0     2       111         3        98        9.13     264      -66.1
   05/03/2017 23:30      64.5      63.8       69     53.9      0.00     18.24      77.3     0.37      1015.0     1       102         2       100        9.13     264      -67.2
   05/03/2017 23:20      65.2      64.7       67     54.0      0.00     18.24      77.5     0.37      1015.0     1        67         2        57        9.13     264      -68.6
   05/03/2017 23:10      65.8      65.2       66     53.9      0.00     18.24      77.5     0.37      1015.0     1        85         2        68        9.14     264      -70.0
   05/03/2017 23:00      66.3      65.8       64     53.6      0.00     18.24      77.4     0.37      1015.0     2        67         2        60        9.14     264      -71.2
   05/03/2017 22:50      66.4      66.2       64     53.6      0.00     18.24      77.4     0.37      1015.0     2        63         4        73        9.14     264      -71.8
   05/03/2017 22:40      66.7      66.4       63     53.7      0.00     18.24      77.4     0.37      1015.0     3        73         4        83        9.14     264      -72.5
   05/03/2017 22:30      67.3      66.9       63     54.1      0.00     18.24      77.5     0.37      1015.0     3        81         5        73        9.14     264      -72.8
   05/03/2017 22:20      68.1      67.6       61     53.9      0.00     18.24      77.5     0.37      1015.0     3        77         5        86        9.15     264      -73.2
   05/03/2017 22:10      68.9      68.3       59     53.6      0.00     18.24      77.4     0.37      1015.0     2        94         4       108        9.15     264      -72.9
   05/03/2017 22:00      69.5      69.0       57     53.5      0.00     18.24      77.5     0.37      1014.0     2        72         4        64        9.15     264      -73.0
   05/03/2017 21:50      69.8      69.3       57     53.5      0.00     18.24      77.3     0.37      1014.0     3        56         4        69        9.15     264      -72.0
   05/03/2017 21:40      70.2      69.8       56     53.4      0.00     18.24      77.5     0.37      1014.0     2        47         3        58        9.16     264      -71.2
   05/03/2017 21:30      71.0      70.4       54     53.5      0.00     18.24      77.4     0.37      1014.0     1        50         2        53        9.16     264      -72.4
   05/03/2017 21:20      71.6      71.1       54     53.6      0.00     18.24      77.5     0.37      1014.0     1        82         2        69        9.16     264      -74.3
   05/03/2017 21:10      72.2      71.6       52     53.6      0.00     18.24      77.3     0.37      1014.0     2        80         3        62        9.17     263      -75.0
   05/03/2017 21:00      73.0      72.3       51     53.6      0.00     18.24      77.3     0.37      1014.0     1        86         3        67        9.17     263      -75.7
   05/03/2017 20:50      73.4      73.1       50     53.6      0.00     18.24      77.4     0.37      1013.0     1        45         2        37        9.17     263      -76.3
   05/03/2017 20:40      74.3      73.4       50     53.9      0.00     18.24      77.4     0.37      1013.0     2        65         3        76        9.17     263      -76.6
   05/03/2017 20:30      76.0      74.8       48     54.7      0.00     18.24      77.4     0.37      1013.0     1        57         3        62        9.18     263      -77.3
   05/03/2017 20:20      77.7      76.3       46     54.4      0.00     18.24      77.2     0.37      1013.0     1        94         2        53        9.18     262      -79.0
   05/03/2017 20:10      78.8      77.9       37     49.6      0.00     18.24      77.2     0.37      1013.0     2        63         3        66        9.18     262      -81.1
   05/03/2017 20:00      79.6      78.8       33     47.9      0.00     18.24      77.2     0.37      1012.0     2       206         4       231        9.19     262      -81.1
   05/03/2017 19:50      80.5      79.7       33     48.0      0.00     18.24      77.1     0.37      1012.0     3       223         4       242        9.19     262      -80.8
   05/03/2017 19:40      81.6      80.4       32     48.4      0.00     18.24      77.2     0.37      1012.0     3       222         4       247        9.19     262      -79.5
   05/03/2017 19:30      82.6      81.8       30     48.1      0.00     18.24      77.0     0.37      1012.0     3       229         5       254        9.20     262      -76.0
   05/03/2017 19:20      84.2      82.9       29     47.9      0.00     18.24      77.0     0.37      1012.0     3       244         5       252        9.20     262      -74.4
   05/03/2017 19:10      85.2      84.6       29     48.9      0.00     18.24      76.9     0.37      1012.0     3       276         4       263        9.21     262      -56.5
   05/03/2017 19:00      85.3      85.0       28     48.8      0.00     18.24      77.0     0.36      1012.0     3       305         6       310        9.21     262      -38.0
   05/03/2017 18:50      86.3      85.3       28     48.9      0.00     18.24      76.9     0.36      1012.0     4       306         6       306        9.21     262      -18.9
   05/03/2017 18:40      87.1      86.3       27     49.1      0.00     18.24      76.9     0.36      1012.0     4       304         5       299        9.21     262        4.4
   05/03/2017 18:30      87.3      87.1       27     49.4      0.00     18.24      76.9     0.36      1012.0     3       291         5       286        9.21     262       28.4
   05/03/2017 18:20      87.8      87.4       27     49.7      0.00     18.24      76.8     0.36      1011.0     4       271         6       285        9.22     262       53.5
   05/03/2017 18:10      88.2      87.7       27     50.0      0.00     18.24      76.7     0.36      1012.0     5       283         8       252        9.22     262       79.6
   05/03/2017 18:00      88.2      87.8       27     50.1      0.00     18.24      76.5     0.36      1012.0     5       287         7       319        9.22     263      103.9
   05/03/2017 17:50      88.8      88.2       27     50.5      0.00     18.24      76.6     0.36      1012.0     5       307         8       319        9.22     263      128.2
   05/03/2017 17:40      88.8      88.4       28     50.9      0.00     18.24      76.5     0.36      1011.0     6       312         9       300        9.22     263      153.6
   05/03/2017 17:30      89.4      88.7       28     51.6      0.00     18.24      76.4     0.36      1011.0     5       299         9       286        9.22     263      177.7
   05/03/2017 17:20      90.2      89.5       28     52.1      0.00     18.24      76.2     0.36      1011.0     6       299         9       290        9.22     262      200.4
   05/03/2017 17:10      90.3      89.5       28     52.6      0.00     18.24      76.2     0.36      1011.0     5       287         8       263        9.22     263      223.6
   05/03/2017 17:00      90.7      89.4       29     53.9      0.00     18.24      76.2     0.36      1011.0     6       240        11       223        9.22     263      246.8
   05/03/2017 16:50      91.4      90.3       30     54.6      0.00     18.24      76.3     0.36      1011.0     5       232         6       250        9.23     263      268.5
   05/03/2017 16:40      91.5      90.8       29     54.6      0.00     18.24      76.0     0.36      1011.0     6       244         7       241        9.23     263      288.8
   05/03/2017 16:30      91.9      91.2       28     53.8      0.00     18.24      76.0     0.36      1011.0     6       286         8       248        9.23     263      309.1
   05/03/2017 16:20      92.0      91.3       28     54.4      0.00     18.24      75.9     0.36      1011.0     6       296         8       297        9.23     263      329.1
   05/03/2017 16:10      92.5      91.8       29     55.4      0.00     18.24      76.0     0.36      1011.0     6       296         9       327        9.23     263      347.8
   05/03/2017 16:00      94.3      91.6       30     56.3      0.00     18.24      75.8     0.36      1011.0     6       275         8       302        9.23     263      364.6
   05/03/2017 15:50      94.7      93.8       27     55.4      0.00     18.24      75.7     0.36      1011.0     3       276         6       248        9.24     263      379.6
   05/03/2017 15:40      94.8      94.1       25     53.5      0.00     18.24      75.6     0.36      1011.0     2        75         3       345        9.24     263      391.6
   05/03/2017 15:30      94.7      93.8       25     52.8      0.00     18.24      75.6     0.36      1011.0     3        90         6        76        9.24     263      410.4
   05/03/2017 15:20      94.2      93.6       26     53.3      0.00     18.24      75.4     0.36      1012.0     3        66         5        82        9.24     263      429.9
   05/03/2017 15:10      94.1      93.1       26     54.0      0.00     18.24      75.5     0.36      1012.0     3        35         5        32        9.25     263      445.5
   05/03/2017 15:00      93.7      92.1       27     54.4      0.00     18.24      75.4     0.36      1012.0     3        38         5        65        9.25     263      457.8
   05/03/2017 14:50      93.2      92.5       28     55.0      0.00     18.24      75.2     0.36      1012.0     3        49         5        72        9.25     263      474.5
   05/03/2017 14:40      93.0      91.7       29     55.7      0.00     18.24      75.2     0.36      1012.0     4        80         9        78        9.25     263      487.3
   05/03/2017 14:30      92.1      91.1       30     55.5      0.00     18.24      75.0     0.36      1012.0     3        69         7        72        9.26     263      498.3
   05/03/2017 14:20      92.2      91.8       29     55.3      0.00     18.24      75.1     0.36      1012.0     3        29         6         3        9.26     263      509.0
   05/03/2017 14:10      92.3      91.8       29     55.5      0.00     18.24      75.0     0.36      1012.0     4        14         5       353        9.26     263      516.0
   05/03/2017 14:00      91.9      90.3       27     52.9      0.00     18.24      74.9     0.36      1012.0     3       350         5       343        9.26     264      528.3
   05/03/2017 13:50      90.7      89.7       28     52.9      0.00     18.24      74.8     0.36      1013.0     4       320         7       359        9.26     264      535.0
   05/03/2017 13:40      90.1      89.0       28     52.3      0.00     18.24      74.7     0.35      1013.0     4       331         5       312        9.27     264      540.3
   05/03/2017 13:30      89.6      88.8       28     52.4      0.00     18.24      74.7     0.36      1013.0     3       337         4         3        9.27     264      542.5
   05/03/2017 13:20      88.7      87.9       29     52.2      0.00     18.24      74.7     0.35      1013.0     3       359         4       359        9.27     264      551.9
   05/03/2017 13:10      88.5      87.2       30     52.4      0.00     18.24      74.6     0.35      1013.0     4       349         6       349        9.27     264      559.3
   05/03/2017 13:00      88.4      87.3       30     52.5      0.00     18.24      74.5     0.36      1013.0     4       344         7       323        9.27     264      564.1
   05/03/2017 12:50      87.8      87.4       31     53.0      0.00     18.24      74.6     0.36      1013.0     3        20         4         6        9.27     264      566.3
   05/03/2017 12:40      87.5      85.4       31     52.7      0.00     18.24      74.7     0.36      1013.0     3         3         5       320        9.28     264      561.6
   05/03/2017 12:30      85.4      84.5       32     51.8      0.00     18.24      74.6     0.36      1013.0     3       340         5       354        9.28     264      564.2
   05/03/2017 12:20      85.4      84.5       32     52.0      0.00     18.24      74.5     0.36      1013.0     3        39         5       124        9.28     264      575.6
   05/03/2017 12:10      84.1      82.9       34     52.1      0.00     18.24      74.5     0.36      1013.0     2       344         4       257        9.29     264      562.8
   05/03/2017 12:00      83.4      82.7       34     51.5      0.00     18.24      74.5     0.36      1014.0     3       332         4       272        9.30     264      539.2
   05/03/2017 11:50      83.8      82.1       34     51.7      0.00     18.24      74.4     0.36      1014.0     2        15         4        31        9.31     264      524.9
   05/03/2017 11:40      81.9      81.4       35     51.3      0.00     18.24      74.4     0.36      1014.0     2       102         4       148        9.32     264      487.8
   05/03/2017 11:30      81.7      80.4       36     51.3      0.00     18.24      74.5     0.36      1014.0     2        25         3       341        9.33     264      462.3
   05/03/2017 11:20      80.9      79.2       37     51.4      0.00     18.24      74.6     0.36      1014.0     2        24         3       356        9.33     264      499.0
   05/03/2017 11:10      79.0      78.1       39     51.6      0.00     18.24      74.2     0.36      1014.0     2       343         3       330        9.33     265      513.0
   05/03/2017 11:00      78.4      77.6       41     52.2      0.00     18.24      74.4     0.36      1014.0     2       353         4       355        8.73     265      489.5
   05/03/2017 10:50      77.9      76.7       42     52.7      0.00     18.24      74.5     0.36      1014.0     2        15         4        16        8.73     265      472.1
   05/03/2017 10:40      76.6      76.2       44     53.0      0.00     18.24      74.4     0.36      1014.0     3        15         4       349        8.73     265      477.0
   05/03/2017 10:30      76.0      74.5       47     53.2      0.00     18.24      74.7     0.36      1014.0     2       351         3       348        8.73     265      484.2
   05/03/2017 10:20      74.5      73.3       48     52.9      0.00     18.24      74.8     0.36      1014.0     3       349         5       343        8.73     266      466.4
   05/03/2017 10:10      73.5      72.4       49     52.8      0.00     18.24      74.7     0.36      1014.0     3       332         4       316        8.73     266      451.2
   05/03/2017 10:00      72.2      71.8       51     52.9      0.00     18.24      74.8     0.36      1014.0     2       352         4        22        8.73     266      432.0
   05/03/2017 09:50      71.9      71.0       52     53.0      0.00     18.24      74.7     0.36      1014.0     2        64         4        29        8.73     266      411.5
   05/03/2017 09:40      70.7      70.0       54     53.2      0.00     18.24      74.7     0.36      1015.0     3       351         5         1        8.73     266      397.2
   05/03/2017 09:30      70.2      69.2       56     53.0      0.00     18.24      74.9     0.36      1015.0     2        13         4       349        8.73     266      371.8
   05/03/2017 09:20      69.5      69.1       56     53.2      0.00     18.24      74.8     0.36      1015.0     2        18         4        23        8.73     266      348.1
   05/03/2017 09:10      69.3      67.8       57     52.8      0.00     18.24      74.6     0.36      1015.0     2        59         3        52        8.73     266      324.2
   05/03/2017 09:00      68.3      66.9       57     52.0      0.00     18.24      75.0     0.36      1015.0     2         8         3         3        8.73     266      304.4
   05/03/2017 08:50      66.8      66.6       60     52.2      0.00     18.24      74.7     0.36      1015.0     2        15         3         1        8.73     266      311.3
   05/03/2017 08:40      66.6      65.7       60     51.9      0.00     18.24      75.0     0.37      1015.0     2        56         4        78        8.73     266      298.4
   05/03/2017 08:30      65.4      64.8       62     51.7      0.00     18.24      74.8     0.37      1015.0     2        68         3        84        8.73     266       92.8
   05/03/2017 08:20      64.8      64.3       62     51.3      0.00     18.24      74.9     0.37      1015.0     3        78         5        74        8.74     265        9.3
   05/03/2017 08:10      64.4      63.8       62     50.8      0.00     18.24      75.1     0.37      1015.0     2        64         3       358        8.74     266       -7.0
   05/03/2017 08:00      63.9      63.1       62     50.4      0.00     18.24      75.1     0.37      1015.0     1        66         2       111        8.73     265        7.2
   05/03/2017 07:50      63.1      62.2       63     50.0      0.00     18.24      75.3     0.37      1015.0     2        84         4        89        8.74     266       44.2
   05/03/2017 07:40      62.5      61.5       63     49.1      0.00     18.24      75.1     0.37      1015.0     2        70         3       102        8.74     265       11.7
   05/03/2017 07:30      61.5      60.4       63     48.3      0.00     18.24      75.1     0.37      1014.0     1        79         1       329        8.74     265       -7.4
   05/03/2017 07:20      60.4      59.0       65     48.0      0.00     18.24      75.4     0.37      1014.0     1       122         1       125        8.74     265       -9.6
   05/03/2017 07:10      59.0      57.7       72     49.3      0.00     18.24      75.5     0.37      1014.0     1       129         1       159        8.74     265      -11.0
   05/03/2017 07:00      57.8      57.0       73     48.8      0.00     18.24      75.4     0.37      1014.0     1       133         1       142        8.74     265      -17.0
   05/03/2017 06:50      57.0      56.5       74     48.6      0.00     18.24      75.2     0.37      1014.0     1       129         1       118        8.74     265      -24.4
   05/03/2017 06:40      56.5      55.7       75     48.5      0.00     18.24      75.2     0.37      1014.0     1       151         1       123        8.74     265      -32.0
   05/03/2017 06:30      56.0      55.6       76     48.2      0.00     18.24      75.3     0.37      1014.0     1       130         1       127        8.74     265      -38.0
   05/03/2017 06:20      55.7      55.4       76     48.0      0.00     18.24      75.4     0.37      1014.0     1       131         1       128        8.74     265      -43.8
   05/03/2017 06:10      55.7      55.4       76     48.1      0.00     18.24      75.3     0.37      1014.0     1       162         2       139        8.74     265      -48.7
   05/03/2017 06:00      55.9      55.4       76     48.3      0.00     18.24      75.5     0.37      1014.0     1       195         2       248        8.74     265      -51.0
   05/03/2017 05:50      55.3      55.1       76     47.8      0.00     18.24      75.3     0.37      1014.0     2       154         2       140        8.74     265      -52.3
   05/03/2017 05:40      56.3      55.5       73     47.5      0.00     18.24      75.7     0.37      1014.0     2       139         3       143        8.74     265      -52.6
   05/03/2017 05:30      56.5      56.0       71     47.2      0.00     18.24      75.6     0.37      1014.0     1       187         2       145        8.74     265      -52.0
   05/03/2017 05:20      56.5      55.9       71     46.7      0.00     18.24      75.5     0.37      1014.0     1       198         1       136        8.74     265      -52.7
   05/03/2017 05:10      56.0      55.9       71     46.6      0.00     18.24      75.5     0.37      1014.0     1       169         3       148        8.74     265      -52.8
   05/03/2017 05:00      56.4      56.0       69     46.3      0.00     18.24      75.7     0.37      1014.0     1       168         2       148        8.74     265      -53.4
   05/03/2017 04:50      56.5      55.9       70     46.4      0.00     18.24      75.7     0.37      1014.0     1       182         2       136        8.74     264      -53.6
   05/03/2017 04:40      56.5      55.9       70     46.4      0.00     18.24      75.8     0.37      1014.0     1       162         2       164        8.74     265      -53.8
   05/03/2017 04:30      57.3      56.6       67     46.1      0.00     18.24      75.7     0.37      1014.0     1       152         2       143        8.74     265      -53.2
   05/03/2017 04:20      57.4      57.0       66     46.0      0.00     18.24      75.9     0.37      1014.0     1       193         1       166        8.74     265      -52.8
   05/03/2017 04:10      57.0      56.3       67     45.9      0.00     18.24      75.8     0.37      1014.0     1       179         1       143        8.74     265      -53.0
   05/03/2017 04:00      56.8      56.3       68     45.8      0.00     18.24      75.8     0.37      1014.0     2       135         2       133        8.75     265      -53.1
   05/03/2017 03:50      57.0      56.8       66     45.6      0.00     18.24      75.8     0.37      1014.0     2       142         2       141        8.75     265      -53.7
   05/03/2017 03:40      57.4      56.8       65     45.6      0.00     18.24      75.9     0.37      1014.0     1       120         2       129        8.75     264      -54.4
   05/03/2017 03:30      58.1      57.6       63     45.5      0.00     18.24      76.0     0.37      1014.0     2       135         2       139        8.75     264      -54.1
   05/03/2017 03:20      58.8      58.1       62     45.4      0.00     18.24      76.1     0.37      1014.0     1       151         2       132        8.75     264      -54.4
   05/03/2017 03:10      58.8      58.6       61     45.4      0.00     18.24      76.0     0.37      1013.0     1       152         2       178        8.75     264      -54.8
   05/03/2017 03:00      58.8      58.3       60     44.8      0.00     18.24      76.3     0.37      1014.0     1       179         1       191        8.75     264      -54.8
   05/03/2017 02:50      58.5      58.2       62     45.5      0.00     18.24      76.0     0.37      1014.0     1       152         2       146        8.75     264      -55.2
   05/03/2017 02:40      58.9      58.3       61     45.3      0.00     18.24      76.2     0.37      1014.0     2       133         2       144        8.75     264      -56.4
   05/03/2017 02:30      59.4      59.0       58     44.4      0.00     18.24      76.4     0.37      1013.0     1       154         2       195        8.75     264      -56.5
   05/03/2017 02:20      60.2      59.6       56     44.4      0.00     18.24      76.2     0.37      1013.0     1       227         2       176        8.75     264      -55.6
   05/03/2017 02:10      60.0      59.6       58     45.0      0.00     18.24      76.3     0.37      1014.0     1       145         1       135        8.75     264      -56.5
   05/03/2017 02:00      60.5      59.9       58     45.6      0.00     18.24      76.3     0.37      1014.0     1       126         2       124        8.75     264      -57.1
   05/03/2017 01:50      60.5      60.3       59     45.9      0.00     18.24      76.0     0.37      1014.0     1       119         2       123        8.75     264      -57.4
   05/03/2017 01:40      61.4      60.3       59     46.4      0.00     18.24      76.3     0.37      1014.0     1       108         2       119        8.75     264      -58.5
   05/03/2017 01:30      61.5      61.4       57     46.2      0.00     18.24      76.2     0.37      1014.0     1       128         2       124        8.76     264      -58.6
   05/03/2017 01:20      62.0      61.7       58     46.7      0.00     18.24      76.4     0.37      1014.0     1        95         2        96        8.75     264      -58.6
   05/03/2017 01:10      62.5      62.0       57     46.8      0.00     18.24      76.4     0.37      1014.0     1       119         2       124        8.76     264      -59.4
   05/03/2017 01:00      63.1      62.6       56     47.0      0.00     18.24      76.5     0.37      1014.0     1       110         2        79        8.76     264      -60.2
   05/03/2017 00:50      63.4      63.2       57     47.8      0.00     18.24      76.5     0.37      1014.0     2        94         2       107        8.76     264      -60.9
   05/03/2017 00:40      63.8      63.4       60     49.4      0.00     18.24      76.5     0.37      1014.0     2        64         3        66        8.76     264      -60.4
   05/03/2017 00:30      63.8      63.7       61     50.0      0.00     18.24      76.5     0.37      1014.0     1        58         2        74        8.76     264      -60.1
   05/03/2017 00:20      64.2      63.9       61     50.3      0.00     18.24      76.4     0.37      1014.0     1        86         2       102        8.76     264      -59.9
   05/03/2017 00:10      64.6      64.3       60     50.4      0.00     18.24      76.5     0.37      1014.0     1        86         2        69        8.76     264      -60.0
   05/03/2017 00:00      64.9      64.3       60     50.5      0.00     18.24      76.6     0.37      1014.0     1        82         3       100        8.76     264      -60.3
   05/02/2017 23:50      65.8      65.0       59     50.7      0.00     18.24      76.5     0.37      1014.0     1        93         2       139        8.77     264      -61.4
   05/02/2017 23:40      66.3      66.0       58     50.8      0.00     18.24      76.4     0.37      1013.0     2        90         3        84        8.77     264      -63.3
   05/02/2017 23:30      66.4      66.2       57     50.5      0.00     18.24      76.5     0.37      1013.0     2        60         4        83        8.77     264      -63.2
   05/02/2017 23:20      67.2      66.5       55     50.1      0.00     18.24      76.5     0.37      1013.0     2        61         4        64        8.77     264      -62.5
   05/02/2017 23:10      67.3      67.1       54     49.9      0.00     18.24      76.4     0.37      1013.0     2        47         3        29        8.77     264      -62.9
   05/02/2017 23:00      67.6      67.3       51     48.7      0.00     18.24      76.5     0.37      1013.0     2        36         3        34        8.77     264      -62.8
   05/02/2017 22:50      67.8      67.6       49     48.0      0.00     18.24      76.6     0.37      1013.0     1        51         2       127        8.77     264      -63.4
   05/02/2017 22:40      68.2      68.1       48     47.6      0.00     18.24      76.5     0.37      1013.0     2       112         3       119        8.78     263      -64.5
   05/02/2017 22:30      68.8      68.3       46     47.1      0.00     18.24      76.7     0.37      1013.0     2        58         4        64        8.78     263      -64.0
   05/02/2017 22:20      69.2      68.7       45     46.7      0.00     18.24      76.6     0.37      1013.0     1        75         2        40        8.78     263      -63.7
   05/02/2017 22:10      69.6      69.1       44     46.7      0.00     18.24      76.6     0.37      1013.0     1        91         2        66        8.78     263      -65.2
   05/02/2017 22:00      70.1      69.7       44     47.1      0.00     18.24      76.4     0.37      1013.0     1        42         1        43        8.78     263      -65.5
   05/02/2017 21:50      70.3      69.8       45     47.5      0.00     18.24      76.6     0.37      1013.0     1        59         2        25        8.79     263      -65.2
   05/02/2017 21:40      71.4      70.2       40     45.7      0.00     18.24      76.4     0.37      1013.0     1        30         3        37        8.79     263      -66.6
   05/02/2017 21:30      71.3      70.9       40     45.6      0.00     18.24      76.5     0.37      1013.0     2       221         2       221        8.80     263      -65.2
   05/02/2017 21:20      71.6      71.3       40     45.9      0.00     18.24      76.6     0.37      1012.0     1       178         2       153        8.80     263      -67.1
   05/02/2017 21:10      72.7      71.8       39     45.6      0.00     18.24      76.5     0.37      1012.0     0        78         1        43        8.81     262      -68.7
   05/02/2017 21:00      74.2      73.1       36     45.1      0.00     18.24      76.6     0.37      1012.0     1       110         2        63        8.81     262      -71.0
   05/02/2017 20:50      75.0      74.3       35     45.0      0.00     18.24      76.5     0.37      1012.0     2       198         3       216        8.81     262      -73.1
   05/02/2017 20:40      75.3      75.0       34     44.9      0.00     18.24      76.4     0.37      1012.0     2       204         3       206        8.82     262      -74.9
   05/02/2017 20:30      76.0      75.3       33     44.6      0.00     18.24      76.5     0.37      1012.0     2       208         3       210        8.82     262      -76.4
   05/02/2017 20:20      77.3      76.4       32     45.1      0.00     18.24      76.4     0.37      1012.0     2       232         3       241        8.83     262      -79.6
   05/02/2017 20:10      77.8      77.5       31     45.0      0.00     18.24      76.3     0.37      1011.0     2       316         2       245        8.83     262      -85.2
   05/02/2017 20:00      78.2      77.7       30     44.4      0.00     18.24      76.4     0.37      1011.0     4       229         5       231        8.84     262      -87.2
   05/02/2017 19:50      79.7      78.3       29     44.1      0.00     18.24      76.4     0.37      1011.0     4       228         5       223        8.85     262      -87.9
   05/02/2017 19:40      80.7      79.8       27     43.5      0.00     18.24      76.2     0.37      1011.0     5       262         6       255        8.85     262      -86.9
   05/02/2017 19:30      82.0      80.9       26     43.2      0.00     18.24      76.2     0.37      1011.0     3       279         5       275        8.86     262      -84.6
   05/02/2017 19:20      83.2      82.0       25     43.4      0.00     18.24      76.2     0.37      1011.0     3       286         5       278        8.86     262      -80.9
   05/02/2017 19:10      84.6      83.4       24     43.6      0.00     18.24      76.1     0.37      1011.0     3       280         6       268        8.86     262      -65.1
   05/02/2017 19:00      84.8      84.4       24     43.6      0.00     18.24      76.0     0.37      1011.0     4       291         5       294        8.87     261      -42.5
   05/02/2017 18:50      85.3      84.8       23     43.5      0.00     18.24      76.1     0.37      1011.0     4       289         6       304        8.87     262      -22.6
   05/02/2017 18:40      86.0      85.5       23     43.3      0.00     18.24      76.0     0.37      1011.0     4       271         7       259        8.88     262        0.5
   05/02/2017 18:30      86.0      85.8       23     43.5      0.00     18.24      76.0     0.37      1011.0     4       281         5       309        8.88     262       24.1
   05/02/2017 18:20      86.1      85.7       23     43.3      0.00     18.24      76.0     0.37      1010.0     4       304         7       314        8.88     262       49.2
   05/02/2017 18:10      86.5      86.2       23     43.8      0.00     18.24      75.8     0.36      1010.0     4       304         7       296        8.88     261       74.4
   05/02/2017 18:00      86.7      85.9       23     44.0      0.00     18.24      75.7     0.36      1010.0     5       290         7       317        8.89     262      100.0
   05/02/2017 17:50      86.8      86.3       23     44.3      0.00     18.24      75.6     0.36      1010.0     4       301         6       300        8.89     262      124.5
   05/02/2017 17:40      87.1      86.6       23     44.5      0.00     18.24      75.8     0.36      1010.0     6       305         8       302        8.89     262      149.5
   05/02/2017 17:30      87.5      86.6       23     44.4      0.00     18.24      75.5     0.36      1010.0     6       296         9       304        8.90     262      174.3
   05/02/2017 17:20      87.0      86.6       23     44.3      0.00     18.24      75.5     0.36      1010.0     5       293         8       317        8.90     262      198.7
   05/02/2017 17:10      87.3      86.8       22     44.1      0.00     18.24      75.5     0.36      1010.0     7       309         8       335        8.90     262      221.5
   05/02/2017 17:00      87.9      86.6       22     44.3      0.00     18.24      75.3     0.36      1010.0     7       302        12       314        8.90     262      244.8
   05/02/2017 16:50      89.0      88.0       23     45.4      0.00     18.24      75.2     0.36      1010.0     5       282         8       274        8.90     262      266.6
   05/02/2017 16:40      88.9      88.3       23     45.6      0.00     18.24      75.2     0.36      1010.0     7       300         9       282        8.90     262      288.7
   05/02/2017 16:30      88.9      88.2       23     45.5      0.00     18.24      75.1     0.36      1010.0     6       293         9       271        8.90     262      308.3
   05/02/2017 16:20      89.6      88.8       23     46.1      0.00     18.24      75.2     0.36      1010.0     6       296        10       304        8.90     262      328.7
   05/02/2017 16:10      90.4      89.5       23     46.9      0.00     18.24      74.9     0.36      1010.0     5       291         9       320        8.90     262      346.7
   05/02/2017 16:00      90.5      89.8       23     47.4      0.00     18.24      74.7     0.36      1010.0     5       297         8       323        8.91     262      365.5
   05/02/2017 15:50      91.1      89.9       23     47.4      0.00     18.24      74.7     0.36      1010.0     6       291         8       278        8.91     262      384.9
   05/02/2017 15:40      92.6      91.0       22     48.0      0.00     18.24      74.6     0.36      1010.0     5       258         6       269        8.91     262      397.8
   05/02/2017 15:30      93.0      91.9       21     46.3      0.00     18.24      74.5     0.36      1011.0     3       212         4       251        8.91     262      412.2
   05/02/2017 15:20      92.2      90.5       19     43.8      0.00     18.24      74.5     0.36      1011.0     3        79         6        70        8.91     262      431.3
   05/02/2017 15:10      90.9      90.1       21     44.7      0.00     18.24      74.3     0.36      1011.0     4       195         7       230        8.91     262      450.2
   05/02/2017 15:00      90.8      89.6       21     44.3      0.00     18.24      74.4     0.36      1011.0     4       180         7       163        8.91     262      465.7
   05/02/2017 14:50      90.9      89.7       21     44.9      0.00     18.24      74.3     0.36      1011.0     5       195         7       132        8.91     262      480.0
   05/02/2017 14:40      90.7      89.6       20     43.9      0.00     18.24      74.1     0.36      1011.0     3       138         5       124        8.91     262      493.4
   05/02/2017 14:30      90.8      89.8       20     44.2      0.00     18.24      74.1     0.36      1011.0     4       109         9       131        8.91     262      503.2
   05/02/2017 14:20      90.7      89.8       21     44.7      0.00     18.24      74.1     0.36      1011.0     3       116         4       112        8.92     262      511.9
   05/02/2017 14:10      91.2      89.7       21     45.1      0.00     18.24      74.0     0.36      1011.0     4       178         6       224        8.92     262      522.5
   05/02/2017 14:00      91.6      90.3       20     44.5      0.00     18.24      73.9     0.36      1011.0     3        37         4        60        8.92     262      531.0
   05/02/2017 13:50      90.8      90.0       21     45.5      0.00     18.24      73.8     0.36      1011.0     3        54         6       116        8.92     263      542.4
   05/02/2017 13:40      90.9      89.8       23     47.7      0.00     18.24      73.8     0.36      1011.0     3        68         6        73        8.92     263      560.7
   05/02/2017 13:30      91.4      90.4       24     48.9      0.00     18.24      73.6     0.36      1011.0     3        38         4        12        8.92     263      582.1
   05/02/2017 13:20      90.4      88.9       24     48.8      0.00     18.24      73.6     0.36      1011.0     3        43         6        58        8.92     264      602.4
   05/02/2017 13:10      89.4      88.8       25     48.3      0.00     18.24      73.5     0.36      1011.0     4        41         6        80        8.92     264      373.2
   05/02/2017 13:00      89.4      88.8       24     47.2      0.00     18.24      73.6     0.36      1012.0     3        11         6        19        8.92     263      473.4
   05/02/2017 12:50      89.1      87.6       23     45.3      0.00     18.24      73.5     0.36      1012.0     3       338         6       339        8.92     263      408.6
   05/02/2017 12:40      88.4      87.4       21     43.6      0.00     18.24      73.4     0.36      1012.0     4       292         6       343        8.92     263      431.6
   05/02/2017 12:30      88.8      87.1       21     43.6      0.00     18.24      73.3     0.36      1012.0     3       323         5       313        8.92     263      601.2
   05/02/2017 12:20      87.6      87.3       21     43.2      0.00     18.24      73.4     0.36      1012.0     3        19         4         4        8.93     263      581.1
   05/02/2017 12:10      87.7      86.6       21     42.9      0.00     18.24      73.3     0.36      1012.0     2        35         5        23        8.92     263      567.6
   05/02/2017 12:00      86.6      85.4       22     42.5      0.00     18.24      73.2     0.36      1012.0     2        35         3        91        8.92     264      554.4
   05/02/2017 11:50      85.5      84.6       22     42.5      0.00     18.24      73.4     0.36      1012.0     3        36         4        34        8.92     264      551.2
   05/02/2017 11:40      84.3      83.9       23     42.1      0.00     18.24      73.3     0.36      1012.0     2        22         4       336        8.92     263      546.7
   05/02/2017 11:30      84.6      83.7       23     42.3      0.00     18.24      73.4     0.36      1012.0     3        42         4        32        8.92     264      538.5
   05/02/2017 11:20      83.6      82.3       23     41.8      0.00     18.24      73.3     0.36      1012.0     3       328         4       359        8.93     264      529.8
   05/02/2017 11:10      82.7      82.1       24     41.4      0.00     18.24      73.4     0.36      1013.0     2        74         4       163        8.93     264      522.2
   05/02/2017 11:00      82.6      81.2       24     41.3      0.00     18.24      73.3     0.36      1013.0     2        22         4       111        8.93     264      510.1
   05/02/2017 10:50      81.8      80.3       25     41.4      0.00     18.24      73.3     0.36      1013.0     2         4         4        14        8.93     264      498.8
   05/02/2017 10:40      80.4      79.9       25     41.4      0.00     18.24      73.3     0.36      1013.0     3       355         4       352        8.93     264      486.5
   05/02/2017 10:30      81.0      79.9       24     40.9      0.00     18.24      73.3     0.36      1013.0     2        49         4        64        8.93     264      473.4
   05/02/2017 10:20      80.0      78.0       26     41.1      0.00     18.24      73.5     0.36      1013.0     2        16         3        29        8.93     264      460.6
   05/02/2017 10:10      78.5      77.5       27     40.9      0.00     18.24      73.4     0.36      1013.0     2        38         3        41        8.93     265      447.0
   05/02/2017 10:00      78.3      77.6       27     41.6      0.00     18.24      73.5     0.36      1013.0     2       357         4       346        8.93     265      430.4
   05/02/2017 09:50      77.8      76.7       27     40.6      0.00     18.24      73.5     0.36      1013.0     2       113         4        81        8.93     264      414.2
   05/02/2017 09:40      76.5      75.3       28     40.3      0.00     18.24      73.5     0.36      1013.0     2        21         3        78        8.93     264      397.9
   05/02/2017 09:30      75.7      75.3       28     40.1      0.00     18.24      73.5     0.36      1013.0     2       352         3       356        8.93     264      379.9
   05/02/2017 09:20      75.4      74.3       27     39.1      0.00     18.24      73.5     0.36      1013.0     2        51         2       115        8.93     265      361.5
   05/02/2017 09:10      74.7      74.2       29     40.3      0.00     18.24      73.5     0.36      1013.0     2        47         2       325        8.93     265      343.8
   05/02/2017 09:00      74.3      72.0       33     42.2      0.00     18.24      73.5     0.36      1013.0     1        81         2        88        8.93     265      327.4
   05/02/2017 08:50      71.7      70.3       35     42.3      0.00     18.24      73.6     0.37      1013.0     2       353         2        22        8.93     265      315.7
   05/02/2017 08:40      70.3      68.0       39     42.8      0.00     18.24      73.7     0.37      1013.0     1         4         2       351        8.93     265      314.3
   05/02/2017 08:30      68.0      67.0       44     44.9      0.00     18.24      73.8     0.37      1013.0     2        36         2       347        8.93     265       72.4
   05/02/2017 08:20      67.0      66.0       46     44.9      0.00     18.24      73.9     0.37      1013.0     1       354         2         3        8.93     265      -26.8
   05/02/2017 08:10      66.0      65.0       44     43.1      0.00     18.24      73.8     0.37      1013.0     1       256         1       288        8.93     265      -34.2
   05/02/2017 08:00      64.9      63.6       49     44.7      0.00     18.24      74.0     0.37      1013.0     1       119         2        78        8.93     265      -16.9
   05/02/2017 07:50      63.5      61.6       54     45.5      0.00     18.24      73.7     0.37      1013.0     1       125         1       118        8.93     265       19.3
   05/02/2017 07:40      61.5      60.5       58     46.1      0.00     18.24      73.7     0.37      1013.0     1       118         2       121        8.93     265       -8.9
   05/02/2017 07:30      60.5      59.3       60     46.1      0.00     18.24      73.8     0.37      1013.0     1       140         2       143        8.93     265      -30.0
   05/02/2017 07:20      59.5      58.1       62     45.6      0.00     18.24      74.0     0.37      1013.0     1         4         1       145        8.93     266      -31.1
   05/02/2017 07:10      58.1      56.3       67     46.3      0.00     18.24      73.8     0.37      1013.0     1       336         2       320        8.93     266      -31.7
   05/02/2017 07:00      56.1      55.3       69     45.8      0.00     18.24      73.8     0.37      1013.0     1        29         1        13        8.93     265      -33.3
   05/02/2017 06:50      55.3      54.9       70     45.4      0.00     18.24      74.3     0.37      1013.0     1        80         2       121        8.93     265      -35.7
   05/02/2017 06:40      54.8      54.0       71     45.2      0.00     18.24      74.1     0.37      1013.0     1       341         1       350        8.93     265      -39.9
   05/02/2017 06:30      54.2      53.4       73     45.2      0.00     18.24      74.0     0.37      1013.0     1       241         3       170        8.93     265      -42.9
   05/02/2017 06:20      54.4      53.8       72     45.2      0.00     18.24      74.1     0.37      1012.0     2       164         3       166        8.93     265      -47.2
   05/02/2017 06:10      54.0      53.5       72     44.9      0.00     18.24      74.1     0.37      1012.0     1       133         1        77        8.93     265      -52.0
   05/02/2017 06:00      54.3      54.0       72     45.1      0.00     18.24      74.4     0.37      1012.0     1        23         2       346        8.93     265      -55.0
   05/02/2017 05:50      54.3      53.5       73     45.5      0.00     18.24      74.3     0.37      1012.0     0       303         1        38        8.93     265      -55.2
   05/02/2017 05:40      54.2      53.5       74     45.9      0.00     18.24      74.3     0.37      1012.0     1       166         3       140        8.93     265      -55.9
   05/02/2017 05:30      54.7      54.2       73     45.9      0.00     18.24      74.3     0.37      1012.0     1       160         2       172        8.93     265      -56.4
   05/02/2017 05:20      54.6      54.4       73     45.9      0.00     18.24      74.4     0.37      1012.0     1       158         1       167        8.93     265      -57.2
   05/02/2017 05:10      54.7      54.4       73     46.0      0.00     18.24      74.5     0.37      1012.0     1       157         1       156        8.93     265      -57.4
   05/02/2017 05:00      54.7      54.6       73     46.3      0.00     18.24      74.5     0.37      1012.0     1        94         1       124        8.93     265      -58.0
   05/02/2017 04:50      55.5      54.8       71     46.1      0.00     18.24      74.7     0.37      1012.0     1       144         2       135        8.94     265      -57.9
   05/02/2017 04:40      55.2      54.8       73     46.5      0.00     18.24      74.5     0.37      1012.0     1       160         2       130        8.94     264      -57.7
   05/02/2017 04:30      55.1      54.8       73     46.6      0.00     18.24      74.5     0.37      1012.0     2       152         3       146        8.94     264      -58.3
   05/02/2017 04:20      55.7      54.8       72     46.4      0.00     18.24      74.9     0.37      1012.0     2       171         3       146        8.94     264      -58.5
   05/02/2017 04:10      55.7      55.4       70     46.1      0.00     18.24      74.6     0.37      1012.0     1       208         1       134        8.94     264      -58.6
   05/02/2017 04:00      56.0      55.5       72     46.8      0.00     18.24      74.7     0.37      1012.0     1       150         2       142        8.94     264      -58.7
   05/02/2017 03:50      56.3      56.0       69     46.1      0.00     18.24      74.9     0.37      1012.0     1       167         2       126        8.94     264      -58.8
   05/02/2017 03:40      56.2      55.8       70     46.5      0.00     18.24      75.0     0.37      1012.0     1       152         1       154        8.94     264      -59.4
   05/02/2017 03:30      56.1      55.6       71     46.5      0.00     18.24      74.9     0.37      1012.0     1       204         2       163        8.94     264      -60.4
   05/02/2017 03:20      57.0      56.3       69     46.7      0.00     18.24      74.9     0.37      1012.0     1       160         3       164        8.94     264      -59.8
   05/02/2017 03:10      57.1      56.5       70     47.1      0.00     18.24      74.8     0.37      1012.0     1       186         1       182        8.94     264      -59.7
   05/02/2017 03:00      56.5      56.0       72     47.4      0.00     18.24      75.0     0.37      1012.0     2       151         3       144        8.94     264      -60.6
   05/02/2017 02:50      56.9      56.1       72     47.7      0.00     18.24      75.1     0.37      1012.0     2       144         3       137        8.94     264      -60.8
   05/02/2017 02:40      56.8      56.3       73     47.8      0.00     18.24      75.2     0.37      1012.0     2       189         3       166        8.94     264      -60.9
   05/02/2017 02:30      57.6      56.8       70     47.5      0.00     18.24      75.1     0.37      1012.0     2       178         4       154        8.94     264      -60.1
   05/02/2017 02:20      58.2      57.5       68     47.5      0.00     18.24      75.0     0.37      1012.0     1       146         2       152        8.94     264      -60.6
   05/02/2017 02:10      58.4      57.5       68     47.4      0.00     18.24      75.0     0.37      1012.0     1       198         2       215        8.94     264      -61.0
   05/02/2017 02:00      58.7      57.5       66     46.8      0.00     18.24      75.2     0.37      1012.0     2       166         2       132        8.94     264      -61.5
   05/02/2017 01:50      59.8      58.9       64     47.2      0.00     18.24      75.2     0.37      1013.0     1       167         2       177        8.94     264      -60.1
   05/02/2017 01:40      59.8      59.4       64     47.4      0.00     18.24      75.3     0.37      1013.0     1       185         1       170        8.94     264      -59.5
   05/02/2017 01:30      59.7      59.4       62     46.6      0.00     18.24      75.2     0.37      1013.0     1       108         1       118        8.94     264      -60.7
   05/02/2017 01:20      60.4      59.9       60     46.1      0.00     18.24      75.2     0.37      1013.0     1       104         2       103        8.94     264      -60.8
   05/02/2017 01:10      60.9      60.3       59     46.0      0.00     18.24      75.3     0.37      1013.0     1        79         1        77        8.95     263      -61.4
   05/02/2017 01:00      61.1      60.9       56     45.4      0.00     18.24      75.4     0.37      1013.0     1        93         1       116        8.95     264      -61.6
   05/02/2017 00:50      61.5      61.3       53     44.3      0.00     18.24      75.4     0.37      1013.0     1        81         1        69        8.95     263      -61.7
   05/02/2017 00:40      61.9      61.5       52     43.7      0.00     18.24      75.3     0.37      1013.0     1       119         1        90        8.95     263      -62.1
   05/02/2017 00:30      62.0      61.6       51     43.3      0.00     18.24      75.4     0.37      1013.0     1       120         2       126        8.95     263      -61.5
   05/02/2017 00:20      62.9      62.4       48     43.0      0.00     18.24      75.5     0.37      1013.0     1       142         2       131        8.95     263      -62.1
   05/02/2017 00:10      63.0      62.6       48     42.6      0.00     18.24      75.4     0.37      1013.0     1       125         2        75        8.96     263      -63.1
   05/02/2017 00:00      63.7      63.3       46     42.3      0.00     18.24      75.3     0.37      1013.0     1        96         2        74        8.96     263      -64.2
   05/01/2017 23:50      64.2      63.7       44     41.8      0.00     18.24      75.5     0.37      1013.0     2       101         3       102        8.96     263      -64.5
   05/01/2017 23:40      64.6      64.2       42     40.8      0.00     18.24      75.5     0.37      1013.0     1        49         2        29        8.96     263      -65.0
   05/01/2017 23:30      64.9      64.6       40     40.0      0.00     18.24      75.5     0.37      1012.0     1        44         2        35        8.96     263      -64.5
   05/01/2017 23:20      65.4      64.9       40     40.0      0.00     18.24      75.6     0.37      1012.0     1        18         2         5        8.96     263      -64.6
   05/01/2017 23:10      65.5      65.2       38     39.5      0.00     18.24      75.4     0.37      1012.0     0        46         1        11        8.97     263      -64.5
   05/01/2017 23:00      66.6      65.7       37     39.1      0.00     18.24      75.5     0.37      1012.0     1        57         1        52        8.97     263      -66.1
   05/01/2017 22:50      67.5      66.7       36     38.9      0.00     18.24      75.5     0.37      1012.0     1        75         3        71        8.97     263      -67.6
   05/01/2017 22:40      68.0      67.5       34     38.6      0.00     18.24      75.5     0.37      1012.0     2        98         3        71        8.97     263      -70.1
   05/01/2017 22:30      68.4      68.0       34     38.4      0.00     18.24      75.6     0.37      1012.0     2        72         3        69        8.97     262      -71.0
   05/01/2017 22:20      68.6      68.3       33     38.3      0.00     18.24      75.4     0.37      1012.0     3        88         5        86        8.97     263      -71.4
   05/01/2017 22:10      68.8      68.3       33     38.2      0.00     18.24      75.5     0.37      1012.0     2        86         3        99        8.97     263      -68.5
   05/01/2017 22:00      69.0      68.8       32     38.1      0.00     18.24      75.5     0.37      1012.0     1        85         2        81        8.98     263      -68.4
   05/01/2017 21:50      69.2      68.9       33     38.4      0.00     18.24      75.4     0.37      1012.0     2        73         3        87        8.98     263      -68.0
   05/01/2017 21:40      70.0      69.2       33     38.9      0.00     18.24      75.4     0.37      1012.0     1        72         2        96        8.98     262      -66.4
   05/01/2017 21:30      70.4      69.9       33     39.6      0.00     18.24      75.4     0.37      1012.0     0        70         1        14        8.98     262      -66.9
   05/01/2017 21:20      71.1      70.5       33     40.1      0.00     18.24      75.5     0.37      1012.0     0        77         1       210        8.98     262      -68.4
   05/01/2017 21:10      71.3      70.7       33     40.5      0.00     18.24      75.5     0.37      1012.0     1        40         1        58        8.99     262      -69.3
   05/01/2017 21:00      73.3      71.5       32     40.6      0.00     18.24      75.5     0.37      1011.0     1        55         1       303        8.99     262      -70.5
   05/01/2017 20:50      73.7      73.2       30     40.2      0.00     18.24      75.3     0.37      1011.0     1       267         1       274        8.99     262      -71.3
   05/01/2017 20:40      74.2      73.8       29     40.2      0.00     18.24      75.3     0.37      1011.0     1       202         1       220        8.99     262      -72.5
   05/01/2017 20:30      75.8      74.4       29     40.3      0.00     18.24      75.4     0.37      1011.0     1       202         1       230        8.99     262      -74.6
   05/01/2017 20:20      76.3      75.9       28     40.2      0.00     18.24      75.3     0.37      1011.0     2       222         2       216        8.99     261      -76.6
   05/01/2017 20:10      76.8      76.3       27     40.2      0.00     18.24      75.2     0.37      1011.0     2       192         3       183        8.99     261      -80.3
   05/01/2017 20:00      77.8      77.0       26     40.3      0.00     18.24      75.2     0.37      1011.0     3       212         5       209        9.00     261      -82.9
   05/01/2017 19:50      78.4      77.7       26     40.4      0.00     18.24      75.3     0.37      1011.0     4       233         5       239        9.00     261      -83.7
   05/01/2017 19:40      79.1      78.5       25     40.3      0.00     18.24      75.1     0.37      1011.0     2       235         3       228        9.00     261      -82.9
   05/01/2017 19:30      79.8      79.5       25     40.3      0.00     18.24      75.1     0.37      1011.0     2       234         3       209        9.01     261      -82.4
   05/01/2017 19:20      81.2      79.9       24     40.4      0.00     18.24      75.1     0.37      1011.0     4       233         7       250        9.01     261      -80.6
   05/01/2017 19:10      81.7      81.2       24     41.0      0.00     18.24      75.0     0.37      1011.0     4       229         6       244        9.01     261      -65.7
   05/01/2017 19:00      82.6      81.9       23     40.5      0.00     18.24      75.0     0.37      1011.0     4       215         6       237        9.01     261      -44.8
   05/01/2017 18:50      83.8      82.6       22     40.0      0.00     18.24      74.9     0.37      1011.0     4       205         6       205        9.02     261      -26.2
   05/01/2017 18:40      85.4      84.1       20     39.3      0.00     18.24      75.1     0.37      1011.0     3       229         7       251        9.02     261       -4.4
   05/01/2017 18:30      86.1      85.4       19     38.8      0.00     18.24      74.8     0.37      1011.0     3       297         6       301        9.02     261       18.3
   05/01/2017 18:20      86.2      85.9       19     38.8      0.00     18.24      74.8     0.37      1011.0     3       316         6       321        9.02     261       44.0
   05/01/2017 18:10      87.0      86.2       19     39.0      0.00     18.24      74.6     0.37      1011.0     3       308         5       241        9.02     261       69.0
   05/01/2017 18:00      86.6      86.4       18     38.7      0.00     18.24      74.8     0.37      1011.0     4       307         7       317        9.02     261       93.2
   05/01/2017 17:50      87.0      86.6       18     38.9      0.00     18.24      74.7     0.37      1011.0     5       300         8       322        9.02     261      118.2
   05/01/2017 17:40      87.6      86.7       18     39.0      0.00     18.24      74.5     0.37      1011.0     4       307         8       292        9.02     261      142.8
   05/01/2017 17:30      88.0      87.3       18     39.5      0.00     18.24      74.4     0.37      1011.0     4       287         8       269        9.02     261      167.5
   05/01/2017 17:20      88.4      88.0       19     40.2      0.00     18.24      74.4     0.36      1011.0     4       256         6       253        9.02     261      190.8
   05/01/2017 17:10      88.3      87.6       19     40.3      0.00     18.24      74.1     0.37      1011.0     4       250         6       270        9.02     261      214.1
   05/01/2017 17:00      88.1      87.6       19     40.5      0.00     18.24      74.2     0.36      1011.0     5       254         9       262        9.02     261      238.9
   05/01/2017 16:50      88.7      87.7       20     41.6      0.00     18.24      74.2     0.36      1011.0     5       250         8       238        9.02     262      262.2
   05/01/2017 16:40      88.7      87.7       20     41.6      0.00     18.24      74.0     0.36      1011.0     5       268         8       268        9.02     261      285.6
   05/01/2017 16:30      88.0      87.2       19     40.8      0.00     18.24      74.0     0.36      1011.0     6       288         9       328        9.02     261      307.6
   05/01/2017 16:20      87.7      87.4       19     40.8      0.00     18.24      74.0     0.36      1011.0     6       300         9       302        9.02     262      326.9
   05/01/2017 16:10      88.1      87.7       20     41.2      0.00     18.24      73.8     0.36      1011.0     7       317        10       323        9.02     261      346.3
   05/01/2017 16:00      88.8      88.4       20     42.2      0.00     18.24      73.7     0.36      1011.0     5       285         7       247        9.02     261      364.4
   05/01/2017 15:50      89.7      88.7       20     42.5      0.00     18.24      73.5     0.36      1011.0     5       274         8       254        9.02     262      382.6
   05/01/2017 15:40      89.6      88.3       20     43.1      0.00     18.24      73.5     0.36      1011.0     4       278         7       246        9.02     262      402.0
   05/01/2017 15:30      88.3      87.9       21     43.0      0.00     18.24      73.3     0.36      1011.0     5       256         7       281        9.02     261      418.2
   05/01/2017 15:20      88.4      87.5       21     42.9      0.00     18.24      73.3     0.36      1011.0     5       252         7       258        9.02     261      436.0
   05/01/2017 15:10      87.9      87.1       21     42.7      0.00     18.24      73.2     0.36      1012.0     4       191         6       188        9.02     262      453.9
   05/01/2017 15:00      88.6      87.8       20     42.6      0.00     18.24      73.2     0.36      1012.0     6       208         9       241        9.02     262      467.9
   05/01/2017 14:50      88.9      88.1       20     41.9      0.00     18.24      73.3     0.36      1012.0     4       178         8       181        9.02     261      478.5
   05/01/2017 14:40      89.2      88.4       19     41.1      0.00     18.24      73.0     0.36      1012.0     6       193         9       191        9.02     261      488.7
   05/01/2017 14:30      90.1      89.1       18     40.0      0.00     18.24      73.1     0.36      1012.0     4       179         6       122        9.02     262      494.8
   05/01/2017 14:20      90.8      90.1       17     39.6      0.00     18.24      72.8     0.36      1012.0     3        43         5       125        9.02     261      498.3
   05/01/2017 14:10      90.1      89.4       17     38.5      0.00     18.24      72.9     0.36      1012.0     3        21         4       309        9.02     261      513.8
   05/01/2017 14:00      89.9      88.9       17     38.2      0.00     18.24      72.7     0.36      1012.0     4       345         7       358        9.02     261      520.9
   05/01/2017 13:50      89.6      88.4       17     38.4      0.00     18.24      72.7     0.36      1012.0     4       343         6         5        9.02     262      531.2
   05/01/2017 13:40      89.1      87.7       17     37.9      0.00     18.24      72.7     0.36      1012.0     4        38         8       345        9.02     262      539.2
   05/01/2017 13:30      88.8      88.1       16     37.2      0.00     18.24      72.6     0.36      1012.0     3        27         4       351        9.02     262      543.8
   05/01/2017 13:20      88.2      87.7       16     36.5      0.00     18.24      72.6     0.36      1012.0     3        57         7        82        9.02     262      553.4
   05/01/2017 13:10      88.8      87.9       16     36.1      0.00     18.24      72.6     0.36      1012.0     3        31         5        17        9.02     262      555.1
   05/01/2017 13:00      88.3      87.4       16     35.7      0.00     18.24      72.4     0.36      1013.0     3        44         6       355        9.02     262      557.6
   05/01/2017 12:50      88.0      87.2       16     36.1      0.00     18.24      72.5     0.36      1013.0     3        28         4        12        9.02     262      559.8
   05/01/2017 12:40      87.5      87.1       16     35.4      0.00     18.24      72.4     0.36      1013.0     2        53         6        90        9.02     262      565.9
   05/01/2017 12:30      87.0      86.5       16     35.1      0.00     18.24      72.5     0.36      1013.0     2        45         4       353        9.02     262      567.6
   05/01/2017 12:20      86.8      86.0       16     35.1      0.00     18.24      72.3     0.36      1013.0     3        30         6         9        9.02     262      558.9
   05/01/2017 12:10      86.2      84.9       16     34.7      0.00     18.24      72.4     0.36      1013.0     3        53         6        62        9.02     262      558.4
   05/01/2017 12:00      85.7      84.8       16     34.9      0.00     18.24      72.3     0.36      1013.0     3        48         4        71        9.02     262      553.1
   05/01/2017 11:50      86.1      84.0       17     35.4      0.00     18.24      72.2     0.36      1014.0     3        35         4        22        9.02     262      547.8
   05/01/2017 11:40      84.5      83.5       18     35.9      0.00     18.24      72.3     0.36      1014.0     2        44         5         2        9.02     262      542.4
   05/01/2017 11:30      83.6      82.2       19     35.7      0.00     18.24      72.3     0.36      1014.0     3         3         4       342        9.02     263      535.4
   05/01/2017 11:20      82.5      81.4       18     34.9      0.00     18.24      72.4     0.36      1014.0     2        10         3        15        9.02     263      529.4
   05/01/2017 11:10      81.9      81.1       18     33.8      0.00     18.24      72.4     0.36      1014.0     3       119         5        69        9.02     263      521.5
   05/01/2017 11:00      81.0      80.5       18     33.5      0.00     18.24      72.3     0.36      1014.0     2       352         4        27        9.02     263      509.5
   05/01/2017 10:50      80.9      79.6       18     32.6      0.00     18.24      72.3     0.36      1014.0     2        22         5         5        9.02     263      499.0
   05/01/2017 10:40      79.7      78.7       19     33.4      0.00     18.24      72.3     0.36      1014.0     3       354         4        23        9.02     263      487.6
   05/01/2017 10:30      78.6      78.0       20     34.0      0.00     18.24      72.4     0.36      1014.0     2       134         4       136        9.02     263      474.1
   05/01/2017 10:20      78.6      78.2       22     35.9      0.00     18.24      72.4     0.36      1014.0     2       341         4        23        9.02     264      459.0
   05/01/2017 10:10      78.4      77.8       22     36.7      0.00     18.24      72.4     0.36      1014.0     1        32         2        28        9.01     264      443.7
   05/01/2017 10:00      77.9      76.3       24     37.3      0.00     18.24      72.5     0.36      1014.0     1       296         3       351        9.01     264      427.8
   05/01/2017 09:50      76.3      74.5       25     36.9      0.00     18.24      72.4     0.36      1014.0     2        37         3        58        9.01     264      413.1
   05/01/2017 09:40      74.5      73.9       25     36.4      0.00     18.24      72.5     0.36      1015.0     2       345         3       350        9.01     264      395.2
   05/01/2017 09:30      74.0      72.1       26     36.0      0.00     18.24      72.6     0.36      1015.0     2         3         4         0        9.01     264      377.2
   05/01/2017 09:20      72.1      71.7       28     36.7      0.00     18.24      72.5     0.36      1015.0     3       353         3       330        9.01     264      360.0
   05/01/2017 09:10      72.3      71.8       27     36.8      0.00     18.24      72.6     0.36      1015.0     2       349         2       358        9.00     264      342.6
   05/01/2017 09:00      71.8      70.2       28     36.6      0.00     18.24      72.7     0.37      1015.0     2        89         2        24        9.00     264      326.1
   05/01/2017 08:50      70.6      69.2       30     37.5      0.00     18.24      72.8     0.37      1015.0     2        37         3         6        9.00     264      312.8
   05/01/2017 08:40      68.8      66.6       32     36.9      0.00     18.24      72.7     0.37      1015.0     1         5         2        85        8.99     264      308.9
   05/01/2017 08:30      66.5      65.3       35     37.5      0.00     18.24      72.7     0.37      1015.0     1       207         2       228        8.94     265       55.8
   05/01/2017 08:20      65.2      64.3       38     38.8      0.00     18.24      72.8     0.37      1015.0     2       353         4        23        7.75     264      -34.4
   05/01/2017 08:10      64.4      63.6       39     38.5      0.00     18.24      72.8     0.37      1015.0     2         1         2         6        7.75     265      -37.9
   05/01/2017 08:00      63.6      62.3       42     39.5      0.00     18.24      72.9     0.37      1015.0     1       348         2       319        7.75     264      -19.8
   05/01/2017 07:50      62.2      60.5       44     39.0      0.00     18.24      72.9     0.37      1015.0     0       274         1       251        7.75     264       36.2
   05/01/2017 07:40      60.5      59.5       47     40.0      0.00     18.24      73.1     0.37      1015.0     0       103         1        47        7.75     265        0.7
   05/01/2017 07:30      59.5      57.6       50     40.2      0.00     18.24      73.1     0.37      1015.0     1       337         2       321        7.75     264      -27.2
   05/01/2017 07:20      57.4      55.8       56     40.9      0.00     18.24      73.0     0.37      1015.0     1       337         1       321        7.75     264      -29.4
   05/01/2017 07:10      55.8      54.6       57     40.2      0.00     18.24      73.0     0.37      1015.0     1        98         1       128        7.75     264      -30.3
   05/01/2017 07:00      54.7      53.5       60     40.3      0.00     18.24      73.1     0.37      1015.0     0       238         1       321        7.75     264      -30.3
   05/01/2017 06:50      53.6      52.5       63     40.5      0.00     18.24      73.3     0.37      1015.0     0       202         1       158        7.76     264      -35.8
   05/01/2017 06:40      52.6      52.1       64     40.5      0.00     18.24      73.2     0.37      1015.0     1       139         1       144        7.75     264      -39.2
   05/01/2017 06:30      52.2      51.7       64     39.9      0.00     18.24      73.3     0.37      1015.0     2       148         2       153        7.75     264      -43.5
   05/01/2017 06:20      51.9      51.1       61     38.6      0.00     18.24      73.4     0.37      1015.0     1       188         2       141        7.75     264      -47.2
   05/01/2017 06:10      51.2      50.8       65     39.5      0.00     18.24      73.4     0.37      1015.0     1       158         2       139        7.75     264      -51.0
   05/01/2017 06:00      51.8      51.0       61     38.4      0.00     18.24      73.4     0.37      1015.0     1       131         2       118        7.75     264      -53.7
   05/01/2017 05:50      52.2      51.8       58     37.6      0.00     18.24      73.5     0.37      1014.0     1       238         2       271        7.75     264      -54.1
   05/01/2017 05:40      52.1      51.4       61     38.8      0.00     18.24      73.7     0.37      1014.0     1       260         2       242        7.75     264      -54.5
   05/01/2017 05:30      51.8      51.3       61     38.7      0.00     18.24      73.5     0.37      1014.0     1       114         1       110        7.75     264      -54.5
   05/01/2017 05:20      52.5      51.8       57     37.5      0.00     18.24      73.5     0.37      1015.0     1       180         2       141        7.75     264      -54.8
   05/01/2017 05:10      52.3      51.8       59     38.1      0.00     18.24      73.8     0.37      1015.0     1       196         1       241        7.76     264      -55.6
   05/01/2017 05:00      52.4      51.9       58     38.0      0.00     18.24      73.7     0.37      1015.0     2       141         3       139        7.76     264      -54.7
   05/01/2017 04:50      52.4      51.9       56     37.0      0.00     18.24      73.7     0.37      1015.0     1       123         2       120        7.76     264      -56.1
   05/01/2017 04:40      52.6      52.3       53     35.7      0.00     18.24      73.7     0.37      1015.0     1       147         2       153        7.76     264      -55.8
   05/01/2017 04:30      52.8      52.5       53     35.9      0.00     18.24      73.9     0.37      1015.0     1        75         1       114        7.76     264      -57.0
   05/01/2017 04:20      52.7      52.5       54     36.3      0.00     18.24      73.9     0.37      1015.0     1       171         2       128        7.76     263      -57.6
   05/01/2017 04:10      52.8      52.5       55     36.8      0.00     18.24      74.0     0.37      1015.0     1       158         2       142        7.76     263      -58.2
   05/01/2017 04:00      53.3      52.8       51     35.6      0.00     18.24      74.0     0.37      1015.0     1       184         2       280        7.76     263      -58.7
   05/01/2017 03:50      53.8      52.9       51     35.8      0.00     18.24      73.8     0.37      1015.0     2       165         2       123        7.76     263      -59.0
   05/01/2017 03:40      53.4      53.1       52     36.2      0.00     18.24      74.0     0.37      1015.0     1       142         2       136        7.76     263      -59.8
   05/01/2017 03:30      53.8      53.4       51     35.7      0.00     18.24      73.9     0.37      1015.0     1       167         2       107        7.76     263      -59.9
   05/01/2017 03:20      53.6      53.1       52     36.1      0.00     18.24      73.9     0.37      1015.0     2       169         3       160        7.76     263      -60.2
   05/01/2017 03:10      53.6      53.3       51     35.7      0.00     18.24      74.2     0.37      1015.0     2       167         3       144        7.76     263      -61.2
   05/01/2017 03:00      54.2      53.3       49     35.1      0.00     18.24      74.2     0.37      1015.0     2       165         3       156        7.76     263      -61.6
   05/01/2017 02:50      54.8      54.2       46     34.2      0.00     18.24      74.1     0.37      1015.0     2       171         3       194        7.76     263      -60.9
   05/01/2017 02:40      55.0      54.6       46     34.4      0.00     18.24      74.0     0.37      1015.0     1       182         2       125        7.76     263      -61.0
   05/01/2017 02:30      55.4      54.6       48     35.4      0.00     18.24      74.2     0.37      1015.0     1       141         2       127        7.77     263      -61.1
   05/01/2017 02:20      55.6      55.2       46     34.7      0.00     18.24      74.3     0.37      1015.0     1       206         1       219        7.77     263      -61.0
   05/01/2017 02:10      55.9      55.2       47     35.5      0.00     18.24      74.2     0.37      1015.0     1       131         2       148        7.77     263      -61.8
   05/01/2017 02:00      56.2      55.3       45     34.6      0.00     18.24      74.5     0.37      1015.0     1       147         2       146        7.77     263      -61.3
   05/01/2017 01:50      56.0      55.7       45     34.6      0.00     18.24      74.4     0.37      1015.0     1       108         1        90        7.77     262      -61.9
   05/01/2017 01:40      56.5      55.7       45     35.0      0.00     18.24      74.3     0.37      1015.0     1       123         2       113        7.77     263      -61.9
   05/01/2017 01:30      57.6      56.8       41     34.0      0.00     18.24      74.4     0.37      1015.0     1       142         2       141        7.77     262      -61.4
   05/01/2017 01:20      57.7      57.0       39     32.5      0.00     18.24      74.5     0.37      1015.0     1       151         1       134        7.77     262      -61.4
   05/01/2017 01:10      57.7      57.0       39     32.9      0.00     18.24      74.4     0.37      1015.0     1       179         2       145        7.78     262      -62.8
   05/01/2017 01:00      57.8      57.0       39     32.4      0.00     18.24      74.4     0.37      1015.0     1       261         2       155        7.78     262      -63.1
   05/01/2017 00:50      57.6      57.3       40     33.1      0.00     18.24      74.5     0.37      1015.0     2       153         3       141        7.78     262      -64.0
   05/01/2017 00:40      58.1      57.5       39     33.3      0.00     18.24      74.7     0.37      1015.0     2       150         4       136        7.78     262      -64.5
   05/01/2017 00:30      58.8      58.1       37     32.1      0.00     18.24      74.4     0.37      1015.0     1       165         2       131        7.78     262      -64.5
   05/01/2017 00:20      58.6      58.0       37     32.0      0.00     18.24      74.6     0.37      1015.0     1       164         2       141        7.78     262      -65.2
   05/01/2017 00:10      59.4      58.8       34     31.0      0.00     18.24      74.7     0.37      1015.0     2       152         2       131        7.79     262      -65.2
   05/01/2017 00:00      59.3      58.7       36     31.9      0.00     18.24      74.6     0.37      1015.0     1       140         2       140        7.79     262      -66.3


Back to data home page